<?xml version="1.0" encoding="UTF-8" standalone="no" ?>
<gpx xmlns="http://www.topografix.com/GPX/1/1" xmlns:xsi="http://www.w3.org/2001/XMLSchema-instance" xsi:schemaLocation="http://www.topografix.com/GPX/1/1 http://www.topografix.com/GPX/1/1/gpx.xsd" version="1.1" creator="VisuGPX - https://www.visugpx.com">
  <metadata>
    <name>Edirne-Mostar</name>
  </metadata>
  <trk>
    <name><![CDATA[Tour d'Europe: étape 613]]></name>
    <extensions>
      <line xmlns="http://www.topografix.com/GPX/gpx_style/0/2">
        <color>FF00FF</color>
        <width>4</width>
      </line>
    </extensions>
    <trkseg>
      <trkpt lat="42.0801" lon="25.1897">
        <ele>193.734324</ele>
        <time>2022-03-03T07:51:04.390Z</time>
      </trkpt>
      <trkpt lat="42.0801" lon="25.18955">
        <ele>193.734324</ele>
        <time>2022-03-03T07:51:05.371Z</time>
      </trkpt>
      <trkpt lat="42.08015" lon="25.18944">
        <ele>193.734324</ele>
        <time>2022-03-03T07:51:10.406Z</time>
      </trkpt>
      <trkpt lat="42.08022" lon="25.18933">
        <ele>193.734324</ele>
        <time>2022-03-03T07:51:14.415Z</time>
      </trkpt>
      <trkpt lat="42.08026" lon="25.18922">
        <ele>193.734324</ele>
        <time>2022-03-03T07:51:17.423Z</time>
      </trkpt>
      <trkpt lat="42.08028" lon="25.18908">
        <ele>193.734324</ele>
        <time>2022-03-03T07:51:21.431Z</time>
      </trkpt>
      <trkpt lat="42.08029" lon="25.18893">
        <ele>193.734324</ele>
        <time>2022-03-03T07:51:26.389Z</time>
      </trkpt>
      <trkpt lat="42.08029" lon="25.18879">
        <ele>193.734324</ele>
        <time>2022-03-03T07:51:31.407Z</time>
      </trkpt>
      <trkpt lat="42.0803" lon="25.18865">
        <ele>193.734324</ele>
        <time>2022-03-03T07:51:36.407Z</time>
      </trkpt>
      <trkpt lat="42.0803" lon="25.18853">
        <ele>193.781762</ele>
        <time>2022-03-03T07:51:40.414Z</time>
      </trkpt>
      <trkpt lat="42.08028" lon="25.18839">
        <ele>193.948148</ele>
        <time>2022-03-03T07:51:45.384Z</time>
      </trkpt>
      <trkpt lat="42.08024" lon="25.18825">
        <ele>194.13066</ele>
        <time>2022-03-03T07:51:53.390Z</time>
      </trkpt>
      <trkpt lat="42.08022" lon="25.18812">
        <ele>194.294043</ele>
        <time>2022-03-03T07:51:59.368Z</time>
      </trkpt>
      <trkpt lat="42.08013" lon="25.18797">
        <ele>194.533051</ele>
        <time>2022-03-03T07:52:29.414Z</time>
      </trkpt>
      <trkpt lat="42.08006" lon="25.18789">
        <ele>194.685413</ele>
        <time>2022-03-03T07:52:33.398Z</time>
      </trkpt>
      <trkpt lat="42.07998" lon="25.1878">
        <ele>194.840243</ele>
        <time>2022-03-03T07:52:37.421Z</time>
      </trkpt>
      <trkpt lat="42.07991" lon="25.1877">
        <ele>195.020117</ele>
        <time>2022-03-03T07:52:41.401Z</time>
      </trkpt>
      <trkpt lat="42.07984" lon="25.18759">
        <ele>195.189777</ele>
        <time>2022-03-03T07:52:45.409Z</time>
      </trkpt>
      <trkpt lat="42.07977" lon="25.18749">
        <ele>195.353362</ele>
        <time>2022-03-03T07:52:49.437Z</time>
      </trkpt>
      <trkpt lat="42.0797" lon="25.18737">
        <ele>195.54341</ele>
        <time>2022-03-03T07:52:53.389Z</time>
      </trkpt>
      <trkpt lat="42.07964" lon="25.18726">
        <ele>195.710923</ele>
        <time>2022-03-03T07:52:57.411Z</time>
      </trkpt>
      <trkpt lat="42.07958" lon="25.18715">
        <ele>195.873831</ele>
        <time>2022-03-03T07:53:01.428Z</time>
      </trkpt>
      <trkpt lat="42.07951" lon="25.18705">
        <ele>196.033049</ele>
        <time>2022-03-03T07:53:05.410Z</time>
      </trkpt>
      <trkpt lat="42.07945" lon="25.18693">
        <ele>196.214924</ele>
        <time>2022-03-03T07:53:09.403Z</time>
      </trkpt>
      <trkpt lat="42.07939" lon="25.18681">
        <ele>196.399016</ele>
        <time>2022-03-03T07:53:13.403Z</time>
      </trkpt>
      <trkpt lat="42.07929" lon="25.18679">
        <ele>196.549301</ele>
        <time>2022-03-03T07:53:17.374Z</time>
      </trkpt>
      <trkpt lat="42.07919" lon="25.18679">
        <ele>196.570281</ele>
        <time>2022-03-03T07:53:20.384Z</time>
      </trkpt>
      <trkpt lat="42.07908" lon="25.18678">
        <ele>196.202919</ele>
        <time>2022-03-03T07:53:23.396Z</time>
      </trkpt>
      <trkpt lat="42.07898" lon="25.1868">
        <ele>195.866337</ele>
        <time>2022-03-03T07:53:26.406Z</time>
      </trkpt>
      <trkpt lat="42.07887" lon="25.18684">
        <ele>195.510562</ele>
        <time>2022-03-03T07:53:29.401Z</time>
      </trkpt>
      <trkpt lat="42.07876" lon="25.18688">
        <ele>195.13472</ele>
        <time>2022-03-03T07:53:33.428Z</time>
      </trkpt>
      <trkpt lat="42.07867" lon="25.18693">
        <ele>194.805046</ele>
        <time>2022-03-03T07:53:37.393Z</time>
      </trkpt>
      <trkpt lat="42.07857" lon="25.18695">
        <ele>194.459593</ele>
        <time>2022-03-03T07:53:40.394Z</time>
      </trkpt>
      <trkpt lat="42.07847" lon="25.18697">
        <ele>194.129964</ele>
        <time>2022-03-03T07:53:43.391Z</time>
      </trkpt>
      <trkpt lat="42.07837" lon="25.187">
        <ele>193.788679</ele>
        <time>2022-03-03T07:53:46.394Z</time>
      </trkpt>
      <trkpt lat="42.07827" lon="25.18703">
        <ele>193.463183</ele>
        <time>2022-03-03T07:53:49.413Z</time>
      </trkpt>
      <trkpt lat="42.07816" lon="25.18705">
        <ele>193.0862</ele>
        <time>2022-03-03T07:53:53.386Z</time>
      </trkpt>
      <trkpt lat="42.07804" lon="25.18709">
        <ele>192.685243</ele>
        <time>2022-03-03T07:53:57.397Z</time>
      </trkpt>
      <trkpt lat="42.07794" lon="25.18712">
        <ele>192.360394</ele>
        <time>2022-03-03T07:54:00.395Z</time>
      </trkpt>
      <trkpt lat="42.07785" lon="25.18713">
        <ele>192.045821</ele>
        <time>2022-03-03T07:54:03.411Z</time>
      </trkpt>
      <trkpt lat="42.07774" lon="25.18715">
        <ele>191.692737</ele>
        <time>2022-03-03T07:54:07.407Z</time>
      </trkpt>
      <trkpt lat="42.07763" lon="25.18718">
        <ele>191.328306</ele>
        <time>2022-03-03T07:54:11.409Z</time>
      </trkpt>
      <trkpt lat="42.07752" lon="25.1872">
        <ele>190.9384</ele>
        <time>2022-03-03T07:54:15.400Z</time>
      </trkpt>
      <trkpt lat="42.07741" lon="25.18721">
        <ele>190.819654</ele>
        <time>2022-03-03T07:54:19.396Z</time>
      </trkpt>
      <trkpt lat="42.07731" lon="25.18724">
        <ele>191.019799</ele>
        <time>2022-03-03T07:54:23.420Z</time>
      </trkpt>
      <trkpt lat="42.07721" lon="25.18728">
        <ele>191.232078</ele>
        <time>2022-03-03T07:54:27.393Z</time>
      </trkpt>
      <trkpt lat="42.07712" lon="25.18731">
        <ele>191.425201</ele>
        <time>2022-03-03T07:54:31.407Z</time>
      </trkpt>
      <trkpt lat="42.077" lon="25.18733">
        <ele>191.667049</ele>
        <time>2022-03-03T07:54:35.392Z</time>
      </trkpt>
      <trkpt lat="42.07691" lon="25.18736">
        <ele>191.856077</ele>
        <time>2022-03-03T07:54:38.410Z</time>
      </trkpt>
      <trkpt lat="42.07682" lon="25.18737">
        <ele>192.042743</ele>
        <time>2022-03-03T07:54:41.437Z</time>
      </trkpt>
      <trkpt lat="42.07673" lon="25.18738">
        <ele>192.233836</ele>
        <time>2022-03-03T07:54:44.402Z</time>
      </trkpt>
      <trkpt lat="42.07663" lon="25.1874">
        <ele>192.428937</ele>
        <time>2022-03-03T07:54:47.507Z</time>
      </trkpt>
      <trkpt lat="42.07652" lon="25.18744">
        <ele>192.66264</ele>
        <time>2022-03-03T07:54:51.420Z</time>
      </trkpt>
      <trkpt lat="42.07642" lon="25.18745">
        <ele>192.874952</ele>
        <time>2022-03-03T07:54:55.427Z</time>
      </trkpt>
      <trkpt lat="42.07632" lon="25.18749">
        <ele>193.067159</ele>
        <time>2022-03-03T07:54:59.473Z</time>
      </trkpt>
      <trkpt lat="42.07623" lon="25.18751">
        <ele>193.255375</ele>
        <time>2022-03-03T07:55:02.395Z</time>
      </trkpt>
      <trkpt lat="42.07615" lon="25.18756">
        <ele>193.439914</ele>
        <time>2022-03-03T07:55:05.375Z</time>
      </trkpt>
      <trkpt lat="42.07606" lon="25.18761">
        <ele>193.624245</ele>
        <time>2022-03-03T07:55:08.414Z</time>
      </trkpt>
      <trkpt lat="42.07595" lon="25.18763">
        <ele>193.850076</ele>
        <time>2022-03-03T07:55:12.400Z</time>
      </trkpt>
      <trkpt lat="42.07586" lon="25.18764">
        <ele>194.037014</ele>
        <time>2022-03-03T07:55:15.385Z</time>
      </trkpt>
      <trkpt lat="42.07577" lon="25.18766">
        <ele>194.223244</ele>
        <time>2022-03-03T07:55:18.393Z</time>
      </trkpt>
      <trkpt lat="42.07566" lon="25.1877">
        <ele>194.440574</ele>
        <time>2022-03-03T07:55:22.395Z</time>
      </trkpt>
      <trkpt lat="42.07556" lon="25.18772">
        <ele>194.628484</ele>
        <time>2022-03-03T07:55:26.413Z</time>
      </trkpt>
      <trkpt lat="42.07546" lon="25.18774">
        <ele>194.811901</ele>
        <time>2022-03-03T07:55:30.411Z</time>
      </trkpt>
      <trkpt lat="42.07534" lon="25.18775">
        <ele>195.025129</ele>
        <time>2022-03-03T07:55:34.397Z</time>
      </trkpt>
      <trkpt lat="42.07522" lon="25.18777">
        <ele>195.23558</ele>
        <time>2022-03-03T07:55:38.407Z</time>
      </trkpt>
      <trkpt lat="42.07511" lon="25.1878">
        <ele>195.440679</ele>
        <time>2022-03-03T07:55:42.418Z</time>
      </trkpt>
      <trkpt lat="42.07501" lon="25.18783">
        <ele>195.617819</ele>
        <time>2022-03-03T07:55:46.403Z</time>
      </trkpt>
      <trkpt lat="42.07492" lon="25.18784">
        <ele>195.789058</ele>
        <time>2022-03-03T07:55:50.388Z</time>
      </trkpt>
      <trkpt lat="42.0748" lon="25.18784">
        <ele>195.988966</ele>
        <time>2022-03-03T07:55:54.405Z</time>
      </trkpt>
      <trkpt lat="42.07472" lon="25.18776">
        <ele>196.173226</ele>
        <time>2022-03-03T07:55:57.386Z</time>
      </trkpt>
      <trkpt lat="42.07464" lon="25.18766">
        <ele>196.36896</ele>
        <time>2022-03-03T07:56:00.383Z</time>
      </trkpt>
      <trkpt lat="42.07456" lon="25.18756">
        <ele>196.556532</ele>
        <time>2022-03-03T07:56:03.406Z</time>
      </trkpt>
      <trkpt lat="42.07448" lon="25.18745">
        <ele>196.764477</ele>
        <time>2022-03-03T07:56:07.382Z</time>
      </trkpt>
      <trkpt lat="42.0744" lon="25.18736">
        <ele>196.947244</ele>
        <time>2022-03-03T07:56:10.390Z</time>
      </trkpt>
      <trkpt lat="42.07431" lon="25.18726">
        <ele>197.159778</ele>
        <time>2022-03-03T07:56:13.379Z</time>
      </trkpt>
      <trkpt lat="42.07421" lon="25.18717">
        <ele>197.367717</ele>
        <time>2022-03-03T07:56:16.410Z</time>
      </trkpt>
      <trkpt lat="42.07412" lon="25.18707">
        <ele>197.57742</ele>
        <time>2022-03-03T07:56:19.394Z</time>
      </trkpt>
      <trkpt lat="42.07403" lon="25.18698">
        <ele>197.574222</ele>
        <time>2022-03-03T07:56:22.393Z</time>
      </trkpt>
      <trkpt lat="42.07395" lon="25.18689">
        <ele>197.567546</ele>
        <time>2022-03-03T07:56:25.371Z</time>
      </trkpt>
      <trkpt lat="42.07386" lon="25.1868">
        <ele>197.560879</ele>
        <time>2022-03-03T07:56:28.395Z</time>
      </trkpt>
      <trkpt lat="42.07379" lon="25.18671">
        <ele>197.554731</ele>
        <time>2022-03-03T07:56:31.399Z</time>
      </trkpt>
      <trkpt lat="42.07371" lon="25.18662">
        <ele>197.548446</ele>
        <time>2022-03-03T07:56:34.381Z</time>
      </trkpt>
      <trkpt lat="42.07364" lon="25.18653">
        <ele>197.542649</ele>
        <time>2022-03-03T07:56:37.383Z</time>
      </trkpt>
      <trkpt lat="42.07356" lon="25.18645">
        <ele>197.536328</ele>
        <time>2022-03-03T07:56:41.382Z</time>
      </trkpt>
      <trkpt lat="42.07349" lon="25.18636">
        <ele>197.530313</ele>
        <time>2022-03-03T07:56:44.380Z</time>
      </trkpt>
      <trkpt lat="42.07341" lon="25.18628">
        <ele>197.52444</ele>
        <time>2022-03-03T07:56:47.386Z</time>
      </trkpt>
      <trkpt lat="42.07332" lon="25.18618">
        <ele>197.517198</ele>
        <time>2022-03-03T07:56:51.386Z</time>
      </trkpt>
      <trkpt lat="42.07323" lon="25.18608">
        <ele>197.510139</ele>
        <time>2022-03-03T07:56:55.392Z</time>
      </trkpt>
      <trkpt lat="42.07315" lon="25.18598">
        <ele>197.50324</ele>
        <time>2022-03-03T07:56:59.387Z</time>
      </trkpt>
      <trkpt lat="42.07306" lon="25.18589">
        <ele>197.496228</ele>
        <time>2022-03-03T07:57:03.394Z</time>
      </trkpt>
      <trkpt lat="42.07299" lon="25.18581">
        <ele>197.490567</ele>
        <time>2022-03-03T07:57:06.391Z</time>
      </trkpt>
      <trkpt lat="42.07291" lon="25.18573">
        <ele>197.484599</ele>
        <time>2022-03-03T07:57:09.393Z</time>
      </trkpt>
      <trkpt lat="42.07282" lon="25.18563">
        <ele>197.477347</ele>
        <time>2022-03-03T07:57:13.418Z</time>
      </trkpt>
      <trkpt lat="42.07273" lon="25.18552">
        <ele>197.464739</ele>
        <time>2022-03-03T07:57:17.398Z</time>
      </trkpt>
      <trkpt lat="42.07265" lon="25.18544">
        <ele>197.385761</ele>
        <time>2022-03-03T07:57:20.400Z</time>
      </trkpt>
      <trkpt lat="42.07258" lon="25.18535">
        <ele>197.308771</ele>
        <time>2022-03-03T07:57:23.393Z</time>
      </trkpt>
      <trkpt lat="42.07251" lon="25.18526">
        <ele>197.229017</ele>
        <time>2022-03-03T07:57:26.397Z</time>
      </trkpt>
      <trkpt lat="42.07244" lon="25.18517">
        <ele>197.153851</ele>
        <time>2022-03-03T07:57:29.432Z</time>
      </trkpt>
      <trkpt lat="42.07238" lon="25.18506">
        <ele>197.074742</ele>
        <time>2022-03-03T07:57:32.390Z</time>
      </trkpt>
      <trkpt lat="42.07231" lon="25.18493">
        <ele>196.980853</ele>
        <time>2022-03-03T07:57:36.382Z</time>
      </trkpt>
      <trkpt lat="42.07225" lon="25.18481">
        <ele>196.891724</ele>
        <time>2022-03-03T07:57:40.390Z</time>
      </trkpt>
      <trkpt lat="42.07218" lon="25.1847">
        <ele>196.805387</ele>
        <time>2022-03-03T07:57:44.381Z</time>
      </trkpt>
      <trkpt lat="42.07212" lon="25.18457">
        <ele>196.713791</ele>
        <time>2022-03-03T07:57:48.393Z</time>
      </trkpt>
      <trkpt lat="42.07206" lon="25.18447">
        <ele>196.641828</ele>
        <time>2022-03-03T07:57:51.432Z</time>
      </trkpt>
      <trkpt lat="42.07199" lon="25.18435">
        <ele>196.546935</ele>
        <time>2022-03-03T07:57:55.394Z</time>
      </trkpt>
      <trkpt lat="42.07191" lon="25.18423">
        <ele>196.451891</ele>
        <time>2022-03-03T07:57:59.390Z</time>
      </trkpt>
      <trkpt lat="42.07184" lon="25.1841">
        <ele>196.356557</ele>
        <time>2022-03-03T07:58:03.371Z</time>
      </trkpt>
      <trkpt lat="42.07177" lon="25.18398">
        <ele>196.263587</ele>
        <time>2022-03-03T07:58:07.382Z</time>
      </trkpt>
      <trkpt lat="42.07171" lon="25.18388">
        <ele>196.189103</ele>
        <time>2022-03-03T07:58:10.407Z</time>
      </trkpt>
      <trkpt lat="42.07165" lon="25.18378">
        <ele>196.116176</ele>
        <time>2022-03-03T07:58:13.389Z</time>
      </trkpt>
      <trkpt lat="42.0716" lon="25.18367">
        <ele>196.039334</ele>
        <time>2022-03-03T07:58:16.387Z</time>
      </trkpt>
      <trkpt lat="42.07156" lon="25.18355">
        <ele>196.130127</ele>
        <time>2022-03-03T07:58:19.398Z</time>
      </trkpt>
      <trkpt lat="42.07151" lon="25.18342">
        <ele>196.252945</ele>
        <time>2022-03-03T07:58:22.446Z</time>
      </trkpt>
      <trkpt lat="42.07147" lon="25.18329">
        <ele>196.374665</ele>
        <time>2022-03-03T07:58:25.402Z</time>
      </trkpt>
      <trkpt lat="42.07143" lon="25.18315">
        <ele>196.498189</ele>
        <time>2022-03-03T07:58:28.403Z</time>
      </trkpt>
      <trkpt lat="42.07139" lon="25.18301">
        <ele>196.620936</ele>
        <time>2022-03-03T07:58:31.423Z</time>
      </trkpt>
      <trkpt lat="42.07136" lon="25.18288">
        <ele>196.738032</ele>
        <time>2022-03-03T07:58:34.384Z</time>
      </trkpt>
      <trkpt lat="42.07134" lon="25.18275">
        <ele>196.849294</ele>
        <time>2022-03-03T07:58:37.422Z</time>
      </trkpt>
      <trkpt lat="42.07131" lon="25.18262">
        <ele>196.957693</ele>
        <time>2022-03-03T07:58:40.395Z</time>
      </trkpt>
      <trkpt lat="42.07129" lon="25.18249">
        <ele>197.068167</ele>
        <time>2022-03-03T07:58:43.382Z</time>
      </trkpt>
      <trkpt lat="42.07127" lon="25.18236">
        <ele>197.18335</ele>
        <time>2022-03-03T07:58:46.419Z</time>
      </trkpt>
      <trkpt lat="42.07125" lon="25.18223">
        <ele>197.293427</ele>
        <time>2022-03-03T07:58:49.426Z</time>
      </trkpt>
      <trkpt lat="42.07122" lon="25.1821">
        <ele>197.40581</ele>
        <time>2022-03-03T07:58:52.378Z</time>
      </trkpt>
      <trkpt lat="42.07119" lon="25.18197">
        <ele>197.52299</ele>
        <time>2022-03-03T07:58:55.386Z</time>
      </trkpt>
      <trkpt lat="42.07116" lon="25.18183">
        <ele>197.646259</ele>
        <time>2022-03-03T07:58:58.380Z</time>
      </trkpt>
      <trkpt lat="42.07112" lon="25.18169">
        <ele>197.765559</ele>
        <time>2022-03-03T07:59:01.374Z</time>
      </trkpt>
      <trkpt lat="42.0711" lon="25.18156">
        <ele>197.873797</ele>
        <time>2022-03-03T07:59:04.382Z</time>
      </trkpt>
      <trkpt lat="42.07105" lon="25.18143">
        <ele>197.993396</ele>
        <time>2022-03-03T07:59:07.383Z</time>
      </trkpt>
      <trkpt lat="42.07099" lon="25.18131">
        <ele>198.198946</ele>
        <time>2022-03-03T07:59:10.373Z</time>
      </trkpt>
      <trkpt lat="42.07093" lon="25.18119">
        <ele>198.462707</ele>
        <time>2022-03-03T07:59:13.390Z</time>
      </trkpt>
      <trkpt lat="42.07086" lon="25.18109">
        <ele>198.721247</ele>
        <time>2022-03-03T07:59:16.391Z</time>
      </trkpt>
      <trkpt lat="42.07079" lon="25.18099">
        <ele>198.973587</ele>
        <time>2022-03-03T07:59:19.415Z</time>
      </trkpt>
      <trkpt lat="42.07072" lon="25.18088">
        <ele>199.255469</ele>
        <time>2022-03-03T07:59:22.403Z</time>
      </trkpt>
      <trkpt lat="42.07064" lon="25.18078">
        <ele>199.528475</ele>
        <time>2022-03-03T07:59:25.407Z</time>
      </trkpt>
      <trkpt lat="42.07056" lon="25.18067">
        <ele>199.803247</ele>
        <time>2022-03-03T07:59:28.374Z</time>
      </trkpt>
      <trkpt lat="42.07049" lon="25.18057">
        <ele>200.053189</ele>
        <time>2022-03-03T07:59:31.386Z</time>
      </trkpt>
      <trkpt lat="42.07043" lon="25.18046">
        <ele>200.310335</ele>
        <time>2022-03-03T07:59:34.385Z</time>
      </trkpt>
      <trkpt lat="42.07035" lon="25.18035">
        <ele>200.601602</ele>
        <time>2022-03-03T07:59:38.394Z</time>
      </trkpt>
      <trkpt lat="42.07028" lon="25.18022">
        <ele>200.892488</ele>
        <time>2022-03-03T07:59:42.407Z</time>
      </trkpt>
      <trkpt lat="42.07022" lon="25.18013">
        <ele>201.125548</ele>
        <time>2022-03-03T07:59:45.390Z</time>
      </trkpt>
      <trkpt lat="42.07015" lon="25.18004">
        <ele>201.360528</ele>
        <time>2022-03-03T07:59:48.386Z</time>
      </trkpt>
      <trkpt lat="42.07009" lon="25.17994">
        <ele>201.60299</ele>
        <time>2022-03-03T07:59:51.404Z</time>
      </trkpt>
      <trkpt lat="42.07002" lon="25.17984">
        <ele>201.85267</ele>
        <time>2022-03-03T07:59:54.400Z</time>
      </trkpt>
      <trkpt lat="42.06995" lon="25.17974">
        <ele>202.106751</ele>
        <time>2022-03-03T07:59:57.393Z</time>
      </trkpt>
      <trkpt lat="42.06987" lon="25.17963">
        <ele>202.381654</ele>
        <time>2022-03-03T08:00:00.389Z</time>
      </trkpt>
      <trkpt lat="42.06979" lon="25.17953">
        <ele>202.649899</ele>
        <time>2022-03-03T08:00:03.411Z</time>
      </trkpt>
      <trkpt lat="42.06972" lon="25.17942">
        <ele>202.889625</ele>
        <time>2022-03-03T08:00:06.426Z</time>
      </trkpt>
      <trkpt lat="42.06964" lon="25.17931">
        <ele>203.132327</ele>
        <time>2022-03-03T08:00:09.384Z</time>
      </trkpt>
      <trkpt lat="42.06957" lon="25.17921">
        <ele>203.36008</ele>
        <time>2022-03-03T08:00:12.392Z</time>
      </trkpt>
      <trkpt lat="42.06949" lon="25.1791">
        <ele>203.599682</ele>
        <time>2022-03-03T08:00:15.402Z</time>
      </trkpt>
      <trkpt lat="42.06942" lon="25.17901">
        <ele>203.820941</ele>
        <time>2022-03-03T08:00:18.419Z</time>
      </trkpt>
      <trkpt lat="42.06936" lon="25.17891">
        <ele>204.02723</ele>
        <time>2022-03-03T08:00:21.344Z</time>
      </trkpt>
      <trkpt lat="42.0693" lon="25.17881">
        <ele>204.226737</ele>
        <time>2022-03-03T08:00:24.382Z</time>
      </trkpt>
      <trkpt lat="42.06922" lon="25.17869">
        <ele>204.497294</ele>
        <time>2022-03-03T08:00:28.398Z</time>
      </trkpt>
      <trkpt lat="42.06915" lon="25.17859">
        <ele>204.707625</ele>
        <time>2022-03-03T08:00:31.411Z</time>
      </trkpt>
      <trkpt lat="42.06908" lon="25.1785">
        <ele>204.919002</ele>
        <time>2022-03-03T08:00:34.388Z</time>
      </trkpt>
      <trkpt lat="42.06902" lon="25.1784">
        <ele>205.125037</ele>
        <time>2022-03-03T08:00:37.373Z</time>
      </trkpt>
      <trkpt lat="42.06895" lon="25.17831">
        <ele>205.346296</ele>
        <time>2022-03-03T08:00:40.388Z</time>
      </trkpt>
      <trkpt lat="42.06887" lon="25.17821">
        <ele>205.568888</ele>
        <time>2022-03-03T08:00:43.391Z</time>
      </trkpt>
      <trkpt lat="42.06881" lon="25.17812">
        <ele>205.765758</ele>
        <time>2022-03-03T08:00:46.464Z</time>
      </trkpt>
      <trkpt lat="42.06874" lon="25.17803">
        <ele>205.985126</ele>
        <time>2022-03-03T08:00:49.387Z</time>
      </trkpt>
      <trkpt lat="42.06867" lon="25.17792">
        <ele>206.211103</ele>
        <time>2022-03-03T08:00:52.394Z</time>
      </trkpt>
      <trkpt lat="42.0686" lon="25.17783">
        <ele>206.417839</ele>
        <time>2022-03-03T08:00:55.387Z</time>
      </trkpt>
      <trkpt lat="42.06854" lon="25.17773">
        <ele>206.40911</ele>
        <time>2022-03-03T08:00:58.402Z</time>
      </trkpt>
      <trkpt lat="42.06847" lon="25.17762">
        <ele>206.340733</ele>
        <time>2022-03-03T08:01:02.388Z</time>
      </trkpt>
      <trkpt lat="42.06841" lon="25.17751">
        <ele>206.273918</ele>
        <time>2022-03-03T08:01:06.386Z</time>
      </trkpt>
      <trkpt lat="42.06833" lon="25.17741">
        <ele>206.203196</ele>
        <time>2022-03-03T08:01:10.386Z</time>
      </trkpt>
      <trkpt lat="42.06827" lon="25.17732">
        <ele>206.14628</ele>
        <time>2022-03-03T08:01:13.382Z</time>
      </trkpt>
      <trkpt lat="42.0682" lon="25.17722">
        <ele>206.086365</ele>
        <time>2022-03-03T08:01:16.404Z</time>
      </trkpt>
      <trkpt lat="42.06814" lon="25.17713">
        <ele>206.027219</ele>
        <time>2022-03-03T08:01:19.427Z</time>
      </trkpt>
      <trkpt lat="42.06806" lon="25.17701">
        <ele>205.953776</ele>
        <time>2022-03-03T08:01:23.393Z</time>
      </trkpt>
      <trkpt lat="42.06799" lon="25.17691">
        <ele>205.890516</ele>
        <time>2022-03-03T08:01:27.400Z</time>
      </trkpt>
      <trkpt lat="42.06794" lon="25.17681">
        <ele>205.833831</ele>
        <time>2022-03-03T08:01:31.398Z</time>
      </trkpt>
      <trkpt lat="42.06786" lon="25.1767">
        <ele>205.762689</ele>
        <time>2022-03-03T08:01:36.387Z</time>
      </trkpt>
      <trkpt lat="42.06778" lon="25.17661">
        <ele>205.697295</ele>
        <time>2022-03-03T08:01:40.366Z</time>
      </trkpt>
      <trkpt lat="42.06771" lon="25.17651">
        <ele>205.630129</ele>
        <time>2022-03-03T08:01:44.386Z</time>
      </trkpt>
      <trkpt lat="42.06763" lon="25.17641">
        <ele>205.566395</ele>
        <time>2022-03-03T08:01:48.384Z</time>
      </trkpt>
      <trkpt lat="42.06756" lon="25.17631">
        <ele>205.500407</ele>
        <time>2022-03-03T08:01:52.397Z</time>
      </trkpt>
      <trkpt lat="42.0675" lon="25.1762">
        <ele>205.438904</ele>
        <time>2022-03-03T08:01:56.395Z</time>
      </trkpt>
      <trkpt lat="42.06744" lon="25.1761">
        <ele>205.37541</ele>
        <time>2022-03-03T08:02:00.392Z</time>
      </trkpt>
      <trkpt lat="42.06737" lon="25.17599">
        <ele>205.374807</ele>
        <time>2022-03-03T08:02:04.385Z</time>
      </trkpt>
      <trkpt lat="42.06731" lon="25.1759">
        <ele>205.597753</ele>
        <time>2022-03-03T08:02:08.440Z</time>
      </trkpt>
      <trkpt lat="42.06724" lon="25.17579">
        <ele>205.849035</ele>
        <time>2022-03-03T08:02:12.394Z</time>
      </trkpt>
      <trkpt lat="42.06717" lon="25.17567">
        <ele>206.103654</ele>
        <time>2022-03-03T08:02:16.392Z</time>
      </trkpt>
      <trkpt lat="42.06711" lon="25.17557">
        <ele>206.330468</ele>
        <time>2022-03-03T08:02:20.403Z</time>
      </trkpt>
      <trkpt lat="42.06705" lon="25.17547">
        <ele>206.55879</ele>
        <time>2022-03-03T08:02:24.380Z</time>
      </trkpt>
      <trkpt lat="42.067" lon="25.17537">
        <ele>206.770356</ele>
        <time>2022-03-03T08:02:28.403Z</time>
      </trkpt>
      <trkpt lat="42.06694" lon="25.17527">
        <ele>206.981844</ele>
        <time>2022-03-03T08:02:32.394Z</time>
      </trkpt>
      <trkpt lat="42.06689" lon="25.17517">
        <ele>207.206047</ele>
        <time>2022-03-03T08:02:36.398Z</time>
      </trkpt>
      <trkpt lat="42.06684" lon="25.17506">
        <ele>207.421893</ele>
        <time>2022-03-03T08:02:40.390Z</time>
      </trkpt>
      <trkpt lat="42.06677" lon="25.17494">
        <ele>207.675346</ele>
        <time>2022-03-03T08:02:45.392Z</time>
      </trkpt>
      <trkpt lat="42.0667" lon="25.17483">
        <ele>207.931301</ele>
        <time>2022-03-03T08:02:50.404Z</time>
      </trkpt>
      <trkpt lat="42.06664" lon="25.17471">
        <ele>208.183323</ele>
        <time>2022-03-03T08:02:55.382Z</time>
      </trkpt>
      <trkpt lat="42.06658" lon="25.17458">
        <ele>208.445273</ele>
        <time>2022-03-03T08:03:00.423Z</time>
      </trkpt>
      <trkpt lat="42.06654" lon="25.17447">
        <ele>208.671503</ele>
        <time>2022-03-03T08:03:04.382Z</time>
      </trkpt>
      <trkpt lat="42.06649" lon="25.17435">
        <ele>208.908767</ele>
        <time>2022-03-03T08:03:08.415Z</time>
      </trkpt>
      <trkpt lat="42.06643" lon="25.17424">
        <ele>209.143984</ele>
        <time>2022-03-03T08:03:12.400Z</time>
      </trkpt>
      <trkpt lat="42.06638" lon="25.17412">
        <ele>209.382975</ele>
        <time>2022-03-03T08:03:16.393Z</time>
      </trkpt>
      <trkpt lat="42.06632" lon="25.17401">
        <ele>209.546522</ele>
        <time>2022-03-03T08:03:20.390Z</time>
      </trkpt>
      <trkpt lat="42.06627" lon="25.1739">
        <ele>209.606785</ele>
        <time>2022-03-03T08:03:24.383Z</time>
      </trkpt>
      <trkpt lat="42.06622" lon="25.17379">
        <ele>209.666364</ele>
        <time>2022-03-03T08:03:28.407Z</time>
      </trkpt>
      <trkpt lat="42.06616" lon="25.17367">
        <ele>209.732406</ele>
        <time>2022-03-03T08:03:32.393Z</time>
      </trkpt>
      <trkpt lat="42.0661" lon="25.17355">
        <ele>209.800963</ele>
        <time>2022-03-03T08:03:36.408Z</time>
      </trkpt>
      <trkpt lat="42.06605" lon="25.17343">
        <ele>209.86879</ele>
        <time>2022-03-03T08:03:40.384Z</time>
      </trkpt>
      <trkpt lat="42.066" lon="25.17331">
        <ele>209.930346</ele>
        <time>2022-03-03T08:03:44.373Z</time>
      </trkpt>
      <trkpt lat="42.06594" lon="25.17319">
        <ele>209.999634</ele>
        <time>2022-03-03T08:03:48.378Z</time>
      </trkpt>
      <trkpt lat="42.06587" lon="25.17306">
        <ele>210.071508</ele>
        <time>2022-03-03T08:03:52.404Z</time>
      </trkpt>
      <trkpt lat="42.06582" lon="25.17294">
        <ele>210.137947</ele>
        <time>2022-03-03T08:03:56.390Z</time>
      </trkpt>
      <trkpt lat="42.06576" lon="25.17281">
        <ele>210.205906</ele>
        <time>2022-03-03T08:04:00.386Z</time>
      </trkpt>
      <trkpt lat="42.06571" lon="25.17269">
        <ele>210.272707</ele>
        <time>2022-03-03T08:04:04.423Z</time>
      </trkpt>
      <trkpt lat="42.06566" lon="25.17255">
        <ele>210.345615</ele>
        <time>2022-03-03T08:04:08.388Z</time>
      </trkpt>
      <trkpt lat="42.06561" lon="25.17244">
        <ele>210.404207</ele>
        <time>2022-03-03T08:04:11.388Z</time>
      </trkpt>
      <trkpt lat="42.06556" lon="25.17234">
        <ele>210.460881</ele>
        <time>2022-03-03T08:04:14.384Z</time>
      </trkpt>
      <trkpt lat="42.0655" lon="25.17221">
        <ele>210.532135</ele>
        <time>2022-03-03T08:04:18.404Z</time>
      </trkpt>
      <trkpt lat="42.06544" lon="25.17207">
        <ele>210.604181</ele>
        <time>2022-03-03T08:04:22.388Z</time>
      </trkpt>
      <trkpt lat="42.06538" lon="25.17195">
        <ele>210.67923</ele>
        <time>2022-03-03T08:04:26.373Z</time>
      </trkpt>
      <trkpt lat="42.06532" lon="25.17182">
        <ele>210.759823</ele>
        <time>2022-03-03T08:04:30.387Z</time>
      </trkpt>
      <trkpt lat="42.06527" lon="25.17169">
        <ele>210.837443</ele>
        <time>2022-03-03T08:04:34.379Z</time>
      </trkpt>
      <trkpt lat="42.06522" lon="25.17155">
        <ele>210.92215</ele>
        <time>2022-03-03T08:04:38.391Z</time>
      </trkpt>
      <trkpt lat="42.06515" lon="25.17143">
        <ele>211.001056</ele>
        <time>2022-03-03T08:04:42.391Z</time>
      </trkpt>
      <trkpt lat="42.0651" lon="25.17132">
        <ele>211.075443</ele>
        <time>2022-03-03T08:04:46.371Z</time>
      </trkpt>
      <trkpt lat="42.06505" lon="25.17119">
        <ele>211.1527</ele>
        <time>2022-03-03T08:04:50.382Z</time>
      </trkpt>
      <trkpt lat="42.065" lon="25.17107">
        <ele>211.228418</ele>
        <time>2022-03-03T08:04:54.426Z</time>
      </trkpt>
      <trkpt lat="42.06495" lon="25.17094">
        <ele>211.306856</ele>
        <time>2022-03-03T08:04:58.402Z</time>
      </trkpt>
      <trkpt lat="42.06489" lon="25.17081">
        <ele>211.389182</ele>
        <time>2022-03-03T08:05:02.398Z</time>
      </trkpt>
      <trkpt lat="42.06485" lon="25.1707">
        <ele>211.454548</ele>
        <time>2022-03-03T08:05:05.386Z</time>
      </trkpt>
      <trkpt lat="42.06479" lon="25.17057">
        <ele>211.535702</ele>
        <time>2022-03-03T08:05:09.391Z</time>
      </trkpt>
      <trkpt lat="42.06474" lon="25.17045">
        <ele>211.614838</ele>
        <time>2022-03-03T08:05:13.403Z</time>
      </trkpt>
      <trkpt lat="42.06468" lon="25.17033">
        <ele>211.689852</ele>
        <time>2022-03-03T08:05:17.426Z</time>
      </trkpt>
      <trkpt lat="42.06462" lon="25.17022">
        <ele>211.763782</ele>
        <time>2022-03-03T08:05:21.400Z</time>
      </trkpt>
      <trkpt lat="42.06456" lon="25.17009">
        <ele>211.846821</ele>
        <time>2022-03-03T08:05:25.408Z</time>
      </trkpt>
      <trkpt lat="42.0645" lon="25.16995">
        <ele>211.930478</ele>
        <time>2022-03-03T08:05:29.373Z</time>
      </trkpt>
      <trkpt lat="42.06445" lon="25.16982">
        <ele>212.117778</ele>
        <time>2022-03-03T08:05:33.402Z</time>
      </trkpt>
      <trkpt lat="42.0644" lon="25.1697">
        <ele>212.340905</ele>
        <time>2022-03-03T08:05:37.416Z</time>
      </trkpt>
      <trkpt lat="42.06434" lon="25.16958">
        <ele>212.567578</ele>
        <time>2022-03-03T08:05:41.400Z</time>
      </trkpt>
      <trkpt lat="42.06428" lon="25.16946">
        <ele>212.794453</ele>
        <time>2022-03-03T08:05:45.401Z</time>
      </trkpt>
      <trkpt lat="42.06423" lon="25.16934">
        <ele>213.016367</ele>
        <time>2022-03-03T08:05:49.390Z</time>
      </trkpt>
      <trkpt lat="42.06417" lon="25.16921">
        <ele>213.264718</ele>
        <time>2022-03-03T08:05:53.374Z</time>
      </trkpt>
      <trkpt lat="42.06411" lon="25.16909">
        <ele>213.495059</ele>
        <time>2022-03-03T08:05:57.391Z</time>
      </trkpt>
      <trkpt lat="42.06406" lon="25.16897">
        <ele>213.712313</ele>
        <time>2022-03-03T08:06:01.431Z</time>
      </trkpt>
      <trkpt lat="42.064" lon="25.16885">
        <ele>213.93152</ele>
        <time>2022-03-03T08:06:05.380Z</time>
      </trkpt>
      <trkpt lat="42.06395" lon="25.16874">
        <ele>214.144412</ele>
        <time>2022-03-03T08:06:09.392Z</time>
      </trkpt>
      <trkpt lat="42.06389" lon="25.16863">
        <ele>214.356636</ele>
        <time>2022-03-03T08:06:13.391Z</time>
      </trkpt>
      <trkpt lat="42.06383" lon="25.16852">
        <ele>214.577758</ele>
        <time>2022-03-03T08:06:17.384Z</time>
      </trkpt>
      <trkpt lat="42.06377" lon="25.16841">
        <ele>214.796392</ele>
        <time>2022-03-03T08:06:21.404Z</time>
      </trkpt>
      <trkpt lat="42.0637" lon="25.16831">
        <ele>215.005076</ele>
        <time>2022-03-03T08:06:25.389Z</time>
      </trkpt>
      <trkpt lat="42.06364" lon="25.1682">
        <ele>215.218431</ele>
        <time>2022-03-03T08:06:29.388Z</time>
      </trkpt>
      <trkpt lat="42.06358" lon="25.1681">
        <ele>215.435727</ele>
        <time>2022-03-03T08:06:33.403Z</time>
      </trkpt>
      <trkpt lat="42.06351" lon="25.16799">
        <ele>215.668679</ele>
        <time>2022-03-03T08:06:37.388Z</time>
      </trkpt>
      <trkpt lat="42.06345" lon="25.16789">
        <ele>215.841217</ele>
        <time>2022-03-03T08:06:41.391Z</time>
      </trkpt>
      <trkpt lat="42.06338" lon="25.16777">
        <ele>215.963496</ele>
        <time>2022-03-03T08:06:45.428Z</time>
      </trkpt>
      <trkpt lat="42.0633" lon="25.16765">
        <ele>216.080786</ele>
        <time>2022-03-03T08:06:49.384Z</time>
      </trkpt>
      <trkpt lat="42.06323" lon="25.16755">
        <ele>216.19029</ele>
        <time>2022-03-03T08:06:53.390Z</time>
      </trkpt>
      <trkpt lat="42.06317" lon="25.16744">
        <ele>216.296484</ele>
        <time>2022-03-03T08:06:57.398Z</time>
      </trkpt>
      <trkpt lat="42.0631" lon="25.16733">
        <ele>216.407751</ele>
        <time>2022-03-03T08:07:01.379Z</time>
      </trkpt>
      <trkpt lat="42.06303" lon="25.16722">
        <ele>216.525077</ele>
        <time>2022-03-03T08:07:05.409Z</time>
      </trkpt>
      <trkpt lat="42.06296" lon="25.16712">
        <ele>216.624722</ele>
        <time>2022-03-03T08:07:09.404Z</time>
      </trkpt>
      <trkpt lat="42.0629" lon="25.16702">
        <ele>216.728327</ele>
        <time>2022-03-03T08:07:13.430Z</time>
      </trkpt>
      <trkpt lat="42.06283" lon="25.16691">
        <ele>216.841206</ele>
        <time>2022-03-03T08:07:17.382Z</time>
      </trkpt>
      <trkpt lat="42.06275" lon="25.16681">
        <ele>216.955492</ele>
        <time>2022-03-03T08:07:21.376Z</time>
      </trkpt>
      <trkpt lat="42.06268" lon="25.16671">
        <ele>217.063877</ele>
        <time>2022-03-03T08:07:25.405Z</time>
      </trkpt>
      <trkpt lat="42.06261" lon="25.16661">
        <ele>217.172642</ele>
        <time>2022-03-03T08:07:29.397Z</time>
      </trkpt>
      <trkpt lat="42.06253" lon="25.16649">
        <ele>217.294788</ele>
        <time>2022-03-03T08:07:33.388Z</time>
      </trkpt>
      <trkpt lat="42.06245" lon="25.16638">
        <ele>217.410942</ele>
        <time>2022-03-03T08:07:37.403Z</time>
      </trkpt>
      <trkpt lat="42.06238" lon="25.16627">
        <ele>217.527721</ele>
        <time>2022-03-03T08:07:41.423Z</time>
      </trkpt>
      <trkpt lat="42.06231" lon="25.16614">
        <ele>217.652465</ele>
        <time>2022-03-03T08:07:45.408Z</time>
      </trkpt>
      <trkpt lat="42.06226" lon="25.16603">
        <ele>217.494105</ele>
        <time>2022-03-03T08:07:48.409Z</time>
      </trkpt>
      <trkpt lat="42.0622" lon="25.16593">
        <ele>217.136631</ele>
        <time>2022-03-03T08:07:51.392Z</time>
      </trkpt>
      <trkpt lat="42.06215" lon="25.16583">
        <ele>216.790568</ele>
        <time>2022-03-03T08:07:54.388Z</time>
      </trkpt>
      <trkpt lat="42.06209" lon="25.16573">
        <ele>216.453074</ele>
        <time>2022-03-03T08:07:57.406Z</time>
      </trkpt>
      <trkpt lat="42.06204" lon="25.16563">
        <ele>216.108806</ele>
        <time>2022-03-03T08:08:00.393Z</time>
      </trkpt>
      <trkpt lat="42.06198" lon="25.16552">
        <ele>215.738067</ele>
        <time>2022-03-03T08:08:03.399Z</time>
      </trkpt>
      <trkpt lat="42.06192" lon="25.1654">
        <ele>215.328523</ele>
        <time>2022-03-03T08:08:06.387Z</time>
      </trkpt>
      <trkpt lat="42.06187" lon="25.16527">
        <ele>214.911085</ele>
        <time>2022-03-03T08:08:09.405Z</time>
      </trkpt>
      <trkpt lat="42.06181" lon="25.16513">
        <ele>214.46991</ele>
        <time>2022-03-03T08:08:12.382Z</time>
      </trkpt>
      <trkpt lat="42.06176" lon="25.16497">
        <ele>214.008033</ele>
        <time>2022-03-03T08:08:15.389Z</time>
      </trkpt>
      <trkpt lat="42.06171" lon="25.16481">
        <ele>213.522782</ele>
        <time>2022-03-03T08:08:18.399Z</time>
      </trkpt>
      <trkpt lat="42.06164" lon="25.16466">
        <ele>213.021079</ele>
        <time>2022-03-03T08:08:21.428Z</time>
      </trkpt>
      <trkpt lat="42.06158" lon="25.1645">
        <ele>212.525959</ele>
        <time>2022-03-03T08:08:24.381Z</time>
      </trkpt>
      <trkpt lat="42.06153" lon="25.16434">
        <ele>212.055516</ele>
        <time>2022-03-03T08:08:27.438Z</time>
      </trkpt>
      <trkpt lat="42.06149" lon="25.16418">
        <ele>211.577038</ele>
        <time>2022-03-03T08:08:30.397Z</time>
      </trkpt>
      <trkpt lat="42.06144" lon="25.16402">
        <ele>211.076316</ele>
        <time>2022-03-03T08:08:33.402Z</time>
      </trkpt>
      <trkpt lat="42.0614" lon="25.1639">
        <ele>210.939234</ele>
        <time>2022-03-03T08:08:35.388Z</time>
      </trkpt>
      <trkpt lat="42.06136" lon="25.16378">
        <ele>210.911136</ele>
        <time>2022-03-03T08:08:37.387Z</time>
      </trkpt>
      <trkpt lat="42.06132" lon="25.16367">
        <ele>210.882247</ele>
        <time>2022-03-03T08:08:39.379Z</time>
      </trkpt>
      <trkpt lat="42.06127" lon="25.16355">
        <ele>210.85374</ele>
        <time>2022-03-03T08:08:41.390Z</time>
      </trkpt>
      <trkpt lat="42.06121" lon="25.1634">
        <ele>210.814619</ele>
        <time>2022-03-03T08:08:44.374Z</time>
      </trkpt>
      <trkpt lat="42.06117" lon="25.16324">
        <ele>210.775989</ele>
        <time>2022-03-03T08:08:47.368Z</time>
      </trkpt>
      <trkpt lat="42.06111" lon="25.16308">
        <ele>210.738243</ele>
        <time>2022-03-03T08:08:50.387Z</time>
      </trkpt>
      <trkpt lat="42.06106" lon="25.16293">
        <ele>210.70019</ele>
        <time>2022-03-03T08:08:53.402Z</time>
      </trkpt>
      <trkpt lat="42.06101" lon="25.16279">
        <ele>210.665212</ele>
        <time>2022-03-03T08:08:56.397Z</time>
      </trkpt>
      <trkpt lat="42.06095" lon="25.16266">
        <ele>210.631564</ele>
        <time>2022-03-03T08:08:59.389Z</time>
      </trkpt>
      <trkpt lat="42.0609" lon="25.16252">
        <ele>210.596051</ele>
        <time>2022-03-03T08:09:02.402Z</time>
      </trkpt>
      <trkpt lat="42.06086" lon="25.16237">
        <ele>210.559606</ele>
        <time>2022-03-03T08:09:05.430Z</time>
      </trkpt>
      <trkpt lat="42.06081" lon="25.16223">
        <ele>210.525968</ele>
        <time>2022-03-03T08:09:08.404Z</time>
      </trkpt>
      <trkpt lat="42.06076" lon="25.1621">
        <ele>210.493868</ele>
        <time>2022-03-03T08:09:11.414Z</time>
      </trkpt>
      <trkpt lat="42.06071" lon="25.16196">
        <ele>210.458889</ele>
        <time>2022-03-03T08:09:14.384Z</time>
      </trkpt>
      <trkpt lat="42.06066" lon="25.16184">
        <ele>210.428595</ele>
        <time>2022-03-03T08:09:17.376Z</time>
      </trkpt>
      <trkpt lat="42.06062" lon="25.16172">
        <ele>210.767346</ele>
        <time>2022-03-03T08:09:20.385Z</time>
      </trkpt>
      <trkpt lat="42.06058" lon="25.1616">
        <ele>211.351161</ele>
        <time>2022-03-03T08:09:23.390Z</time>
      </trkpt>
      <trkpt lat="42.06054" lon="25.16149">
        <ele>211.890017</ele>
        <time>2022-03-03T08:09:26.392Z</time>
      </trkpt>
      <trkpt lat="42.0605" lon="25.16135">
        <ele>212.563517</ele>
        <time>2022-03-03T08:09:30.384Z</time>
      </trkpt>
      <trkpt lat="42.06045" lon="25.16121">
        <ele>213.258095</ele>
        <time>2022-03-03T08:09:34.403Z</time>
      </trkpt>
      <trkpt lat="42.06041" lon="25.16109">
        <ele>213.853974</ele>
        <time>2022-03-03T08:09:38.375Z</time>
      </trkpt>
      <trkpt lat="42.06035" lon="25.16097">
        <ele>214.467256</ele>
        <time>2022-03-03T08:09:42.388Z</time>
      </trkpt>
      <trkpt lat="42.06031" lon="25.16083">
        <ele>215.138388</ele>
        <time>2022-03-03T08:09:47.403Z</time>
      </trkpt>
      <trkpt lat="42.06026" lon="25.16071">
        <ele>215.754051</ele>
        <time>2022-03-03T08:09:52.397Z</time>
      </trkpt>
      <trkpt lat="42.06022" lon="25.16059">
        <ele>216.348835</ele>
        <time>2022-03-03T08:09:57.385Z</time>
      </trkpt>
      <trkpt lat="42.06018" lon="25.16048">
        <ele>216.901842</ele>
        <time>2022-03-03T08:10:02.393Z</time>
      </trkpt>
      <trkpt lat="42.06013" lon="25.16037">
        <ele>217.45966</ele>
        <time>2022-03-03T08:10:07.433Z</time>
      </trkpt>
      <trkpt lat="42.06007" lon="25.16025">
        <ele>218.088199</ele>
        <time>2022-03-03T08:10:12.406Z</time>
      </trkpt>
      <trkpt lat="42.06002" lon="25.16014">
        <ele>218.680961</ele>
        <time>2022-03-03T08:10:17.453Z</time>
      </trkpt>
      <trkpt lat="42.05998" lon="25.16002">
        <ele>219.228968</ele>
        <time>2022-03-03T08:10:22.388Z</time>
      </trkpt>
      <trkpt lat="42.05994" lon="25.15991">
        <ele>219.803572</ele>
        <time>2022-03-03T08:10:28.387Z</time>
      </trkpt>
      <trkpt lat="42.05989" lon="25.1598">
        <ele>220.38525</ele>
        <time>2022-03-03T08:10:33.380Z</time>
      </trkpt>
      <trkpt lat="42.05984" lon="25.15968">
        <ele>221.007572</ele>
        <time>2022-03-03T08:10:39.393Z</time>
      </trkpt>
      <trkpt lat="42.05978" lon="25.15957">
        <ele>221.260648</ele>
        <time>2022-03-03T08:10:44.411Z</time>
      </trkpt>
      <trkpt lat="42.05973" lon="25.15946">
        <ele>221.390337</ele>
        <time>2022-03-03T08:10:49.390Z</time>
      </trkpt>
      <trkpt lat="42.05969" lon="25.15935">
        <ele>221.509767</ele>
        <time>2022-03-03T08:10:54.386Z</time>
      </trkpt>
      <trkpt lat="42.05963" lon="25.15924">
        <ele>221.638759</ele>
        <time>2022-03-03T08:10:59.393Z</time>
      </trkpt>
      <trkpt lat="42.05957" lon="25.15912">
        <ele>221.773752</ele>
        <time>2022-03-03T08:11:04.429Z</time>
      </trkpt>
      <trkpt lat="42.05953" lon="25.15901">
        <ele>221.889892</ele>
        <time>2022-03-03T08:11:08.399Z</time>
      </trkpt>
      <trkpt lat="42.05948" lon="25.1589">
        <ele>222.017405</ele>
        <time>2022-03-03T08:11:13.426Z</time>
      </trkpt>
      <trkpt lat="42.05942" lon="25.15879">
        <ele>222.144633</ele>
        <time>2022-03-03T08:11:18.393Z</time>
      </trkpt>
      <trkpt lat="42.05936" lon="25.15867">
        <ele>222.27725</ele>
        <time>2022-03-03T08:11:23.396Z</time>
      </trkpt>
      <trkpt lat="42.0593" lon="25.15855">
        <ele>222.42004</ele>
        <time>2022-03-03T08:11:28.397Z</time>
      </trkpt>
      <trkpt lat="42.05924" lon="25.15845">
        <ele>222.542763</ele>
        <time>2022-03-03T08:11:33.385Z</time>
      </trkpt>
      <trkpt lat="42.05919" lon="25.15833">
        <ele>222.673869</ele>
        <time>2022-03-03T08:11:38.395Z</time>
      </trkpt>
      <trkpt lat="42.05912" lon="25.15822">
        <ele>222.812501</ele>
        <time>2022-03-03T08:11:43.403Z</time>
      </trkpt>
      <trkpt lat="42.05906" lon="25.15811">
        <ele>222.938878</ele>
        <time>2022-03-03T08:11:47.384Z</time>
      </trkpt>
      <trkpt lat="42.05901" lon="25.15801">
        <ele>223.058422</ele>
        <time>2022-03-03T08:11:51.384Z</time>
      </trkpt>
      <trkpt lat="42.05895" lon="25.15789">
        <ele>223.188682</ele>
        <time>2022-03-03T08:11:55.404Z</time>
      </trkpt>
      <trkpt lat="42.05889" lon="25.15779">
        <ele>223.320647</ele>
        <time>2022-03-03T08:11:59.399Z</time>
      </trkpt>
      <trkpt lat="42.05882" lon="25.15768">
        <ele>223.449371</ele>
        <time>2022-03-03T08:12:03.383Z</time>
      </trkpt>
      <trkpt lat="42.05876" lon="25.15758">
        <ele>223.482495</ele>
        <time>2022-03-03T08:12:07.385Z</time>
      </trkpt>
      <trkpt lat="42.05868" lon="25.15746">
        <ele>223.474486</ele>
        <time>2022-03-03T08:12:11.397Z</time>
      </trkpt>
      <trkpt lat="42.05861" lon="25.15735">
        <ele>223.466698</ele>
        <time>2022-03-03T08:12:15.377Z</time>
      </trkpt>
      <trkpt lat="42.05855" lon="25.15723">
        <ele>223.459505</ele>
        <time>2022-03-03T08:12:19.428Z</time>
      </trkpt>
      <trkpt lat="42.05848" lon="25.15714">
        <ele>223.453223</ele>
        <time>2022-03-03T08:12:22.396Z</time>
      </trkpt>
      <trkpt lat="42.0584" lon="25.15703">
        <ele>223.445026</ele>
        <time>2022-03-03T08:12:26.408Z</time>
      </trkpt>
      <trkpt lat="42.05833" lon="25.15692">
        <ele>223.437462</ele>
        <time>2022-03-03T08:12:30.438Z</time>
      </trkpt>
      <trkpt lat="42.05824" lon="25.15681">
        <ele>223.429516</ele>
        <time>2022-03-03T08:12:34.395Z</time>
      </trkpt>
      <trkpt lat="42.05816" lon="25.15672">
        <ele>223.421933</ele>
        <time>2022-03-03T08:12:38.387Z</time>
      </trkpt>
      <trkpt lat="42.0581" lon="25.15663">
        <ele>223.415422</ele>
        <time>2022-03-03T08:12:41.387Z</time>
      </trkpt>
      <trkpt lat="42.05804" lon="25.15653">
        <ele>223.409125</ele>
        <time>2022-03-03T08:12:44.375Z</time>
      </trkpt>
      <trkpt lat="42.05797" lon="25.15641">
        <ele>223.401024</ele>
        <time>2022-03-03T08:12:48.399Z</time>
      </trkpt>
      <trkpt lat="42.05791" lon="25.15631">
        <ele>223.394649</ele>
        <time>2022-03-03T08:12:51.399Z</time>
      </trkpt>
      <trkpt lat="42.05784" lon="25.15621">
        <ele>223.387477</ele>
        <time>2022-03-03T08:12:54.397Z</time>
      </trkpt>
      <trkpt lat="42.05777" lon="25.15611">
        <ele>223.380648</ele>
        <time>2022-03-03T08:12:57.400Z</time>
      </trkpt>
      <trkpt lat="42.0577" lon="25.15602">
        <ele>223.373474</ele>
        <time>2022-03-03T08:13:00.388Z</time>
      </trkpt>
      <trkpt lat="42.05763" lon="25.15592">
        <ele>223.366341</ele>
        <time>2022-03-03T08:13:03.393Z</time>
      </trkpt>
      <trkpt lat="42.05755" lon="25.15582">
        <ele>223.339545</ele>
        <time>2022-03-03T08:13:06.389Z</time>
      </trkpt>
      <trkpt lat="42.05748" lon="25.15573">
        <ele>223.300313</ele>
        <time>2022-03-03T08:13:09.401Z</time>
      </trkpt>
      <trkpt lat="42.05741" lon="25.15564">
        <ele>223.261751</ele>
        <time>2022-03-03T08:13:12.411Z</time>
      </trkpt>
      <trkpt lat="42.05734" lon="25.15553">
        <ele>223.220088</ele>
        <time>2022-03-03T08:13:15.441Z</time>
      </trkpt>
      <trkpt lat="42.05727" lon="25.15544">
        <ele>223.180738</ele>
        <time>2022-03-03T08:13:18.382Z</time>
      </trkpt>
      <trkpt lat="42.0572" lon="25.15534">
        <ele>223.138968</ele>
        <time>2022-03-03T08:13:21.414Z</time>
      </trkpt>
      <trkpt lat="42.05713" lon="25.15524">
        <ele>223.098616</ele>
        <time>2022-03-03T08:13:24.387Z</time>
      </trkpt>
      <trkpt lat="42.05706" lon="25.15515">
        <ele>223.057777</ele>
        <time>2022-03-03T08:13:27.398Z</time>
      </trkpt>
      <trkpt lat="42.05699" lon="25.15505">
        <ele>223.015588</ele>
        <time>2022-03-03T08:13:30.422Z</time>
      </trkpt>
      <trkpt lat="42.05691" lon="25.15494">
        <ele>222.969984</ele>
        <time>2022-03-03T08:13:33.398Z</time>
      </trkpt>
      <trkpt lat="42.05684" lon="25.15483">
        <ele>222.927913</ele>
        <time>2022-03-03T08:13:36.373Z</time>
      </trkpt>
      <trkpt lat="42.05677" lon="25.15473">
        <ele>222.884494</ele>
        <time>2022-03-03T08:13:39.413Z</time>
      </trkpt>
      <trkpt lat="42.05669" lon="25.15461">
        <ele>222.83601</ele>
        <time>2022-03-03T08:13:42.403Z</time>
      </trkpt>
      <trkpt lat="42.05659" lon="25.15448">
        <ele>222.780732</ele>
        <time>2022-03-03T08:13:45.428Z</time>
      </trkpt>
      <trkpt lat="42.05652" lon="25.15439">
        <ele>222.742313</ele>
        <time>2022-03-03T08:13:47.383Z</time>
      </trkpt>
      <trkpt lat="42.05643" lon="25.15427">
        <ele>222.688537</ele>
        <time>2022-03-03T08:13:50.394Z</time>
      </trkpt>
      <trkpt lat="42.05633" lon="25.15414">
        <ele>222.632448</ele>
        <time>2022-03-03T08:13:53.405Z</time>
      </trkpt>
      <trkpt lat="42.05624" lon="25.15402">
        <ele>222.375807</ele>
        <time>2022-03-03T08:13:56.402Z</time>
      </trkpt>
      <trkpt lat="42.05615" lon="25.15391">
        <ele>222.144254</ele>
        <time>2022-03-03T08:13:59.393Z</time>
      </trkpt>
      <trkpt lat="42.05608" lon="25.1538">
        <ele>221.934216</ele>
        <time>2022-03-03T08:14:02.390Z</time>
      </trkpt>
      <trkpt lat="42.05601" lon="25.1537">
        <ele>221.721266</ele>
        <time>2022-03-03T08:14:05.390Z</time>
      </trkpt>
      <trkpt lat="42.05593" lon="25.15359">
        <ele>221.503963</ele>
        <time>2022-03-03T08:14:08.396Z</time>
      </trkpt>
      <trkpt lat="42.05586" lon="25.15349">
        <ele>221.307824</ele>
        <time>2022-03-03T08:14:11.433Z</time>
      </trkpt>
      <trkpt lat="42.05578" lon="25.15339">
        <ele>221.093392</ele>
        <time>2022-03-03T08:14:14.382Z</time>
      </trkpt>
      <trkpt lat="42.05571" lon="25.15328">
        <ele>220.876392</ele>
        <time>2022-03-03T08:14:17.380Z</time>
      </trkpt>
      <trkpt lat="42.05564" lon="25.15317">
        <ele>220.662794</ele>
        <time>2022-03-03T08:14:20.399Z</time>
      </trkpt>
      <trkpt lat="42.05556" lon="25.15307">
        <ele>220.449843</ele>
        <time>2022-03-03T08:14:23.379Z</time>
      </trkpt>
      <trkpt lat="42.05549" lon="25.15296">
        <ele>220.226937</ele>
        <time>2022-03-03T08:14:26.410Z</time>
      </trkpt>
      <trkpt lat="42.05541" lon="25.15284">
        <ele>219.998412</ele>
        <time>2022-03-03T08:14:29.405Z</time>
      </trkpt>
      <trkpt lat="42.05533" lon="25.15273">
        <ele>219.772022</ele>
        <time>2022-03-03T08:14:32.403Z</time>
      </trkpt>
      <trkpt lat="42.05524" lon="25.15262">
        <ele>219.528588</ele>
        <time>2022-03-03T08:14:35.404Z</time>
      </trkpt>
      <trkpt lat="42.05514" lon="25.1525">
        <ele>219.266176</ele>
        <time>2022-03-03T08:14:38.402Z</time>
      </trkpt>
      <trkpt lat="42.05507" lon="25.15242">
        <ele>219.087</ele>
        <time>2022-03-03T08:14:40.395Z</time>
      </trkpt>
      <trkpt lat="42.05498" lon="25.15229">
        <ele>219.35804</ele>
        <time>2022-03-03T08:14:43.406Z</time>
      </trkpt>
      <trkpt lat="42.0549" lon="25.15217">
        <ele>219.628887</ele>
        <time>2022-03-03T08:14:46.396Z</time>
      </trkpt>
      <trkpt lat="42.05481" lon="25.15205">
        <ele>219.884411</ele>
        <time>2022-03-03T08:14:49.399Z</time>
      </trkpt>
      <trkpt lat="42.05474" lon="25.15194">
        <ele>220.128717</ele>
        <time>2022-03-03T08:14:52.391Z</time>
      </trkpt>
      <trkpt lat="42.05465" lon="25.15182">
        <ele>220.386166</ele>
        <time>2022-03-03T08:14:55.401Z</time>
      </trkpt>
      <trkpt lat="42.05457" lon="25.1517">
        <ele>220.659914</ele>
        <time>2022-03-03T08:14:58.404Z</time>
      </trkpt>
      <trkpt lat="42.05449" lon="25.15157">
        <ele>220.926103</ele>
        <time>2022-03-03T08:15:01.395Z</time>
      </trkpt>
      <trkpt lat="42.05442" lon="25.15147">
        <ele>221.147084</ele>
        <time>2022-03-03T08:15:04.395Z</time>
      </trkpt>
      <trkpt lat="42.05434" lon="25.15136">
        <ele>221.387932</ele>
        <time>2022-03-03T08:15:08.392Z</time>
      </trkpt>
      <trkpt lat="42.05426" lon="25.15125">
        <ele>221.616787</ele>
        <time>2022-03-03T08:15:12.436Z</time>
      </trkpt>
      <trkpt lat="42.05419" lon="25.15114">
        <ele>221.849881</ele>
        <time>2022-03-03T08:15:16.410Z</time>
      </trkpt>
      <trkpt lat="42.05412" lon="25.15104">
        <ele>222.077277</ele>
        <time>2022-03-03T08:15:20.383Z</time>
      </trkpt>
      <trkpt lat="42.05405" lon="25.15094">
        <ele>222.307179</ele>
        <time>2022-03-03T08:15:24.394Z</time>
      </trkpt>
      <trkpt lat="42.05397" lon="25.15083">
        <ele>222.544782</ele>
        <time>2022-03-03T08:15:28.391Z</time>
      </trkpt>
      <trkpt lat="42.05389" lon="25.15073">
        <ele>222.772885</ele>
        <time>2022-03-03T08:15:32.383Z</time>
      </trkpt>
      <trkpt lat="42.05383" lon="25.15063">
        <ele>222.989527</ele>
        <time>2022-03-03T08:15:36.400Z</time>
      </trkpt>
      <trkpt lat="42.05375" lon="25.15054">
        <ele>223.246436</ele>
        <time>2022-03-03T08:15:40.391Z</time>
      </trkpt>
      <trkpt lat="42.05369" lon="25.15044">
        <ele>223.487725</ele>
        <time>2022-03-03T08:15:44.394Z</time>
      </trkpt>
      <trkpt lat="42.05362" lon="25.15035">
        <ele>223.74246</ele>
        <time>2022-03-03T08:15:49.399Z</time>
      </trkpt>
      <trkpt lat="42.05354" lon="25.15025">
        <ele>224.014723</ele>
        <time>2022-03-03T08:15:54.375Z</time>
      </trkpt>
      <trkpt lat="42.05347" lon="25.15015">
        <ele>224.266342</ele>
        <time>2022-03-03T08:15:58.406Z</time>
      </trkpt>
      <trkpt lat="42.05341" lon="25.15006">
        <ele>224.503155</ele>
        <time>2022-03-03T08:16:02.442Z</time>
      </trkpt>
      <trkpt lat="42.05334" lon="25.14998">
        <ele>224.734402</ele>
        <time>2022-03-03T08:16:06.404Z</time>
      </trkpt>
      <trkpt lat="42.05326" lon="25.14988">
        <ele>225.000287</ele>
        <time>2022-03-03T08:16:11.401Z</time>
      </trkpt>
      <trkpt lat="42.0532" lon="25.14979">
        <ele>225.233238</ele>
        <time>2022-03-03T08:16:15.399Z</time>
      </trkpt>
      <trkpt lat="42.05313" lon="25.14968">
        <ele>225.513718</ele>
        <time>2022-03-03T08:16:20.388Z</time>
      </trkpt>
      <trkpt lat="42.05306" lon="25.14957">
        <ele>225.788949</ele>
        <time>2022-03-03T08:16:25.395Z</time>
      </trkpt>
      <trkpt lat="42.05299" lon="25.14948">
        <ele>226.027513</ele>
        <time>2022-03-03T08:16:29.402Z</time>
      </trkpt>
      <trkpt lat="42.05293" lon="25.14938">
        <ele>226.264409</ele>
        <time>2022-03-03T08:16:33.410Z</time>
      </trkpt>
      <trkpt lat="42.05287" lon="25.14928">
        <ele>226.517736</ele>
        <time>2022-03-03T08:16:37.403Z</time>
      </trkpt>
      <trkpt lat="42.0528" lon="25.1492">
        <ele>226.750266</ele>
        <time>2022-03-03T08:16:41.394Z</time>
      </trkpt>
      <trkpt lat="42.05272" lon="25.14909">
        <ele>227.029968</ele>
        <time>2022-03-03T08:16:46.386Z</time>
      </trkpt>
      <trkpt lat="42.05265" lon="25.149">
        <ele>227.273807</ele>
        <time>2022-03-03T08:16:50.414Z</time>
      </trkpt>
      <trkpt lat="42.05258" lon="25.1489">
        <ele>227.517633</ele>
        <time>2022-03-03T08:16:54.386Z</time>
      </trkpt>
      <trkpt lat="42.05251" lon="25.1488">
        <ele>227.601675</ele>
        <time>2022-03-03T08:16:58.446Z</time>
      </trkpt>
      <trkpt lat="42.05245" lon="25.14871">
        <ele>227.682012</ele>
        <time>2022-03-03T08:17:02.388Z</time>
      </trkpt>
      <trkpt lat="42.05237" lon="25.14861">
        <ele>227.764203</ele>
        <time>2022-03-03T08:17:06.404Z</time>
      </trkpt>
      <trkpt lat="42.0523" lon="25.14851">
        <ele>227.849903</ele>
        <time>2022-03-03T08:17:10.397Z</time>
      </trkpt>
      <trkpt lat="42.05224" lon="25.14841">
        <ele>227.929797</ele>
        <time>2022-03-03T08:17:14.387Z</time>
      </trkpt>
      <trkpt lat="42.05216" lon="25.14831">
        <ele>228.018922</ele>
        <time>2022-03-03T08:17:18.397Z</time>
      </trkpt>
      <trkpt lat="42.05209" lon="25.1482">
        <ele>228.109338</ele>
        <time>2022-03-03T08:17:22.412Z</time>
      </trkpt>
      <trkpt lat="42.05201" lon="25.14809">
        <ele>228.200756</ele>
        <time>2022-03-03T08:17:26.437Z</time>
      </trkpt>
      <trkpt lat="42.05193" lon="25.14798">
        <ele>228.292767</ele>
        <time>2022-03-03T08:17:30.383Z</time>
      </trkpt>
      <trkpt lat="42.05186" lon="25.14787">
        <ele>228.382618</ele>
        <time>2022-03-03T08:17:34.379Z</time>
      </trkpt>
      <trkpt lat="42.05178" lon="25.14776">
        <ele>228.478599</ele>
        <time>2022-03-03T08:17:38.397Z</time>
      </trkpt>
      <trkpt lat="42.05169" lon="25.14765">
        <ele>228.574985</ele>
        <time>2022-03-03T08:17:42.404Z</time>
      </trkpt>
      <trkpt lat="42.05163" lon="25.14756">
        <ele>228.652431</ele>
        <time>2022-03-03T08:17:45.375Z</time>
      </trkpt>
      <trkpt lat="42.05154" lon="25.14744">
        <ele>228.74953</ele>
        <time>2022-03-03T08:17:49.405Z</time>
      </trkpt>
      <trkpt lat="42.05148" lon="25.14735">
        <ele>228.826663</ele>
        <time>2022-03-03T08:17:52.382Z</time>
      </trkpt>
      <trkpt lat="42.05141" lon="25.14726">
        <ele>228.908169</ele>
        <time>2022-03-03T08:17:55.418Z</time>
      </trkpt>
      <trkpt lat="42.05134" lon="25.14717">
        <ele>228.975849</ele>
        <time>2022-03-03T08:17:58.402Z</time>
      </trkpt>
      <trkpt lat="42.05127" lon="25.14707">
        <ele>228.815571</ele>
        <time>2022-03-03T08:18:01.384Z</time>
      </trkpt>
      <trkpt lat="42.05121" lon="25.14698">
        <ele>228.660629</ele>
        <time>2022-03-03T08:18:04.389Z</time>
      </trkpt>
      <trkpt lat="42.05115" lon="25.14687">
        <ele>228.504123</ele>
        <time>2022-03-03T08:18:07.401Z</time>
      </trkpt>
      <trkpt lat="42.05109" lon="25.14679">
        <ele>228.350116</ele>
        <time>2022-03-03T08:18:10.434Z</time>
      </trkpt>
      <trkpt lat="42.05103" lon="25.14669">
        <ele>228.193898</ele>
        <time>2022-03-03T08:18:13.402Z</time>
      </trkpt>
      <trkpt lat="42.05096" lon="25.1466">
        <ele>228.02966</ele>
        <time>2022-03-03T08:18:16.399Z</time>
      </trkpt>
      <trkpt lat="42.05088" lon="25.1465">
        <ele>227.852567</ele>
        <time>2022-03-03T08:18:19.393Z</time>
      </trkpt>
      <trkpt lat="42.05081" lon="25.1464">
        <ele>227.686191</ele>
        <time>2022-03-03T08:18:22.404Z</time>
      </trkpt>
      <trkpt lat="42.05074" lon="25.1463">
        <ele>227.519319</ele>
        <time>2022-03-03T08:18:25.409Z</time>
      </trkpt>
      <trkpt lat="42.05066" lon="25.14621">
        <ele>227.349467</ele>
        <time>2022-03-03T08:18:28.390Z</time>
      </trkpt>
      <trkpt lat="42.05059" lon="25.14612">
        <ele>227.18669</ele>
        <time>2022-03-03T08:18:31.398Z</time>
      </trkpt>
      <trkpt lat="42.05053" lon="25.14602">
        <ele>227.026774</ele>
        <time>2022-03-03T08:18:34.385Z</time>
      </trkpt>
      <trkpt lat="42.05047" lon="25.14592">
        <ele>226.868295</ele>
        <time>2022-03-03T08:18:37.398Z</time>
      </trkpt>
      <trkpt lat="42.05041" lon="25.14583">
        <ele>226.712416</ele>
        <time>2022-03-03T08:18:40.395Z</time>
      </trkpt>
      <trkpt lat="42.05034" lon="25.14573">
        <ele>226.555483</ele>
        <time>2022-03-03T08:18:43.437Z</time>
      </trkpt>
      <trkpt lat="42.05028" lon="25.14564">
        <ele>226.393546</ele>
        <time>2022-03-03T08:18:46.398Z</time>
      </trkpt>
      <trkpt lat="42.0502" lon="25.14553">
        <ele>226.20447</ele>
        <time>2022-03-03T08:18:49.415Z</time>
      </trkpt>
      <trkpt lat="42.05013" lon="25.14542">
        <ele>226.027377</ele>
        <time>2022-03-03T08:18:52.389Z</time>
      </trkpt>
      <trkpt lat="42.05005" lon="25.14532">
        <ele>225.983001</ele>
        <time>2022-03-03T08:18:55.406Z</time>
      </trkpt>
      <trkpt lat="42.04997" lon="25.14523">
        <ele>225.966122</ele>
        <time>2022-03-03T08:18:58.398Z</time>
      </trkpt>
      <trkpt lat="42.0499" lon="25.14513">
        <ele>225.95017</ele>
        <time>2022-03-03T08:19:01.381Z</time>
      </trkpt>
      <trkpt lat="42.04983" lon="25.14503">
        <ele>225.933723</ele>
        <time>2022-03-03T08:19:04.420Z</time>
      </trkpt>
      <trkpt lat="42.04976" lon="25.14493">
        <ele>225.918072</ele>
        <time>2022-03-03T08:19:07.433Z</time>
      </trkpt>
      <trkpt lat="42.04969" lon="25.14483">
        <ele>225.902284</ele>
        <time>2022-03-03T08:19:10.394Z</time>
      </trkpt>
      <trkpt lat="42.04963" lon="25.14472">
        <ele>225.886791</ele>
        <time>2022-03-03T08:19:13.412Z</time>
      </trkpt>
      <trkpt lat="42.04956" lon="25.14463">
        <ele>225.871614</ele>
        <time>2022-03-03T08:19:16.400Z</time>
      </trkpt>
      <trkpt lat="42.04949" lon="25.14455">
        <ele>225.857149</ele>
        <time>2022-03-03T08:19:19.394Z</time>
      </trkpt>
      <trkpt lat="42.04941" lon="25.14443">
        <ele>225.83846</ele>
        <time>2022-03-03T08:19:23.402Z</time>
      </trkpt>
      <trkpt lat="42.04934" lon="25.14434">
        <ele>225.823171</ele>
        <time>2022-03-03T08:19:26.387Z</time>
      </trkpt>
      <trkpt lat="42.04928" lon="25.14424">
        <ele>225.808308</ele>
        <time>2022-03-03T08:19:29.400Z</time>
      </trkpt>
      <trkpt lat="42.04922" lon="25.14415">
        <ele>225.793597</ele>
        <time>2022-03-03T08:19:32.411Z</time>
      </trkpt>
      <trkpt lat="42.04915" lon="25.14407">
        <ele>225.779289</ele>
        <time>2022-03-03T08:19:35.391Z</time>
      </trkpt>
      <trkpt lat="42.04908" lon="25.14398">
        <ele>225.764194</ele>
        <time>2022-03-03T08:19:38.440Z</time>
      </trkpt>
      <trkpt lat="42.04901" lon="25.14389">
        <ele>225.749293</ele>
        <time>2022-03-03T08:19:41.394Z</time>
      </trkpt>
      <trkpt lat="42.04894" lon="25.1438">
        <ele>225.734062</ele>
        <time>2022-03-03T08:19:44.397Z</time>
      </trkpt>
      <trkpt lat="42.04888" lon="25.14371">
        <ele>225.719905</ele>
        <time>2022-03-03T08:19:47.389Z</time>
      </trkpt>
      <trkpt lat="42.04879" lon="25.1436">
        <ele>225.74314</ele>
        <time>2022-03-03T08:19:51.409Z</time>
      </trkpt>
      <trkpt lat="42.04871" lon="25.14352">
        <ele>225.775627</ele>
        <time>2022-03-03T08:19:54.395Z</time>
      </trkpt>
      <trkpt lat="42.04864" lon="25.14343">
        <ele>225.80875</ele>
        <time>2022-03-03T08:19:57.404Z</time>
      </trkpt>
      <trkpt lat="42.04858" lon="25.14334">
        <ele>225.839222</ele>
        <time>2022-03-03T08:20:00.419Z</time>
      </trkpt>
      <trkpt lat="42.04851" lon="25.14325">
        <ele>225.869834</ele>
        <time>2022-03-03T08:20:03.391Z</time>
      </trkpt>
      <trkpt lat="42.04844" lon="25.14313">
        <ele>225.906844</ele>
        <time>2022-03-03T08:20:07.402Z</time>
      </trkpt>
      <trkpt lat="42.04838" lon="25.14304">
        <ele>225.936826</ele>
        <time>2022-03-03T08:20:10.413Z</time>
      </trkpt>
      <trkpt lat="42.04829" lon="25.14294">
        <ele>225.975372</ele>
        <time>2022-03-03T08:20:14.383Z</time>
      </trkpt>
      <trkpt lat="42.04821" lon="25.14284">
        <ele>226.013593</ele>
        <time>2022-03-03T08:20:18.404Z</time>
      </trkpt>
      <trkpt lat="42.04812" lon="25.14273">
        <ele>226.052468</ele>
        <time>2022-03-03T08:20:22.425Z</time>
      </trkpt>
      <trkpt lat="42.04805" lon="25.14265">
        <ele>226.082549</ele>
        <time>2022-03-03T08:20:25.398Z</time>
      </trkpt>
      <trkpt lat="42.04797" lon="25.14254">
        <ele>226.120083</ele>
        <time>2022-03-03T08:20:29.403Z</time>
      </trkpt>
      <trkpt lat="42.0479" lon="25.14243">
        <ele>226.15588</ele>
        <time>2022-03-03T08:20:33.410Z</time>
      </trkpt>
      <trkpt lat="42.04781" lon="25.14233">
        <ele>226.194024</ele>
        <time>2022-03-03T08:20:37.401Z</time>
      </trkpt>
      <trkpt lat="42.04775" lon="25.14224">
        <ele>226.2241</ele>
        <time>2022-03-03T08:20:40.413Z</time>
      </trkpt>
      <trkpt lat="42.04767" lon="25.14213">
        <ele>226.262514</ele>
        <time>2022-03-03T08:20:44.390Z</time>
      </trkpt>
      <trkpt lat="42.04759" lon="25.14203">
        <ele>226.299701</ele>
        <time>2022-03-03T08:20:48.429Z</time>
      </trkpt>
      <trkpt lat="42.04751" lon="25.14192">
        <ele>226.346292</ele>
        <time>2022-03-03T08:20:52.389Z</time>
      </trkpt>
      <trkpt lat="42.04743" lon="25.14182">
        <ele>226.399017</ele>
        <time>2022-03-03T08:20:56.442Z</time>
      </trkpt>
      <trkpt lat="42.04735" lon="25.1417">
        <ele>226.453137</ele>
        <time>2022-03-03T08:21:00.391Z</time>
      </trkpt>
      <trkpt lat="42.04728" lon="25.14161">
        <ele>226.500823</ele>
        <time>2022-03-03T08:21:04.389Z</time>
      </trkpt>
      <trkpt lat="42.0472" lon="25.14152">
        <ele>226.550137</ele>
        <time>2022-03-03T08:21:08.398Z</time>
      </trkpt>
      <trkpt lat="42.04713" lon="25.14143">
        <ele>226.596181</ele>
        <time>2022-03-03T08:21:12.409Z</time>
      </trkpt>
      <trkpt lat="42.04705" lon="25.14133">
        <ele>226.64491</ele>
        <time>2022-03-03T08:21:16.377Z</time>
      </trkpt>
      <trkpt lat="42.04697" lon="25.14123">
        <ele>226.697501</ele>
        <time>2022-03-03T08:21:20.414Z</time>
      </trkpt>
      <trkpt lat="42.04689" lon="25.14113">
        <ele>226.748723</ele>
        <time>2022-03-03T08:21:24.382Z</time>
      </trkpt>
      <trkpt lat="42.04682" lon="25.14102">
        <ele>226.799945</ele>
        <time>2022-03-03T08:21:28.404Z</time>
      </trkpt>
      <trkpt lat="42.04675" lon="25.14094">
        <ele>226.843767</ele>
        <time>2022-03-03T08:21:31.386Z</time>
      </trkpt>
      <trkpt lat="42.04667" lon="25.14084">
        <ele>226.896013</ele>
        <time>2022-03-03T08:21:35.406Z</time>
      </trkpt>
      <trkpt lat="42.04659" lon="25.14073">
        <ele>226.947817</ele>
        <time>2022-03-03T08:21:39.398Z</time>
      </trkpt>
      <trkpt lat="42.04651" lon="25.14063">
        <ele>226.99904</ele>
        <time>2022-03-03T08:21:43.404Z</time>
      </trkpt>
      <trkpt lat="42.04644" lon="25.14052">
        <ele>227.051703</ele>
        <time>2022-03-03T08:21:47.425Z</time>
      </trkpt>
      <trkpt lat="42.04637" lon="25.14043">
        <ele>227.097035</ele>
        <time>2022-03-03T08:21:51.389Z</time>
      </trkpt>
      <trkpt lat="42.0463" lon="25.14033">
        <ele>227.145651</ele>
        <time>2022-03-03T08:21:55.399Z</time>
      </trkpt>
      <trkpt lat="42.04622" lon="25.14023">
        <ele>227.225501</ele>
        <time>2022-03-03T08:21:59.394Z</time>
      </trkpt>
      <trkpt lat="42.04614" lon="25.14013">
        <ele>227.318255</ele>
        <time>2022-03-03T08:22:03.406Z</time>
      </trkpt>
      <trkpt lat="42.04607" lon="25.14004">
        <ele>227.402625</ele>
        <time>2022-03-03T08:22:07.389Z</time>
      </trkpt>
      <trkpt lat="42.046" lon="25.13994">
        <ele>227.487985</ele>
        <time>2022-03-03T08:22:11.405Z</time>
      </trkpt>
      <trkpt lat="42.04591" lon="25.13984">
        <ele>227.580448</ele>
        <time>2022-03-03T08:22:15.393Z</time>
      </trkpt>
      <trkpt lat="42.04583" lon="25.13974">
        <ele>227.668956</ele>
        <time>2022-03-03T08:22:19.434Z</time>
      </trkpt>
      <trkpt lat="42.04575" lon="25.13964">
        <ele>227.761836</ele>
        <time>2022-03-03T08:22:23.399Z</time>
      </trkpt>
      <trkpt lat="42.04568" lon="25.13954">
        <ele>227.852807</ele>
        <time>2022-03-03T08:22:27.434Z</time>
      </trkpt>
      <trkpt lat="42.0456" lon="25.13943">
        <ele>227.947913</ele>
        <time>2022-03-03T08:22:31.420Z</time>
      </trkpt>
      <trkpt lat="42.04552" lon="25.13933">
        <ele>228.035652</ele>
        <time>2022-03-03T08:22:35.448Z</time>
      </trkpt>
      <trkpt lat="42.04544" lon="25.13923">
        <ele>228.128844</ele>
        <time>2022-03-03T08:22:39.412Z</time>
      </trkpt>
      <trkpt lat="42.04536" lon="25.13912">
        <ele>228.225921</ele>
        <time>2022-03-03T08:22:43.391Z</time>
      </trkpt>
      <trkpt lat="42.04527" lon="25.13902">
        <ele>228.32361</ele>
        <time>2022-03-03T08:22:47.383Z</time>
      </trkpt>
      <trkpt lat="42.04519" lon="25.13892">
        <ele>228.416351</ele>
        <time>2022-03-03T08:22:51.386Z</time>
      </trkpt>
      <trkpt lat="42.0451" lon="25.13881">
        <ele>228.514655</ele>
        <time>2022-03-03T08:22:55.412Z</time>
      </trkpt>
      <trkpt lat="42.04503" lon="25.13873">
        <ele>228.592142</ele>
        <time>2022-03-03T08:22:58.393Z</time>
      </trkpt>
      <trkpt lat="42.04496" lon="25.13865">
        <ele>228.659268</ele>
        <time>2022-03-03T08:23:01.409Z</time>
      </trkpt>
      <trkpt lat="42.04487" lon="25.13857">
        <ele>228.356356</ele>
        <time>2022-03-03T08:23:05.385Z</time>
      </trkpt>
      <trkpt lat="42.0448" lon="25.1385">
        <ele>228.102324</ele>
        <time>2022-03-03T08:23:08.393Z</time>
      </trkpt>
      <trkpt lat="42.04471" lon="25.13843">
        <ele>227.827013</ele>
        <time>2022-03-03T08:23:11.399Z</time>
      </trkpt>
      <trkpt lat="42.04463" lon="25.13837">
        <ele>227.564663</ele>
        <time>2022-03-03T08:23:14.394Z</time>
      </trkpt>
      <trkpt lat="42.04453" lon="25.13829">
        <ele>227.248115</ele>
        <time>2022-03-03T08:23:18.398Z</time>
      </trkpt>
      <trkpt lat="42.04443" lon="25.13821">
        <ele>226.91816</ele>
        <time>2022-03-03T08:23:22.408Z</time>
      </trkpt>
      <trkpt lat="42.04435" lon="25.13815">
        <ele>226.649896</ele>
        <time>2022-03-03T08:23:25.419Z</time>
      </trkpt>
      <trkpt lat="42.04426" lon="25.13809">
        <ele>226.377677</ele>
        <time>2022-03-03T08:23:28.409Z</time>
      </trkpt>
      <trkpt lat="42.04417" lon="25.13803">
        <ele>226.097578</ele>
        <time>2022-03-03T08:23:31.436Z</time>
      </trkpt>
      <trkpt lat="42.04408" lon="25.13796">
        <ele>225.81801</ele>
        <time>2022-03-03T08:23:34.387Z</time>
      </trkpt>
      <trkpt lat="42.044" lon="25.1379">
        <ele>225.534995</ele>
        <time>2022-03-03T08:23:37.395Z</time>
      </trkpt>
      <trkpt lat="42.0439" lon="25.13782">
        <ele>225.233294</ele>
        <time>2022-03-03T08:23:40.406Z</time>
      </trkpt>
      <trkpt lat="42.04381" lon="25.13775">
        <ele>224.946228</ele>
        <time>2022-03-03T08:23:43.419Z</time>
      </trkpt>
      <trkpt lat="42.04373" lon="25.13769">
        <ele>224.674009</ele>
        <time>2022-03-03T08:23:46.398Z</time>
      </trkpt>
      <trkpt lat="42.04363" lon="25.13761">
        <ele>224.340592</ele>
        <time>2022-03-03T08:23:50.407Z</time>
      </trkpt>
      <trkpt lat="42.04354" lon="25.13754">
        <ele>224.0722</ele>
        <time>2022-03-03T08:23:53.393Z</time>
      </trkpt>
      <trkpt lat="42.04346" lon="25.13748">
        <ele>223.798972</ele>
        <time>2022-03-03T08:23:56.384Z</time>
      </trkpt>
      <trkpt lat="42.04336" lon="25.13742">
        <ele>223.735645</ele>
        <time>2022-03-03T08:23:59.384Z</time>
      </trkpt>
      <trkpt lat="42.04327" lon="25.13735">
        <ele>223.918177</ele>
        <time>2022-03-03T08:24:02.410Z</time>
      </trkpt>
      <trkpt lat="42.04319" lon="25.13727">
        <ele>224.111267</ele>
        <time>2022-03-03T08:24:05.394Z</time>
      </trkpt>
      <trkpt lat="42.0431" lon="25.13719">
        <ele>224.295905</ele>
        <time>2022-03-03T08:24:08.405Z</time>
      </trkpt>
      <trkpt lat="42.04302" lon="25.13712">
        <ele>224.488128</ele>
        <time>2022-03-03T08:24:11.405Z</time>
      </trkpt>
      <trkpt lat="42.04293" lon="25.13704">
        <ele>224.671255</ele>
        <time>2022-03-03T08:24:14.388Z</time>
      </trkpt>
      <trkpt lat="42.04285" lon="25.13696">
        <ele>224.863556</ele>
        <time>2022-03-03T08:24:17.390Z</time>
      </trkpt>
      <trkpt lat="42.04278" lon="25.13688">
        <ele>225.032076</ele>
        <time>2022-03-03T08:24:20.397Z</time>
      </trkpt>
      <trkpt lat="42.04268" lon="25.1368">
        <ele>225.24718</ele>
        <time>2022-03-03T08:24:24.387Z</time>
      </trkpt>
      <trkpt lat="42.0426" lon="25.1367">
        <ele>225.440703</ele>
        <time>2022-03-03T08:24:28.386Z</time>
      </trkpt>
      <trkpt lat="42.04254" lon="25.13661">
        <ele>225.610415</ele>
        <time>2022-03-03T08:24:31.405Z</time>
      </trkpt>
      <trkpt lat="42.04245" lon="25.13654">
        <ele>225.795781</ele>
        <time>2022-03-03T08:24:34.390Z</time>
      </trkpt>
      <trkpt lat="42.04237" lon="25.13644">
        <ele>225.994362</ele>
        <time>2022-03-03T08:24:37.411Z</time>
      </trkpt>
      <trkpt lat="42.04229" lon="25.13636">
        <ele>226.175189</ele>
        <time>2022-03-03T08:24:40.397Z</time>
      </trkpt>
      <trkpt lat="42.0422" lon="25.13626">
        <ele>226.391909</ele>
        <time>2022-03-03T08:24:44.467Z</time>
      </trkpt>
      <trkpt lat="42.04213" lon="25.13615">
        <ele>226.590558</ele>
        <time>2022-03-03T08:24:48.410Z</time>
      </trkpt>
      <trkpt lat="42.04206" lon="25.13607">
        <ele>226.769386</ele>
        <time>2022-03-03T08:24:52.391Z</time>
      </trkpt>
      <trkpt lat="42.04197" lon="25.13596">
        <ele>226.953678</ele>
        <time>2022-03-03T08:24:56.438Z</time>
      </trkpt>
      <trkpt lat="42.0419" lon="25.13587">
        <ele>226.990436</ele>
        <time>2022-03-03T08:24:59.403Z</time>
      </trkpt>
      <trkpt lat="42.04182" lon="25.13578">
        <ele>227.028908</ele>
        <time>2022-03-03T08:25:02.396Z</time>
      </trkpt>
      <trkpt lat="42.04174" lon="25.13568">
        <ele>227.067055</ele>
        <time>2022-03-03T08:25:05.406Z</time>
      </trkpt>
      <trkpt lat="42.04166" lon="25.13559">
        <ele>227.106196</ele>
        <time>2022-03-03T08:25:08.409Z</time>
      </trkpt>
      <trkpt lat="42.04158" lon="25.13551">
        <ele>227.142552</ele>
        <time>2022-03-03T08:25:11.391Z</time>
      </trkpt>
      <trkpt lat="42.04151" lon="25.13543">
        <ele>227.17717</ele>
        <time>2022-03-03T08:25:14.388Z</time>
      </trkpt>
      <trkpt lat="42.04142" lon="25.13534">
        <ele>227.216376</ele>
        <time>2022-03-03T08:25:18.395Z</time>
      </trkpt>
      <trkpt lat="42.04133" lon="25.13524">
        <ele>227.259046</ele>
        <time>2022-03-03T08:25:22.410Z</time>
      </trkpt>
      <trkpt lat="42.04126" lon="25.13513">
        <ele>227.299154</ele>
        <time>2022-03-03T08:25:26.404Z</time>
      </trkpt>
      <trkpt lat="42.04117" lon="25.13504">
        <ele>227.339152</ele>
        <time>2022-03-03T08:25:30.382Z</time>
      </trkpt>
      <trkpt lat="42.04108" lon="25.13494">
        <ele>227.383079</ele>
        <time>2022-03-03T08:25:34.420Z</time>
      </trkpt>
      <trkpt lat="42.04101" lon="25.13486">
        <ele>227.416906</ele>
        <time>2022-03-03T08:25:37.406Z</time>
      </trkpt>
      <trkpt lat="42.04093" lon="25.13479">
        <ele>227.451272</ele>
        <time>2022-03-03T08:25:40.393Z</time>
      </trkpt>
      <trkpt lat="42.04085" lon="25.13468">
        <ele>227.493292</ele>
        <time>2022-03-03T08:25:44.382Z</time>
      </trkpt>
      <trkpt lat="42.04076" lon="25.13458">
        <ele>227.536701</ele>
        <time>2022-03-03T08:25:48.394Z</time>
      </trkpt>
      <trkpt lat="42.04069" lon="25.1345">
        <ele>227.570355</ele>
        <time>2022-03-03T08:25:51.392Z</time>
      </trkpt>
      <trkpt lat="42.04062" lon="25.13441">
        <ele>227.60512</ele>
        <time>2022-03-03T08:25:54.397Z</time>
      </trkpt>
      <trkpt lat="42.04055" lon="25.13433">
        <ele>227.531842</ele>
        <time>2022-03-03T08:25:57.408Z</time>
      </trkpt>
      <trkpt lat="42.04048" lon="25.13423">
        <ele>227.455753</ele>
        <time>2022-03-03T08:26:00.404Z</time>
      </trkpt>
      <trkpt lat="42.04041" lon="25.13411">
        <ele>227.364559</ele>
        <time>2022-03-03T08:26:04.402Z</time>
      </trkpt>
      <trkpt lat="42.04034" lon="25.13398">
        <ele>227.267842</ele>
        <time>2022-03-03T08:26:08.422Z</time>
      </trkpt>
      <trkpt lat="42.04028" lon="25.13388">
        <ele>227.189555</ele>
        <time>2022-03-03T08:26:11.395Z</time>
      </trkpt>
      <trkpt lat="42.04022" lon="25.13377">
        <ele>227.112678</ele>
        <time>2022-03-03T08:26:14.406Z</time>
      </trkpt>
      <trkpt lat="42.04017" lon="25.13366">
        <ele>227.034324</ele>
        <time>2022-03-03T08:26:17.397Z</time>
      </trkpt>
      <trkpt lat="42.04013" lon="25.13354">
        <ele>226.960593</ele>
        <time>2022-03-03T08:26:20.406Z</time>
      </trkpt>
      <trkpt lat="42.04009" lon="25.13343">
        <ele>226.885504</ele>
        <time>2022-03-03T08:26:23.401Z</time>
      </trkpt>
      <trkpt lat="42.04006" lon="25.13329">
        <ele>226.799682</ele>
        <time>2022-03-03T08:26:27.453Z</time>
      </trkpt>
      <trkpt lat="42.04004" lon="25.13313">
        <ele>226.706767</ele>
        <time>2022-03-03T08:26:31.419Z</time>
      </trkpt>
      <trkpt lat="42.04002" lon="25.13301">
        <ele>226.634544</ele>
        <time>2022-03-03T08:26:34.389Z</time>
      </trkpt>
      <trkpt lat="42.04" lon="25.13289">
        <ele>226.562352</ele>
        <time>2022-03-03T08:26:37.386Z</time>
      </trkpt>
      <trkpt lat="42.03999" lon="25.13274">
        <ele>226.473083</ele>
        <time>2022-03-03T08:26:41.389Z</time>
      </trkpt>
      <trkpt lat="42.03998" lon="25.13259">
        <ele>226.381649</ele>
        <time>2022-03-03T08:26:45.393Z</time>
      </trkpt>
      <trkpt lat="42.03996" lon="25.13244">
        <ele>226.291661</ele>
        <time>2022-03-03T08:26:49.436Z</time>
      </trkpt>
      <trkpt lat="42.03995" lon="25.13229">
        <ele>226.205392</ele>
        <time>2022-03-03T08:26:53.408Z</time>
      </trkpt>
      <trkpt lat="42.03995" lon="25.13215">
        <ele>226.34769</ele>
        <time>2022-03-03T08:26:57.402Z</time>
      </trkpt>
      <trkpt lat="42.03995" lon="25.132">
        <ele>226.628029</ele>
        <time>2022-03-03T08:27:01.394Z</time>
      </trkpt>
      <trkpt lat="42.03994" lon="25.13187">
        <ele>226.855947</ele>
        <time>2022-03-03T08:27:05.432Z</time>
      </trkpt>
      <trkpt lat="42.03993" lon="25.13175">
        <ele>227.078379</ele>
        <time>2022-03-03T08:27:09.405Z</time>
      </trkpt>
      <trkpt lat="42.03991" lon="25.13162">
        <ele>227.32073</ele>
        <time>2022-03-03T08:27:13.414Z</time>
      </trkpt>
      <trkpt lat="42.0399" lon="25.1315">
        <ele>227.546781</ele>
        <time>2022-03-03T08:27:17.451Z</time>
      </trkpt>
      <trkpt lat="42.03988" lon="25.13135">
        <ele>227.830065</ele>
        <time>2022-03-03T08:27:22.403Z</time>
      </trkpt>
      <trkpt lat="42.03986" lon="25.1312">
        <ele>228.099077</ele>
        <time>2022-03-03T08:27:27.389Z</time>
      </trkpt>
      <trkpt lat="42.03984" lon="25.13108">
        <ele>228.336804</ele>
        <time>2022-03-03T08:27:32.407Z</time>
      </trkpt>
      <trkpt lat="42.03982" lon="25.13096">
        <ele>228.558426</ele>
        <time>2022-03-03T08:27:36.385Z</time>
      </trkpt>
      <trkpt lat="42.03978" lon="25.13082">
        <ele>228.833373</ele>
        <time>2022-03-03T08:27:41.405Z</time>
      </trkpt>
      <trkpt lat="42.03975" lon="25.1307">
        <ele>229.058251</ele>
        <time>2022-03-03T08:27:45.434Z</time>
      </trkpt>
      <trkpt lat="42.03972" lon="25.13058">
        <ele>229.284112</ele>
        <time>2022-03-03T08:27:49.389Z</time>
      </trkpt>
      <trkpt lat="42.03969" lon="25.13044">
        <ele>229.557316</ele>
        <time>2022-03-03T08:27:54.405Z</time>
      </trkpt>
      <trkpt lat="42.03966" lon="25.13031">
        <ele>229.809794</ele>
        <time>2022-03-03T08:27:59.399Z</time>
      </trkpt>
      <trkpt lat="42.03964" lon="25.13019">
        <ele>230.032575</ele>
        <time>2022-03-03T08:28:03.419Z</time>
      </trkpt>
      <trkpt lat="42.03961" lon="25.13007">
        <ele>230.263654</ele>
        <time>2022-03-03T08:28:07.448Z</time>
      </trkpt>
      <trkpt lat="42.03958" lon="25.12993">
        <ele>230.537138</ele>
        <time>2022-03-03T08:28:12.406Z</time>
      </trkpt>
      <trkpt lat="42.03955" lon="25.12981">
        <ele>230.652416</ele>
        <time>2022-03-03T08:28:16.433Z</time>
      </trkpt>
      <trkpt lat="42.03952" lon="25.12968">
        <ele>230.71626</ele>
        <time>2022-03-03T08:28:20.406Z</time>
      </trkpt>
      <trkpt lat="42.0395" lon="25.12955">
        <ele>230.77687</ele>
        <time>2022-03-03T08:28:24.385Z</time>
      </trkpt>
      <trkpt lat="42.03948" lon="25.12943">
        <ele>230.837124</ele>
        <time>2022-03-03T08:28:28.401Z</time>
      </trkpt>
      <trkpt lat="42.03945" lon="25.1293">
        <ele>230.902836</ele>
        <time>2022-03-03T08:28:32.406Z</time>
      </trkpt>
      <trkpt lat="42.03941" lon="25.12917">
        <ele>230.967855</ele>
        <time>2022-03-03T08:28:36.417Z</time>
      </trkpt>
      <trkpt lat="42.03937" lon="25.12904">
        <ele>231.034209</ele>
        <time>2022-03-03T08:28:40.408Z</time>
      </trkpt>
      <trkpt lat="42.03934" lon="25.12892">
        <ele>231.095911</ele>
        <time>2022-03-03T08:28:44.394Z</time>
      </trkpt>
      <trkpt lat="42.03931" lon="25.12879">
        <ele>231.158575</ele>
        <time>2022-03-03T08:28:48.395Z</time>
      </trkpt>
      <trkpt lat="42.03928" lon="25.12867">
        <ele>231.217803</ele>
        <time>2022-03-03T08:28:52.404Z</time>
      </trkpt>
      <trkpt lat="42.03925" lon="25.12856">
        <ele>231.275294</ele>
        <time>2022-03-03T08:28:56.407Z</time>
      </trkpt>
      <trkpt lat="42.03922" lon="25.12842">
        <ele>231.34326</ele>
        <time>2022-03-03T08:29:00.398Z</time>
      </trkpt>
      <trkpt lat="42.03919" lon="25.12829">
        <ele>231.408501</ele>
        <time>2022-03-03T08:29:04.386Z</time>
      </trkpt>
      <trkpt lat="42.03917" lon="25.12815">
        <ele>231.479275</ele>
        <time>2022-03-03T08:29:09.431Z</time>
      </trkpt>
      <trkpt lat="42.03914" lon="25.12803">
        <ele>231.538656</ele>
        <time>2022-03-03T08:29:13.414Z</time>
      </trkpt>
      <trkpt lat="42.03911" lon="25.1279">
        <ele>231.599507</ele>
        <time>2022-03-03T08:29:17.406Z</time>
      </trkpt>
      <trkpt lat="42.03908" lon="25.12777">
        <ele>231.66567</ele>
        <time>2022-03-03T08:29:21.403Z</time>
      </trkpt>
      <trkpt lat="42.03905" lon="25.12762">
        <ele>231.738719</ele>
        <time>2022-03-03T08:29:25.443Z</time>
      </trkpt>
      <trkpt lat="42.03901" lon="25.12748">
        <ele>231.980539</ele>
        <time>2022-03-03T08:29:29.394Z</time>
      </trkpt>
      <trkpt lat="42.03898" lon="25.12736">
        <ele>232.24447</ele>
        <time>2022-03-03T08:29:32.397Z</time>
      </trkpt>
      <trkpt lat="42.03894" lon="25.12721">
        <ele>232.561462</ele>
        <time>2022-03-03T08:29:36.402Z</time>
      </trkpt>
      <trkpt lat="42.03892" lon="25.1271">
        <ele>232.810853</ele>
        <time>2022-03-03T08:29:39.407Z</time>
      </trkpt>
      <trkpt lat="42.03889" lon="25.12694">
        <ele>233.136906</ele>
        <time>2022-03-03T08:29:43.401Z</time>
      </trkpt>
      <trkpt lat="42.03886" lon="25.12679">
        <ele>233.465986</ele>
        <time>2022-03-03T08:29:47.399Z</time>
      </trkpt>
      <trkpt lat="42.03883" lon="25.12667">
        <ele>233.721038</ele>
        <time>2022-03-03T08:29:50.403Z</time>
      </trkpt>
      <trkpt lat="42.0388" lon="25.12653">
        <ele>234.023269</ele>
        <time>2022-03-03T08:29:54.387Z</time>
      </trkpt>
      <trkpt lat="42.03876" lon="25.12639">
        <ele>234.329448</ele>
        <time>2022-03-03T08:29:58.399Z</time>
      </trkpt>
      <trkpt lat="42.03873" lon="25.12626">
        <ele>234.606873</ele>
        <time>2022-03-03T08:30:02.400Z</time>
      </trkpt>
      <trkpt lat="42.03869" lon="25.12614">
        <ele>234.876783</ele>
        <time>2022-03-03T08:30:06.407Z</time>
      </trkpt>
      <trkpt lat="42.03865" lon="25.12603">
        <ele>235.142089</ele>
        <time>2022-03-03T08:30:10.406Z</time>
      </trkpt>
      <trkpt lat="42.0386" lon="25.12591">
        <ele>235.420664</ele>
        <time>2022-03-03T08:30:14.415Z</time>
      </trkpt>
      <trkpt lat="42.03855" lon="25.1258">
        <ele>235.690294</ele>
        <time>2022-03-03T08:30:18.393Z</time>
      </trkpt>
      <trkpt lat="42.03849" lon="25.1257">
        <ele>235.943405</ele>
        <time>2022-03-03T08:30:22.391Z</time>
      </trkpt>
      <trkpt lat="42.03843" lon="25.12558">
        <ele>236.241891</ele>
        <time>2022-03-03T08:30:27.449Z</time>
      </trkpt>
      <trkpt lat="42.03836" lon="25.12549">
        <ele>236.513291</ele>
        <time>2022-03-03T08:30:31.394Z</time>
      </trkpt>
      <trkpt lat="42.03829" lon="25.12538">
        <ele>236.684409</ele>
        <time>2022-03-03T08:30:35.402Z</time>
      </trkpt>
      <trkpt lat="42.03821" lon="25.12528">
        <ele>236.34233</ele>
        <time>2022-03-03T08:30:39.422Z</time>
      </trkpt>
      <trkpt lat="42.03812" lon="25.12517">
        <ele>236.001755</ele>
        <time>2022-03-03T08:30:43.395Z</time>
      </trkpt>
      <trkpt lat="42.03805" lon="25.12507">
        <ele>235.683056</ele>
        <time>2022-03-03T08:30:47.387Z</time>
      </trkpt>
      <trkpt lat="42.03796" lon="25.12498">
        <ele>235.369627</ele>
        <time>2022-03-03T08:30:51.404Z</time>
      </trkpt>
      <trkpt lat="42.03789" lon="25.1249">
        <ele>235.080135</ele>
        <time>2022-03-03T08:30:55.454Z</time>
      </trkpt>
      <trkpt lat="42.03781" lon="25.12481">
        <ele>234.767856</ele>
        <time>2022-03-03T08:30:59.398Z</time>
      </trkpt>
      <trkpt lat="42.03772" lon="25.12474">
        <ele>234.470484</ele>
        <time>2022-03-03T08:31:03.407Z</time>
      </trkpt>
      <trkpt lat="42.03762" lon="25.12467">
        <ele>234.132042</ele>
        <time>2022-03-03T08:31:07.435Z</time>
      </trkpt>
      <trkpt lat="42.03754" lon="25.12461">
        <ele>233.862831</ele>
        <time>2022-03-03T08:31:10.407Z</time>
      </trkpt>
      <trkpt lat="42.03744" lon="25.12454">
        <ele>233.519114</ele>
        <time>2022-03-03T08:31:14.405Z</time>
      </trkpt>
      <trkpt lat="42.03736" lon="25.12448">
        <ele>233.24267</ele>
        <time>2022-03-03T08:31:17.429Z</time>
      </trkpt>
      <trkpt lat="42.03728" lon="25.12443">
        <ele>232.964939</ele>
        <time>2022-03-03T08:31:20.407Z</time>
      </trkpt>
      <trkpt lat="42.03719" lon="25.12438">
        <ele>232.68157</ele>
        <time>2022-03-03T08:31:23.447Z</time>
      </trkpt>
      <trkpt lat="42.03709" lon="25.12433">
        <ele>232.371907</ele>
        <time>2022-03-03T08:31:26.403Z</time>
      </trkpt>
      <trkpt lat="42.037" lon="25.12427">
        <ele>232.082354</ele>
        <time>2022-03-03T08:31:29.437Z</time>
      </trkpt>
      <trkpt lat="42.03691" lon="25.12422">
        <ele>231.776292</ele>
        <time>2022-03-03T08:31:32.429Z</time>
      </trkpt>
      <trkpt lat="42.03682" lon="25.12417">
        <ele>231.486192</ele>
        <time>2022-03-03T08:31:35.441Z</time>
      </trkpt>
      <trkpt lat="42.03673" lon="25.12414">
        <ele>231.571612</ele>
        <time>2022-03-03T08:31:38.392Z</time>
      </trkpt>
      <trkpt lat="42.03664" lon="25.1241">
        <ele>231.874494</ele>
        <time>2022-03-03T08:31:41.406Z</time>
      </trkpt>
      <trkpt lat="42.03654" lon="25.12405">
        <ele>232.190907</ele>
        <time>2022-03-03T08:31:44.422Z</time>
      </trkpt>
      <trkpt lat="42.03645" lon="25.124">
        <ele>232.513558</ele>
        <time>2022-03-03T08:31:47.405Z</time>
      </trkpt>
      <trkpt lat="42.03636" lon="25.12395">
        <ele>232.810841</ele>
        <time>2022-03-03T08:31:50.408Z</time>
      </trkpt>
      <trkpt lat="42.03627" lon="25.12387">
        <ele>233.160117</ele>
        <time>2022-03-03T08:31:54.383Z</time>
      </trkpt>
      <trkpt lat="42.03618" lon="25.12379">
        <ele>233.510044</ele>
        <time>2022-03-03T08:31:58.409Z</time>
      </trkpt>
      <trkpt lat="42.0361" lon="25.12372">
        <ele>233.803804</ele>
        <time>2022-03-03T08:32:01.400Z</time>
      </trkpt>
      <trkpt lat="42.03602" lon="25.12361">
        <ele>234.155552</ele>
        <time>2022-03-03T08:32:05.387Z</time>
      </trkpt>
      <trkpt lat="42.03594" lon="25.12351">
        <ele>234.513552</ele>
        <time>2022-03-03T08:32:09.384Z</time>
      </trkpt>
      <trkpt lat="42.03585" lon="25.12341">
        <ele>234.884918</ele>
        <time>2022-03-03T08:32:13.402Z</time>
      </trkpt>
      <trkpt lat="42.03577" lon="25.12329">
        <ele>235.25655</ele>
        <time>2022-03-03T08:32:17.398Z</time>
      </trkpt>
      <trkpt lat="42.03571" lon="25.1232">
        <ele>235.546731</ele>
        <time>2022-03-03T08:32:20.394Z</time>
      </trkpt>
      <trkpt lat="42.03563" lon="25.12308">
        <ele>235.928002</ele>
        <time>2022-03-03T08:32:24.394Z</time>
      </trkpt>
      <trkpt lat="42.03557" lon="25.12298">
        <ele>236.221342</ele>
        <time>2022-03-03T08:32:27.408Z</time>
      </trkpt>
      <trkpt lat="42.0355" lon="25.12286">
        <ele>236.580777</ele>
        <time>2022-03-03T08:32:31.398Z</time>
      </trkpt>
      <trkpt lat="42.03543" lon="25.12274">
        <ele>236.936403</ele>
        <time>2022-03-03T08:32:35.397Z</time>
      </trkpt>
      <trkpt lat="42.03536" lon="25.12263">
        <ele>237.169205</ele>
        <time>2022-03-03T08:32:39.404Z</time>
      </trkpt>
      <trkpt lat="42.03531" lon="25.12253">
        <ele>237.291223</ele>
        <time>2022-03-03T08:32:42.397Z</time>
      </trkpt>
      <trkpt lat="42.03525" lon="25.12243">
        <ele>237.413243</ele>
        <time>2022-03-03T08:32:45.399Z</time>
      </trkpt>
      <trkpt lat="42.0352" lon="25.12233">
        <ele>237.532307</ele>
        <time>2022-03-03T08:32:48.402Z</time>
      </trkpt>
      <trkpt lat="42.03514" lon="25.12223">
        <ele>237.653581</ele>
        <time>2022-03-03T08:32:51.411Z</time>
      </trkpt>
      <trkpt lat="42.03508" lon="25.12214">
        <ele>237.77247</ele>
        <time>2022-03-03T08:32:54.386Z</time>
      </trkpt>
      <trkpt lat="42.03501" lon="25.12201">
        <ele>237.926768</ele>
        <time>2022-03-03T08:32:58.400Z</time>
      </trkpt>
      <trkpt lat="42.03495" lon="25.12192">
        <ele>238.045755</ele>
        <time>2022-03-03T08:33:01.388Z</time>
      </trkpt>
      <trkpt lat="42.03488" lon="25.1218">
        <ele>238.20156</ele>
        <time>2022-03-03T08:33:05.400Z</time>
      </trkpt>
      <trkpt lat="42.03482" lon="25.1217">
        <ele>238.320846</ele>
        <time>2022-03-03T08:33:08.412Z</time>
      </trkpt>
      <trkpt lat="42.03474" lon="25.12158">
        <ele>238.476831</ele>
        <time>2022-03-03T08:33:12.389Z</time>
      </trkpt>
      <trkpt lat="42.03469" lon="25.12146">
        <ele>238.61408</ele>
        <time>2022-03-03T08:33:16.400Z</time>
      </trkpt>
      <trkpt lat="42.03462" lon="25.12133">
        <ele>238.76435</ele>
        <time>2022-03-03T08:33:20.399Z</time>
      </trkpt>
      <trkpt lat="42.03456" lon="25.12121">
        <ele>238.910725</ele>
        <time>2022-03-03T08:33:24.382Z</time>
      </trkpt>
      <trkpt lat="42.03449" lon="25.12109">
        <ele>239.053128</ele>
        <time>2022-03-03T08:33:28.390Z</time>
      </trkpt>
      <trkpt lat="42.03443" lon="25.121">
        <ele>239.176343</ele>
        <time>2022-03-03T08:33:31.439Z</time>
      </trkpt>
      <trkpt lat="42.03437" lon="25.12088">
        <ele>239.318701</ele>
        <time>2022-03-03T08:33:35.479Z</time>
      </trkpt>
      <trkpt lat="42.0343" lon="25.12077">
        <ele>239.465848</ele>
        <time>2022-03-03T08:33:39.381Z</time>
      </trkpt>
      <trkpt lat="42.03423" lon="25.12068">
        <ele>239.624125</ele>
        <time>2022-03-03T08:33:42.403Z</time>
      </trkpt>
      <trkpt lat="42.03417" lon="25.12058">
        <ele>239.780665</ele>
        <time>2022-03-03T08:33:45.383Z</time>
      </trkpt>
      <trkpt lat="42.03411" lon="25.12046">
        <ele>239.974725</ele>
        <time>2022-03-03T08:33:49.445Z</time>
      </trkpt>
      <trkpt lat="42.03404" lon="25.12034">
        <ele>240.159646</ele>
        <time>2022-03-03T08:33:53.409Z</time>
      </trkpt>
      <trkpt lat="42.03398" lon="25.12022">
        <ele>240.348829</ele>
        <time>2022-03-03T08:33:57.409Z</time>
      </trkpt>
      <trkpt lat="42.03392" lon="25.12013">
        <ele>240.501889</ele>
        <time>2022-03-03T08:34:00.462Z</time>
      </trkpt>
      <trkpt lat="42.03386" lon="25.12003">
        <ele>240.666096</ele>
        <time>2022-03-03T08:34:03.405Z</time>
      </trkpt>
      <trkpt lat="42.03378" lon="25.11991">
        <ele>240.864373</ele>
        <time>2022-03-03T08:34:07.389Z</time>
      </trkpt>
      <trkpt lat="42.03371" lon="25.11978">
        <ele>241.071645</ele>
        <time>2022-03-03T08:34:11.438Z</time>
      </trkpt>
      <trkpt lat="42.03365" lon="25.11966">
        <ele>241.256563</ele>
        <time>2022-03-03T08:34:15.401Z</time>
      </trkpt>
      <trkpt lat="42.03358" lon="25.11954">
        <ele>241.445543</ele>
        <time>2022-03-03T08:34:19.401Z</time>
      </trkpt>
      <trkpt lat="42.03352" lon="25.11942">
        <ele>241.638735</ele>
        <time>2022-03-03T08:34:23.439Z</time>
      </trkpt>
      <trkpt lat="42.03346" lon="25.11928">
        <ele>241.827841</ele>
        <time>2022-03-03T08:34:27.405Z</time>
      </trkpt>
      <trkpt lat="42.03341" lon="25.11915">
        <ele>242.018042</ele>
        <time>2022-03-03T08:34:31.409Z</time>
      </trkpt>
      <trkpt lat="42.03335" lon="25.11902">
        <ele>242.210194</ele>
        <time>2022-03-03T08:34:35.389Z</time>
      </trkpt>
      <trkpt lat="42.03331" lon="25.11891">
        <ele>242.368638</ele>
        <time>2022-03-03T08:34:38.399Z</time>
      </trkpt>
      <trkpt lat="42.03327" lon="25.1188">
        <ele>242.486955</ele>
        <time>2022-03-03T08:34:41.399Z</time>
      </trkpt>
      <trkpt lat="42.03323" lon="25.11867">
        <ele>242.273703</ele>
        <time>2022-03-03T08:34:44.390Z</time>
      </trkpt>
      <trkpt lat="42.0332" lon="25.11855">
        <ele>242.076648</ele>
        <time>2022-03-03T08:34:47.421Z</time>
      </trkpt>
      <trkpt lat="42.03316" lon="25.11844">
        <ele>241.884186</ele>
        <time>2022-03-03T08:34:50.410Z</time>
      </trkpt>
      <trkpt lat="42.03311" lon="25.11833">
        <ele>241.676317</ele>
        <time>2022-03-03T08:34:53.411Z</time>
      </trkpt>
      <trkpt lat="42.03307" lon="25.11822">
        <ele>241.470911</ele>
        <time>2022-03-03T08:34:56.387Z</time>
      </trkpt>
      <trkpt lat="42.03302" lon="25.11811">
        <ele>241.269424</ele>
        <time>2022-03-03T08:34:59.393Z</time>
      </trkpt>
      <trkpt lat="42.03299" lon="25.11799">
        <ele>241.072368</ele>
        <time>2022-03-03T08:35:02.418Z</time>
      </trkpt>
      <trkpt lat="42.03295" lon="25.11787">
        <ele>240.86806</ele>
        <time>2022-03-03T08:35:05.408Z</time>
      </trkpt>
      <trkpt lat="42.03291" lon="25.11774">
        <ele>240.631788</ele>
        <time>2022-03-03T08:35:08.404Z</time>
      </trkpt>
      <trkpt lat="42.03286" lon="25.11759">
        <ele>240.371852</ele>
        <time>2022-03-03T08:35:11.400Z</time>
      </trkpt>
      <trkpt lat="42.03279" lon="25.11746">
        <ele>240.124107</ele>
        <time>2022-03-03T08:35:14.391Z</time>
      </trkpt>
      <trkpt lat="42.03271" lon="25.11736">
        <ele>239.887875</ele>
        <time>2022-03-03T08:35:17.401Z</time>
      </trkpt>
      <trkpt lat="42.03263" lon="25.11725">
        <ele>239.643723</ele>
        <time>2022-03-03T08:35:20.403Z</time>
      </trkpt>
      <trkpt lat="42.03255" lon="25.11716">
        <ele>239.427996</ele>
        <time>2022-03-03T08:35:23.472Z</time>
      </trkpt>
      <trkpt lat="42.03246" lon="25.11708">
        <ele>239.196839</ele>
        <time>2022-03-03T08:35:26.384Z</time>
      </trkpt>
      <trkpt lat="42.03239" lon="25.11698">
        <ele>238.981594</ele>
        <time>2022-03-03T08:35:29.391Z</time>
      </trkpt>
      <trkpt lat="42.03231" lon="25.11689">
        <ele>238.760979</ele>
        <time>2022-03-03T08:35:32.410Z</time>
      </trkpt>
      <trkpt lat="42.03223" lon="25.1168">
        <ele>238.675422</ele>
        <time>2022-03-03T08:35:35.389Z</time>
      </trkpt>
      <trkpt lat="42.03215" lon="25.11671">
        <ele>238.702657</ele>
        <time>2022-03-03T08:35:38.419Z</time>
      </trkpt>
      <trkpt lat="42.03207" lon="25.1166">
        <ele>238.730649</ele>
        <time>2022-03-03T08:35:41.393Z</time>
      </trkpt>
      <trkpt lat="42.03199" lon="25.11651">
        <ele>238.756889</ele>
        <time>2022-03-03T08:35:44.390Z</time>
      </trkpt>
      <trkpt lat="42.0319" lon="25.11642">
        <ele>238.784415</ele>
        <time>2022-03-03T08:35:47.416Z</time>
      </trkpt>
      <trkpt lat="42.03182" lon="25.11632">
        <ele>238.812031</ele>
        <time>2022-03-03T08:35:50.390Z</time>
      </trkpt>
      <trkpt lat="42.03174" lon="25.11624">
        <ele>238.837909</ele>
        <time>2022-03-03T08:35:53.403Z</time>
      </trkpt>
      <trkpt lat="42.03167" lon="25.11615">
        <ele>238.863266</ele>
        <time>2022-03-03T08:35:56.406Z</time>
      </trkpt>
      <trkpt lat="42.03158" lon="25.11606">
        <ele>238.890046</ele>
        <time>2022-03-03T08:35:59.397Z</time>
      </trkpt>
      <trkpt lat="42.0315" lon="25.11598">
        <ele>238.916233</ele>
        <time>2022-03-03T08:36:02.412Z</time>
      </trkpt>
      <trkpt lat="42.03142" lon="25.11588">
        <ele>238.9431</ele>
        <time>2022-03-03T08:36:05.404Z</time>
      </trkpt>
      <trkpt lat="42.03134" lon="25.11579">
        <ele>238.969646</ele>
        <time>2022-03-03T08:36:08.398Z</time>
      </trkpt>
      <trkpt lat="42.03126" lon="25.11568">
        <ele>238.997895</ele>
        <time>2022-03-03T08:36:11.406Z</time>
      </trkpt>
      <trkpt lat="42.03118" lon="25.11558">
        <ele>239.025963</ele>
        <time>2022-03-03T08:36:14.383Z</time>
      </trkpt>
      <trkpt lat="42.0311" lon="25.11549">
        <ele>239.051603</ele>
        <time>2022-03-03T08:36:17.401Z</time>
      </trkpt>
      <trkpt lat="42.03102" lon="25.11541">
        <ele>239.077482</ele>
        <time>2022-03-03T08:36:20.413Z</time>
      </trkpt>
      <trkpt lat="42.03095" lon="25.11532">
        <ele>239.102337</ele>
        <time>2022-03-03T08:36:23.403Z</time>
      </trkpt>
      <trkpt lat="42.03088" lon="25.11523">
        <ele>239.180853</ele>
        <time>2022-03-03T08:36:26.446Z</time>
      </trkpt>
      <trkpt lat="42.03081" lon="25.11515">
        <ele>239.314589</ele>
        <time>2022-03-03T08:36:29.402Z</time>
      </trkpt>
      <trkpt lat="42.03074" lon="25.11507">
        <ele>239.458288</ele>
        <time>2022-03-03T08:36:32.401Z</time>
      </trkpt>
      <trkpt lat="42.03066" lon="25.11498">
        <ele>239.602278</ele>
        <time>2022-03-03T08:36:35.424Z</time>
      </trkpt>
      <trkpt lat="42.03059" lon="25.1149">
        <ele>239.747809</ele>
        <time>2022-03-03T08:36:38.438Z</time>
      </trkpt>
      <trkpt lat="42.03051" lon="25.11481">
        <ele>239.89287</ele>
        <time>2022-03-03T08:36:41.445Z</time>
      </trkpt>
      <trkpt lat="42.03044" lon="25.11471">
        <ele>240.039272</ele>
        <time>2022-03-03T08:36:44.386Z</time>
      </trkpt>
      <trkpt lat="42.03036" lon="25.11463">
        <ele>240.190748</ele>
        <time>2022-03-03T08:36:47.402Z</time>
      </trkpt>
      <trkpt lat="42.03029" lon="25.11454">
        <ele>240.339248</ele>
        <time>2022-03-03T08:36:50.401Z</time>
      </trkpt>
      <trkpt lat="42.0302" lon="25.11446">
        <ele>240.493912</ele>
        <time>2022-03-03T08:36:53.409Z</time>
      </trkpt>
      <trkpt lat="42.03011" lon="25.11438">
        <ele>240.645489</ele>
        <time>2022-03-03T08:36:56.391Z</time>
      </trkpt>
      <trkpt lat="42.03003" lon="25.1143">
        <ele>240.805657</ele>
        <time>2022-03-03T08:36:59.409Z</time>
      </trkpt>
      <trkpt lat="42.02995" lon="25.11421">
        <ele>240.954423</ele>
        <time>2022-03-03T08:37:02.384Z</time>
      </trkpt>
      <trkpt lat="42.02986" lon="25.11414">
        <ele>241.105348</ele>
        <time>2022-03-03T08:37:05.428Z</time>
      </trkpt>
      <trkpt lat="42.02977" lon="25.11404">
        <ele>241.270132</ele>
        <time>2022-03-03T08:37:08.395Z</time>
      </trkpt>
      <trkpt lat="42.02968" lon="25.11396">
        <ele>241.4302</ele>
        <time>2022-03-03T08:37:11.393Z</time>
      </trkpt>
      <trkpt lat="42.02959" lon="25.11388">
        <ele>241.589658</ele>
        <time>2022-03-03T08:37:14.391Z</time>
      </trkpt>
      <trkpt lat="42.0295" lon="25.1138">
        <ele>241.752808</ele>
        <time>2022-03-03T08:37:17.414Z</time>
      </trkpt>
      <trkpt lat="42.02942" lon="25.11372">
        <ele>242.022741</ele>
        <time>2022-03-03T08:37:20.388Z</time>
      </trkpt>
      <trkpt lat="42.02933" lon="25.11364">
        <ele>242.295963</ele>
        <time>2022-03-03T08:37:23.396Z</time>
      </trkpt>
      <trkpt lat="42.02925" lon="25.11356">
        <ele>242.570053</ele>
        <time>2022-03-03T08:37:26.443Z</time>
      </trkpt>
      <trkpt lat="42.02917" lon="25.11349">
        <ele>242.840785</ele>
        <time>2022-03-03T08:37:29.409Z</time>
      </trkpt>
      <trkpt lat="42.02909" lon="25.11341">
        <ele>243.108133</ele>
        <time>2022-03-03T08:37:32.408Z</time>
      </trkpt>
      <trkpt lat="42.02901" lon="25.11335">
        <ele>243.356351</ele>
        <time>2022-03-03T08:37:35.410Z</time>
      </trkpt>
      <trkpt lat="42.02894" lon="25.11327">
        <ele>243.608141</ele>
        <time>2022-03-03T08:37:38.387Z</time>
      </trkpt>
      <trkpt lat="42.02887" lon="25.11318">
        <ele>243.864293</ele>
        <time>2022-03-03T08:37:41.393Z</time>
      </trkpt>
      <trkpt lat="42.0288" lon="25.11308">
        <ele>244.131135</ele>
        <time>2022-03-03T08:37:44.400Z</time>
      </trkpt>
      <trkpt lat="42.02874" lon="25.11298">
        <ele>244.394875</ele>
        <time>2022-03-03T08:37:47.399Z</time>
      </trkpt>
      <trkpt lat="42.02868" lon="25.11289">
        <ele>244.648769</ele>
        <time>2022-03-03T08:37:50.401Z</time>
      </trkpt>
      <trkpt lat="42.02861" lon="25.11279">
        <ele>244.924443</ele>
        <time>2022-03-03T08:37:53.408Z</time>
      </trkpt>
      <trkpt lat="42.02854" lon="25.11268">
        <ele>245.208225</ele>
        <time>2022-03-03T08:37:56.400Z</time>
      </trkpt>
      <trkpt lat="42.02847" lon="25.11258">
        <ele>245.48489</ele>
        <time>2022-03-03T08:37:59.434Z</time>
      </trkpt>
      <trkpt lat="42.0284" lon="25.11247">
        <ele>245.765691</ele>
        <time>2022-03-03T08:38:02.393Z</time>
      </trkpt>
      <trkpt lat="42.02834" lon="25.11236">
        <ele>246.050461</ele>
        <time>2022-03-03T08:38:05.409Z</time>
      </trkpt>
      <trkpt lat="42.02827" lon="25.11228">
        <ele>246.305335</ele>
        <time>2022-03-03T08:38:08.411Z</time>
      </trkpt>
      <trkpt lat="42.0282" lon="25.11219">
        <ele>246.551883</ele>
        <time>2022-03-03T08:38:11.402Z</time>
      </trkpt>
      <trkpt lat="42.02813" lon="25.11211">
        <ele>246.59761</ele>
        <time>2022-03-03T08:38:14.405Z</time>
      </trkpt>
      <trkpt lat="42.02806" lon="25.11201">
        <ele>246.540229</ele>
        <time>2022-03-03T08:38:17.401Z</time>
      </trkpt>
      <trkpt lat="42.028" lon="25.11191">
        <ele>246.488435</ele>
        <time>2022-03-03T08:38:20.402Z</time>
      </trkpt>
      <trkpt lat="42.02793" lon="25.11181">
        <ele>246.436034</ele>
        <time>2022-03-03T08:38:23.416Z</time>
      </trkpt>
      <trkpt lat="42.02787" lon="25.11171">
        <ele>246.381329</ele>
        <time>2022-03-03T08:38:26.402Z</time>
      </trkpt>
      <trkpt lat="42.02781" lon="25.11162">
        <ele>246.330465</ele>
        <time>2022-03-03T08:38:29.402Z</time>
      </trkpt>
      <trkpt lat="42.02773" lon="25.11151">
        <ele>246.273377</ele>
        <time>2022-03-03T08:38:32.431Z</time>
      </trkpt>
      <trkpt lat="42.02766" lon="25.11141">
        <ele>246.21763</ele>
        <time>2022-03-03T08:38:35.408Z</time>
      </trkpt>
      <trkpt lat="42.0276" lon="25.11131">
        <ele>246.163413</ele>
        <time>2022-03-03T08:38:38.420Z</time>
      </trkpt>
      <trkpt lat="42.02752" lon="25.1112">
        <ele>246.098525</ele>
        <time>2022-03-03T08:38:42.409Z</time>
      </trkpt>
      <trkpt lat="42.02743" lon="25.11107">
        <ele>246.030959</ele>
        <time>2022-03-03T08:38:46.402Z</time>
      </trkpt>
      <trkpt lat="42.02737" lon="25.11098">
        <ele>245.979291</ele>
        <time>2022-03-03T08:38:49.398Z</time>
      </trkpt>
      <trkpt lat="42.02731" lon="25.11086">
        <ele>245.920474</ele>
        <time>2022-03-03T08:38:53.397Z</time>
      </trkpt>
      <trkpt lat="42.02727" lon="25.11071">
        <ele>245.857527</ele>
        <time>2022-03-03T08:38:57.394Z</time>
      </trkpt>
      <trkpt lat="42.02726" lon="25.11058">
        <ele>245.803748</ele>
        <time>2022-03-03T08:39:00.403Z</time>
      </trkpt>
      <trkpt lat="42.02726" lon="25.11043">
        <ele>245.741151</ele>
        <time>2022-03-03T08:39:04.383Z</time>
      </trkpt>
      <trkpt lat="42.02726" lon="25.11029">
        <ele>245.685437</ele>
        <time>2022-03-03T08:39:08.405Z</time>
      </trkpt>
      <trkpt lat="42.02729" lon="25.11014">
        <ele>245.671742</ele>
        <time>2022-03-03T08:39:12.389Z</time>
      </trkpt>
      <trkpt lat="42.02732" lon="25.11">
        <ele>245.716797</ele>
        <time>2022-03-03T08:39:16.392Z</time>
      </trkpt>
      <trkpt lat="42.02734" lon="25.10985">
        <ele>245.765993</ele>
        <time>2022-03-03T08:39:20.391Z</time>
      </trkpt>
      <trkpt lat="42.02737" lon="25.10973">
        <ele>245.804497</ele>
        <time>2022-03-03T08:39:23.395Z</time>
      </trkpt>
      <trkpt lat="42.02738" lon="25.1096">
        <ele>245.84445</ele>
        <time>2022-03-03T08:39:26.402Z</time>
      </trkpt>
      <trkpt lat="42.02739" lon="25.10948">
        <ele>245.885071</ele>
        <time>2022-03-03T08:39:29.401Z</time>
      </trkpt>
      <trkpt lat="42.0274" lon="25.10935">
        <ele>245.926106</ele>
        <time>2022-03-03T08:39:32.403Z</time>
      </trkpt>
      <trkpt lat="42.02741" lon="25.10922">
        <ele>245.964242</ele>
        <time>2022-03-03T08:39:35.394Z</time>
      </trkpt>
      <trkpt lat="42.02742" lon="25.1091">
        <ele>246.003145</ele>
        <time>2022-03-03T08:39:38.388Z</time>
      </trkpt>
      <trkpt lat="42.02741" lon="25.10897">
        <ele>246.044965</ele>
        <time>2022-03-03T08:39:41.405Z</time>
      </trkpt>
      <trkpt lat="42.02738" lon="25.10884">
        <ele>246.087128</ele>
        <time>2022-03-03T08:39:44.388Z</time>
      </trkpt>
      <trkpt lat="42.02733" lon="25.1087">
        <ele>246.135347</ele>
        <time>2022-03-03T08:39:48.390Z</time>
      </trkpt>
      <trkpt lat="42.02727" lon="25.10858">
        <ele>246.182825</ele>
        <time>2022-03-03T08:39:52.411Z</time>
      </trkpt>
      <trkpt lat="42.0272" lon="25.10846">
        <ele>246.230066</ele>
        <time>2022-03-03T08:39:56.405Z</time>
      </trkpt>
      <trkpt lat="42.02712" lon="25.10835">
        <ele>246.275802</ele>
        <time>2022-03-03T08:40:00.387Z</time>
      </trkpt>
      <trkpt lat="42.02705" lon="25.10825">
        <ele>246.317238</ele>
        <time>2022-03-03T08:40:03.386Z</time>
      </trkpt>
      <trkpt lat="42.02699" lon="25.10816">
        <ele>246.35806</ele>
        <time>2022-03-03T08:40:06.403Z</time>
      </trkpt>
      <trkpt lat="42.02692" lon="25.10805">
        <ele>246.401403</ele>
        <time>2022-03-03T08:40:09.407Z</time>
      </trkpt>
      <trkpt lat="42.02687" lon="25.10796">
        <ele>246.622298</ele>
        <time>2022-03-03T08:40:12.408Z</time>
      </trkpt>
      <trkpt lat="42.02681" lon="25.10785">
        <ele>246.906387</ele>
        <time>2022-03-03T08:40:15.413Z</time>
      </trkpt>
      <trkpt lat="42.02674" lon="25.10775">
        <ele>247.195006</ele>
        <time>2022-03-03T08:40:18.402Z</time>
      </trkpt>
      <trkpt lat="42.02669" lon="25.10764">
        <ele>247.475652</ele>
        <time>2022-03-03T08:40:21.408Z</time>
      </trkpt>
      <trkpt lat="42.02662" lon="25.10753">
        <ele>247.799948</ele>
        <time>2022-03-03T08:40:25.414Z</time>
      </trkpt>
      <trkpt lat="42.02655" lon="25.1074">
        <ele>248.132596</ele>
        <time>2022-03-03T08:40:29.399Z</time>
      </trkpt>
      <trkpt lat="42.02649" lon="25.10727">
        <ele>248.463134</ele>
        <time>2022-03-03T08:40:33.405Z</time>
      </trkpt>
      <trkpt lat="42.02643" lon="25.10714">
        <ele>248.807119</ele>
        <time>2022-03-03T08:40:37.399Z</time>
      </trkpt>
      <trkpt lat="42.02636" lon="25.10702">
        <ele>249.131012</ele>
        <time>2022-03-03T08:40:41.393Z</time>
      </trkpt>
      <trkpt lat="42.02629" lon="25.10689">
        <ele>249.477572</ele>
        <time>2022-03-03T08:40:45.445Z</time>
      </trkpt>
      <trkpt lat="42.02622" lon="25.10675">
        <ele>249.835085</ele>
        <time>2022-03-03T08:40:49.400Z</time>
      </trkpt>
      <trkpt lat="42.02615" lon="25.10663">
        <ele>250.169475</ele>
        <time>2022-03-03T08:40:53.409Z</time>
      </trkpt>
      <trkpt lat="42.02608" lon="25.10652">
        <ele>250.490687</ele>
        <time>2022-03-03T08:40:57.403Z</time>
      </trkpt>
      <trkpt lat="42.026" lon="25.1064">
        <ele>250.81543</ele>
        <time>2022-03-03T08:41:01.389Z</time>
      </trkpt>
      <trkpt lat="42.02593" lon="25.10628">
        <ele>251.150275</ele>
        <time>2022-03-03T08:41:05.395Z</time>
      </trkpt>
      <trkpt lat="42.02585" lon="25.10617">
        <ele>251.489151</ele>
        <time>2022-03-03T08:41:09.407Z</time>
      </trkpt>
      <trkpt lat="42.02578" lon="25.10608">
        <ele>251.671279</ele>
        <time>2022-03-03T08:41:12.386Z</time>
      </trkpt>
      <trkpt lat="42.0257" lon="25.10598">
        <ele>251.772426</ele>
        <time>2022-03-03T08:41:16.405Z</time>
      </trkpt>
      <trkpt lat="42.02563" lon="25.10588">
        <ele>251.856937</ele>
        <time>2022-03-03T08:41:20.400Z</time>
      </trkpt>
      <trkpt lat="42.02558" lon="25.10577">
        <ele>251.94588</ele>
        <time>2022-03-03T08:41:25.378Z</time>
      </trkpt>
      <trkpt lat="42.02552" lon="25.10567">
        <ele>252.027246</ele>
        <time>2022-03-03T08:41:29.400Z</time>
      </trkpt>
      <trkpt lat="42.02546" lon="25.10557">
        <ele>252.110571</ele>
        <time>2022-03-03T08:41:33.394Z</time>
      </trkpt>
      <trkpt lat="42.02538" lon="25.10547">
        <ele>252.19983</ele>
        <time>2022-03-03T08:41:37.390Z</time>
      </trkpt>
      <trkpt lat="42.02532" lon="25.10539">
        <ele>252.280113</ele>
        <time>2022-03-03T08:41:40.381Z</time>
      </trkpt>
      <trkpt lat="42.02525" lon="25.10529">
        <ele>252.370131</ele>
        <time>2022-03-03T08:41:43.395Z</time>
      </trkpt>
      <trkpt lat="42.02518" lon="25.10519">
        <ele>252.458332</ele>
        <time>2022-03-03T08:41:46.400Z</time>
      </trkpt>
      <trkpt lat="42.02512" lon="25.10509">
        <ele>252.54059</ele>
        <time>2022-03-03T08:41:49.397Z</time>
      </trkpt>
      <trkpt lat="42.02505" lon="25.105">
        <ele>252.628319</ele>
        <time>2022-03-03T08:41:52.397Z</time>
      </trkpt>
      <trkpt lat="42.02498" lon="25.1049">
        <ele>252.714164</ele>
        <time>2022-03-03T08:41:55.422Z</time>
      </trkpt>
      <trkpt lat="42.02492" lon="25.1048">
        <ele>252.794563</ele>
        <time>2022-03-03T08:41:58.402Z</time>
      </trkpt>
      <trkpt lat="42.02486" lon="25.10469">
        <ele>252.889498</ele>
        <time>2022-03-03T08:42:01.388Z</time>
      </trkpt>
      <trkpt lat="42.02479" lon="25.10458">
        <ele>252.977804</ele>
        <time>2022-03-03T08:42:04.386Z</time>
      </trkpt>
      <trkpt lat="42.02473" lon="25.10448">
        <ele>253.064934</ele>
        <time>2022-03-03T08:42:07.404Z</time>
      </trkpt>
      <trkpt lat="42.02466" lon="25.10439">
        <ele>253.148743</ele>
        <time>2022-03-03T08:42:10.393Z</time>
      </trkpt>
      <trkpt lat="42.0246" lon="25.10429">
        <ele>253.144759</ele>
        <time>2022-03-03T08:42:13.405Z</time>
      </trkpt>
      <trkpt lat="42.02454" lon="25.1042">
        <ele>252.942078</ele>
        <time>2022-03-03T08:42:16.387Z</time>
      </trkpt>
      <trkpt lat="42.02448" lon="25.10409">
        <ele>252.721346</ele>
        <time>2022-03-03T08:42:19.435Z</time>
      </trkpt>
      <trkpt lat="42.02442" lon="25.104">
        <ele>252.510831</ele>
        <time>2022-03-03T08:42:22.507Z</time>
      </trkpt>
      <trkpt lat="42.02435" lon="25.1039">
        <ele>252.304374</ele>
        <time>2022-03-03T08:42:25.386Z</time>
      </trkpt>
      <trkpt lat="42.02426" lon="25.10379">
        <ele>252.03504</ele>
        <time>2022-03-03T08:42:29.400Z</time>
      </trkpt>
      <trkpt lat="42.02419" lon="25.10368">
        <ele>251.803669</ele>
        <time>2022-03-03T08:42:32.390Z</time>
      </trkpt>
      <trkpt lat="42.02413" lon="25.10358">
        <ele>251.588243</ele>
        <time>2022-03-03T08:42:35.405Z</time>
      </trkpt>
      <trkpt lat="42.02407" lon="25.10347">
        <ele>251.366364</ele>
        <time>2022-03-03T08:42:38.396Z</time>
      </trkpt>
      <trkpt lat="42.02401" lon="25.10336">
        <ele>251.13921</ele>
        <time>2022-03-03T08:42:41.382Z</time>
      </trkpt>
      <trkpt lat="42.02395" lon="25.10325">
        <ele>250.917087</ele>
        <time>2022-03-03T08:42:44.391Z</time>
      </trkpt>
      <trkpt lat="42.02389" lon="25.10316">
        <ele>250.7181</ele>
        <time>2022-03-03T08:42:47.436Z</time>
      </trkpt>
      <trkpt lat="42.02381" lon="25.10306">
        <ele>250.478699</ele>
        <time>2022-03-03T08:42:51.407Z</time>
      </trkpt>
      <trkpt lat="42.02373" lon="25.10295">
        <ele>250.225399</ele>
        <time>2022-03-03T08:42:55.387Z</time>
      </trkpt>
      <trkpt lat="42.02365" lon="25.10284">
        <ele>249.979407</ele>
        <time>2022-03-03T08:42:59.390Z</time>
      </trkpt>
      <trkpt lat="42.02358" lon="25.10273">
        <ele>249.727909</ele>
        <time>2022-03-03T08:43:03.432Z</time>
      </trkpt>
      <trkpt lat="42.0235" lon="25.10264">
        <ele>249.51375</ele>
        <time>2022-03-03T08:43:06.406Z</time>
      </trkpt>
      <trkpt lat="42.02342" lon="25.10256">
        <ele>249.290389</ele>
        <time>2022-03-03T08:43:09.407Z</time>
      </trkpt>
      <trkpt lat="42.02334" lon="25.10247">
        <ele>249.291892</ele>
        <time>2022-03-03T08:43:12.394Z</time>
      </trkpt>
      <trkpt lat="42.02327" lon="25.10239">
        <ele>249.346158</ele>
        <time>2022-03-03T08:43:15.410Z</time>
      </trkpt>
      <trkpt lat="42.0232" lon="25.10231">
        <ele>249.39972</ele>
        <time>2022-03-03T08:43:18.407Z</time>
      </trkpt>
      <trkpt lat="42.02312" lon="25.10223">
        <ele>249.454644</ele>
        <time>2022-03-03T08:43:21.393Z</time>
      </trkpt>
      <trkpt lat="42.02305" lon="25.10214">
        <ele>249.51027</ele>
        <time>2022-03-03T08:43:24.393Z</time>
      </trkpt>
      <trkpt lat="42.02297" lon="25.10204">
        <ele>249.572782</ele>
        <time>2022-03-03T08:43:27.409Z</time>
      </trkpt>
      <trkpt lat="42.0229" lon="25.10194">
        <ele>249.628269</ele>
        <time>2022-03-03T08:43:30.397Z</time>
      </trkpt>
      <trkpt lat="42.02284" lon="25.10184">
        <ele>249.681962</ele>
        <time>2022-03-03T08:43:33.407Z</time>
      </trkpt>
      <trkpt lat="42.0228" lon="25.10171">
        <ele>249.743305</ele>
        <time>2022-03-03T08:43:37.413Z</time>
      </trkpt>
      <trkpt lat="42.02278" lon="25.10155">
        <ele>249.81031</ele>
        <time>2022-03-03T08:43:41.395Z</time>
      </trkpt>
      <trkpt lat="42.02277" lon="25.10141">
        <ele>249.869104</ele>
        <time>2022-03-03T08:43:45.408Z</time>
      </trkpt>
      <trkpt lat="42.02276" lon="25.10128">
        <ele>249.922712</ele>
        <time>2022-03-03T08:43:49.387Z</time>
      </trkpt>
      <trkpt lat="42.02276" lon="25.10116">
        <ele>249.974449</ele>
        <time>2022-03-03T08:43:53.416Z</time>
      </trkpt>
      <trkpt lat="42.02275" lon="25.10102">
        <ele>250.034725</ele>
        <time>2022-03-03T08:43:58.382Z</time>
      </trkpt>
      <trkpt lat="42.02276" lon="25.10089">
        <ele>250.089975</ele>
        <time>2022-03-03T08:44:03.384Z</time>
      </trkpt>
      <trkpt lat="42.02278" lon="25.10075">
        <ele>250.149419</ele>
        <time>2022-03-03T08:44:08.403Z</time>
      </trkpt>
      <trkpt lat="42.02278" lon="25.10062">
        <ele>250.20368</ele>
        <time>2022-03-03T08:44:13.404Z</time>
      </trkpt>
      <trkpt lat="42.02279" lon="25.10049">
        <ele>250.257964</ele>
        <time>2022-03-03T08:44:18.401Z</time>
      </trkpt>
      <trkpt lat="42.0228" lon="25.10034">
        <ele>250.631064</ele>
        <time>2022-03-03T08:44:23.405Z</time>
      </trkpt>
      <trkpt lat="42.0228" lon="25.1002">
        <ele>251.00396</ele>
        <time>2022-03-03T08:44:28.399Z</time>
      </trkpt>
      <trkpt lat="42.02282" lon="25.10008">
        <ele>251.339098</ele>
        <time>2022-03-03T08:44:33.438Z</time>
      </trkpt>
      <trkpt lat="42.02283" lon="25.09995">
        <ele>251.678647</ele>
        <time>2022-03-03T08:44:39.390Z</time>
      </trkpt>
      <trkpt lat="42.02284" lon="25.09981">
        <ele>252.061487</ele>
        <time>2022-03-03T08:44:44.450Z</time>
      </trkpt>
      <trkpt lat="42.02284" lon="25.09968">
        <ele>252.420424</ele>
        <time>2022-03-03T08:44:49.406Z</time>
      </trkpt>
      <trkpt lat="42.02285" lon="25.09956">
        <ele>252.756176</ele>
        <time>2022-03-03T08:44:54.394Z</time>
      </trkpt>
      <trkpt lat="42.02287" lon="25.09943">
        <ele>253.111417</ele>
        <time>2022-03-03T08:44:59.406Z</time>
      </trkpt>
      <trkpt lat="42.02288" lon="25.09931">
        <ele>253.444819</ele>
        <time>2022-03-03T08:45:04.414Z</time>
      </trkpt>
      <trkpt lat="42.02289" lon="25.09917">
        <ele>253.817715</ele>
        <time>2022-03-03T08:45:10.407Z</time>
      </trkpt>
      <trkpt lat="42.02291" lon="25.09903">
        <ele>254.192396</ele>
        <time>2022-03-03T08:45:15.402Z</time>
      </trkpt>
      <trkpt lat="42.02292" lon="25.09891">
        <ele>254.531167</ele>
        <time>2022-03-03T08:45:20.413Z</time>
      </trkpt>
      <trkpt lat="42.02293" lon="25.09878">
        <ele>254.887238</ele>
        <time>2022-03-03T08:45:25.403Z</time>
      </trkpt>
      <trkpt lat="42.02296" lon="25.09865">
        <ele>255.246865</ele>
        <time>2022-03-03T08:45:30.390Z</time>
      </trkpt>
      <trkpt lat="42.02295" lon="25.09851">
        <ele>255.614016</ele>
        <time>2022-03-03T08:45:35.391Z</time>
      </trkpt>
      <trkpt lat="42.02296" lon="25.09837">
        <ele>255.9948</ele>
        <time>2022-03-03T08:45:40.447Z</time>
      </trkpt>
      <trkpt lat="42.02297" lon="25.09823">
        <ele>256.36849</ele>
        <time>2022-03-03T08:45:45.407Z</time>
      </trkpt>
      <trkpt lat="42.02298" lon="25.09809">
        <ele>256.752639</ele>
        <time>2022-03-03T08:45:50.396Z</time>
      </trkpt>
      <trkpt lat="42.02299" lon="25.09796">
        <ele>257.04234</ele>
        <time>2022-03-03T08:45:56.457Z</time>
      </trkpt>
      <trkpt lat="42.023" lon="25.09781">
        <ele>257.335218</ele>
        <time>2022-03-03T08:46:01.398Z</time>
      </trkpt>
      <trkpt lat="42.02299" lon="25.09767">
        <ele>257.62166</ele>
        <time>2022-03-03T08:46:05.406Z</time>
      </trkpt>
      <trkpt lat="42.02298" lon="25.09753">
        <ele>257.923577</ele>
        <time>2022-03-03T08:46:09.398Z</time>
      </trkpt>
      <trkpt lat="42.02297" lon="25.09739">
        <ele>258.217293</ele>
        <time>2022-03-03T08:46:13.427Z</time>
      </trkpt>
      <trkpt lat="42.02296" lon="25.09726">
        <ele>258.47897</ele>
        <time>2022-03-03T08:46:17.406Z</time>
      </trkpt>
      <trkpt lat="42.02293" lon="25.09713">
        <ele>258.765469</ele>
        <time>2022-03-03T08:46:22.393Z</time>
      </trkpt>
      <trkpt lat="42.02291" lon="25.09698">
        <ele>259.077761</ele>
        <time>2022-03-03T08:46:27.407Z</time>
      </trkpt>
      <trkpt lat="42.02288" lon="25.09685">
        <ele>259.342667</ele>
        <time>2022-03-03T08:46:31.395Z</time>
      </trkpt>
      <trkpt lat="42.02287" lon="25.09673">
        <ele>259.607919</ele>
        <time>2022-03-03T08:46:35.390Z</time>
      </trkpt>
      <trkpt lat="42.02284" lon="25.0966">
        <ele>259.884481</ele>
        <time>2022-03-03T08:46:39.401Z</time>
      </trkpt>
      <trkpt lat="42.02281" lon="25.09647">
        <ele>260.168326</ele>
        <time>2022-03-03T08:46:43.409Z</time>
      </trkpt>
      <trkpt lat="42.02277" lon="25.09635">
        <ele>260.423198</ele>
        <time>2022-03-03T08:46:47.437Z</time>
      </trkpt>
      <trkpt lat="42.02275" lon="25.09621">
        <ele>260.727404</ele>
        <time>2022-03-03T08:46:52.391Z</time>
      </trkpt>
      <trkpt lat="42.02273" lon="25.09608">
        <ele>261.003368</ele>
        <time>2022-03-03T08:46:56.392Z</time>
      </trkpt>
      <trkpt lat="42.02271" lon="25.09595">
        <ele>261.263887</ele>
        <time>2022-03-03T08:47:00.392Z</time>
      </trkpt>
      <trkpt lat="42.02269" lon="25.09581">
        <ele>261.577262</ele>
        <time>2022-03-03T08:47:05.416Z</time>
      </trkpt>
      <trkpt lat="42.02265" lon="25.09569">
        <ele>261.80877</ele>
        <time>2022-03-03T08:47:09.389Z</time>
      </trkpt>
      <trkpt lat="42.02262" lon="25.09557">
        <ele>261.938768</ele>
        <time>2022-03-03T08:47:13.407Z</time>
      </trkpt>
      <trkpt lat="42.02261" lon="25.09542">
        <ele>262.091347</ele>
        <time>2022-03-03T08:47:17.413Z</time>
      </trkpt>
      <trkpt lat="42.02259" lon="25.09529">
        <ele>262.231951</ele>
        <time>2022-03-03T08:47:21.410Z</time>
      </trkpt>
      <trkpt lat="42.02257" lon="25.09516">
        <ele>262.370602</ele>
        <time>2022-03-03T08:47:25.437Z</time>
      </trkpt>
      <trkpt lat="42.02255" lon="25.09503">
        <ele>262.500564</ele>
        <time>2022-03-03T08:47:29.376Z</time>
      </trkpt>
      <trkpt lat="42.02254" lon="25.09491">
        <ele>262.630048</ele>
        <time>2022-03-03T08:47:33.405Z</time>
      </trkpt>
      <trkpt lat="42.02251" lon="25.09479">
        <ele>262.759777</ele>
        <time>2022-03-03T08:47:37.430Z</time>
      </trkpt>
      <trkpt lat="42.02248" lon="25.09466">
        <ele>262.895532</ele>
        <time>2022-03-03T08:47:41.403Z</time>
      </trkpt>
      <trkpt lat="42.02245" lon="25.09453">
        <ele>263.039384</ele>
        <time>2022-03-03T08:47:45.398Z</time>
      </trkpt>
      <trkpt lat="42.02242" lon="25.0944">
        <ele>263.178448</ele>
        <time>2022-03-03T08:47:49.396Z</time>
      </trkpt>
      <trkpt lat="42.0224" lon="25.09427">
        <ele>263.311516</ele>
        <time>2022-03-03T08:47:53.400Z</time>
      </trkpt>
      <trkpt lat="42.02237" lon="25.09415">
        <ele>263.44272</ele>
        <time>2022-03-03T08:47:57.397Z</time>
      </trkpt>
      <trkpt lat="42.02236" lon="25.09402">
        <ele>263.57845</ele>
        <time>2022-03-03T08:48:01.398Z</time>
      </trkpt>
      <trkpt lat="42.02234" lon="25.0939">
        <ele>263.707844</ele>
        <time>2022-03-03T08:48:05.398Z</time>
      </trkpt>
      <trkpt lat="42.02232" lon="25.09378">
        <ele>263.838241</ele>
        <time>2022-03-03T08:48:09.405Z</time>
      </trkpt>
      <trkpt lat="42.0223" lon="25.09365">
        <ele>263.97003</ele>
        <time>2022-03-03T08:48:13.395Z</time>
      </trkpt>
      <trkpt lat="42.02228" lon="25.09353">
        <ele>264.099104</ele>
        <time>2022-03-03T08:48:17.411Z</time>
      </trkpt>
      <trkpt lat="42.02226" lon="25.0934">
        <ele>264.233918</ele>
        <time>2022-03-03T08:48:21.438Z</time>
      </trkpt>
      <trkpt lat="42.02223" lon="25.09327">
        <ele>264.171763</ele>
        <time>2022-03-03T08:48:25.418Z</time>
      </trkpt>
      <trkpt lat="42.02221" lon="25.09313">
        <ele>264.017693</ele>
        <time>2022-03-03T08:48:29.401Z</time>
      </trkpt>
      <trkpt lat="42.02218" lon="25.09301">
        <ele>263.884806</ele>
        <time>2022-03-03T08:48:33.397Z</time>
      </trkpt>
      <trkpt lat="42.02215" lon="25.09289">
        <ele>263.751478</ele>
        <time>2022-03-03T08:48:37.495Z</time>
      </trkpt>
      <trkpt lat="42.02213" lon="25.09277">
        <ele>263.616684</ele>
        <time>2022-03-03T08:48:41.376Z</time>
      </trkpt>
      <trkpt lat="42.02211" lon="25.09265">
        <ele>263.479413</ele>
        <time>2022-03-03T08:48:45.402Z</time>
      </trkpt>
      <trkpt lat="42.02208" lon="25.09253">
        <ele>263.339021</ele>
        <time>2022-03-03T08:48:49.407Z</time>
      </trkpt>
      <trkpt lat="42.02206" lon="25.09239">
        <ele>263.190517</ele>
        <time>2022-03-03T08:48:53.401Z</time>
      </trkpt>
      <trkpt lat="42.02204" lon="25.09227">
        <ele>263.052125</ele>
        <time>2022-03-03T08:48:57.403Z</time>
      </trkpt>
      <trkpt lat="42.02202" lon="25.09215">
        <ele>262.921568</ele>
        <time>2022-03-03T08:49:01.423Z</time>
      </trkpt>
      <trkpt lat="42.02199" lon="25.09204">
        <ele>262.78868</ele>
        <time>2022-03-03T08:49:05.436Z</time>
      </trkpt>
      <trkpt lat="42.02197" lon="25.09191">
        <ele>262.651105</ele>
        <time>2022-03-03T08:49:09.421Z</time>
      </trkpt>
      <trkpt lat="42.02195" lon="25.09178">
        <ele>262.507106</ele>
        <time>2022-03-03T08:49:13.406Z</time>
      </trkpt>
      <trkpt lat="42.02193" lon="25.09166">
        <ele>262.372652</ele>
        <time>2022-03-03T08:49:17.394Z</time>
      </trkpt>
      <trkpt lat="42.02189" lon="25.09154">
        <ele>262.231274</ele>
        <time>2022-03-03T08:49:21.399Z</time>
      </trkpt>
      <trkpt lat="42.02186" lon="25.09141">
        <ele>262.086724</ele>
        <time>2022-03-03T08:49:25.390Z</time>
      </trkpt>
      <trkpt lat="42.02183" lon="25.09128">
        <ele>261.935186</ele>
        <time>2022-03-03T08:49:29.407Z</time>
      </trkpt>
      <trkpt lat="42.02178" lon="25.09115">
        <ele>261.772213</ele>
        <time>2022-03-03T08:49:33.436Z</time>
      </trkpt>
      <trkpt lat="42.02172" lon="25.09102">
        <ele>261.619378</ele>
        <time>2022-03-03T08:49:37.410Z</time>
      </trkpt>
      <trkpt lat="42.02167" lon="25.09091">
        <ele>261.510361</ele>
        <time>2022-03-03T08:49:40.399Z</time>
      </trkpt>
      <trkpt lat="42.02162" lon="25.0908">
        <ele>261.399543</ele>
        <time>2022-03-03T08:49:43.394Z</time>
      </trkpt>
      <trkpt lat="42.02157" lon="25.09069">
        <ele>261.290371</ele>
        <time>2022-03-03T08:49:46.399Z</time>
      </trkpt>
      <trkpt lat="42.02151" lon="25.09057">
        <ele>261.173998</ele>
        <time>2022-03-03T08:49:49.422Z</time>
      </trkpt>
      <trkpt lat="42.02146" lon="25.09046">
        <ele>261.0617</ele>
        <time>2022-03-03T08:49:52.395Z</time>
      </trkpt>
      <trkpt lat="42.0214" lon="25.09032">
        <ele>260.926215</ele>
        <time>2022-03-03T08:49:56.396Z</time>
      </trkpt>
      <trkpt lat="42.02135" lon="25.09018">
        <ele>260.797032</ele>
        <time>2022-03-03T08:50:00.445Z</time>
      </trkpt>
      <trkpt lat="42.02127" lon="25.09005">
        <ele>260.656286</ele>
        <time>2022-03-03T08:50:04.407Z</time>
      </trkpt>
      <trkpt lat="42.02122" lon="25.08994">
        <ele>260.54466</ele>
        <time>2022-03-03T08:50:07.403Z</time>
      </trkpt>
      <trkpt lat="42.02116" lon="25.08982">
        <ele>260.42308</ele>
        <time>2022-03-03T08:50:10.396Z</time>
      </trkpt>
      <trkpt lat="42.0211" lon="25.08969">
        <ele>260.296331</ele>
        <time>2022-03-03T08:50:13.398Z</time>
      </trkpt>
      <trkpt lat="42.02104" lon="25.08956">
        <ele>260.166501</ele>
        <time>2022-03-03T08:50:16.396Z</time>
      </trkpt>
      <trkpt lat="42.02098" lon="25.08943">
        <ele>260.033608</ele>
        <time>2022-03-03T08:50:19.417Z</time>
      </trkpt>
      <trkpt lat="42.02093" lon="25.08929">
        <ele>259.90513</ele>
        <time>2022-03-03T08:50:22.420Z</time>
      </trkpt>
      <trkpt lat="42.02088" lon="25.08916">
        <ele>259.781521</ele>
        <time>2022-03-03T08:50:25.396Z</time>
      </trkpt>
      <trkpt lat="42.02083" lon="25.08903">
        <ele>259.657621</ele>
        <time>2022-03-03T08:50:28.414Z</time>
      </trkpt>
      <trkpt lat="42.02078" lon="25.08889">
        <ele>259.621276</ele>
        <time>2022-03-03T08:50:31.409Z</time>
      </trkpt>
      <trkpt lat="42.02073" lon="25.08874">
        <ele>259.639068</ele>
        <time>2022-03-03T08:50:34.391Z</time>
      </trkpt>
      <trkpt lat="42.02068" lon="25.08858">
        <ele>259.658617</ele>
        <time>2022-03-03T08:50:37.408Z</time>
      </trkpt>
      <trkpt lat="42.02063" lon="25.08843">
        <ele>259.676509</ele>
        <time>2022-03-03T08:50:40.445Z</time>
      </trkpt>
      <trkpt lat="42.02058" lon="25.08829">
        <ele>259.693575</ele>
        <time>2022-03-03T08:50:43.404Z</time>
      </trkpt>
      <trkpt lat="42.02055" lon="25.08815">
        <ele>259.709918</ele>
        <time>2022-03-03T08:50:46.417Z</time>
      </trkpt>
      <trkpt lat="42.02053" lon="25.08802">
        <ele>259.724193</ele>
        <time>2022-03-03T08:50:49.398Z</time>
      </trkpt>
      <trkpt lat="42.02049" lon="25.08791">
        <ele>259.737973</ele>
        <time>2022-03-03T08:50:52.398Z</time>
      </trkpt>
      <trkpt lat="42.02045" lon="25.08776">
        <ele>259.755659</ele>
        <time>2022-03-03T08:50:56.398Z</time>
      </trkpt>
      <trkpt lat="42.02042" lon="25.08763">
        <ele>259.770597</ele>
        <time>2022-03-03T08:50:59.411Z</time>
      </trkpt>
      <trkpt lat="42.02038" lon="25.08749">
        <ele>259.787603</ele>
        <time>2022-03-03T08:51:02.463Z</time>
      </trkpt>
      <trkpt lat="42.02034" lon="25.08735">
        <ele>259.803628</ele>
        <time>2022-03-03T08:51:05.411Z</time>
      </trkpt>
      <trkpt lat="42.0203" lon="25.08723">
        <ele>259.818262</ele>
        <time>2022-03-03T08:51:08.403Z</time>
      </trkpt>
      <trkpt lat="42.02026" lon="25.0871">
        <ele>259.833029</ele>
        <time>2022-03-03T08:51:11.406Z</time>
      </trkpt>
      <trkpt lat="42.02022" lon="25.08698">
        <ele>259.847879</ele>
        <time>2022-03-03T08:51:14.397Z</time>
      </trkpt>
      <trkpt lat="42.02018" lon="25.08686">
        <ele>259.862045</ele>
        <time>2022-03-03T08:51:17.417Z</time>
      </trkpt>
      <trkpt lat="42.02015" lon="25.08675">
        <ele>259.875433</ele>
        <time>2022-03-03T08:51:20.405Z</time>
      </trkpt>
      <trkpt lat="42.0201" lon="25.08661">
        <ele>259.843617</ele>
        <time>2022-03-03T08:51:24.448Z</time>
      </trkpt>
      <trkpt lat="42.02006" lon="25.08647">
        <ele>259.808122</ele>
        <time>2022-03-03T08:51:28.393Z</time>
      </trkpt>
      <trkpt lat="42.02002" lon="25.08636">
        <ele>259.777902</ele>
        <time>2022-03-03T08:51:31.406Z</time>
      </trkpt>
      <trkpt lat="42.01998" lon="25.08624">
        <ele>259.745865</ele>
        <time>2022-03-03T08:51:34.388Z</time>
      </trkpt>
      <trkpt lat="42.01994" lon="25.08612">
        <ele>259.713747</ele>
        <time>2022-03-03T08:51:37.391Z</time>
      </trkpt>
      <trkpt lat="42.0199" lon="25.086">
        <ele>259.68127</ele>
        <time>2022-03-03T08:51:40.393Z</time>
      </trkpt>
      <trkpt lat="42.01986" lon="25.08588">
        <ele>259.649891</ele>
        <time>2022-03-03T08:51:43.410Z</time>
      </trkpt>
      <trkpt lat="42.01981" lon="25.08576">
        <ele>259.617712</ele>
        <time>2022-03-03T08:51:46.448Z</time>
      </trkpt>
      <trkpt lat="42.01977" lon="25.08565">
        <ele>259.585752</ele>
        <time>2022-03-03T08:51:49.397Z</time>
      </trkpt>
      <trkpt lat="42.01972" lon="25.08553">
        <ele>259.554473</ele>
        <time>2022-03-03T08:51:52.402Z</time>
      </trkpt>
      <trkpt lat="42.01968" lon="25.08542">
        <ele>259.522651</ele>
        <time>2022-03-03T08:51:55.401Z</time>
      </trkpt>
      <trkpt lat="42.01964" lon="25.0853">
        <ele>259.490472</ele>
        <time>2022-03-03T08:51:58.399Z</time>
      </trkpt>
      <trkpt lat="42.0196" lon="25.08518">
        <ele>259.458711</ele>
        <time>2022-03-03T08:52:01.400Z</time>
      </trkpt>
      <trkpt lat="42.01956" lon="25.08506">
        <ele>259.426149</ele>
        <time>2022-03-03T08:52:04.405Z</time>
      </trkpt>
      <trkpt lat="42.01952" lon="25.08493">
        <ele>259.393893</ele>
        <time>2022-03-03T08:52:07.408Z</time>
      </trkpt>
      <trkpt lat="42.01949" lon="25.08481">
        <ele>259.362545</ele>
        <time>2022-03-03T08:52:10.387Z</time>
      </trkpt>
      <trkpt lat="42.01947" lon="25.08467">
        <ele>259.32698</ele>
        <time>2022-03-03T08:52:14.396Z</time>
      </trkpt>
      <trkpt lat="42.01944" lon="25.08455">
        <ele>259.295165</ele>
        <time>2022-03-03T08:52:17.398Z</time>
      </trkpt>
      <trkpt lat="42.01941" lon="25.08441">
        <ele>259.530802</ele>
        <time>2022-03-03T08:52:20.408Z</time>
      </trkpt>
      <trkpt lat="42.01939" lon="25.08429">
        <ele>259.796891</ele>
        <time>2022-03-03T08:52:23.431Z</time>
      </trkpt>
      <trkpt lat="42.01936" lon="25.08414">
        <ele>260.134635</ele>
        <time>2022-03-03T08:52:27.375Z</time>
      </trkpt>
      <trkpt lat="42.01933" lon="25.08399">
        <ele>260.478886</ele>
        <time>2022-03-03T08:52:31.411Z</time>
      </trkpt>
      <trkpt lat="42.01931" lon="25.08387">
        <ele>260.748844</ele>
        <time>2022-03-03T08:52:34.396Z</time>
      </trkpt>
      <trkpt lat="42.01929" lon="25.08371">
        <ele>261.092559</ele>
        <time>2022-03-03T08:52:38.411Z</time>
      </trkpt>
      <trkpt lat="42.01927" lon="25.08355">
        <ele>261.445262</ele>
        <time>2022-03-03T08:52:42.405Z</time>
      </trkpt>
      <trkpt lat="42.01925" lon="25.08343">
        <ele>261.714596</ele>
        <time>2022-03-03T08:52:45.398Z</time>
      </trkpt>
      <trkpt lat="42.01924" lon="25.0833">
        <ele>261.985188</ele>
        <time>2022-03-03T08:52:48.419Z</time>
      </trkpt>
      <trkpt lat="42.01922" lon="25.08315">
        <ele>262.327254</ele>
        <time>2022-03-03T08:52:52.408Z</time>
      </trkpt>
      <trkpt lat="42.0192" lon="25.083">
        <ele>262.645346</ele>
        <time>2022-03-03T08:52:56.420Z</time>
      </trkpt>
      <trkpt lat="42.01918" lon="25.08285">
        <ele>262.964559</ele>
        <time>2022-03-03T08:53:00.382Z</time>
      </trkpt>
      <trkpt lat="42.01916" lon="25.08274">
        <ele>263.226746</ele>
        <time>2022-03-03T08:53:03.405Z</time>
      </trkpt>
      <trkpt lat="42.01914" lon="25.08258">
        <ele>263.565604</ele>
        <time>2022-03-03T08:53:07.402Z</time>
      </trkpt>
      <trkpt lat="42.01912" lon="25.08243">
        <ele>263.89174</ele>
        <time>2022-03-03T08:53:11.417Z</time>
      </trkpt>
      <trkpt lat="42.01909" lon="25.08228">
        <ele>264.239355</ele>
        <time>2022-03-03T08:53:15.398Z</time>
      </trkpt>
      <trkpt lat="42.01906" lon="25.08216">
        <ele>264.503644</ele>
        <time>2022-03-03T08:53:18.406Z</time>
      </trkpt>
      <trkpt lat="42.01904" lon="25.08201">
        <ele>264.586419</ele>
        <time>2022-03-03T08:53:22.411Z</time>
      </trkpt>
      <trkpt lat="42.01901" lon="25.08189">
        <ele>264.640635</ele>
        <time>2022-03-03T08:53:25.399Z</time>
      </trkpt>
      <trkpt lat="42.01898" lon="25.08174">
        <ele>264.709556</ele>
        <time>2022-03-03T08:53:29.405Z</time>
      </trkpt>
      <trkpt lat="42.01896" lon="25.0816">
        <ele>264.776977</ele>
        <time>2022-03-03T08:53:33.393Z</time>
      </trkpt>
      <trkpt lat="42.01895" lon="25.08145">
        <ele>264.84196</ele>
        <time>2022-03-03T08:53:37.453Z</time>
      </trkpt>
      <trkpt lat="42.01893" lon="25.08131">
        <ele>264.904283</ele>
        <time>2022-03-03T08:53:41.411Z</time>
      </trkpt>
      <trkpt lat="42.01891" lon="25.08118">
        <ele>264.965214</ele>
        <time>2022-03-03T08:53:45.406Z</time>
      </trkpt>
      <trkpt lat="42.0189" lon="25.08105">
        <ele>265.024081</ele>
        <time>2022-03-03T08:53:49.409Z</time>
      </trkpt>
      <trkpt lat="42.01888" lon="25.08091">
        <ele>265.086045</ele>
        <time>2022-03-03T08:53:53.399Z</time>
      </trkpt>
      <trkpt lat="42.01887" lon="25.08078">
        <ele>265.148638</ele>
        <time>2022-03-03T08:53:57.405Z</time>
      </trkpt>
      <trkpt lat="42.01885" lon="25.08064">
        <ele>265.212213</ele>
        <time>2022-03-03T08:54:01.407Z</time>
      </trkpt>
      <trkpt lat="42.01883" lon="25.0805">
        <ele>265.272055</ele>
        <time>2022-03-03T08:54:05.413Z</time>
      </trkpt>
      <trkpt lat="42.01881" lon="25.08037">
        <ele>265.332022</ele>
        <time>2022-03-03T08:54:09.413Z</time>
      </trkpt>
      <trkpt lat="42.01879" lon="25.08024">
        <ele>265.391086</ele>
        <time>2022-03-03T08:54:13.398Z</time>
      </trkpt>
      <trkpt lat="42.01877" lon="25.08011">
        <ele>265.452625</ele>
        <time>2022-03-03T08:54:17.401Z</time>
      </trkpt>
      <trkpt lat="42.01875" lon="25.07997">
        <ele>265.517426</ele>
        <time>2022-03-03T08:54:21.398Z</time>
      </trkpt>
      <trkpt lat="42.01873" lon="25.07983">
        <ele>265.578267</ele>
        <time>2022-03-03T08:54:25.404Z</time>
      </trkpt>
      <trkpt lat="42.0187" lon="25.07969">
        <ele>265.546758</ele>
        <time>2022-03-03T08:54:29.413Z</time>
      </trkpt>
      <trkpt lat="42.01865" lon="25.07957">
        <ele>265.46391</ele>
        <time>2022-03-03T08:54:33.395Z</time>
      </trkpt>
      <trkpt lat="42.01861" lon="25.07946">
        <ele>265.38392</ele>
        <time>2022-03-03T08:54:37.438Z</time>
      </trkpt>
      <trkpt lat="42.01856" lon="25.07935">
        <ele>265.309132</ele>
        <time>2022-03-03T08:54:41.407Z</time>
      </trkpt>
      <trkpt lat="42.01851" lon="25.07924">
        <ele>265.232014</ele>
        <time>2022-03-03T08:54:45.410Z</time>
      </trkpt>
      <trkpt lat="42.01847" lon="25.07913">
        <ele>265.155588</ele>
        <time>2022-03-03T08:54:49.426Z</time>
      </trkpt>
      <trkpt lat="42.01842" lon="25.07902">
        <ele>265.074658</ele>
        <time>2022-03-03T08:54:53.417Z</time>
      </trkpt>
      <trkpt lat="42.01837" lon="25.0789">
        <ele>264.993193</ele>
        <time>2022-03-03T08:54:57.391Z</time>
      </trkpt>
      <trkpt lat="42.01832" lon="25.07878">
        <ele>264.906838</ele>
        <time>2022-03-03T08:55:01.405Z</time>
      </trkpt>
      <trkpt lat="42.01826" lon="25.07868">
        <ele>264.828904</ele>
        <time>2022-03-03T08:55:05.413Z</time>
      </trkpt>
      <trkpt lat="42.01822" lon="25.07857">
        <ele>264.753185</ele>
        <time>2022-03-03T08:55:09.397Z</time>
      </trkpt>
      <trkpt lat="42.01818" lon="25.07845">
        <ele>264.675625</ele>
        <time>2022-03-03T08:55:13.404Z</time>
      </trkpt>
      <trkpt lat="42.01813" lon="25.07834">
        <ele>264.59402</ele>
        <time>2022-03-03T08:55:17.415Z</time>
      </trkpt>
      <trkpt lat="42.01808" lon="25.07822">
        <ele>264.507942</ele>
        <time>2022-03-03T08:55:21.406Z</time>
      </trkpt>
      <trkpt lat="42.01802" lon="25.0781">
        <ele>264.421587</ele>
        <time>2022-03-03T08:55:25.423Z</time>
      </trkpt>
      <trkpt lat="42.01797" lon="25.07798">
        <ele>264.338556</ele>
        <time>2022-03-03T08:55:29.395Z</time>
      </trkpt>
      <trkpt lat="42.01793" lon="25.07787">
        <ele>264.262792</ele>
        <time>2022-03-03T08:55:33.444Z</time>
      </trkpt>
      <trkpt lat="42.01788" lon="25.07776">
        <ele>264.182516</ele>
        <time>2022-03-03T08:55:37.420Z</time>
      </trkpt>
      <trkpt lat="42.01784" lon="25.07765">
        <ele>264.13801</ele>
        <time>2022-03-03T08:55:41.402Z</time>
      </trkpt>
      <trkpt lat="42.01778" lon="25.07754">
        <ele>264.267642</ele>
        <time>2022-03-03T08:55:45.405Z</time>
      </trkpt>
      <trkpt lat="42.01774" lon="25.07742">
        <ele>264.394793</ele>
        <time>2022-03-03T08:55:49.399Z</time>
      </trkpt>
      <trkpt lat="42.01768" lon="25.07731">
        <ele>264.525573</ele>
        <time>2022-03-03T08:55:53.399Z</time>
      </trkpt>
      <trkpt lat="42.01763" lon="25.07718">
        <ele>264.667237</ele>
        <time>2022-03-03T08:55:58.393Z</time>
      </trkpt>
      <trkpt lat="42.01758" lon="25.07707">
        <ele>264.787358</ele>
        <time>2022-03-03T08:56:02.485Z</time>
      </trkpt>
      <trkpt lat="42.01752" lon="25.07696">
        <ele>264.916773</ele>
        <time>2022-03-03T08:56:06.406Z</time>
      </trkpt>
      <trkpt lat="42.01747" lon="25.07685">
        <ele>265.042579</ele>
        <time>2022-03-03T08:56:10.408Z</time>
      </trkpt>
      <trkpt lat="42.01743" lon="25.07674">
        <ele>265.164377</ele>
        <time>2022-03-03T08:56:14.411Z</time>
      </trkpt>
      <trkpt lat="42.01739" lon="25.07662">
        <ele>265.293951</ele>
        <time>2022-03-03T08:56:18.419Z</time>
      </trkpt>
      <trkpt lat="42.01734" lon="25.0765">
        <ele>265.426575</ele>
        <time>2022-03-03T08:56:22.421Z</time>
      </trkpt>
      <trkpt lat="42.01729" lon="25.07637">
        <ele>265.561961</ele>
        <time>2022-03-03T08:56:26.416Z</time>
      </trkpt>
      <trkpt lat="42.01724" lon="25.07626">
        <ele>265.691892</ele>
        <time>2022-03-03T08:56:30.410Z</time>
      </trkpt>
      <trkpt lat="42.01719" lon="25.07615">
        <ele>265.8147</ele>
        <time>2022-03-03T08:56:34.386Z</time>
      </trkpt>
      <trkpt lat="42.01714" lon="25.07604">
        <ele>265.933541</ele>
        <time>2022-03-03T08:56:38.408Z</time>
      </trkpt>
      <trkpt lat="42.01709" lon="25.07594">
        <ele>266.055027</ele>
        <time>2022-03-03T08:56:42.406Z</time>
      </trkpt>
      <trkpt lat="42.01704" lon="25.07582">
        <ele>266.180318</ele>
        <time>2022-03-03T08:56:46.417Z</time>
      </trkpt>
      <trkpt lat="42.01699" lon="25.0757">
        <ele>266.315259</ele>
        <time>2022-03-03T08:56:50.409Z</time>
      </trkpt>
      <trkpt lat="42.01694" lon="25.07558">
        <ele>266.453195</ele>
        <time>2022-03-03T08:56:54.411Z</time>
      </trkpt>
      <trkpt lat="42.01689" lon="25.07546">
        <ele>266.598889</ele>
        <time>2022-03-03T08:56:58.412Z</time>
      </trkpt>
      <trkpt lat="42.01685" lon="25.07534">
        <ele>266.745926</ele>
        <time>2022-03-03T08:57:02.402Z</time>
      </trkpt>
      <trkpt lat="42.01681" lon="25.07522">
        <ele>266.903002</ele>
        <time>2022-03-03T08:57:06.413Z</time>
      </trkpt>
      <trkpt lat="42.01677" lon="25.0751">
        <ele>267.050711</ele>
        <time>2022-03-03T08:57:10.450Z</time>
      </trkpt>
      <trkpt lat="42.01674" lon="25.07495">
        <ele>267.221998</ele>
        <time>2022-03-03T08:57:15.410Z</time>
      </trkpt>
      <trkpt lat="42.01671" lon="25.07482">
        <ele>267.376295</ele>
        <time>2022-03-03T08:57:19.424Z</time>
      </trkpt>
      <trkpt lat="42.01668" lon="25.07468">
        <ele>267.52937</ele>
        <time>2022-03-03T08:57:23.406Z</time>
      </trkpt>
      <trkpt lat="42.01665" lon="25.07455">
        <ele>267.693825</ele>
        <time>2022-03-03T08:57:27.446Z</time>
      </trkpt>
      <trkpt lat="42.01661" lon="25.07441">
        <ele>267.856798</ele>
        <time>2022-03-03T08:57:31.414Z</time>
      </trkpt>
      <trkpt lat="42.01657" lon="25.07427">
        <ele>268.021252</ele>
        <time>2022-03-03T08:57:35.421Z</time>
      </trkpt>
      <trkpt lat="42.01655" lon="25.07414">
        <ele>268.177581</ele>
        <time>2022-03-03T08:57:39.417Z</time>
      </trkpt>
      <trkpt lat="42.01652" lon="25.07401">
        <ele>268.319441</ele>
        <time>2022-03-03T08:57:43.405Z</time>
      </trkpt>
      <trkpt lat="42.0165" lon="25.07389">
        <ele>268.464716</ele>
        <time>2022-03-03T08:57:47.397Z</time>
      </trkpt>
      <trkpt lat="42.01646" lon="25.07374">
        <ele>268.638816</ele>
        <time>2022-03-03T08:57:52.407Z</time>
      </trkpt>
      <trkpt lat="42.01641" lon="25.0736">
        <ele>268.814604</ele>
        <time>2022-03-03T08:57:56.410Z</time>
      </trkpt>
      <trkpt lat="42.01637" lon="25.07346">
        <ele>268.98065</ele>
        <time>2022-03-03T08:58:00.420Z</time>
      </trkpt>
      <trkpt lat="42.01634" lon="25.07333">
        <ele>269.135226</ele>
        <time>2022-03-03T08:58:04.405Z</time>
      </trkpt>
      <trkpt lat="42.01632" lon="25.07321">
        <ele>269.317488</ele>
        <time>2022-03-03T08:58:08.413Z</time>
      </trkpt>
      <trkpt lat="42.0163" lon="25.07307">
        <ele>269.545309</ele>
        <time>2022-03-03T08:58:13.411Z</time>
      </trkpt>
      <trkpt lat="42.01628" lon="25.07293">
        <ele>269.776743</ele>
        <time>2022-03-03T08:58:18.412Z</time>
      </trkpt>
      <trkpt lat="42.01626" lon="25.0728">
        <ele>269.991293</ele>
        <time>2022-03-03T08:58:22.409Z</time>
      </trkpt>
      <trkpt lat="42.01625" lon="25.07267">
        <ele>270.186323</ele>
        <time>2022-03-03T08:58:26.411Z</time>
      </trkpt>
      <trkpt lat="42.01624" lon="25.07255">
        <ele>270.382586</ele>
        <time>2022-03-03T08:58:30.401Z</time>
      </trkpt>
      <trkpt lat="42.01624" lon="25.07243">
        <ele>270.576873</ele>
        <time>2022-03-03T08:58:34.385Z</time>
      </trkpt>
      <trkpt lat="42.01624" lon="25.07231">
        <ele>270.77116</ele>
        <time>2022-03-03T08:58:38.433Z</time>
      </trkpt>
      <trkpt lat="42.01624" lon="25.07218">
        <ele>270.970212</ele>
        <time>2022-03-03T08:58:42.411Z</time>
      </trkpt>
      <trkpt lat="42.01624" lon="25.07206">
        <ele>271.167718</ele>
        <time>2022-03-03T08:58:46.416Z</time>
      </trkpt>
      <trkpt lat="42.01624" lon="25.07194">
        <ele>271.365283</ele>
        <time>2022-03-03T08:58:50.442Z</time>
      </trkpt>
      <trkpt lat="42.01623" lon="25.07181">
        <ele>271.573006</ele>
        <time>2022-03-03T08:58:54.403Z</time>
      </trkpt>
      <trkpt lat="42.01623" lon="25.07168">
        <ele>271.772162</ele>
        <time>2022-03-03T08:58:58.423Z</time>
      </trkpt>
      <trkpt lat="42.01623" lon="25.07154">
        <ele>271.991926</ele>
        <time>2022-03-03T08:59:02.413Z</time>
      </trkpt>
      <trkpt lat="42.01622" lon="25.07142">
        <ele>272.185037</ele>
        <time>2022-03-03T08:59:06.411Z</time>
      </trkpt>
      <trkpt lat="42.01621" lon="25.07128">
        <ele>272.411291</ele>
        <time>2022-03-03T08:59:11.404Z</time>
      </trkpt>
      <trkpt lat="42.01621" lon="25.07113">
        <ele>272.655166</ele>
        <time>2022-03-03T08:59:16.418Z</time>
      </trkpt>
      <trkpt lat="42.01621" lon="25.071">
        <ele>272.863773</ele>
        <time>2022-03-03T08:59:20.405Z</time>
      </trkpt>
      <trkpt lat="42.01621" lon="25.07087">
        <ele>273.05785</ele>
        <time>2022-03-03T08:59:24.418Z</time>
      </trkpt>
      <trkpt lat="42.01621" lon="25.07073">
        <ele>273.221816</ele>
        <time>2022-03-03T08:59:28.390Z</time>
      </trkpt>
      <trkpt lat="42.0162" lon="25.07058">
        <ele>273.402433</ele>
        <time>2022-03-03T08:59:33.414Z</time>
      </trkpt>
      <trkpt lat="42.0162" lon="25.07044">
        <ele>273.579754</ele>
        <time>2022-03-03T08:59:38.410Z</time>
      </trkpt>
      <trkpt lat="42.0162" lon="25.0703">
        <ele>273.753595</ele>
        <time>2022-03-03T08:59:43.399Z</time>
      </trkpt>
      <trkpt lat="42.01621" lon="25.07014">
        <ele>273.941463</ele>
        <time>2022-03-03T08:59:48.396Z</time>
      </trkpt>
      <trkpt lat="42.01622" lon="25.07001">
        <ele>274.107417</ele>
        <time>2022-03-03T08:59:52.414Z</time>
      </trkpt>
      <trkpt lat="42.01624" lon="25.06987">
        <ele>274.270154</ele>
        <time>2022-03-03T08:59:56.410Z</time>
      </trkpt>
      <trkpt lat="42.01624" lon="25.06974">
        <ele>274.434088</ele>
        <time>2022-03-03T09:00:00.408Z</time>
      </trkpt>
      <trkpt lat="42.01626" lon="25.06961">
        <ele>274.596167</ele>
        <time>2022-03-03T09:00:04.409Z</time>
      </trkpt>
      <trkpt lat="42.01627" lon="25.06948">
        <ele>274.752832</ele>
        <time>2022-03-03T09:00:08.396Z</time>
      </trkpt>
      <trkpt lat="42.01627" lon="25.06935">
        <ele>274.910703</ele>
        <time>2022-03-03T09:00:12.407Z</time>
      </trkpt>
      <trkpt lat="42.01627" lon="25.0692">
        <ele>275.09043</ele>
        <time>2022-03-03T09:00:17.387Z</time>
      </trkpt>
      <trkpt lat="42.01627" lon="25.06907">
        <ele>275.2568</ele>
        <time>2022-03-03T09:00:21.416Z</time>
      </trkpt>
      <trkpt lat="42.01626" lon="25.06893">
        <ele>275.42413</ele>
        <time>2022-03-03T09:00:25.416Z</time>
      </trkpt>
      <trkpt lat="42.01625" lon="25.06879">
        <ele>275.598707</ele>
        <time>2022-03-03T09:00:29.410Z</time>
      </trkpt>
      <trkpt lat="42.01624" lon="25.06865">
        <ele>275.766635</ele>
        <time>2022-03-03T09:00:33.416Z</time>
      </trkpt>
      <trkpt lat="42.01622" lon="25.06852">
        <ele>275.928328</ele>
        <time>2022-03-03T09:00:37.401Z</time>
      </trkpt>
      <trkpt lat="42.01621" lon="25.06838">
        <ele>276.009957</ele>
        <time>2022-03-03T09:00:41.396Z</time>
      </trkpt>
      <trkpt lat="42.01621" lon="25.06823">
        <ele>276.073102</ele>
        <time>2022-03-03T09:00:45.414Z</time>
      </trkpt>
      <trkpt lat="42.01619" lon="25.0681">
        <ele>276.132883</ele>
        <time>2022-03-03T09:00:49.408Z</time>
      </trkpt>
      <trkpt lat="42.01618" lon="25.06797">
        <ele>276.18975</ele>
        <time>2022-03-03T09:00:53.407Z</time>
      </trkpt>
      <trkpt lat="42.01616" lon="25.06783">
        <ele>276.249387</ele>
        <time>2022-03-03T09:00:57.405Z</time>
      </trkpt>
      <trkpt lat="42.01614" lon="25.0677">
        <ele>276.308828</ele>
        <time>2022-03-03T09:01:01.409Z</time>
      </trkpt>
      <trkpt lat="42.01613" lon="25.06755">
        <ele>276.372137</ele>
        <time>2022-03-03T09:01:05.398Z</time>
      </trkpt>
      <trkpt lat="42.01611" lon="25.06741">
        <ele>276.43471</ele>
        <time>2022-03-03T09:01:09.389Z</time>
      </trkpt>
      <trkpt lat="42.0161" lon="25.06727">
        <ele>276.495869</ele>
        <time>2022-03-03T09:01:13.400Z</time>
      </trkpt>
      <trkpt lat="42.01608" lon="25.06713">
        <ele>276.558504</ele>
        <time>2022-03-03T09:01:17.417Z</time>
      </trkpt>
      <trkpt lat="42.01606" lon="25.06699">
        <ele>276.619212</ele>
        <time>2022-03-03T09:01:21.402Z</time>
      </trkpt>
      <trkpt lat="42.01607" lon="25.06685">
        <ele>276.682826</ele>
        <time>2022-03-03T09:01:25.404Z</time>
      </trkpt>
      <trkpt lat="42.01606" lon="25.06672">
        <ele>276.736793</ele>
        <time>2022-03-03T09:01:28.427Z</time>
      </trkpt>
      <trkpt lat="42.01605" lon="25.06658">
        <ele>276.798383</ele>
        <time>2022-03-03T09:01:32.407Z</time>
      </trkpt>
      <trkpt lat="42.01603" lon="25.06644">
        <ele>276.862935</ele>
        <time>2022-03-03T09:01:36.416Z</time>
      </trkpt>
      <trkpt lat="42.016" lon="25.0663">
        <ele>276.922313</ele>
        <time>2022-03-03T09:01:40.403Z</time>
      </trkpt>
      <trkpt lat="42.01598" lon="25.06615">
        <ele>276.988366</ele>
        <time>2022-03-03T09:01:44.394Z</time>
      </trkpt>
      <trkpt lat="42.01597" lon="25.066">
        <ele>277.11347</ele>
        <time>2022-03-03T09:01:48.422Z</time>
      </trkpt>
      <trkpt lat="42.01596" lon="25.06586">
        <ele>277.266924</ele>
        <time>2022-03-03T09:01:52.397Z</time>
      </trkpt>
      <trkpt lat="42.01594" lon="25.06573">
        <ele>277.401538</ele>
        <time>2022-03-03T09:01:56.401Z</time>
      </trkpt>
      <trkpt lat="42.01594" lon="25.06559">
        <ele>277.550318</ele>
        <time>2022-03-03T09:02:00.425Z</time>
      </trkpt>
      <trkpt lat="42.01592" lon="25.06545">
        <ele>277.701323</ele>
        <time>2022-03-03T09:02:04.384Z</time>
      </trkpt>
      <trkpt lat="42.0159" lon="25.0653">
        <ele>277.858754</ele>
        <time>2022-03-03T09:02:08.409Z</time>
      </trkpt>
      <trkpt lat="42.01588" lon="25.06515">
        <ele>278.017255</ele>
        <time>2022-03-03T09:02:12.407Z</time>
      </trkpt>
      <trkpt lat="42.01587" lon="25.065">
        <ele>278.17556</ele>
        <time>2022-03-03T09:02:16.409Z</time>
      </trkpt>
      <trkpt lat="42.01585" lon="25.06487">
        <ele>278.315109</ele>
        <time>2022-03-03T09:02:20.395Z</time>
      </trkpt>
      <trkpt lat="42.01583" lon="25.06473">
        <ele>278.468123</ele>
        <time>2022-03-03T09:02:24.407Z</time>
      </trkpt>
      <trkpt lat="42.01581" lon="25.06459">
        <ele>278.616922</ele>
        <time>2022-03-03T09:02:28.410Z</time>
      </trkpt>
      <trkpt lat="42.01579" lon="25.06446">
        <ele>278.764425</ele>
        <time>2022-03-03T09:02:32.412Z</time>
      </trkpt>
      <trkpt lat="42.01577" lon="25.06432">
        <ele>278.909622</ele>
        <time>2022-03-03T09:02:36.419Z</time>
      </trkpt>
      <trkpt lat="42.01575" lon="25.06419">
        <ele>279.048594</ele>
        <time>2022-03-03T09:02:40.406Z</time>
      </trkpt>
      <trkpt lat="42.01573" lon="25.06405">
        <ele>279.199997</ele>
        <time>2022-03-03T09:02:44.449Z</time>
      </trkpt>
      <trkpt lat="42.0157" lon="25.06392">
        <ele>279.346172</ele>
        <time>2022-03-03T09:02:48.403Z</time>
      </trkpt>
      <trkpt lat="42.01569" lon="25.06378">
        <ele>279.491968</ele>
        <time>2022-03-03T09:02:52.450Z</time>
      </trkpt>
      <trkpt lat="42.01567" lon="25.06364">
        <ele>279.559189</ele>
        <time>2022-03-03T09:02:56.424Z</time>
      </trkpt>
      <trkpt lat="42.01565" lon="25.06349">
        <ele>279.553644</ele>
        <time>2022-03-03T09:03:00.403Z</time>
      </trkpt>
      <trkpt lat="42.01563" lon="25.06334">
        <ele>279.548115</ele>
        <time>2022-03-03T09:03:04.391Z</time>
      </trkpt>
      <trkpt lat="42.0156" lon="25.06319">
        <ele>279.542626</ele>
        <time>2022-03-03T09:03:08.415Z</time>
      </trkpt>
      <trkpt lat="42.01555" lon="25.06306">
        <ele>279.537367</ele>
        <time>2022-03-03T09:03:12.466Z</time>
      </trkpt>
      <trkpt lat="42.01548" lon="25.06296">
        <ele>279.532562</ele>
        <time>2022-03-03T09:03:16.403Z</time>
      </trkpt>
      <trkpt lat="42.01544" lon="25.06284">
        <ele>279.527907</ele>
        <time>2022-03-03T09:03:20.422Z</time>
      </trkpt>
      <trkpt lat="42.01543" lon="25.06269">
        <ele>279.522753</ele>
        <time>2022-03-03T09:03:25.407Z</time>
      </trkpt>
      <trkpt lat="42.01542" lon="25.06256">
        <ele>279.517969</ele>
        <time>2022-03-03T09:03:29.399Z</time>
      </trkpt>
      <trkpt lat="42.01542" lon="25.06244">
        <ele>279.513545</ele>
        <time>2022-03-03T09:03:33.411Z</time>
      </trkpt>
      <trkpt lat="42.01541" lon="25.06231">
        <ele>279.5091</ele>
        <time>2022-03-03T09:03:37.405Z</time>
      </trkpt>
      <trkpt lat="42.0154" lon="25.06218">
        <ele>279.5042</ele>
        <time>2022-03-03T09:03:41.399Z</time>
      </trkpt>
      <trkpt lat="42.01537" lon="25.06205">
        <ele>279.499465</ele>
        <time>2022-03-03T09:03:45.441Z</time>
      </trkpt>
      <trkpt lat="42.01534" lon="25.06191">
        <ele>279.49446</ele>
        <time>2022-03-03T09:03:49.413Z</time>
      </trkpt>
      <trkpt lat="42.01532" lon="25.06179">
        <ele>279.489957</ele>
        <time>2022-03-03T09:03:53.411Z</time>
      </trkpt>
      <trkpt lat="42.0153" lon="25.06167">
        <ele>279.48554</ele>
        <time>2022-03-03T09:03:57.404Z</time>
      </trkpt>
      <trkpt lat="42.01526" lon="25.06154">
        <ele>279.480344</ele>
        <time>2022-03-03T09:04:02.444Z</time>
      </trkpt>
      <trkpt lat="42.01523" lon="25.06141">
        <ele>279.475793</ele>
        <time>2022-03-03T09:04:06.442Z</time>
      </trkpt>
      <trkpt lat="42.0152" lon="25.06128">
        <ele>279.451571</ele>
        <time>2022-03-03T09:04:10.415Z</time>
      </trkpt>
      <trkpt lat="42.01519" lon="25.06114">
        <ele>279.424901</ele>
        <time>2022-03-03T09:04:14.390Z</time>
      </trkpt>
      <trkpt lat="42.01517" lon="25.06101">
        <ele>279.399508</ele>
        <time>2022-03-03T09:04:18.416Z</time>
      </trkpt>
      <trkpt lat="42.01516" lon="25.06087">
        <ele>279.374231</ele>
        <time>2022-03-03T09:04:22.392Z</time>
      </trkpt>
      <trkpt lat="42.01515" lon="25.06073">
        <ele>279.34812</ele>
        <time>2022-03-03T09:04:26.413Z</time>
      </trkpt>
      <trkpt lat="42.01513" lon="25.06061">
        <ele>279.323578</ele>
        <time>2022-03-03T09:04:30.449Z</time>
      </trkpt>
      <trkpt lat="42.0151" lon="25.06047">
        <ele>279.298169</ele>
        <time>2022-03-03T09:04:34.388Z</time>
      </trkpt>
      <trkpt lat="42.01507" lon="25.06034">
        <ele>279.271496</ele>
        <time>2022-03-03T09:04:38.410Z</time>
      </trkpt>
      <trkpt lat="42.01505" lon="25.0602">
        <ele>279.24536</ele>
        <time>2022-03-03T09:04:42.410Z</time>
      </trkpt>
      <trkpt lat="42.01502" lon="25.06008">
        <ele>279.222452</ele>
        <time>2022-03-03T09:04:46.408Z</time>
      </trkpt>
      <trkpt lat="42.015" lon="25.05995">
        <ele>279.197284</ele>
        <time>2022-03-03T09:04:50.410Z</time>
      </trkpt>
      <trkpt lat="42.01498" lon="25.05981">
        <ele>279.169012</ele>
        <time>2022-03-03T09:04:54.394Z</time>
      </trkpt>
      <trkpt lat="42.01495" lon="25.05968">
        <ele>279.144503</ele>
        <time>2022-03-03T09:04:58.433Z</time>
      </trkpt>
      <trkpt lat="42.01492" lon="25.05955">
        <ele>279.119942</ele>
        <time>2022-03-03T09:05:02.411Z</time>
      </trkpt>
      <trkpt lat="42.0149" lon="25.05943">
        <ele>279.095813</ele>
        <time>2022-03-03T09:05:06.415Z</time>
      </trkpt>
      <trkpt lat="42.01485" lon="25.05931">
        <ele>279.070565</ele>
        <time>2022-03-03T09:05:10.401Z</time>
      </trkpt>
      <trkpt lat="42.01481" lon="25.05919">
        <ele>279.047162</ele>
        <time>2022-03-03T09:05:14.399Z</time>
      </trkpt>
      <trkpt lat="42.01476" lon="25.05906">
        <ele>278.992934</ele>
        <time>2022-03-03T09:05:18.404Z</time>
      </trkpt>
      <trkpt lat="42.0147" lon="25.05892">
        <ele>278.80321</ele>
        <time>2022-03-03T09:05:22.394Z</time>
      </trkpt>
      <trkpt lat="42.01464" lon="25.05882">
        <ele>278.648032</ele>
        <time>2022-03-03T09:05:25.398Z</time>
      </trkpt>
      <trkpt lat="42.01459" lon="25.05869">
        <ele>278.479945</ele>
        <time>2022-03-03T09:05:29.406Z</time>
      </trkpt>
      <trkpt lat="42.01453" lon="25.05859">
        <ele>278.31896</ele>
        <time>2022-03-03T09:05:33.410Z</time>
      </trkpt>
      <trkpt lat="42.01448" lon="25.05848">
        <ele>278.162409</ele>
        <time>2022-03-03T09:05:37.455Z</time>
      </trkpt>
      <trkpt lat="42.01443" lon="25.05837">
        <ele>278.011779</ele>
        <time>2022-03-03T09:05:41.451Z</time>
      </trkpt>
      <trkpt lat="42.01438" lon="25.05825">
        <ele>277.846212</ele>
        <time>2022-03-03T09:05:45.420Z</time>
      </trkpt>
      <trkpt lat="42.01433" lon="25.05813">
        <ele>277.681255</ele>
        <time>2022-03-03T09:05:49.414Z</time>
      </trkpt>
      <trkpt lat="42.01428" lon="25.058">
        <ele>277.503671</ele>
        <time>2022-03-03T09:05:53.410Z</time>
      </trkpt>
      <trkpt lat="42.01423" lon="25.05787">
        <ele>277.335653</ele>
        <time>2022-03-03T09:05:57.429Z</time>
      </trkpt>
      <trkpt lat="42.01417" lon="25.05776">
        <ele>277.163042</ele>
        <time>2022-03-03T09:06:01.399Z</time>
      </trkpt>
      <trkpt lat="42.01411" lon="25.05763">
        <ele>276.977403</ele>
        <time>2022-03-03T09:06:05.409Z</time>
      </trkpt>
      <trkpt lat="42.01406" lon="25.05748">
        <ele>276.78789</ele>
        <time>2022-03-03T09:06:09.414Z</time>
      </trkpt>
      <trkpt lat="42.01402" lon="25.05737">
        <ele>276.638411</ele>
        <time>2022-03-03T09:06:12.392Z</time>
      </trkpt>
      <trkpt lat="42.01396" lon="25.05723">
        <ele>276.446126</ele>
        <time>2022-03-03T09:06:16.392Z</time>
      </trkpt>
      <trkpt lat="42.01392" lon="25.05712">
        <ele>276.286693</ele>
        <time>2022-03-03T09:06:19.407Z</time>
      </trkpt>
      <trkpt lat="42.01386" lon="25.05701">
        <ele>276.128621</ele>
        <time>2022-03-03T09:06:22.444Z</time>
      </trkpt>
      <trkpt lat="42.01379" lon="25.05691">
        <ele>276.433705</ele>
        <time>2022-03-03T09:06:25.399Z</time>
      </trkpt>
      <trkpt lat="42.01373" lon="25.05679">
        <ele>276.82681</ele>
        <time>2022-03-03T09:06:29.423Z</time>
      </trkpt>
      <trkpt lat="42.01367" lon="25.05668">
        <ele>277.196641</ele>
        <time>2022-03-03T09:06:33.413Z</time>
      </trkpt>
      <trkpt lat="42.01359" lon="25.05658">
        <ele>277.564545</ele>
        <time>2022-03-03T09:06:37.388Z</time>
      </trkpt>
      <trkpt lat="42.01353" lon="25.05648">
        <ele>277.889538</ele>
        <time>2022-03-03T09:06:40.393Z</time>
      </trkpt>
      <trkpt lat="42.01345" lon="25.05638">
        <ele>278.289783</ele>
        <time>2022-03-03T09:06:44.400Z</time>
      </trkpt>
      <trkpt lat="42.01338" lon="25.05626">
        <ele>278.680917</ele>
        <time>2022-03-03T09:06:48.425Z</time>
      </trkpt>
      <trkpt lat="42.01332" lon="25.05613">
        <ele>279.094202</ele>
        <time>2022-03-03T09:06:52.405Z</time>
      </trkpt>
      <trkpt lat="42.01324" lon="25.05601">
        <ele>279.514677</ele>
        <time>2022-03-03T09:06:56.386Z</time>
      </trkpt>
      <trkpt lat="42.01316" lon="25.05591">
        <ele>279.907373</ele>
        <time>2022-03-03T09:07:00.426Z</time>
      </trkpt>
      <trkpt lat="42.01309" lon="25.05579">
        <ele>280.302631</ele>
        <time>2022-03-03T09:07:04.425Z</time>
      </trkpt>
      <trkpt lat="42.01303" lon="25.05568">
        <ele>280.668164</ele>
        <time>2022-03-03T09:07:08.399Z</time>
      </trkpt>
      <trkpt lat="42.01296" lon="25.05556">
        <ele>281.04685</ele>
        <time>2022-03-03T09:07:12.393Z</time>
      </trkpt>
      <trkpt lat="42.0129" lon="25.05546">
        <ele>281.39977</ele>
        <time>2022-03-03T09:07:16.405Z</time>
      </trkpt>
      <trkpt lat="42.01284" lon="25.05535">
        <ele>281.778114</ele>
        <time>2022-03-03T09:07:20.423Z</time>
      </trkpt>
      <trkpt lat="42.01276" lon="25.05523">
        <ele>282.184109</ele>
        <time>2022-03-03T09:07:24.408Z</time>
      </trkpt>
      <trkpt lat="42.01269" lon="25.05515">
        <ele>282.503772</ele>
        <time>2022-03-03T09:07:27.426Z</time>
      </trkpt>
      <trkpt lat="42.01262" lon="25.05506">
        <ele>282.70873</ele>
        <time>2022-03-03T09:07:30.453Z</time>
      </trkpt>
      <trkpt lat="42.01255" lon="25.05493">
        <ele>282.96508</ele>
        <time>2022-03-03T09:07:34.394Z</time>
      </trkpt>
      <trkpt lat="42.01248" lon="25.05481">
        <ele>283.212611</ele>
        <time>2022-03-03T09:07:38.413Z</time>
      </trkpt>
      <trkpt lat="42.0124" lon="25.05468">
        <ele>283.473631</ele>
        <time>2022-03-03T09:07:42.417Z</time>
      </trkpt>
      <trkpt lat="42.01235" lon="25.05457">
        <ele>283.684995</ele>
        <time>2022-03-03T09:07:45.404Z</time>
      </trkpt>
      <trkpt lat="42.01232" lon="25.05445">
        <ele>283.890077</ele>
        <time>2022-03-03T09:07:48.414Z</time>
      </trkpt>
      <trkpt lat="42.01229" lon="25.05431">
        <ele>284.109271</ele>
        <time>2022-03-03T09:07:51.412Z</time>
      </trkpt>
      <trkpt lat="42.01227" lon="25.05419">
        <ele>284.309476</ele>
        <time>2022-03-03T09:07:54.412Z</time>
      </trkpt>
      <trkpt lat="42.01225" lon="25.05407">
        <ele>284.509651</ele>
        <time>2022-03-03T09:07:57.438Z</time>
      </trkpt>
      <trkpt lat="42.01224" lon="25.05394">
        <ele>284.725722</ele>
        <time>2022-03-03T09:08:00.402Z</time>
      </trkpt>
      <trkpt lat="42.01222" lon="25.0538">
        <ele>284.945118</ele>
        <time>2022-03-03T09:08:03.426Z</time>
      </trkpt>
      <trkpt lat="42.01219" lon="25.05366">
        <ele>285.172048</ele>
        <time>2022-03-03T09:08:06.406Z</time>
      </trkpt>
      <trkpt lat="42.01217" lon="25.05353">
        <ele>285.388723</ele>
        <time>2022-03-03T09:08:09.424Z</time>
      </trkpt>
      <trkpt lat="42.01216" lon="25.05339">
        <ele>285.607409</ele>
        <time>2022-03-03T09:08:12.418Z</time>
      </trkpt>
      <trkpt lat="42.01215" lon="25.05326">
        <ele>285.81633</ele>
        <time>2022-03-03T09:08:15.399Z</time>
      </trkpt>
      <trkpt lat="42.01212" lon="25.05311">
        <ele>286.075723</ele>
        <time>2022-03-03T09:08:19.405Z</time>
      </trkpt>
      <trkpt lat="42.0121" lon="25.05297">
        <ele>286.295819</ele>
        <time>2022-03-03T09:08:23.546Z</time>
      </trkpt>
      <trkpt lat="42.01207" lon="25.05284">
        <ele>286.655828</ele>
        <time>2022-03-03T09:08:27.409Z</time>
      </trkpt>
      <trkpt lat="42.01204" lon="25.0527">
        <ele>287.129765</ele>
        <time>2022-03-03T09:08:31.437Z</time>
      </trkpt>
      <trkpt lat="42.01202" lon="25.05254">
        <ele>287.622434</ele>
        <time>2022-03-03T09:08:35.409Z</time>
      </trkpt>
      <trkpt lat="42.01201" lon="25.05241">
        <ele>288.018711</ele>
        <time>2022-03-03T09:08:38.428Z</time>
      </trkpt>
      <trkpt lat="42.012" lon="25.05229">
        <ele>288.401706</ele>
        <time>2022-03-03T09:08:41.411Z</time>
      </trkpt>
      <trkpt lat="42.012" lon="25.05216">
        <ele>288.787331</ele>
        <time>2022-03-03T09:08:44.399Z</time>
      </trkpt>
      <trkpt lat="42.01198" lon="25.05202">
        <ele>289.247328</ele>
        <time>2022-03-03T09:08:48.413Z</time>
      </trkpt>
      <trkpt lat="42.01196" lon="25.05186">
        <ele>289.727234</ele>
        <time>2022-03-03T09:08:52.402Z</time>
      </trkpt>
      <trkpt lat="42.01195" lon="25.05172">
        <ele>290.177387</ele>
        <time>2022-03-03T09:08:56.405Z</time>
      </trkpt>
      <trkpt lat="42.01192" lon="25.05155">
        <ele>290.694039</ele>
        <time>2022-03-03T09:09:00.407Z</time>
      </trkpt>
      <trkpt lat="42.0119" lon="25.05143">
        <ele>291.072201</ele>
        <time>2022-03-03T09:09:03.404Z</time>
      </trkpt>
      <trkpt lat="42.01189" lon="25.05129">
        <ele>291.51575</ele>
        <time>2022-03-03T09:09:07.410Z</time>
      </trkpt>
      <trkpt lat="42.01187" lon="25.05114">
        <ele>291.999095</ele>
        <time>2022-03-03T09:09:11.422Z</time>
      </trkpt>
      <trkpt lat="42.01185" lon="25.05102">
        <ele>292.375342</ele>
        <time>2022-03-03T09:09:14.414Z</time>
      </trkpt>
      <trkpt lat="42.01186" lon="25.05089">
        <ele>292.756281</ele>
        <time>2022-03-03T09:09:17.407Z</time>
      </trkpt>
      <trkpt lat="42.01188" lon="25.05075">
        <ele>293.21689</ele>
        <time>2022-03-03T09:09:21.395Z</time>
      </trkpt>
      <trkpt lat="42.01191" lon="25.05061">
        <ele>293.636851</ele>
        <time>2022-03-03T09:09:25.408Z</time>
      </trkpt>
      <trkpt lat="42.01192" lon="25.05047">
        <ele>293.770689</ele>
        <time>2022-03-03T09:09:29.407Z</time>
      </trkpt>
      <trkpt lat="42.01194" lon="25.05032">
        <ele>293.693736</ele>
        <time>2022-03-03T09:09:33.395Z</time>
      </trkpt>
      <trkpt lat="42.01196" lon="25.05016">
        <ele>293.615513</ele>
        <time>2022-03-03T09:09:37.410Z</time>
      </trkpt>
      <trkpt lat="42.01198" lon="25.05001">
        <ele>293.536471</ele>
        <time>2022-03-03T09:09:41.443Z</time>
      </trkpt>
      <trkpt lat="42.01199" lon="25.04989">
        <ele>293.473804</ele>
        <time>2022-03-03T09:09:44.402Z</time>
      </trkpt>
      <trkpt lat="42.01201" lon="25.04973">
        <ele>293.395371</ele>
        <time>2022-03-03T09:09:48.456Z</time>
      </trkpt>
      <trkpt lat="42.01204" lon="25.04959">
        <ele>293.323129</ele>
        <time>2022-03-03T09:09:52.430Z</time>
      </trkpt>
      <trkpt lat="42.01206" lon="25.04945">
        <ele>293.249153</ele>
        <time>2022-03-03T09:09:56.420Z</time>
      </trkpt>
      <trkpt lat="42.01208" lon="25.0493">
        <ele>293.17421</ele>
        <time>2022-03-03T09:10:00.433Z</time>
      </trkpt>
      <trkpt lat="42.0121" lon="25.04917">
        <ele>293.10567</ele>
        <time>2022-03-03T09:10:04.401Z</time>
      </trkpt>
      <trkpt lat="42.01213" lon="25.04903">
        <ele>293.033131</ele>
        <time>2022-03-03T09:10:08.411Z</time>
      </trkpt>
      <trkpt lat="42.01216" lon="25.04888">
        <ele>292.957024</ele>
        <time>2022-03-03T09:10:12.462Z</time>
      </trkpt>
      <trkpt lat="42.01218" lon="25.04874">
        <ele>292.883915</ele>
        <time>2022-03-03T09:10:16.434Z</time>
      </trkpt>
      <trkpt lat="42.0122" lon="25.04861">
        <ele>292.816981</ele>
        <time>2022-03-03T09:10:20.406Z</time>
      </trkpt>
      <trkpt lat="42.01221" lon="25.04846">
        <ele>292.74268</ele>
        <time>2022-03-03T09:10:24.399Z</time>
      </trkpt>
      <trkpt lat="42.01221" lon="25.04833">
        <ele>292.675857</ele>
        <time>2022-03-03T09:10:28.416Z</time>
      </trkpt>
      <trkpt lat="42.01221" lon="25.04821">
        <ele>292.613465</ele>
        <time>2022-03-03T09:10:32.415Z</time>
      </trkpt>
      <trkpt lat="42.01222" lon="25.04807">
        <ele>292.502437</ele>
        <time>2022-03-03T09:10:36.418Z</time>
      </trkpt>
      <trkpt lat="42.0122" lon="25.04792">
        <ele>292.377773</ele>
        <time>2022-03-03T09:10:40.402Z</time>
      </trkpt>
      <trkpt lat="42.01218" lon="25.04775">
        <ele>292.231135</ele>
        <time>2022-03-03T09:10:44.406Z</time>
      </trkpt>
      <trkpt lat="42.01216" lon="25.04762">
        <ele>292.117489</ele>
        <time>2022-03-03T09:10:47.410Z</time>
      </trkpt>
      <trkpt lat="42.01215" lon="25.0475">
        <ele>292.011152</ele>
        <time>2022-03-03T09:10:50.424Z</time>
      </trkpt>
      <trkpt lat="42.01214" lon="25.04736">
        <ele>291.884638</ele>
        <time>2022-03-03T09:10:54.405Z</time>
      </trkpt>
      <trkpt lat="42.01211" lon="25.04722">
        <ele>291.76785</ele>
        <time>2022-03-03T09:10:58.395Z</time>
      </trkpt>
      <trkpt lat="42.01207" lon="25.04708">
        <ele>291.63613</ele>
        <time>2022-03-03T09:11:02.526Z</time>
      </trkpt>
      <trkpt lat="42.01203" lon="25.04695">
        <ele>291.514847</ele>
        <time>2022-03-03T09:11:06.404Z</time>
      </trkpt>
      <trkpt lat="42.01199" lon="25.04682">
        <ele>291.399126</ele>
        <time>2022-03-03T09:11:10.415Z</time>
      </trkpt>
      <trkpt lat="42.01195" lon="25.04669">
        <ele>291.27526</ele>
        <time>2022-03-03T09:11:14.404Z</time>
      </trkpt>
      <trkpt lat="42.01191" lon="25.04657">
        <ele>291.158025</ele>
        <time>2022-03-03T09:11:18.417Z</time>
      </trkpt>
      <trkpt lat="42.01188" lon="25.04643">
        <ele>291.035564</ele>
        <time>2022-03-03T09:11:22.408Z</time>
      </trkpt>
      <trkpt lat="42.01185" lon="25.0463">
        <ele>290.913643</ele>
        <time>2022-03-03T09:11:26.403Z</time>
      </trkpt>
      <trkpt lat="42.01182" lon="25.04617">
        <ele>290.799933</ele>
        <time>2022-03-03T09:11:30.404Z</time>
      </trkpt>
      <trkpt lat="42.01179" lon="25.04605">
        <ele>290.689709</ele>
        <time>2022-03-03T09:11:34.418Z</time>
      </trkpt>
      <trkpt lat="42.01176" lon="25.0459">
        <ele>290.560039</ele>
        <time>2022-03-03T09:11:39.403Z</time>
      </trkpt>
      <trkpt lat="42.01175" lon="25.04577">
        <ele>290.598208</ele>
        <time>2022-03-03T09:11:43.420Z</time>
      </trkpt>
      <trkpt lat="42.01174" lon="25.04562">
        <ele>290.742986</ele>
        <time>2022-03-03T09:11:48.405Z</time>
      </trkpt>
      <trkpt lat="42.01174" lon="25.0455">
        <ele>290.863488</ele>
        <time>2022-03-03T09:11:52.407Z</time>
      </trkpt>
      <trkpt lat="42.01174" lon="25.04536">
        <ele>291.006221</ele>
        <time>2022-03-03T09:11:57.412Z</time>
      </trkpt>
      <trkpt lat="42.01175" lon="25.04523">
        <ele>291.126361</ele>
        <time>2022-03-03T09:12:01.426Z</time>
      </trkpt>
      <trkpt lat="42.01178" lon="25.0451">
        <ele>291.262903</ele>
        <time>2022-03-03T09:12:05.390Z</time>
      </trkpt>
      <trkpt lat="42.01184" lon="25.04496">
        <ele>291.418965</ele>
        <time>2022-03-03T09:12:09.402Z</time>
      </trkpt>
      <trkpt lat="42.0119" lon="25.04484">
        <ele>291.563335</ele>
        <time>2022-03-03T09:12:13.448Z</time>
      </trkpt>
      <trkpt lat="42.01196" lon="25.04471">
        <ele>291.71335</ele>
        <time>2022-03-03T09:12:17.399Z</time>
      </trkpt>
      <trkpt lat="42.01201" lon="25.0446">
        <ele>291.83974</ele>
        <time>2022-03-03T09:12:21.440Z</time>
      </trkpt>
      <trkpt lat="42.01207" lon="25.04449">
        <ele>291.964838</ele>
        <time>2022-03-03T09:12:25.405Z</time>
      </trkpt>
      <trkpt lat="42.01212" lon="25.04436">
        <ele>292.113074</ele>
        <time>2022-03-03T09:12:30.412Z</time>
      </trkpt>
      <trkpt lat="42.01218" lon="25.04426">
        <ele>292.24188</ele>
        <time>2022-03-03T09:12:34.403Z</time>
      </trkpt>
      <trkpt lat="42.01225" lon="25.04414">
        <ele>292.388892</ele>
        <time>2022-03-03T09:12:39.406Z</time>
      </trkpt>
      <trkpt lat="42.01231" lon="25.04402">
        <ele>292.528672</ele>
        <time>2022-03-03T09:12:44.397Z</time>
      </trkpt>
      <trkpt lat="42.01236" lon="25.04392">
        <ele>292.648731</ele>
        <time>2022-03-03T09:12:47.411Z</time>
      </trkpt>
      <trkpt lat="42.01243" lon="25.04382">
        <ele>292.778318</ele>
        <time>2022-03-03T09:12:51.416Z</time>
      </trkpt>
      <trkpt lat="42.01249" lon="25.04372">
        <ele>292.875297</ele>
        <time>2022-03-03T09:12:55.400Z</time>
      </trkpt>
      <trkpt lat="42.01256" lon="25.04359">
        <ele>292.826559</ele>
        <time>2022-03-03T09:12:59.422Z</time>
      </trkpt>
      <trkpt lat="42.01262" lon="25.04348">
        <ele>292.781817</ele>
        <time>2022-03-03T09:13:03.396Z</time>
      </trkpt>
      <trkpt lat="42.01268" lon="25.04336">
        <ele>292.737595</ele>
        <time>2022-03-03T09:13:07.399Z</time>
      </trkpt>
      <trkpt lat="42.01274" lon="25.04326">
        <ele>292.697182</ele>
        <time>2022-03-03T09:13:11.405Z</time>
      </trkpt>
      <trkpt lat="42.01279" lon="25.04315">
        <ele>292.658177</ele>
        <time>2022-03-03T09:13:15.418Z</time>
      </trkpt>
      <trkpt lat="42.01284" lon="25.04305">
        <ele>292.618529</ele>
        <time>2022-03-03T09:13:19.426Z</time>
      </trkpt>
      <trkpt lat="42.01291" lon="25.04294">
        <ele>292.575596</ele>
        <time>2022-03-03T09:13:23.419Z</time>
      </trkpt>
      <trkpt lat="42.01296" lon="25.04284">
        <ele>292.536204</ele>
        <time>2022-03-03T09:13:27.419Z</time>
      </trkpt>
      <trkpt lat="42.01302" lon="25.04273">
        <ele>292.493759</ele>
        <time>2022-03-03T09:13:32.432Z</time>
      </trkpt>
      <trkpt lat="42.01308" lon="25.04261">
        <ele>292.445764</ele>
        <time>2022-03-03T09:13:37.417Z</time>
      </trkpt>
      <trkpt lat="42.01313" lon="25.0425">
        <ele>292.406933</ele>
        <time>2022-03-03T09:13:41.399Z</time>
      </trkpt>
      <trkpt lat="42.01319" lon="25.04237">
        <ele>292.357808</ele>
        <time>2022-03-03T09:13:46.407Z</time>
      </trkpt>
      <trkpt lat="42.01325" lon="25.04223">
        <ele>292.308539</ele>
        <time>2022-03-03T09:13:50.458Z</time>
      </trkpt>
      <trkpt lat="42.0133" lon="25.04213">
        <ele>292.270066</ele>
        <time>2022-03-03T09:13:53.415Z</time>
      </trkpt>
      <trkpt lat="42.01335" lon="25.04201">
        <ele>292.227272</ele>
        <time>2022-03-03T09:13:56.407Z</time>
      </trkpt>
      <trkpt lat="42.01341" lon="25.0419">
        <ele>292.186259</ele>
        <time>2022-03-03T09:13:59.414Z</time>
      </trkpt>
      <trkpt lat="42.01345" lon="25.0418">
        <ele>292.148185</ele>
        <time>2022-03-03T09:14:02.412Z</time>
      </trkpt>
      <trkpt lat="42.01351" lon="25.04168">
        <ele>292.042364</ele>
        <time>2022-03-03T09:14:06.407Z</time>
      </trkpt>
      <trkpt lat="42.01355" lon="25.04157">
        <ele>291.898543</ele>
        <time>2022-03-03T09:14:09.406Z</time>
      </trkpt>
      <trkpt lat="42.0136" lon="25.04146">
        <ele>291.744856</ele>
        <time>2022-03-03T09:14:12.439Z</time>
      </trkpt>
      <trkpt lat="42.01366" lon="25.04136">
        <ele>291.594651</ele>
        <time>2022-03-03T09:14:15.426Z</time>
      </trkpt>
      <trkpt lat="42.01372" lon="25.04126">
        <ele>291.446957</ele>
        <time>2022-03-03T09:14:18.422Z</time>
      </trkpt>
      <trkpt lat="42.01378" lon="25.04117">
        <ele>291.297634</ele>
        <time>2022-03-03T09:14:21.433Z</time>
      </trkpt>
      <trkpt lat="42.01383" lon="25.04106">
        <ele>291.144553</ele>
        <time>2022-03-03T09:14:24.411Z</time>
      </trkpt>
      <trkpt lat="42.01391" lon="25.04094">
        <ele>290.95572</ele>
        <time>2022-03-03T09:14:28.459Z</time>
      </trkpt>
      <trkpt lat="42.01397" lon="25.04084">
        <ele>290.79842</ele>
        <time>2022-03-03T09:14:31.411Z</time>
      </trkpt>
      <trkpt lat="42.01404" lon="25.04074">
        <ele>290.640964</ele>
        <time>2022-03-03T09:14:34.403Z</time>
      </trkpt>
      <trkpt lat="42.01411" lon="25.04064">
        <ele>290.480482</ele>
        <time>2022-03-03T09:14:37.414Z</time>
      </trkpt>
      <trkpt lat="42.01418" lon="25.04053">
        <ele>290.295264</ele>
        <time>2022-03-03T09:14:40.414Z</time>
      </trkpt>
      <trkpt lat="42.01425" lon="25.04041">
        <ele>290.118085</ele>
        <time>2022-03-03T09:14:43.427Z</time>
      </trkpt>
      <trkpt lat="42.01433" lon="25.0403">
        <ele>289.936225</ele>
        <time>2022-03-03T09:14:46.418Z</time>
      </trkpt>
      <trkpt lat="42.01439" lon="25.04019">
        <ele>289.769652</ele>
        <time>2022-03-03T09:14:49.407Z</time>
      </trkpt>
      <trkpt lat="42.01446" lon="25.04009">
        <ele>289.613254</ele>
        <time>2022-03-03T09:14:52.403Z</time>
      </trkpt>
      <trkpt lat="42.01453" lon="25.04">
        <ele>289.456895</ele>
        <time>2022-03-03T09:14:55.426Z</time>
      </trkpt>
      <trkpt lat="42.0146" lon="25.03989">
        <ele>289.283306</ele>
        <time>2022-03-03T09:14:58.425Z</time>
      </trkpt>
      <trkpt lat="42.01468" lon="25.03978">
        <ele>289.045635</ele>
        <time>2022-03-03T09:15:01.436Z</time>
      </trkpt>
      <trkpt lat="42.01476" lon="25.03966">
        <ele>288.784092</ele>
        <time>2022-03-03T09:15:04.423Z</time>
      </trkpt>
      <trkpt lat="42.01484" lon="25.03954">
        <ele>288.515788</ele>
        <time>2022-03-03T09:15:07.449Z</time>
      </trkpt>
      <trkpt lat="42.01492" lon="25.03942">
        <ele>288.263125</ele>
        <time>2022-03-03T09:15:10.409Z</time>
      </trkpt>
      <trkpt lat="42.01499" lon="25.03931">
        <ele>288.018553</ele>
        <time>2022-03-03T09:15:13.419Z</time>
      </trkpt>
      <trkpt lat="42.01506" lon="25.0392">
        <ele>287.780711</ele>
        <time>2022-03-03T09:15:16.410Z</time>
      </trkpt>
      <trkpt lat="42.01512" lon="25.03911">
        <ele>287.580284</ele>
        <time>2022-03-03T09:15:19.403Z</time>
      </trkpt>
      <trkpt lat="42.01519" lon="25.039">
        <ele>287.352592</ele>
        <time>2022-03-03T09:15:22.428Z</time>
      </trkpt>
      <trkpt lat="42.01525" lon="25.03888">
        <ele>287.114715</ele>
        <time>2022-03-03T09:15:25.418Z</time>
      </trkpt>
      <trkpt lat="42.01532" lon="25.03876">
        <ele>286.866278</ele>
        <time>2022-03-03T09:15:28.413Z</time>
      </trkpt>
      <trkpt lat="42.01539" lon="25.03864">
        <ele>286.616573</ele>
        <time>2022-03-03T09:15:31.410Z</time>
      </trkpt>
      <trkpt lat="42.01544" lon="25.03853">
        <ele>286.39008</ele>
        <time>2022-03-03T09:15:34.403Z</time>
      </trkpt>
      <trkpt lat="42.0155" lon="25.03843">
        <ele>286.190297</ele>
        <time>2022-03-03T09:15:37.409Z</time>
      </trkpt>
      <trkpt lat="42.01554" lon="25.0383">
        <ele>285.951631</ele>
        <time>2022-03-03T09:15:41.422Z</time>
      </trkpt>
      <trkpt lat="42.01558" lon="25.03816">
        <ele>285.714507</ele>
        <time>2022-03-03T09:15:45.398Z</time>
      </trkpt>
      <trkpt lat="42.01561" lon="25.03803">
        <ele>285.494759</ele>
        <time>2022-03-03T09:15:48.405Z</time>
      </trkpt>
      <trkpt lat="42.01565" lon="25.0379">
        <ele>285.262002</ele>
        <time>2022-03-03T09:15:51.430Z</time>
      </trkpt>
      <trkpt lat="42.0157" lon="25.03775">
        <ele>285.109475</ele>
        <time>2022-03-03T09:15:54.405Z</time>
      </trkpt>
      <trkpt lat="42.01574" lon="25.0376">
        <ele>284.95334</ele>
        <time>2022-03-03T09:15:57.398Z</time>
      </trkpt>
      <trkpt lat="42.01579" lon="25.03744">
        <ele>284.779355</ele>
        <time>2022-03-03T09:16:00.414Z</time>
      </trkpt>
      <trkpt lat="42.01584" lon="25.03728">
        <ele>284.613594</ele>
        <time>2022-03-03T09:16:03.413Z</time>
      </trkpt>
      <trkpt lat="42.01588" lon="25.03714">
        <ele>284.464781</ele>
        <time>2022-03-03T09:16:06.400Z</time>
      </trkpt>
      <trkpt lat="42.01592" lon="25.03701">
        <ele>284.328383</ele>
        <time>2022-03-03T09:16:09.427Z</time>
      </trkpt>
      <trkpt lat="42.01597" lon="25.03688">
        <ele>284.185457</ele>
        <time>2022-03-03T09:16:12.417Z</time>
      </trkpt>
      <trkpt lat="42.01602" lon="25.03675">
        <ele>284.040794</ele>
        <time>2022-03-03T09:16:15.394Z</time>
      </trkpt>
      <trkpt lat="42.01606" lon="25.03662">
        <ele>283.90791</ele>
        <time>2022-03-03T09:16:18.443Z</time>
      </trkpt>
      <trkpt lat="42.01612" lon="25.0365">
        <ele>283.765542</ele>
        <time>2022-03-03T09:16:21.410Z</time>
      </trkpt>
      <trkpt lat="42.01616" lon="25.03639">
        <ele>283.645657</ele>
        <time>2022-03-03T09:16:24.439Z</time>
      </trkpt>
      <trkpt lat="42.0162" lon="25.03625">
        <ele>283.501963</ele>
        <time>2022-03-03T09:16:27.406Z</time>
      </trkpt>
      <trkpt lat="42.01625" lon="25.0361">
        <ele>283.339125</ele>
        <time>2022-03-03T09:16:30.410Z</time>
      </trkpt>
      <trkpt lat="42.0163" lon="25.03596">
        <ele>283.184244</ele>
        <time>2022-03-03T09:16:33.422Z</time>
      </trkpt>
      <trkpt lat="42.01633" lon="25.03583">
        <ele>283.054903</ele>
        <time>2022-03-03T09:16:36.413Z</time>
      </trkpt>
      <trkpt lat="42.01637" lon="25.03571">
        <ele>282.925743</ele>
        <time>2022-03-03T09:16:39.413Z</time>
      </trkpt>
      <trkpt lat="42.0164" lon="25.03557">
        <ele>282.76081</ele>
        <time>2022-03-03T09:16:42.411Z</time>
      </trkpt>
      <trkpt lat="42.01643" lon="25.03544">
        <ele>282.597771</ele>
        <time>2022-03-03T09:16:45.426Z</time>
      </trkpt>
      <trkpt lat="42.01645" lon="25.03531">
        <ele>282.445259</ele>
        <time>2022-03-03T09:16:48.417Z</time>
      </trkpt>
      <trkpt lat="42.01647" lon="25.03517">
        <ele>282.280405</ele>
        <time>2022-03-03T09:16:51.440Z</time>
      </trkpt>
      <trkpt lat="42.0165" lon="25.03503">
        <ele>282.122643</ele>
        <time>2022-03-03T09:16:54.395Z</time>
      </trkpt>
      <trkpt lat="42.01652" lon="25.0349">
        <ele>281.963813</ele>
        <time>2022-03-03T09:16:57.391Z</time>
      </trkpt>
      <trkpt lat="42.01654" lon="25.03477">
        <ele>281.813093</ele>
        <time>2022-03-03T09:17:00.409Z</time>
      </trkpt>
      <trkpt lat="42.01656" lon="25.03465">
        <ele>281.672907</ele>
        <time>2022-03-03T09:17:03.398Z</time>
      </trkpt>
      <trkpt lat="42.01658" lon="25.03452">
        <ele>281.513448</ele>
        <time>2022-03-03T09:17:07.417Z</time>
      </trkpt>
      <trkpt lat="42.0166" lon="25.03437">
        <ele>281.336709</ele>
        <time>2022-03-03T09:17:12.449Z</time>
      </trkpt>
      <trkpt lat="42.01662" lon="25.03424">
        <ele>281.187431</ele>
        <time>2022-03-03T09:17:16.412Z</time>
      </trkpt>
      <trkpt lat="42.01664" lon="25.03411">
        <ele>281.03084</ele>
        <time>2022-03-03T09:17:20.412Z</time>
      </trkpt>
      <trkpt lat="42.01667" lon="25.03397">
        <ele>280.860728</ele>
        <time>2022-03-03T09:17:24.467Z</time>
      </trkpt>
      <trkpt lat="42.01671" lon="25.03383">
        <ele>280.69429</ele>
        <time>2022-03-03T09:17:28.429Z</time>
      </trkpt>
      <trkpt lat="42.01675" lon="25.0337">
        <ele>280.535343</ele>
        <time>2022-03-03T09:17:32.416Z</time>
      </trkpt>
      <trkpt lat="42.01678" lon="25.03358">
        <ele>280.387289</ele>
        <time>2022-03-03T09:17:36.427Z</time>
      </trkpt>
      <trkpt lat="42.01682" lon="25.03345">
        <ele>280.222013</ele>
        <time>2022-03-03T09:17:41.411Z</time>
      </trkpt>
      <trkpt lat="42.01685" lon="25.03332">
        <ele>280.233119</ele>
        <time>2022-03-03T09:17:45.404Z</time>
      </trkpt>
      <trkpt lat="42.01688" lon="25.0332">
        <ele>280.549249</ele>
        <time>2022-03-03T09:17:49.414Z</time>
      </trkpt>
      <trkpt lat="42.01691" lon="25.03306">
        <ele>280.919157</ele>
        <time>2022-03-03T09:17:54.423Z</time>
      </trkpt>
      <trkpt lat="42.01694" lon="25.03295">
        <ele>281.231227</ele>
        <time>2022-03-03T09:17:58.429Z</time>
      </trkpt>
      <trkpt lat="42.01699" lon="25.03283">
        <ele>281.551334</ele>
        <time>2022-03-03T09:18:02.405Z</time>
      </trkpt>
      <trkpt lat="42.01703" lon="25.03271">
        <ele>281.894075</ele>
        <time>2022-03-03T09:18:06.421Z</time>
      </trkpt>
      <trkpt lat="42.01708" lon="25.03259">
        <ele>282.247027</ele>
        <time>2022-03-03T09:18:10.460Z</time>
      </trkpt>
      <trkpt lat="42.01713" lon="25.03245">
        <ele>282.618718</ele>
        <time>2022-03-03T09:18:14.410Z</time>
      </trkpt>
      <trkpt lat="42.01716" lon="25.03234">
        <ele>282.932869</ele>
        <time>2022-03-03T09:18:18.408Z</time>
      </trkpt>
      <trkpt lat="42.01721" lon="25.03223">
        <ele>283.248936</ele>
        <time>2022-03-03T09:18:22.409Z</time>
      </trkpt>
      <trkpt lat="42.01724" lon="25.03211">
        <ele>283.572749</ele>
        <time>2022-03-03T09:18:26.390Z</time>
      </trkpt>
      <trkpt lat="42.01727" lon="25.03197">
        <ele>283.939197</ele>
        <time>2022-03-03T09:18:31.404Z</time>
      </trkpt>
      <trkpt lat="42.01731" lon="25.03186">
        <ele>284.260223</ele>
        <time>2022-03-03T09:18:35.421Z</time>
      </trkpt>
      <trkpt lat="42.01735" lon="25.03174">
        <ele>284.578796</ele>
        <time>2022-03-03T09:18:39.417Z</time>
      </trkpt>
      <trkpt lat="42.0174" lon="25.03164">
        <ele>284.897858</ele>
        <time>2022-03-03T09:18:43.466Z</time>
      </trkpt>
      <trkpt lat="42.01744" lon="25.03151">
        <ele>285.249006</ele>
        <time>2022-03-03T09:18:48.447Z</time>
      </trkpt>
      <trkpt lat="42.01748" lon="25.03137">
        <ele>285.604755</ele>
        <time>2022-03-03T09:18:53.417Z</time>
      </trkpt>
      <trkpt lat="42.01751" lon="25.03126">
        <ele>285.91343</ele>
        <time>2022-03-03T09:18:57.413Z</time>
      </trkpt>
      <trkpt lat="42.01755" lon="25.03114">
        <ele>286.260072</ele>
        <time>2022-03-03T09:19:02.415Z</time>
      </trkpt>
      <trkpt lat="42.01759" lon="25.03102">
        <ele>286.748958</ele>
        <time>2022-03-03T09:19:06.405Z</time>
      </trkpt>
      <trkpt lat="42.01763" lon="25.0309">
        <ele>287.281457</ele>
        <time>2022-03-03T09:19:11.448Z</time>
      </trkpt>
      <trkpt lat="42.01767" lon="25.03076">
        <ele>287.886895</ele>
        <time>2022-03-03T09:19:16.410Z</time>
      </trkpt>
      <trkpt lat="42.01771" lon="25.03064">
        <ele>288.410011</ele>
        <time>2022-03-03T09:19:20.409Z</time>
      </trkpt>
      <trkpt lat="42.01778" lon="25.03052">
        <ele>289.003371</ele>
        <time>2022-03-03T09:19:24.402Z</time>
      </trkpt>
      <trkpt lat="42.01783" lon="25.0304">
        <ele>289.573806</ele>
        <time>2022-03-03T09:19:28.403Z</time>
      </trkpt>
      <trkpt lat="42.01788" lon="25.03027">
        <ele>290.140562</ele>
        <time>2022-03-03T09:19:33.407Z</time>
      </trkpt>
      <trkpt lat="42.01792" lon="25.03014">
        <ele>290.70522</ele>
        <time>2022-03-03T09:19:38.447Z</time>
      </trkpt>
      <trkpt lat="42.01797" lon="25.03002">
        <ele>291.226235</ele>
        <time>2022-03-03T09:19:42.420Z</time>
      </trkpt>
      <trkpt lat="42.01801" lon="25.02991">
        <ele>291.708809</ele>
        <time>2022-03-03T09:19:46.414Z</time>
      </trkpt>
      <trkpt lat="42.01806" lon="25.0298">
        <ele>292.236725</ele>
        <time>2022-03-03T09:19:51.419Z</time>
      </trkpt>
      <trkpt lat="42.0181" lon="25.02968">
        <ele>292.745444</ele>
        <time>2022-03-03T09:19:55.419Z</time>
      </trkpt>
      <trkpt lat="42.01814" lon="25.02955">
        <ele>293.283728</ele>
        <time>2022-03-03T09:19:59.409Z</time>
      </trkpt>
      <trkpt lat="42.01819" lon="25.02943">
        <ele>293.825528</ele>
        <time>2022-03-03T09:20:03.412Z</time>
      </trkpt>
      <trkpt lat="42.01824" lon="25.02931">
        <ele>294.368967</ele>
        <time>2022-03-03T09:20:07.409Z</time>
      </trkpt>
      <trkpt lat="42.01828" lon="25.0292">
        <ele>294.87289</ele>
        <time>2022-03-03T09:20:11.456Z</time>
      </trkpt>
      <trkpt lat="42.01832" lon="25.02908">
        <ele>295.404755</ele>
        <time>2022-03-03T09:20:15.408Z</time>
      </trkpt>
      <trkpt lat="42.01835" lon="25.02896">
        <ele>295.732703</ele>
        <time>2022-03-03T09:20:19.399Z</time>
      </trkpt>
      <trkpt lat="42.0184" lon="25.02883">
        <ele>295.412337</ele>
        <time>2022-03-03T09:20:23.413Z</time>
      </trkpt>
      <trkpt lat="42.01844" lon="25.02872">
        <ele>295.152034</ele>
        <time>2022-03-03T09:20:26.419Z</time>
      </trkpt>
      <trkpt lat="42.01849" lon="25.0286">
        <ele>294.854779</ele>
        <time>2022-03-03T09:20:30.414Z</time>
      </trkpt>
      <trkpt lat="42.01854" lon="25.02846">
        <ele>294.52923</ele>
        <time>2022-03-03T09:20:34.388Z</time>
      </trkpt>
      <trkpt lat="42.01859" lon="25.02832">
        <ele>294.191506</ele>
        <time>2022-03-03T09:20:38.449Z</time>
      </trkpt>
      <trkpt lat="42.01862" lon="25.02819">
        <ele>293.891219</ele>
        <time>2022-03-03T09:20:42.451Z</time>
      </trkpt>
      <trkpt lat="42.01867" lon="25.02805">
        <ele>293.560587</ele>
        <time>2022-03-03T09:20:46.415Z</time>
      </trkpt>
      <trkpt lat="42.01871" lon="25.02794">
        <ele>293.298977</ele>
        <time>2022-03-03T09:20:49.409Z</time>
      </trkpt>
      <trkpt lat="42.01876" lon="25.0278">
        <ele>292.969097</ele>
        <time>2022-03-03T09:20:53.410Z</time>
      </trkpt>
      <trkpt lat="42.01879" lon="25.02767">
        <ele>292.667816</ele>
        <time>2022-03-03T09:20:57.408Z</time>
      </trkpt>
      <trkpt lat="42.01883" lon="25.02752">
        <ele>292.330375</ele>
        <time>2022-03-03T09:21:01.449Z</time>
      </trkpt>
      <trkpt lat="42.01886" lon="25.02737">
        <ele>291.993298</ele>
        <time>2022-03-03T09:21:05.416Z</time>
      </trkpt>
      <trkpt lat="42.01889" lon="25.02723">
        <ele>291.673646</ele>
        <time>2022-03-03T09:21:09.438Z</time>
      </trkpt>
      <trkpt lat="42.01891" lon="25.02708">
        <ele>291.347499</ele>
        <time>2022-03-03T09:21:13.404Z</time>
      </trkpt>
      <trkpt lat="42.01893" lon="25.02694">
        <ele>291.038222</ele>
        <time>2022-03-03T09:21:17.440Z</time>
      </trkpt>
      <trkpt lat="42.01896" lon="25.02679">
        <ele>290.710886</ele>
        <time>2022-03-03T09:21:21.419Z</time>
      </trkpt>
      <trkpt lat="42.01898" lon="25.02664">
        <ele>290.558449</ele>
        <time>2022-03-03T09:21:25.418Z</time>
      </trkpt>
      <trkpt lat="42.01899" lon="25.02648">
        <ele>290.547068</ele>
        <time>2022-03-03T09:21:29.402Z</time>
      </trkpt>
      <trkpt lat="42.01901" lon="25.02636">
        <ele>290.538232</ele>
        <time>2022-03-03T09:21:32.413Z</time>
      </trkpt>
      <trkpt lat="42.01903" lon="25.02621">
        <ele>290.52677</ele>
        <time>2022-03-03T09:21:36.422Z</time>
      </trkpt>
      <trkpt lat="42.01904" lon="25.02606">
        <ele>290.515618</ele>
        <time>2022-03-03T09:21:40.416Z</time>
      </trkpt>
      <trkpt lat="42.01907" lon="25.02591">
        <ele>290.504907</ele>
        <time>2022-03-03T09:21:44.399Z</time>
      </trkpt>
      <trkpt lat="42.0191" lon="25.02576">
        <ele>290.493156</ele>
        <time>2022-03-03T09:21:48.413Z</time>
      </trkpt>
      <trkpt lat="42.01912" lon="25.02564">
        <ele>290.484129</ele>
        <time>2022-03-03T09:21:51.415Z</time>
      </trkpt>
      <trkpt lat="42.01914" lon="25.02549">
        <ele>290.472901</ele>
        <time>2022-03-03T09:21:55.400Z</time>
      </trkpt>
      <trkpt lat="42.01917" lon="25.02537">
        <ele>290.463663</ele>
        <time>2022-03-03T09:21:58.417Z</time>
      </trkpt>
      <trkpt lat="42.01921" lon="25.02522">
        <ele>290.452306</ele>
        <time>2022-03-03T09:22:02.417Z</time>
      </trkpt>
      <trkpt lat="42.01924" lon="25.02509">
        <ele>290.442229</ele>
        <time>2022-03-03T09:22:06.403Z</time>
      </trkpt>
      <trkpt lat="42.01927" lon="25.02495">
        <ele>290.431407</ele>
        <time>2022-03-03T09:22:10.411Z</time>
      </trkpt>
      <trkpt lat="42.01931" lon="25.0248">
        <ele>290.419978</ele>
        <time>2022-03-03T09:22:14.411Z</time>
      </trkpt>
      <trkpt lat="42.01935" lon="25.02469">
        <ele>290.411125</ele>
        <time>2022-03-03T09:22:17.411Z</time>
      </trkpt>
      <trkpt lat="42.0194" lon="25.02455">
        <ele>290.399597</ele>
        <time>2022-03-03T09:22:21.400Z</time>
      </trkpt>
      <trkpt lat="42.01946" lon="25.02442">
        <ele>290.388315</ele>
        <time>2022-03-03T09:22:25.426Z</time>
      </trkpt>
      <trkpt lat="42.01951" lon="25.02432">
        <ele>290.53389</ele>
        <time>2022-03-03T09:22:28.407Z</time>
      </trkpt>
      <trkpt lat="42.01957" lon="25.02422">
        <ele>290.686558</ele>
        <time>2022-03-03T09:22:31.417Z</time>
      </trkpt>
      <trkpt lat="42.01962" lon="25.02412">
        <ele>290.834966</ele>
        <time>2022-03-03T09:22:34.450Z</time>
      </trkpt>
      <trkpt lat="42.01968" lon="25.02399">
        <ele>291.020185</ele>
        <time>2022-03-03T09:22:38.418Z</time>
      </trkpt>
      <trkpt lat="42.01974" lon="25.02387">
        <ele>291.201842</ele>
        <time>2022-03-03T09:22:42.421Z</time>
      </trkpt>
      <trkpt lat="42.01979" lon="25.02374">
        <ele>291.370985</ele>
        <time>2022-03-03T09:22:46.415Z</time>
      </trkpt>
      <trkpt lat="42.01983" lon="25.02362">
        <ele>291.540317</ele>
        <time>2022-03-03T09:22:50.393Z</time>
      </trkpt>
      <trkpt lat="42.01989" lon="25.02349">
        <ele>291.719503</ele>
        <time>2022-03-03T09:22:54.405Z</time>
      </trkpt>
      <trkpt lat="42.01995" lon="25.02336">
        <ele>291.907844</ele>
        <time>2022-03-03T09:22:58.423Z</time>
      </trkpt>
      <trkpt lat="42.01999" lon="25.02325">
        <ele>292.062743</ele>
        <time>2022-03-03T09:23:01.405Z</time>
      </trkpt>
      <trkpt lat="42.02004" lon="25.02314">
        <ele>292.22057</ele>
        <time>2022-03-03T09:23:04.397Z</time>
      </trkpt>
      <trkpt lat="42.0201" lon="25.023">
        <ele>292.416527</ele>
        <time>2022-03-03T09:23:08.415Z</time>
      </trkpt>
      <trkpt lat="42.02016" lon="25.02287">
        <ele>292.597362</ele>
        <time>2022-03-03T09:23:12.396Z</time>
      </trkpt>
      <trkpt lat="42.0202" lon="25.02272">
        <ele>292.783724</ele>
        <time>2022-03-03T09:23:16.402Z</time>
      </trkpt>
      <trkpt lat="42.02026" lon="25.02262">
        <ele>292.945788</ele>
        <time>2022-03-03T09:23:19.436Z</time>
      </trkpt>
      <trkpt lat="42.02031" lon="25.0225">
        <ele>293.109896</ele>
        <time>2022-03-03T09:23:22.409Z</time>
      </trkpt>
      <trkpt lat="42.02036" lon="25.02238">
        <ele>293.285868</ele>
        <time>2022-03-03T09:23:25.420Z</time>
      </trkpt>
      <trkpt lat="42.02042" lon="25.02225">
        <ele>293.36917</ele>
        <time>2022-03-03T09:23:28.411Z</time>
      </trkpt>
      <trkpt lat="42.02048" lon="25.02212">
        <ele>293.41854</ele>
        <time>2022-03-03T09:23:31.427Z</time>
      </trkpt>
      <trkpt lat="42.02053" lon="25.022">
        <ele>293.45994</ele>
        <time>2022-03-03T09:23:34.394Z</time>
      </trkpt>
      <trkpt lat="42.02058" lon="25.02185">
        <ele>293.512225</ele>
        <time>2022-03-03T09:23:38.434Z</time>
      </trkpt>
      <trkpt lat="42.02062" lon="25.02173">
        <ele>293.555452</ele>
        <time>2022-03-03T09:23:41.437Z</time>
      </trkpt>
      <trkpt lat="42.02066" lon="25.02158">
        <ele>293.606904</ele>
        <time>2022-03-03T09:23:45.426Z</time>
      </trkpt>
      <trkpt lat="42.02071" lon="25.02145">
        <ele>293.654183</ele>
        <time>2022-03-03T09:23:49.393Z</time>
      </trkpt>
      <trkpt lat="42.02076" lon="25.02132">
        <ele>293.702314</ele>
        <time>2022-03-03T09:23:53.418Z</time>
      </trkpt>
      <trkpt lat="42.02079" lon="25.02117">
        <ele>293.752982</ele>
        <time>2022-03-03T09:23:57.416Z</time>
      </trkpt>
      <trkpt lat="42.02084" lon="25.02103">
        <ele>293.800667</ele>
        <time>2022-03-03T09:24:01.423Z</time>
      </trkpt>
      <trkpt lat="42.02088" lon="25.02089">
        <ele>293.850364</ele>
        <time>2022-03-03T09:24:05.400Z</time>
      </trkpt>
      <trkpt lat="42.02092" lon="25.02076">
        <ele>293.893727</ele>
        <time>2022-03-03T09:24:08.422Z</time>
      </trkpt>
      <trkpt lat="42.02094" lon="25.02064">
        <ele>293.935559</ele>
        <time>2022-03-03T09:24:11.416Z</time>
      </trkpt>
      <trkpt lat="42.02096" lon="25.02051">
        <ele>293.976545</ele>
        <time>2022-03-03T09:24:14.405Z</time>
      </trkpt>
      <trkpt lat="42.021" lon="25.02039">
        <ele>294.018091</ele>
        <time>2022-03-03T09:24:17.400Z</time>
      </trkpt>
      <trkpt lat="42.02103" lon="25.02028">
        <ele>294.057081</ele>
        <time>2022-03-03T09:24:20.414Z</time>
      </trkpt>
      <trkpt lat="42.02107" lon="25.02017">
        <ele>294.096943</ele>
        <time>2022-03-03T09:24:23.404Z</time>
      </trkpt>
      <trkpt lat="42.02112" lon="25.02005">
        <ele>293.811563</ele>
        <time>2022-03-03T09:24:26.452Z</time>
      </trkpt>
      <trkpt lat="42.02116" lon="25.01992">
        <ele>293.3595</ele>
        <time>2022-03-03T09:24:29.420Z</time>
      </trkpt>
      <trkpt lat="42.0212" lon="25.01978">
        <ele>292.862327</ele>
        <time>2022-03-03T09:24:32.435Z</time>
      </trkpt>
      <trkpt lat="42.02126" lon="25.01964">
        <ele>292.351795</ele>
        <time>2022-03-03T09:24:35.404Z</time>
      </trkpt>
      <trkpt lat="42.02131" lon="25.0195">
        <ele>291.837366</ele>
        <time>2022-03-03T09:24:38.424Z</time>
      </trkpt>
      <trkpt lat="42.02137" lon="25.01936">
        <ele>291.321203</ele>
        <time>2022-03-03T09:24:41.411Z</time>
      </trkpt>
      <trkpt lat="42.02142" lon="25.01921">
        <ele>290.796082</ele>
        <time>2022-03-03T09:24:44.398Z</time>
      </trkpt>
      <trkpt lat="42.02148" lon="25.01907">
        <ele>290.245787</ele>
        <time>2022-03-03T09:24:47.419Z</time>
      </trkpt>
      <trkpt lat="42.02154" lon="25.01892">
        <ele>289.713858</ele>
        <time>2022-03-03T09:24:50.411Z</time>
      </trkpt>
      <trkpt lat="42.02158" lon="25.01877">
        <ele>289.197587</ele>
        <time>2022-03-03T09:24:53.427Z</time>
      </trkpt>
      <trkpt lat="42.02164" lon="25.01861">
        <ele>288.589823</ele>
        <time>2022-03-03T09:24:56.426Z</time>
      </trkpt>
      <trkpt lat="42.02169" lon="25.01849">
        <ele>288.14405</ele>
        <time>2022-03-03T09:24:58.407Z</time>
      </trkpt>
      <trkpt lat="42.02174" lon="25.01837">
        <ele>287.701818</ele>
        <time>2022-03-03T09:25:00.426Z</time>
      </trkpt>
      <trkpt lat="42.02179" lon="25.01825">
        <ele>287.274911</ele>
        <time>2022-03-03T09:25:02.416Z</time>
      </trkpt>
      <trkpt lat="42.02184" lon="25.01809">
        <ele>286.702481</ele>
        <time>2022-03-03T09:25:05.453Z</time>
      </trkpt>
      <trkpt lat="42.02188" lon="25.01797">
        <ele>286.252202</ele>
        <time>2022-03-03T09:25:07.415Z</time>
      </trkpt>
      <trkpt lat="42.02194" lon="25.01784">
        <ele>285.747065</ele>
        <time>2022-03-03T09:25:09.410Z</time>
      </trkpt>
      <trkpt lat="42.02199" lon="25.01769">
        <ele>285.208883</ele>
        <time>2022-03-03T09:25:11.416Z</time>
      </trkpt>
      <trkpt lat="42.02204" lon="25.01757">
        <ele>284.725059</ele>
        <time>2022-03-03T09:25:13.391Z</time>
      </trkpt>
      <trkpt lat="42.0221" lon="25.01745">
        <ele>284.227936</ele>
        <time>2022-03-03T09:25:15.410Z</time>
      </trkpt>
      <trkpt lat="42.02215" lon="25.01733">
        <ele>283.772452</ele>
        <time>2022-03-03T09:25:17.415Z</time>
      </trkpt>
      <trkpt lat="42.02221" lon="25.01721">
        <ele>283.286414</ele>
        <time>2022-03-03T09:25:19.424Z</time>
      </trkpt>
      <trkpt lat="42.02225" lon="25.01709">
        <ele>282.82937</ele>
        <time>2022-03-03T09:25:21.419Z</time>
      </trkpt>
      <trkpt lat="42.02227" lon="25.01697">
        <ele>282.414312</ele>
        <time>2022-03-03T09:25:23.406Z</time>
      </trkpt>
      <trkpt lat="42.0223" lon="25.01684">
        <ele>281.95382</ele>
        <time>2022-03-03T09:25:25.406Z</time>
      </trkpt>
      <trkpt lat="42.02234" lon="25.01671">
        <ele>281.474684</ele>
        <time>2022-03-03T09:25:27.436Z</time>
      </trkpt>
      <trkpt lat="42.02239" lon="25.0166">
        <ele>281.049981</ele>
        <time>2022-03-03T09:25:29.424Z</time>
      </trkpt>
      <trkpt lat="42.02244" lon="25.0165">
        <ele>280.630467</ele>
        <time>2022-03-03T09:25:31.446Z</time>
      </trkpt>
      <trkpt lat="42.02249" lon="25.01639">
        <ele>280.213991</ele>
        <time>2022-03-03T09:25:33.406Z</time>
      </trkpt>
      <trkpt lat="42.02254" lon="25.01623">
        <ele>279.606293</ele>
        <time>2022-03-03T09:25:36.405Z</time>
      </trkpt>
      <trkpt lat="42.02257" lon="25.01611">
        <ele>279.189723</ele>
        <time>2022-03-03T09:25:38.447Z</time>
      </trkpt>
      <trkpt lat="42.02262" lon="25.01596">
        <ele>278.622655</ele>
        <time>2022-03-03T09:25:41.406Z</time>
      </trkpt>
      <trkpt lat="42.02268" lon="25.01581">
        <ele>278.065261</ele>
        <time>2022-03-03T09:25:44.431Z</time>
      </trkpt>
      <trkpt lat="42.02273" lon="25.01565">
        <ele>277.825093</ele>
        <time>2022-03-03T09:25:47.419Z</time>
      </trkpt>
      <trkpt lat="42.02279" lon="25.01549">
        <ele>277.616027</ele>
        <time>2022-03-03T09:25:50.414Z</time>
      </trkpt>
      <trkpt lat="42.02284" lon="25.01535">
        <ele>277.428859</ele>
        <time>2022-03-03T09:25:53.427Z</time>
      </trkpt>
      <trkpt lat="42.0229" lon="25.01521">
        <ele>277.250893</ele>
        <time>2022-03-03T09:25:56.410Z</time>
      </trkpt>
      <trkpt lat="42.02294" lon="25.01508">
        <ele>277.080707</ele>
        <time>2022-03-03T09:25:59.409Z</time>
      </trkpt>
      <trkpt lat="42.02299" lon="25.01495">
        <ele>276.902113</ele>
        <time>2022-03-03T09:26:02.445Z</time>
      </trkpt>
      <trkpt lat="42.02305" lon="25.01481">
        <ele>276.719265</ele>
        <time>2022-03-03T09:26:05.398Z</time>
      </trkpt>
      <trkpt lat="42.0231" lon="25.01468">
        <ele>276.538768</ele>
        <time>2022-03-03T09:26:08.403Z</time>
      </trkpt>
      <trkpt lat="42.02316" lon="25.01453">
        <ele>276.344676</ele>
        <time>2022-03-03T09:26:11.425Z</time>
      </trkpt>
      <trkpt lat="42.02322" lon="25.01439">
        <ele>276.161829</ele>
        <time>2022-03-03T09:26:14.397Z</time>
      </trkpt>
      <trkpt lat="42.02325" lon="25.01426">
        <ele>275.998559</ele>
        <time>2022-03-03T09:26:17.419Z</time>
      </trkpt>
      <trkpt lat="42.02327" lon="25.01412">
        <ele>275.831579</ele>
        <time>2022-03-03T09:26:20.414Z</time>
      </trkpt>
      <trkpt lat="42.02328" lon="25.01395">
        <ele>275.633568</ele>
        <time>2022-03-03T09:26:23.473Z</time>
      </trkpt>
      <trkpt lat="42.02329" lon="25.01379">
        <ele>275.440898</ele>
        <time>2022-03-03T09:26:26.429Z</time>
      </trkpt>
      <trkpt lat="42.02328" lon="25.01362">
        <ele>275.243322</ele>
        <time>2022-03-03T09:26:29.423Z</time>
      </trkpt>
      <trkpt lat="42.02327" lon="25.01345">
        <ele>275.293866</ele>
        <time>2022-03-03T09:26:32.422Z</time>
      </trkpt>
      <trkpt lat="42.02325" lon="25.01328">
        <ele>275.465084</ele>
        <time>2022-03-03T09:26:35.401Z</time>
      </trkpt>
      <trkpt lat="42.02324" lon="25.01313">
        <ele>275.615989</ele>
        <time>2022-03-03T09:26:38.411Z</time>
      </trkpt>
      <trkpt lat="42.02323" lon="25.01298">
        <ele>275.766406</ele>
        <time>2022-03-03T09:26:41.417Z</time>
      </trkpt>
      <trkpt lat="42.02324" lon="25.01284">
        <ele>275.915578</ele>
        <time>2022-03-03T09:26:44.411Z</time>
      </trkpt>
      <trkpt lat="42.02324" lon="25.01269">
        <ele>276.066617</ele>
        <time>2022-03-03T09:26:47.401Z</time>
      </trkpt>
      <trkpt lat="42.02324" lon="25.01255">
        <ele>276.208614</ele>
        <time>2022-03-03T09:26:50.412Z</time>
      </trkpt>
      <trkpt lat="42.02324" lon="25.0124">
        <ele>276.351597</ele>
        <time>2022-03-03T09:26:53.441Z</time>
      </trkpt>
      <trkpt lat="42.02324" lon="25.01226">
        <ele>276.493568</ele>
        <time>2022-03-03T09:26:56.402Z</time>
      </trkpt>
      <trkpt lat="42.02324" lon="25.01213">
        <ele>276.625498</ele>
        <time>2022-03-03T09:26:59.420Z</time>
      </trkpt>
      <trkpt lat="42.02325" lon="25.012">
        <ele>276.758239</ele>
        <time>2022-03-03T09:27:02.452Z</time>
      </trkpt>
      <trkpt lat="42.02325" lon="25.01186">
        <ele>276.897249</ele>
        <time>2022-03-03T09:27:05.408Z</time>
      </trkpt>
      <trkpt lat="42.02326" lon="25.01172">
        <ele>277.038531</ele>
        <time>2022-03-03T09:27:08.416Z</time>
      </trkpt>
      <trkpt lat="42.02326" lon="25.01159">
        <ele>277.174521</ele>
        <time>2022-03-03T09:27:11.418Z</time>
      </trkpt>
      <trkpt lat="42.02326" lon="25.01146">
        <ele>277.305444</ele>
        <time>2022-03-03T09:27:14.396Z</time>
      </trkpt>
      <trkpt lat="42.02327" lon="25.01133">
        <ele>277.436591</ele>
        <time>2022-03-03T09:27:17.425Z</time>
      </trkpt>
      <trkpt lat="42.02328" lon="25.0112">
        <ele>277.564044</ele>
        <time>2022-03-03T09:27:20.412Z</time>
      </trkpt>
      <trkpt lat="42.02329" lon="25.01107">
        <ele>277.658023</ele>
        <time>2022-03-03T09:27:23.416Z</time>
      </trkpt>
      <trkpt lat="42.0233" lon="25.01095">
        <ele>277.72381</ele>
        <time>2022-03-03T09:27:26.403Z</time>
      </trkpt>
      <trkpt lat="42.0233" lon="25.01083">
        <ele>277.789489</ele>
        <time>2022-03-03T09:27:29.410Z</time>
      </trkpt>
      <trkpt lat="42.0233" lon="25.01067">
        <ele>277.87509</ele>
        <time>2022-03-03T09:27:33.416Z</time>
      </trkpt>
      <trkpt lat="42.02331" lon="25.01053">
        <ele>277.950006</ele>
        <time>2022-03-03T09:27:36.444Z</time>
      </trkpt>
      <trkpt lat="42.02331" lon="25.0104">
        <ele>278.018343</ele>
        <time>2022-03-03T09:27:39.421Z</time>
      </trkpt>
      <trkpt lat="42.02332" lon="25.01027">
        <ele>278.091809</ele>
        <time>2022-03-03T09:27:42.443Z</time>
      </trkpt>
      <trkpt lat="42.02333" lon="25.01014">
        <ele>278.159722</ele>
        <time>2022-03-03T09:27:45.410Z</time>
      </trkpt>
      <trkpt lat="42.02334" lon="25.01002">
        <ele>278.228194</ele>
        <time>2022-03-03T09:27:48.414Z</time>
      </trkpt>
      <trkpt lat="42.02335" lon="25.00986">
        <ele>278.312243</ele>
        <time>2022-03-03T09:27:52.413Z</time>
      </trkpt>
      <trkpt lat="42.02335" lon="25.00973">
        <ele>278.379598</ele>
        <time>2022-03-03T09:27:55.429Z</time>
      </trkpt>
      <trkpt lat="42.02336" lon="25.00961">
        <ele>278.444655</ele>
        <time>2022-03-03T09:27:58.436Z</time>
      </trkpt>
      <trkpt lat="42.02336" lon="25.00949">
        <ele>278.511378</ele>
        <time>2022-03-03T09:28:01.424Z</time>
      </trkpt>
      <trkpt lat="42.02338" lon="25.00936">
        <ele>278.581956</ele>
        <time>2022-03-03T09:28:04.436Z</time>
      </trkpt>
      <trkpt lat="42.02338" lon="25.00923">
        <ele>278.654089</ele>
        <time>2022-03-03T09:28:07.407Z</time>
      </trkpt>
      <trkpt lat="42.02338" lon="25.00907">
        <ele>278.737488</ele>
        <time>2022-03-03T09:28:11.427Z</time>
      </trkpt>
      <trkpt lat="42.02339" lon="25.00891">
        <ele>278.822162</ele>
        <time>2022-03-03T09:28:15.444Z</time>
      </trkpt>
      <trkpt lat="42.0234" lon="25.0088">
        <ele>278.887231</ele>
        <time>2022-03-03T09:28:18.407Z</time>
      </trkpt>
      <trkpt lat="42.02342" lon="25.00865">
        <ele>278.940944</ele>
        <time>2022-03-03T09:28:22.416Z</time>
      </trkpt>
      <trkpt lat="42.02343" lon="25.0085">
        <ele>278.976126</ele>
        <time>2022-03-03T09:28:26.432Z</time>
      </trkpt>
      <trkpt lat="42.02345" lon="25.00836">
        <ele>279.011308</ele>
        <time>2022-03-03T09:28:30.416Z</time>
      </trkpt>
      <trkpt lat="42.02347" lon="25.0082">
        <ele>279.050163</ele>
        <time>2022-03-03T09:28:34.395Z</time>
      </trkpt>
      <trkpt lat="42.02349" lon="25.00808">
        <ele>279.081497</ele>
        <time>2022-03-03T09:28:37.409Z</time>
      </trkpt>
      <trkpt lat="42.02352" lon="25.00795">
        <ele>279.115566</ele>
        <time>2022-03-03T09:28:40.406Z</time>
      </trkpt>
      <trkpt lat="42.02356" lon="25.00782">
        <ele>279.149644</ele>
        <time>2022-03-03T09:28:43.415Z</time>
      </trkpt>
      <trkpt lat="42.02358" lon="25.00768">
        <ele>279.182719</ele>
        <time>2022-03-03T09:28:46.431Z</time>
      </trkpt>
      <trkpt lat="42.02361" lon="25.00754">
        <ele>279.218169</ele>
        <time>2022-03-03T09:28:49.403Z</time>
      </trkpt>
      <trkpt lat="42.02363" lon="25.0074">
        <ele>279.254476</ele>
        <time>2022-03-03T09:28:52.415Z</time>
      </trkpt>
      <trkpt lat="42.02366" lon="25.00725">
        <ele>279.291335</ele>
        <time>2022-03-03T09:28:55.422Z</time>
      </trkpt>
      <trkpt lat="42.02368" lon="25.00709">
        <ele>279.332524</ele>
        <time>2022-03-03T09:28:58.406Z</time>
      </trkpt>
      <trkpt lat="42.02371" lon="25.00697">
        <ele>279.362752</ele>
        <time>2022-03-03T09:29:00.415Z</time>
      </trkpt>
      <trkpt lat="42.02373" lon="25.00684">
        <ele>279.393157</ele>
        <time>2022-03-03T09:29:02.410Z</time>
      </trkpt>
      <trkpt lat="42.02374" lon="25.00672">
        <ele>279.424215</ele>
        <time>2022-03-03T09:29:04.419Z</time>
      </trkpt>
      <trkpt lat="42.02376" lon="25.00654">
        <ele>279.467113</ele>
        <time>2022-03-03T09:29:07.395Z</time>
      </trkpt>
      <trkpt lat="42.02378" lon="25.00637">
        <ele>279.504268</ele>
        <time>2022-03-03T09:29:10.415Z</time>
      </trkpt>
      <trkpt lat="42.02377" lon="25.00624">
        <ele>279.210228</ele>
        <time>2022-03-03T09:29:12.445Z</time>
      </trkpt>
      <trkpt lat="42.02377" lon="25.00612">
        <ele>278.935139</ele>
        <time>2022-03-03T09:29:14.398Z</time>
      </trkpt>
      <trkpt lat="42.02378" lon="25.006">
        <ele>278.659999</ele>
        <time>2022-03-03T09:29:16.415Z</time>
      </trkpt>
      <trkpt lat="42.02378" lon="25.00587">
        <ele>278.368869</ele>
        <time>2022-03-03T09:29:18.433Z</time>
      </trkpt>
      <trkpt lat="42.02379" lon="25.00575">
        <ele>278.079364</ele>
        <time>2022-03-03T09:29:20.405Z</time>
      </trkpt>
      <trkpt lat="42.02379" lon="25.00557">
        <ele>277.681344</ele>
        <time>2022-03-03T09:29:23.402Z</time>
      </trkpt>
      <trkpt lat="42.0238" lon="25.00541">
        <ele>277.324105</ele>
        <time>2022-03-03T09:29:26.402Z</time>
      </trkpt>
      <trkpt lat="42.0238" lon="25.00524">
        <ele>276.932663</ele>
        <time>2022-03-03T09:29:29.429Z</time>
      </trkpt>
      <trkpt lat="42.02381" lon="25.00512">
        <ele>276.641625</ele>
        <time>2022-03-03T09:29:31.405Z</time>
      </trkpt>
      <trkpt lat="42.02382" lon="25.00499">
        <ele>276.347076</ele>
        <time>2022-03-03T09:29:33.426Z</time>
      </trkpt>
      <trkpt lat="42.02383" lon="25.00485">
        <ele>276.037164</ele>
        <time>2022-03-03T09:29:35.435Z</time>
      </trkpt>
      <trkpt lat="42.02384" lon="25.00471">
        <ele>275.722492</ele>
        <time>2022-03-03T09:29:37.447Z</time>
      </trkpt>
      <trkpt lat="42.02385" lon="25.00457">
        <ele>275.385954</ele>
        <time>2022-03-03T09:29:39.407Z</time>
      </trkpt>
      <trkpt lat="42.02386" lon="25.00442">
        <ele>275.061695</ele>
        <time>2022-03-03T09:29:41.404Z</time>
      </trkpt>
      <trkpt lat="42.02387" lon="25.00429">
        <ele>274.7513</ele>
        <time>2022-03-03T09:29:43.413Z</time>
      </trkpt>
      <trkpt lat="42.02387" lon="25.00415">
        <ele>274.432976</ele>
        <time>2022-03-03T09:29:45.421Z</time>
      </trkpt>
      <trkpt lat="42.02387" lon="25.004">
        <ele>274.103288</ele>
        <time>2022-03-03T09:29:47.417Z</time>
      </trkpt>
      <trkpt lat="42.02387" lon="25.00386">
        <ele>273.977571</ele>
        <time>2022-03-03T09:29:49.393Z</time>
      </trkpt>
      <trkpt lat="42.02388" lon="25.00373">
        <ele>273.939467</ele>
        <time>2022-03-03T09:29:51.408Z</time>
      </trkpt>
      <trkpt lat="42.02389" lon="25.00359">
        <ele>273.900697</ele>
        <time>2022-03-03T09:29:53.411Z</time>
      </trkpt>
      <trkpt lat="42.02391" lon="25.00346">
        <ele>273.862954</ele>
        <time>2022-03-03T09:29:55.422Z</time>
      </trkpt>
      <trkpt lat="42.02392" lon="25.00332">
        <ele>273.824932</ele>
        <time>2022-03-03T09:29:57.427Z</time>
      </trkpt>
      <trkpt lat="42.02393" lon="25.00319">
        <ele>273.788399</ele>
        <time>2022-03-03T09:29:59.399Z</time>
      </trkpt>
      <trkpt lat="42.02394" lon="25.00306">
        <ele>273.750787</ele>
        <time>2022-03-03T09:30:01.422Z</time>
      </trkpt>
      <trkpt lat="42.02395" lon="25.00292">
        <ele>273.712091</ele>
        <time>2022-03-03T09:30:03.459Z</time>
      </trkpt>
      <trkpt lat="42.02395" lon="25.00278">
        <ele>273.671266</ele>
        <time>2022-03-03T09:30:05.407Z</time>
      </trkpt>
      <trkpt lat="42.02396" lon="25.00264">
        <ele>273.632112</ele>
        <time>2022-03-03T09:30:07.401Z</time>
      </trkpt>
      <trkpt lat="42.02396" lon="25.00251">
        <ele>273.594942</ele>
        <time>2022-03-03T09:30:09.401Z</time>
      </trkpt>
      <trkpt lat="42.02397" lon="25.00237">
        <ele>273.55721</ele>
        <time>2022-03-03T09:30:11.416Z</time>
      </trkpt>
      <trkpt lat="42.02397" lon="25.00224">
        <ele>273.519976</ele>
        <time>2022-03-03T09:30:13.422Z</time>
      </trkpt>
      <trkpt lat="42.02398" lon="25.0021">
        <ele>273.481103</ele>
        <time>2022-03-03T09:30:15.428Z</time>
      </trkpt>
      <trkpt lat="42.02398" lon="25.00197">
        <ele>273.443613</ele>
        <time>2022-03-03T09:30:17.410Z</time>
      </trkpt>
      <trkpt lat="42.02399" lon="25.00184">
        <ele>273.407809</ele>
        <time>2022-03-03T09:30:19.427Z</time>
      </trkpt>
      <trkpt lat="42.024" lon="25.00172">
        <ele>273.373595</ele>
        <time>2022-03-03T09:30:21.418Z</time>
      </trkpt>
      <trkpt lat="42.02401" lon="25.00154">
        <ele>273.314743</ele>
        <time>2022-03-03T09:30:24.411Z</time>
      </trkpt>
      <trkpt lat="42.02401" lon="25.00142">
        <ele>273.082909</ele>
        <time>2022-03-03T09:30:26.415Z</time>
      </trkpt>
      <trkpt lat="42.02401" lon="25.0013">
        <ele>272.851075</ele>
        <time>2022-03-03T09:30:28.408Z</time>
      </trkpt>
      <trkpt lat="42.02402" lon="25.00118">
        <ele>272.615315</ele>
        <time>2022-03-03T09:30:30.418Z</time>
      </trkpt>
      <trkpt lat="42.02403" lon="25.001">
        <ele>272.278534</ele>
        <time>2022-03-03T09:30:33.411Z</time>
      </trkpt>
      <trkpt lat="42.02404" lon="25.00082">
        <ele>271.937056</ele>
        <time>2022-03-03T09:30:36.411Z</time>
      </trkpt>
      <trkpt lat="42.02405" lon="25.0007">
        <ele>271.704193</ele>
        <time>2022-03-03T09:30:38.407Z</time>
      </trkpt>
      <trkpt lat="42.02406" lon="25.00053">
        <ele>271.363845</ele>
        <time>2022-03-03T09:30:41.417Z</time>
      </trkpt>
      <trkpt lat="42.02407" lon="25.00036">
        <ele>271.045301</ele>
        <time>2022-03-03T09:30:44.395Z</time>
      </trkpt>
      <trkpt lat="42.02407" lon="25.00019">
        <ele>270.721517</ele>
        <time>2022-03-03T09:30:47.399Z</time>
      </trkpt>
      <trkpt lat="42.02407" lon="25.00002">
        <ele>270.39977</ele>
        <time>2022-03-03T09:30:50.418Z</time>
      </trkpt>
      <trkpt lat="42.02409" lon="24.99987">
        <ele>270.097055</ele>
        <time>2022-03-03T09:30:53.403Z</time>
      </trkpt>
      <trkpt lat="42.0241" lon="24.99969">
        <ele>269.767438</ele>
        <time>2022-03-03T09:30:56.410Z</time>
      </trkpt>
      <trkpt lat="42.02411" lon="24.99952">
        <ele>269.432811</ele>
        <time>2022-03-03T09:30:59.455Z</time>
      </trkpt>
      <trkpt lat="42.02412" lon="24.99939">
        <ele>269.187039</ele>
        <time>2022-03-03T09:31:01.417Z</time>
      </trkpt>
      <trkpt lat="42.02413" lon="24.99927">
        <ele>268.942741</ele>
        <time>2022-03-03T09:31:03.396Z</time>
      </trkpt>
      <trkpt lat="42.02413" lon="24.99908">
        <ele>268.630351</ele>
        <time>2022-03-03T09:31:06.410Z</time>
      </trkpt>
      <trkpt lat="42.02414" lon="24.99891">
        <ele>268.42384</ele>
        <time>2022-03-03T09:31:09.418Z</time>
      </trkpt>
      <trkpt lat="42.02415" lon="24.99873">
        <ele>268.218229</ele>
        <time>2022-03-03T09:31:12.403Z</time>
      </trkpt>
      <trkpt lat="42.02416" lon="24.99861">
        <ele>268.07261</ele>
        <time>2022-03-03T09:31:14.414Z</time>
      </trkpt>
      <trkpt lat="42.02416" lon="24.99848">
        <ele>267.920224</ele>
        <time>2022-03-03T09:31:16.415Z</time>
      </trkpt>
      <trkpt lat="42.02417" lon="24.99834">
        <ele>267.763167</ele>
        <time>2022-03-03T09:31:18.412Z</time>
      </trkpt>
      <trkpt lat="42.02417" lon="24.99822">
        <ele>267.615678</ele>
        <time>2022-03-03T09:31:20.406Z</time>
      </trkpt>
      <trkpt lat="42.02417" lon="24.99809">
        <ele>267.467087</ele>
        <time>2022-03-03T09:31:22.422Z</time>
      </trkpt>
      <trkpt lat="42.02418" lon="24.99797">
        <ele>267.321877</ele>
        <time>2022-03-03T09:31:24.402Z</time>
      </trkpt>
      <trkpt lat="42.02419" lon="24.99784">
        <ele>267.173626</ele>
        <time>2022-03-03T09:31:26.417Z</time>
      </trkpt>
      <trkpt lat="42.0242" lon="24.99766">
        <ele>266.963048</ele>
        <time>2022-03-03T09:31:29.402Z</time>
      </trkpt>
      <trkpt lat="42.02421" lon="24.99754">
        <ele>266.820229</ele>
        <time>2022-03-03T09:31:31.428Z</time>
      </trkpt>
      <trkpt lat="42.02422" lon="24.99737">
        <ele>266.618384</ele>
        <time>2022-03-03T09:31:34.397Z</time>
      </trkpt>
      <trkpt lat="42.02423" lon="24.9972">
        <ele>266.420563</ele>
        <time>2022-03-03T09:31:37.405Z</time>
      </trkpt>
      <trkpt lat="42.02423" lon="24.99702">
        <ele>266.212022</ele>
        <time>2022-03-03T09:31:40.426Z</time>
      </trkpt>
      <trkpt lat="42.02424" lon="24.99685">
        <ele>266.004344</ele>
        <time>2022-03-03T09:31:43.445Z</time>
      </trkpt>
      <trkpt lat="42.02425" lon="24.99672">
        <ele>265.858725</ele>
        <time>2022-03-03T09:31:45.414Z</time>
      </trkpt>
      <trkpt lat="42.02427" lon="24.99659">
        <ele>265.627516</ele>
        <time>2022-03-03T09:31:47.399Z</time>
      </trkpt>
      <trkpt lat="42.02428" lon="24.99647">
        <ele>265.400214</ele>
        <time>2022-03-03T09:31:49.428Z</time>
      </trkpt>
      <trkpt lat="42.02428" lon="24.99635">
        <ele>265.177356</ele>
        <time>2022-03-03T09:31:51.415Z</time>
      </trkpt>
      <trkpt lat="42.0243" lon="24.99617">
        <ele>264.854986</ele>
        <time>2022-03-03T09:31:54.440Z</time>
      </trkpt>
      <trkpt lat="42.02431" lon="24.99599">
        <ele>264.525715</ele>
        <time>2022-03-03T09:31:57.430Z</time>
      </trkpt>
      <trkpt lat="42.02432" lon="24.99586">
        <ele>264.297704</ele>
        <time>2022-03-03T09:31:59.406Z</time>
      </trkpt>
      <trkpt lat="42.02432" lon="24.99574">
        <ele>264.074673</ele>
        <time>2022-03-03T09:32:01.416Z</time>
      </trkpt>
      <trkpt lat="42.02434" lon="24.99561">
        <ele>263.845748</ele>
        <time>2022-03-03T09:32:03.403Z</time>
      </trkpt>
      <trkpt lat="42.02436" lon="24.99549">
        <ele>263.625688</ele>
        <time>2022-03-03T09:32:05.411Z</time>
      </trkpt>
      <trkpt lat="42.02438" lon="24.99532">
        <ele>263.308346</ele>
        <time>2022-03-03T09:32:08.426Z</time>
      </trkpt>
      <trkpt lat="42.0244" lon="24.9952">
        <ele>263.081206</ele>
        <time>2022-03-03T09:32:10.402Z</time>
      </trkpt>
      <trkpt lat="42.02441" lon="24.99508">
        <ele>262.859004</ele>
        <time>2022-03-03T09:32:12.410Z</time>
      </trkpt>
      <trkpt lat="42.02445" lon="24.9949">
        <ele>262.536081</ele>
        <time>2022-03-03T09:32:15.435Z</time>
      </trkpt>
      <trkpt lat="42.02447" lon="24.99473">
        <ele>262.224099</ele>
        <time>2022-03-03T09:32:18.419Z</time>
      </trkpt>
      <trkpt lat="42.02449" lon="24.99456">
        <ele>261.909008</ele>
        <time>2022-03-03T09:32:21.406Z</time>
      </trkpt>
      <trkpt lat="42.02453" lon="24.99441">
        <ele>261.61705</ele>
        <time>2022-03-03T09:32:24.405Z</time>
      </trkpt>
      <trkpt lat="42.02456" lon="24.99426">
        <ele>261.467164</ele>
        <time>2022-03-03T09:32:27.415Z</time>
      </trkpt>
      <trkpt lat="42.0246" lon="24.9941">
        <ele>261.448186</ele>
        <time>2022-03-03T09:32:30.414Z</time>
      </trkpt>
      <trkpt lat="42.02462" lon="24.99393">
        <ele>261.426913</ele>
        <time>2022-03-03T09:32:33.419Z</time>
      </trkpt>
      <trkpt lat="42.02465" lon="24.9938">
        <ele>261.411532</ele>
        <time>2022-03-03T09:32:35.418Z</time>
      </trkpt>
      <trkpt lat="42.02468" lon="24.99363">
        <ele>261.390512</ele>
        <time>2022-03-03T09:32:38.409Z</time>
      </trkpt>
      <trkpt lat="42.02471" lon="24.99346">
        <ele>261.369723</ele>
        <time>2022-03-03T09:32:41.416Z</time>
      </trkpt>
      <trkpt lat="42.02474" lon="24.99329">
        <ele>261.348703</ele>
        <time>2022-03-03T09:32:44.406Z</time>
      </trkpt>
      <trkpt lat="42.02477" lon="24.99311">
        <ele>261.327414</ele>
        <time>2022-03-03T09:32:47.417Z</time>
      </trkpt>
      <trkpt lat="42.0248" lon="24.99299">
        <ele>261.312777</ele>
        <time>2022-03-03T09:32:49.427Z</time>
      </trkpt>
      <trkpt lat="42.02483" lon="24.99288">
        <ele>261.298497</ele>
        <time>2022-03-03T09:32:51.414Z</time>
      </trkpt>
      <trkpt lat="42.02488" lon="24.99271">
        <ele>261.277492</ele>
        <time>2022-03-03T09:32:54.400Z</time>
      </trkpt>
      <trkpt lat="42.02491" lon="24.99255">
        <ele>261.25762</ele>
        <time>2022-03-03T09:32:57.407Z</time>
      </trkpt>
      <trkpt lat="42.02494" lon="24.9924">
        <ele>261.23832</ele>
        <time>2022-03-03T09:33:00.421Z</time>
      </trkpt>
      <trkpt lat="42.02497" lon="24.99225">
        <ele>261.220433</ele>
        <time>2022-03-03T09:33:03.396Z</time>
      </trkpt>
      <trkpt lat="42.02501" lon="24.9921">
        <ele>261.202182</ele>
        <time>2022-03-03T09:33:06.415Z</time>
      </trkpt>
      <trkpt lat="42.02504" lon="24.99195">
        <ele>261.26373</ele>
        <time>2022-03-03T09:33:09.427Z</time>
      </trkpt>
      <trkpt lat="42.02508" lon="24.99181">
        <ele>261.479981</ele>
        <time>2022-03-03T09:33:12.410Z</time>
      </trkpt>
      <trkpt lat="42.02511" lon="24.99165">
        <ele>261.714474</ele>
        <time>2022-03-03T09:33:15.409Z</time>
      </trkpt>
      <trkpt lat="42.02514" lon="24.99151">
        <ele>261.914444</ele>
        <time>2022-03-03T09:33:18.416Z</time>
      </trkpt>
      <trkpt lat="42.02517" lon="24.99136">
        <ele>262.129285</ele>
        <time>2022-03-03T09:33:21.414Z</time>
      </trkpt>
      <trkpt lat="42.0252" lon="24.99122">
        <ele>262.328141</ele>
        <time>2022-03-03T09:33:24.422Z</time>
      </trkpt>
      <trkpt lat="42.02523" lon="24.99109">
        <ele>262.523435</ele>
        <time>2022-03-03T09:33:27.402Z</time>
      </trkpt>
      <trkpt lat="42.02527" lon="24.99095">
        <ele>262.7322</ele>
        <time>2022-03-03T09:33:30.477Z</time>
      </trkpt>
      <trkpt lat="42.0253" lon="24.99081">
        <ele>262.937748</ele>
        <time>2022-03-03T09:33:33.427Z</time>
      </trkpt>
      <trkpt lat="42.02533" lon="24.99066">
        <ele>263.153215</ele>
        <time>2022-03-03T09:33:36.400Z</time>
      </trkpt>
      <trkpt lat="42.02536" lon="24.99051">
        <ele>263.365346</ele>
        <time>2022-03-03T09:33:39.417Z</time>
      </trkpt>
      <trkpt lat="42.02539" lon="24.99037">
        <ele>263.57545</ele>
        <time>2022-03-03T09:33:42.415Z</time>
      </trkpt>
      <trkpt lat="42.02542" lon="24.99022">
        <ele>263.788234</ele>
        <time>2022-03-03T09:33:45.414Z</time>
      </trkpt>
      <trkpt lat="42.02544" lon="24.99008">
        <ele>263.998622</ele>
        <time>2022-03-03T09:33:48.403Z</time>
      </trkpt>
      <trkpt lat="42.02548" lon="24.98992">
        <ele>264.218956</ele>
        <time>2022-03-03T09:33:51.407Z</time>
      </trkpt>
      <trkpt lat="42.02551" lon="24.98978">
        <ele>264.425845</ele>
        <time>2022-03-03T09:33:54.398Z</time>
      </trkpt>
      <trkpt lat="42.02553" lon="24.98963">
        <ele>264.388847</ele>
        <time>2022-03-03T09:33:57.404Z</time>
      </trkpt>
      <trkpt lat="42.02556" lon="24.98949">
        <ele>263.801473</ele>
        <time>2022-03-03T09:34:00.428Z</time>
      </trkpt>
      <trkpt lat="42.02559" lon="24.98935">
        <ele>263.221044</ele>
        <time>2022-03-03T09:34:03.404Z</time>
      </trkpt>
      <trkpt lat="42.02563" lon="24.98921">
        <ele>262.62298</ele>
        <time>2022-03-03T09:34:06.407Z</time>
      </trkpt>
      <trkpt lat="42.02568" lon="24.98907">
        <ele>262.037225</ele>
        <time>2022-03-03T09:34:09.446Z</time>
      </trkpt>
      <trkpt lat="42.0258" lon="24.98895">
        <ele>261.282741</ele>
        <time>2022-03-03T09:34:12.408Z</time>
      </trkpt>
      <trkpt lat="42.0259" lon="24.98893">
        <ele>260.725404</ele>
        <time>2022-03-03T09:34:14.407Z</time>
      </trkpt>
      <trkpt lat="42.02598" lon="24.98898">
        <ele>260.239889</ele>
        <time>2022-03-03T09:34:16.423Z</time>
      </trkpt>
      <trkpt lat="42.02607" lon="24.98905">
        <ele>259.725301</ele>
        <time>2022-03-03T09:34:18.419Z</time>
      </trkpt>
      <trkpt lat="42.02615" lon="24.98912">
        <ele>259.201282</ele>
        <time>2022-03-03T09:34:20.417Z</time>
      </trkpt>
      <trkpt lat="42.02624" lon="24.98918">
        <ele>258.656233</ele>
        <time>2022-03-03T09:34:22.411Z</time>
      </trkpt>
      <trkpt lat="42.02634" lon="24.98925">
        <ele>258.081991</ele>
        <time>2022-03-03T09:34:24.398Z</time>
      </trkpt>
      <trkpt lat="42.02644" lon="24.98931">
        <ele>257.503001</ele>
        <time>2022-03-03T09:34:26.418Z</time>
      </trkpt>
      <trkpt lat="42.02653" lon="24.98939">
        <ele>256.92522</ele>
        <time>2022-03-03T09:34:28.411Z</time>
      </trkpt>
      <trkpt lat="42.02663" lon="24.98947">
        <ele>256.306709</ele>
        <time>2022-03-03T09:34:30.444Z</time>
      </trkpt>
      <trkpt lat="42.02674" lon="24.98956">
        <ele>255.651478</ele>
        <time>2022-03-03T09:34:32.437Z</time>
      </trkpt>
      <trkpt lat="42.02684" lon="24.98965">
        <ele>255.04419</ele>
        <time>2022-03-03T09:34:34.409Z</time>
      </trkpt>
      <trkpt lat="42.02694" lon="24.98972">
        <ele>255.077982</ele>
        <time>2022-03-03T09:34:36.423Z</time>
      </trkpt>
      <trkpt lat="42.02704" lon="24.98981">
        <ele>255.110165</ele>
        <time>2022-03-03T09:34:38.406Z</time>
      </trkpt>
      <trkpt lat="42.02713" lon="24.98989">
        <ele>255.1406</ele>
        <time>2022-03-03T09:34:40.428Z</time>
      </trkpt>
      <trkpt lat="42.02721" lon="24.98998">
        <ele>255.170158</ele>
        <time>2022-03-03T09:34:42.426Z</time>
      </trkpt>
      <trkpt lat="42.02728" lon="24.99008">
        <ele>255.197688</ele>
        <time>2022-03-03T09:34:44.402Z</time>
      </trkpt>
      <trkpt lat="42.02734" lon="24.99019">
        <ele>255.224472</ele>
        <time>2022-03-03T09:34:46.418Z</time>
      </trkpt>
      <trkpt lat="42.02739" lon="24.99029">
        <ele>255.250753</ele>
        <time>2022-03-03T09:34:48.461Z</time>
      </trkpt>
      <trkpt lat="42.02744" lon="24.99039">
        <ele>255.276245</ele>
        <time>2022-03-03T09:34:50.418Z</time>
      </trkpt>
      <trkpt lat="42.02752" lon="24.99053">
        <ele>255.310839</ele>
        <time>2022-03-03T09:34:53.417Z</time>
      </trkpt>
      <trkpt lat="42.02759" lon="24.99065">
        <ele>255.344006</ele>
        <time>2022-03-03T09:34:56.437Z</time>
      </trkpt>
      <trkpt lat="42.02768" lon="24.99076">
        <ele>255.37693</ele>
        <time>2022-03-03T09:34:59.393Z</time>
      </trkpt>
      <trkpt lat="42.02777" lon="24.99086">
        <ele>255.411081</ele>
        <time>2022-03-03T09:35:02.405Z</time>
      </trkpt>
      <trkpt lat="42.02785" lon="24.99094">
        <ele>255.437924</ele>
        <time>2022-03-03T09:35:04.402Z</time>
      </trkpt>
      <trkpt lat="42.02793" lon="24.991">
        <ele>255.463759</ele>
        <time>2022-03-03T09:35:06.440Z</time>
      </trkpt>
      <trkpt lat="42.02805" lon="24.99105">
        <ele>255.499248</ele>
        <time>2022-03-03T09:35:09.438Z</time>
      </trkpt>
      <trkpt lat="42.02818" lon="24.9911">
        <ele>255.53666</ele>
        <time>2022-03-03T09:35:12.403Z</time>
      </trkpt>
      <trkpt lat="42.02827" lon="24.99115">
        <ele>255.298697</ele>
        <time>2022-03-03T09:35:14.409Z</time>
      </trkpt>
      <trkpt lat="42.02836" lon="24.99121">
        <ele>254.95349</ele>
        <time>2022-03-03T09:35:16.461Z</time>
      </trkpt>
      <trkpt lat="42.02846" lon="24.99127">
        <ele>254.574921</ele>
        <time>2022-03-03T09:35:18.416Z</time>
      </trkpt>
      <trkpt lat="42.02856" lon="24.99134">
        <ele>254.193729</ele>
        <time>2022-03-03T09:35:20.405Z</time>
      </trkpt>
      <trkpt lat="42.02865" lon="24.99144">
        <ele>253.807364</ele>
        <time>2022-03-03T09:35:22.453Z</time>
      </trkpt>
      <trkpt lat="42.02872" lon="24.99154">
        <ele>253.453673</ele>
        <time>2022-03-03T09:35:24.407Z</time>
      </trkpt>
      <trkpt lat="42.02878" lon="24.99165">
        <ele>253.108684</ele>
        <time>2022-03-03T09:35:26.420Z</time>
      </trkpt>
      <trkpt lat="42.02883" lon="24.99176">
        <ele>252.779369</ele>
        <time>2022-03-03T09:35:28.391Z</time>
      </trkpt>
      <trkpt lat="42.02889" lon="24.99187">
        <ele>252.438848</ele>
        <time>2022-03-03T09:35:30.407Z</time>
      </trkpt>
      <trkpt lat="42.02893" lon="24.99198">
        <ele>252.123237</ele>
        <time>2022-03-03T09:35:32.442Z</time>
      </trkpt>
      <trkpt lat="42.02897" lon="24.99214">
        <ele>251.701829</ele>
        <time>2022-03-03T09:35:35.430Z</time>
      </trkpt>
      <trkpt lat="42.029" lon="24.99229">
        <ele>251.296709</ele>
        <time>2022-03-03T09:35:38.443Z</time>
      </trkpt>
      <trkpt lat="42.02903" lon="24.99245">
        <ele>250.886652</ele>
        <time>2022-03-03T09:35:41.410Z</time>
      </trkpt>
      <trkpt lat="42.02905" lon="24.99262">
        <ele>250.445854</ele>
        <time>2022-03-03T09:35:44.413Z</time>
      </trkpt>
      <trkpt lat="42.02907" lon="24.99275">
        <ele>250.104384</ele>
        <time>2022-03-03T09:35:46.427Z</time>
      </trkpt>
      <trkpt lat="42.02909" lon="24.99288">
        <ele>249.772233</ele>
        <time>2022-03-03T09:35:48.411Z</time>
      </trkpt>
      <trkpt lat="42.02911" lon="24.993">
        <ele>249.44571</ele>
        <time>2022-03-03T09:35:50.401Z</time>
      </trkpt>
      <trkpt lat="42.02913" lon="24.99313">
        <ele>249.334445</ele>
        <time>2022-03-03T09:35:52.420Z</time>
      </trkpt>
      <trkpt lat="42.02917" lon="24.99329">
        <ele>249.233645</ele>
        <time>2022-03-03T09:35:55.416Z</time>
      </trkpt>
      <trkpt lat="42.0292" lon="24.99341">
        <ele>249.163043</ele>
        <time>2022-03-03T09:35:57.422Z</time>
      </trkpt>
      <trkpt lat="42.02924" lon="24.99352">
        <ele>249.089202</ele>
        <time>2022-03-03T09:35:59.406Z</time>
      </trkpt>
      <trkpt lat="42.02929" lon="24.99364">
        <ele>249.009347</ele>
        <time>2022-03-03T09:36:01.412Z</time>
      </trkpt>
      <trkpt lat="42.02935" lon="24.99376">
        <ele>248.929448</ele>
        <time>2022-03-03T09:36:03.416Z</time>
      </trkpt>
      <trkpt lat="42.0294" lon="24.99387">
        <ele>248.85323</ele>
        <time>2022-03-03T09:36:05.424Z</time>
      </trkpt>
      <trkpt lat="42.02946" lon="24.99397">
        <ele>248.78217</ele>
        <time>2022-03-03T09:36:07.414Z</time>
      </trkpt>
      <trkpt lat="42.02955" lon="24.9941">
        <ele>248.676111</ele>
        <time>2022-03-03T09:36:10.415Z</time>
      </trkpt>
      <trkpt lat="42.02964" lon="24.9942">
        <ele>248.592981</ele>
        <time>2022-03-03T09:36:12.417Z</time>
      </trkpt>
      <trkpt lat="42.02972" lon="24.99428">
        <ele>248.512629</ele>
        <time>2022-03-03T09:36:14.406Z</time>
      </trkpt>
      <trkpt lat="42.0298" lon="24.99435">
        <ele>248.434563</ele>
        <time>2022-03-03T09:36:16.418Z</time>
      </trkpt>
      <trkpt lat="42.02992" lon="24.99443">
        <ele>248.33413</ele>
        <time>2022-03-03T09:36:19.405Z</time>
      </trkpt>
      <trkpt lat="42.03004" lon="24.99452">
        <ele>248.228517</ele>
        <time>2022-03-03T09:36:22.417Z</time>
      </trkpt>
      <trkpt lat="42.03013" lon="24.99457">
        <ele>248.153393</ele>
        <time>2022-03-03T09:36:24.411Z</time>
      </trkpt>
      <trkpt lat="42.03022" lon="24.99461">
        <ele>248.079298</ele>
        <time>2022-03-03T09:36:26.439Z</time>
      </trkpt>
      <trkpt lat="42.03035" lon="24.99466">
        <ele>247.905956</ele>
        <time>2022-03-03T09:36:29.433Z</time>
      </trkpt>
      <trkpt lat="42.03044" lon="24.99469">
        <ele>247.649073</ele>
        <time>2022-03-03T09:36:31.420Z</time>
      </trkpt>
      <trkpt lat="42.03055" lon="24.99475">
        <ele>247.303875</ele>
        <time>2022-03-03T09:36:34.442Z</time>
      </trkpt>
      <trkpt lat="42.03067" lon="24.99481">
        <ele>246.947695</ele>
        <time>2022-03-03T09:36:37.406Z</time>
      </trkpt>
      <trkpt lat="42.03079" lon="24.99487">
        <ele>246.564654</ele>
        <time>2022-03-03T09:36:40.464Z</time>
      </trkpt>
      <trkpt lat="42.03092" lon="24.99495">
        <ele>246.187798</ele>
        <time>2022-03-03T09:36:43.416Z</time>
      </trkpt>
      <trkpt lat="42.031" lon="24.995">
        <ele>245.915274</ele>
        <time>2022-03-03T09:36:45.417Z</time>
      </trkpt>
      <trkpt lat="42.0311" lon="24.99506">
        <ele>245.620371</ele>
        <time>2022-03-03T09:36:47.457Z</time>
      </trkpt>
      <trkpt lat="42.0312" lon="24.99511">
        <ele>245.310659</ele>
        <time>2022-03-03T09:36:49.414Z</time>
      </trkpt>
      <trkpt lat="42.0313" lon="24.99517">
        <ele>244.992704</ele>
        <time>2022-03-03T09:36:51.430Z</time>
      </trkpt>
      <trkpt lat="42.03141" lon="24.99522">
        <ele>244.657334</ele>
        <time>2022-03-03T09:36:53.418Z</time>
      </trkpt>
      <trkpt lat="42.03152" lon="24.99527">
        <ele>244.342238</ele>
        <time>2022-03-03T09:36:55.417Z</time>
      </trkpt>
      <trkpt lat="42.03163" lon="24.99533">
        <ele>244.008789</ele>
        <time>2022-03-03T09:36:57.445Z</time>
      </trkpt>
      <trkpt lat="42.03174" lon="24.99538">
        <ele>243.685149</ele>
        <time>2022-03-03T09:36:59.412Z</time>
      </trkpt>
      <trkpt lat="42.03185" lon="24.99544">
        <ele>243.343365</ele>
        <time>2022-03-03T09:37:01.422Z</time>
      </trkpt>
      <trkpt lat="42.03195" lon="24.9955">
        <ele>243.027312</ele>
        <time>2022-03-03T09:37:03.462Z</time>
      </trkpt>
      <trkpt lat="42.03206" lon="24.99555">
        <ele>242.774667</ele>
        <time>2022-03-03T09:37:05.415Z</time>
      </trkpt>
      <trkpt lat="42.03216" lon="24.99561">
        <ele>242.57217</ele>
        <time>2022-03-03T09:37:07.428Z</time>
      </trkpt>
      <trkpt lat="42.03225" lon="24.99566">
        <ele>242.383696</ele>
        <time>2022-03-03T09:37:09.425Z</time>
      </trkpt>
      <trkpt lat="42.03235" lon="24.99572">
        <ele>242.190752</ele>
        <time>2022-03-03T09:37:11.419Z</time>
      </trkpt>
      <trkpt lat="42.03244" lon="24.99577">
        <ele>242.012728</ele>
        <time>2022-03-03T09:37:13.406Z</time>
      </trkpt>
      <trkpt lat="42.03253" lon="24.99582">
        <ele>241.826337</ele>
        <time>2022-03-03T09:37:15.423Z</time>
      </trkpt>
      <trkpt lat="42.03262" lon="24.99587">
        <ele>241.646786</ele>
        <time>2022-03-03T09:37:17.422Z</time>
      </trkpt>
      <trkpt lat="42.03271" lon="24.99591">
        <ele>241.467528</ele>
        <time>2022-03-03T09:37:19.406Z</time>
      </trkpt>
      <trkpt lat="42.0328" lon="24.99596">
        <ele>241.29636</ele>
        <time>2022-03-03T09:37:21.410Z</time>
      </trkpt>
      <trkpt lat="42.03289" lon="24.99601">
        <ele>241.125193</ele>
        <time>2022-03-03T09:37:23.419Z</time>
      </trkpt>
      <trkpt lat="42.03297" lon="24.99605">
        <ele>240.959463</ele>
        <time>2022-03-03T09:37:25.422Z</time>
      </trkpt>
      <trkpt lat="42.03306" lon="24.99609">
        <ele>240.787281</ele>
        <time>2022-03-03T09:37:27.444Z</time>
      </trkpt>
      <trkpt lat="42.03318" lon="24.99616">
        <ele>240.543773</ele>
        <time>2022-03-03T09:37:30.414Z</time>
      </trkpt>
      <trkpt lat="42.0333" lon="24.99623">
        <ele>240.297005</ele>
        <time>2022-03-03T09:37:33.411Z</time>
      </trkpt>
      <trkpt lat="42.03339" lon="24.99628">
        <ele>240.111816</ele>
        <time>2022-03-03T09:37:35.432Z</time>
      </trkpt>
      <trkpt lat="42.03348" lon="24.99633">
        <ele>239.933792</ele>
        <time>2022-03-03T09:37:37.414Z</time>
      </trkpt>
      <trkpt lat="42.03357" lon="24.99638">
        <ele>239.758469</ele>
        <time>2022-03-03T09:37:39.426Z</time>
      </trkpt>
      <trkpt lat="42.03369" lon="24.99644">
        <ele>239.576045</ele>
        <time>2022-03-03T09:37:42.453Z</time>
      </trkpt>
      <trkpt lat="42.03382" lon="24.9965">
        <ele>239.535705</ele>
        <time>2022-03-03T09:37:45.418Z</time>
      </trkpt>
      <trkpt lat="42.03391" lon="24.99654">
        <ele>239.505703</ele>
        <time>2022-03-03T09:37:47.430Z</time>
      </trkpt>
      <trkpt lat="42.034" lon="24.99659">
        <ele>239.478096</ele>
        <time>2022-03-03T09:37:49.401Z</time>
      </trkpt>
      <trkpt lat="42.03411" lon="24.99665">
        <ele>239.440555</ele>
        <time>2022-03-03T09:37:52.415Z</time>
      </trkpt>
      <trkpt lat="42.03424" lon="24.99672">
        <ele>239.400493</ele>
        <time>2022-03-03T09:37:55.428Z</time>
      </trkpt>
      <trkpt lat="42.03432" lon="24.99676">
        <ele>239.373044</ele>
        <time>2022-03-03T09:37:57.420Z</time>
      </trkpt>
      <trkpt lat="42.03445" lon="24.99682">
        <ele>239.332267</ele>
        <time>2022-03-03T09:38:00.418Z</time>
      </trkpt>
      <trkpt lat="42.03454" lon="24.99687">
        <ele>239.305049</ele>
        <time>2022-03-03T09:38:02.418Z</time>
      </trkpt>
      <trkpt lat="42.03462" lon="24.99691">
        <ele>239.277957</ele>
        <time>2022-03-03T09:38:04.459Z</time>
      </trkpt>
      <trkpt lat="42.03471" lon="24.99696">
        <ele>239.248436</ele>
        <time>2022-03-03T09:38:06.431Z</time>
      </trkpt>
      <trkpt lat="42.03481" lon="24.99701">
        <ele>239.218275</ele>
        <time>2022-03-03T09:38:08.423Z</time>
      </trkpt>
      <trkpt lat="42.0349" lon="24.99706">
        <ele>239.188312</ele>
        <time>2022-03-03T09:38:10.435Z</time>
      </trkpt>
      <trkpt lat="42.03499" lon="24.9971">
        <ele>239.161221</ele>
        <time>2022-03-03T09:38:12.429Z</time>
      </trkpt>
      <trkpt lat="42.0351" lon="24.99715">
        <ele>239.124993</ele>
        <time>2022-03-03T09:38:15.418Z</time>
      </trkpt>
      <trkpt lat="42.03523" lon="24.9972">
        <ele>239.084701</ele>
        <time>2022-03-03T09:38:18.411Z</time>
      </trkpt>
      <trkpt lat="42.03536" lon="24.99724">
        <ele>239.037344</ele>
        <time>2022-03-03T09:38:21.413Z</time>
      </trkpt>
      <trkpt lat="42.03548" lon="24.9973">
        <ele>238.834896</ele>
        <time>2022-03-03T09:38:24.404Z</time>
      </trkpt>
      <trkpt lat="42.03557" lon="24.99732">
        <ele>238.692131</ele>
        <time>2022-03-03T09:38:26.456Z</time>
      </trkpt>
      <trkpt lat="42.0357" lon="24.99736">
        <ele>238.488399</ele>
        <time>2022-03-03T09:38:29.413Z</time>
      </trkpt>
      <trkpt lat="42.03579" lon="24.99739">
        <ele>238.34202</ele>
        <time>2022-03-03T09:38:31.407Z</time>
      </trkpt>
      <trkpt lat="42.03589" lon="24.99741">
        <ele>238.189909</ele>
        <time>2022-03-03T09:38:33.409Z</time>
      </trkpt>
      <trkpt lat="42.03598" lon="24.99743">
        <ele>238.039714</ele>
        <time>2022-03-03T09:38:35.417Z</time>
      </trkpt>
      <trkpt lat="42.03611" lon="24.99746">
        <ele>237.837224</ele>
        <time>2022-03-03T09:38:38.447Z</time>
      </trkpt>
      <trkpt lat="42.03624" lon="24.99749">
        <ele>237.632415</ele>
        <time>2022-03-03T09:38:41.408Z</time>
      </trkpt>
      <trkpt lat="42.03636" lon="24.99751">
        <ele>237.435187</ele>
        <time>2022-03-03T09:38:44.415Z</time>
      </trkpt>
      <trkpt lat="42.03649" lon="24.99754">
        <ele>237.229356</ele>
        <time>2022-03-03T09:38:47.416Z</time>
      </trkpt>
      <trkpt lat="42.03661" lon="24.99757">
        <ele>237.035206</ele>
        <time>2022-03-03T09:38:50.415Z</time>
      </trkpt>
      <trkpt lat="42.03674" lon="24.99761">
        <ele>236.838834</ele>
        <time>2022-03-03T09:38:53.402Z</time>
      </trkpt>
      <trkpt lat="42.03686" lon="24.99765">
        <ele>236.635617</ele>
        <time>2022-03-03T09:38:56.420Z</time>
      </trkpt>
      <trkpt lat="42.03698" lon="24.99767">
        <ele>236.448147</ele>
        <time>2022-03-03T09:38:59.419Z</time>
      </trkpt>
      <trkpt lat="42.0371" lon="24.99768">
        <ele>236.26445</ele>
        <time>2022-03-03T09:39:02.398Z</time>
      </trkpt>
      <trkpt lat="42.03723" lon="24.9977">
        <ele>236.457534</ele>
        <time>2022-03-03T09:39:05.415Z</time>
      </trkpt>
      <trkpt lat="42.03736" lon="24.99773">
        <ele>236.701206</ele>
        <time>2022-03-03T09:39:08.425Z</time>
      </trkpt>
      <trkpt lat="42.03748" lon="24.99775">
        <ele>236.950021</ele>
        <time>2022-03-03T09:39:11.411Z</time>
      </trkpt>
      <trkpt lat="42.03761" lon="24.99778">
        <ele>237.197508</ele>
        <time>2022-03-03T09:39:14.417Z</time>
      </trkpt>
      <trkpt lat="42.03774" lon="24.9978">
        <ele>237.445654</ele>
        <time>2022-03-03T09:39:17.454Z</time>
      </trkpt>
      <trkpt lat="42.03786" lon="24.99783">
        <ele>237.693799</ele>
        <time>2022-03-03T09:39:20.419Z</time>
      </trkpt>
      <trkpt lat="42.03798" lon="24.99785">
        <ele>237.913044</ele>
        <time>2022-03-03T09:39:23.436Z</time>
      </trkpt>
      <trkpt lat="42.03809" lon="24.99786">
        <ele>238.133532</ele>
        <time>2022-03-03T09:39:26.412Z</time>
      </trkpt>
      <trkpt lat="42.0382" lon="24.99788">
        <ele>238.34112</ele>
        <time>2022-03-03T09:39:29.411Z</time>
      </trkpt>
      <trkpt lat="42.03831" lon="24.99788">
        <ele>238.553301</ele>
        <time>2022-03-03T09:39:32.464Z</time>
      </trkpt>
      <trkpt lat="42.03843" lon="24.99789">
        <ele>238.788653</ele>
        <time>2022-03-03T09:39:35.417Z</time>
      </trkpt>
      <trkpt lat="42.03855" lon="24.99791">
        <ele>239.026191</ele>
        <time>2022-03-03T09:39:38.421Z</time>
      </trkpt>
      <trkpt lat="42.03868" lon="24.99794">
        <ele>239.282415</ele>
        <time>2022-03-03T09:39:41.418Z</time>
      </trkpt>
      <trkpt lat="42.03881" lon="24.99797">
        <ele>239.523446</ele>
        <time>2022-03-03T09:39:44.402Z</time>
      </trkpt>
      <trkpt lat="42.03894" lon="24.998">
        <ele>239.777537</ele>
        <time>2022-03-03T09:39:47.425Z</time>
      </trkpt>
      <trkpt lat="42.03905" lon="24.99804">
        <ele>240.012491</ele>
        <time>2022-03-03T09:39:50.421Z</time>
      </trkpt>
      <trkpt lat="42.03917" lon="24.99811">
        <ele>240.245135</ele>
        <time>2022-03-03T09:39:53.407Z</time>
      </trkpt>
      <trkpt lat="42.03927" lon="24.99821">
        <ele>240.497111</ele>
        <time>2022-03-03T09:39:56.408Z</time>
      </trkpt>
      <trkpt lat="42.03938" lon="24.99831">
        <ele>240.74344</ele>
        <time>2022-03-03T09:39:59.429Z</time>
      </trkpt>
      <trkpt lat="42.03949" lon="24.9984">
        <ele>240.993843</ele>
        <time>2022-03-03T09:40:02.411Z</time>
      </trkpt>
      <trkpt lat="42.0396" lon="24.99848">
        <ele>241.234521</ele>
        <time>2022-03-03T09:40:05.438Z</time>
      </trkpt>
      <trkpt lat="42.0397" lon="24.99858">
        <ele>241.477685</ele>
        <time>2022-03-03T09:40:08.406Z</time>
      </trkpt>
      <trkpt lat="42.03982" lon="24.99867">
        <ele>241.736875</ele>
        <time>2022-03-03T09:40:11.437Z</time>
      </trkpt>
      <trkpt lat="42.0399" lon="24.99873">
        <ele>241.911907</ele>
        <time>2022-03-03T09:40:13.412Z</time>
      </trkpt>
      <trkpt lat="42.03998" lon="24.9988">
        <ele>242.089108</ele>
        <time>2022-03-03T09:40:15.406Z</time>
      </trkpt>
      <trkpt lat="42.04006" lon="24.99886">
        <ele>242.266792</ele>
        <time>2022-03-03T09:40:17.421Z</time>
      </trkpt>
      <trkpt lat="42.04017" lon="24.99895">
        <ele>242.526485</ele>
        <time>2022-03-03T09:40:20.411Z</time>
      </trkpt>
      <trkpt lat="42.04025" lon="24.99902">
        <ele>242.705174</ele>
        <time>2022-03-03T09:40:22.406Z</time>
      </trkpt>
      <trkpt lat="42.04033" lon="24.99908">
        <ele>242.884962</ele>
        <time>2022-03-03T09:40:24.442Z</time>
      </trkpt>
      <trkpt lat="42.04041" lon="24.99914">
        <ele>243.062903</ele>
        <time>2022-03-03T09:40:26.432Z</time>
      </trkpt>
      <trkpt lat="42.04051" lon="24.99923">
        <ele>243.07346</ele>
        <time>2022-03-03T09:40:29.414Z</time>
      </trkpt>
      <trkpt lat="42.0406" lon="24.99929">
        <ele>242.954596</ele>
        <time>2022-03-03T09:40:31.400Z</time>
      </trkpt>
      <trkpt lat="42.04068" lon="24.99935">
        <ele>242.833731</ele>
        <time>2022-03-03T09:40:33.411Z</time>
      </trkpt>
      <trkpt lat="42.0408" lon="24.99942">
        <ele>242.667861</ele>
        <time>2022-03-03T09:40:36.422Z</time>
      </trkpt>
      <trkpt lat="42.04089" lon="24.99949">
        <ele>242.528449</ele>
        <time>2022-03-03T09:40:39.414Z</time>
      </trkpt>
      <trkpt lat="42.04098" lon="24.99957">
        <ele>242.39144</ele>
        <time>2022-03-03T09:40:42.415Z</time>
      </trkpt>
      <trkpt lat="42.04104" lon="24.99969">
        <ele>242.252439</ele>
        <time>2022-03-03T09:40:45.426Z</time>
      </trkpt>
      <trkpt lat="42.04107" lon="24.99982">
        <ele>242.128432</ele>
        <time>2022-03-03T09:40:48.426Z</time>
      </trkpt>
      <trkpt lat="42.04108" lon="24.99996">
        <ele>241.997113</ele>
        <time>2022-03-03T09:40:52.458Z</time>
      </trkpt>
      <trkpt lat="42.04107" lon="25.0001">
        <ele>241.857048</ele>
        <time>2022-03-03T09:40:57.416Z</time>
      </trkpt>
      <trkpt lat="42.04107" lon="25.00024">
        <ele>241.729631</ele>
        <time>2022-03-03T09:41:02.418Z</time>
      </trkpt>
      <trkpt lat="42.04107" lon="25.00037">
        <ele>241.604058</ele>
        <time>2022-03-03T09:41:06.380Z</time>
      </trkpt>
      <trkpt lat="42.04113" lon="25.00047">
        <ele>241.4781</ele>
        <time>2022-03-03T09:41:12.415Z</time>
      </trkpt>
      <trkpt lat="42.04113" lon="25.00034">
        <ele>241.34773</ele>
        <time>2022-03-03T09:41:17.393Z</time>
      </trkpt>
      <trkpt lat="42.04112" lon="25.00021">
        <ele>241.222746</ele>
        <time>2022-03-03T09:41:21.404Z</time>
      </trkpt>
      <trkpt lat="42.04115" lon="25.00005">
        <ele>241.069137</ele>
        <time>2022-03-03T09:41:25.419Z</time>
      </trkpt>
      <trkpt lat="42.04116" lon="24.99989">
        <ele>240.915278</ele>
        <time>2022-03-03T09:41:29.417Z</time>
      </trkpt>
      <trkpt lat="42.04118" lon="24.99976">
        <ele>240.730925</ele>
        <time>2022-03-03T09:41:32.400Z</time>
      </trkpt>
      <trkpt lat="42.0412" lon="24.99963">
        <ele>240.502731</ele>
        <time>2022-03-03T09:41:35.398Z</time>
      </trkpt>
      <trkpt lat="42.04123" lon="24.9995">
        <ele>240.254135</ele>
        <time>2022-03-03T09:41:38.406Z</time>
      </trkpt>
      <trkpt lat="42.04131" lon="24.99938">
        <ele>239.968066</ele>
        <time>2022-03-03T09:41:42.411Z</time>
      </trkpt>
      <trkpt lat="42.0414" lon="24.99931">
        <ele>239.705538</ele>
        <time>2022-03-03T09:41:45.405Z</time>
      </trkpt>
      <trkpt lat="42.04151" lon="24.99925">
        <ele>239.421277</ele>
        <time>2022-03-03T09:41:48.402Z</time>
      </trkpt>
      <trkpt lat="42.04163" lon="24.9992">
        <ele>239.111449</ele>
        <time>2022-03-03T09:41:51.419Z</time>
      </trkpt>
      <trkpt lat="42.04176" lon="24.99913">
        <ele>238.787452</ele>
        <time>2022-03-03T09:41:54.397Z</time>
      </trkpt>
      <trkpt lat="42.04186" lon="24.99906">
        <ele>238.503693</ele>
        <time>2022-03-03T09:41:57.407Z</time>
      </trkpt>
      <trkpt lat="42.04195" lon="24.99898">
        <ele>238.255881</ele>
        <time>2022-03-03T09:42:00.474Z</time>
      </trkpt>
      <trkpt lat="42.04204" lon="24.99891">
        <ele>238.004686</ele>
        <time>2022-03-03T09:42:03.415Z</time>
      </trkpt>
      <trkpt lat="42.04214" lon="24.99884">
        <ele>237.739486</ele>
        <time>2022-03-03T09:42:06.412Z</time>
      </trkpt>
      <trkpt lat="42.04223" lon="24.99877">
        <ele>237.487985</ele>
        <time>2022-03-03T09:42:09.406Z</time>
      </trkpt>
      <trkpt lat="42.04231" lon="24.9987">
        <ele>237.253778</ele>
        <time>2022-03-03T09:42:12.436Z</time>
      </trkpt>
      <trkpt lat="42.0424" lon="24.99864">
        <ele>237.00387</ele>
        <time>2022-03-03T09:42:15.412Z</time>
      </trkpt>
      <trkpt lat="42.04251" lon="24.99857">
        <ele>236.720339</ele>
        <time>2022-03-03T09:42:18.413Z</time>
      </trkpt>
      <trkpt lat="42.04261" lon="24.9985">
        <ele>236.464748</ele>
        <time>2022-03-03T09:42:21.419Z</time>
      </trkpt>
      <trkpt lat="42.04271" lon="24.99843">
        <ele>236.269391</ele>
        <time>2022-03-03T09:42:24.399Z</time>
      </trkpt>
      <trkpt lat="42.04282" lon="24.99836">
        <ele>236.059178</ele>
        <time>2022-03-03T09:42:27.419Z</time>
      </trkpt>
      <trkpt lat="42.04292" lon="24.99829">
        <ele>235.845958</ele>
        <time>2022-03-03T09:42:30.423Z</time>
      </trkpt>
      <trkpt lat="42.04304" lon="24.99823">
        <ele>235.62194</ele>
        <time>2022-03-03T09:42:33.457Z</time>
      </trkpt>
      <trkpt lat="42.04315" lon="24.99818">
        <ele>235.418779</ele>
        <time>2022-03-03T09:42:36.419Z</time>
      </trkpt>
      <trkpt lat="42.04326" lon="24.99812">
        <ele>235.210501</ele>
        <time>2022-03-03T09:42:39.409Z</time>
      </trkpt>
      <trkpt lat="42.04339" lon="24.99807">
        <ele>234.972775</ele>
        <time>2022-03-03T09:42:42.417Z</time>
      </trkpt>
      <trkpt lat="42.04347" lon="24.99803">
        <ele>234.809237</ele>
        <time>2022-03-03T09:42:44.474Z</time>
      </trkpt>
      <trkpt lat="42.04359" lon="24.99797">
        <ele>234.579517</ele>
        <time>2022-03-03T09:42:47.413Z</time>
      </trkpt>
      <trkpt lat="42.04371" lon="24.99791">
        <ele>234.355705</ele>
        <time>2022-03-03T09:42:50.414Z</time>
      </trkpt>
      <trkpt lat="42.04384" lon="24.99785">
        <ele>234.125106</ele>
        <time>2022-03-03T09:42:53.436Z</time>
      </trkpt>
      <trkpt lat="42.04395" lon="24.99779">
        <ele>233.902725</ele>
        <time>2022-03-03T09:42:56.406Z</time>
      </trkpt>
      <trkpt lat="42.04407" lon="24.99773">
        <ele>233.672569</ele>
        <time>2022-03-03T09:42:59.398Z</time>
      </trkpt>
      <trkpt lat="42.04419" lon="24.99768">
        <ele>233.44622</ele>
        <time>2022-03-03T09:43:02.415Z</time>
      </trkpt>
      <trkpt lat="42.04431" lon="24.99763">
        <ele>233.242297</ele>
        <time>2022-03-03T09:43:05.391Z</time>
      </trkpt>
      <trkpt lat="42.04443" lon="24.99757">
        <ele>233.048348</ele>
        <time>2022-03-03T09:43:08.416Z</time>
      </trkpt>
      <trkpt lat="42.04455" lon="24.99752">
        <ele>232.843227</ele>
        <time>2022-03-03T09:43:11.411Z</time>
      </trkpt>
      <trkpt lat="42.04466" lon="24.99747">
        <ele>232.661908</ele>
        <time>2022-03-03T09:43:14.398Z</time>
      </trkpt>
      <trkpt lat="42.04477" lon="24.99743">
        <ele>232.476766</ele>
        <time>2022-03-03T09:43:18.426Z</time>
      </trkpt>
      <trkpt lat="42.04486" lon="24.99738">
        <ele>232.332632</ele>
        <time>2022-03-03T09:43:21.397Z</time>
      </trkpt>
      <trkpt lat="42.04495" lon="24.99732">
        <ele>232.175493</ele>
        <time>2022-03-03T09:43:24.401Z</time>
      </trkpt>
      <trkpt lat="42.04506" lon="24.99724">
        <ele>231.975985</ele>
        <time>2022-03-03T09:43:27.407Z</time>
      </trkpt>
      <trkpt lat="42.04516" lon="24.99717">
        <ele>231.798882</ele>
        <time>2022-03-03T09:43:30.414Z</time>
      </trkpt>
      <trkpt lat="42.04524" lon="24.99709">
        <ele>231.634656</ele>
        <time>2022-03-03T09:43:33.403Z</time>
      </trkpt>
      <trkpt lat="42.04532" lon="24.997">
        <ele>231.473823</ele>
        <time>2022-03-03T09:43:36.405Z</time>
      </trkpt>
      <trkpt lat="42.0454" lon="24.99691">
        <ele>231.308958</ele>
        <time>2022-03-03T09:43:39.414Z</time>
      </trkpt>
      <trkpt lat="42.04548" lon="24.99681">
        <ele>231.142582</ele>
        <time>2022-03-03T09:43:42.401Z</time>
      </trkpt>
      <trkpt lat="42.04554" lon="24.99668">
        <ele>230.959806</ele>
        <time>2022-03-03T09:43:45.399Z</time>
      </trkpt>
      <trkpt lat="42.04562" lon="24.99655">
        <ele>230.776092</ele>
        <time>2022-03-03T09:43:48.404Z</time>
      </trkpt>
      <trkpt lat="42.04568" lon="24.99644">
        <ele>230.607379</ele>
        <time>2022-03-03T09:43:51.401Z</time>
      </trkpt>
      <trkpt lat="42.04575" lon="24.99633">
        <ele>230.537834</ele>
        <time>2022-03-03T09:43:54.418Z</time>
      </trkpt>
      <trkpt lat="42.04581" lon="24.99623">
        <ele>230.631704</ele>
        <time>2022-03-03T09:43:57.435Z</time>
      </trkpt>
      <trkpt lat="42.04587" lon="24.99613">
        <ele>230.716611</ele>
        <time>2022-03-03T09:44:00.448Z</time>
      </trkpt>
      <trkpt lat="42.04593" lon="24.99603">
        <ele>230.802626</ele>
        <time>2022-03-03T09:44:03.397Z</time>
      </trkpt>
      <trkpt lat="42.04599" lon="24.99591">
        <ele>230.901152</ele>
        <time>2022-03-03T09:44:06.450Z</time>
      </trkpt>
      <trkpt lat="42.04606" lon="24.99581">
        <ele>230.997257</ele>
        <time>2022-03-03T09:44:09.449Z</time>
      </trkpt>
      <trkpt lat="42.04613" lon="24.9957">
        <ele>231.093361</ele>
        <time>2022-03-03T09:44:12.414Z</time>
      </trkpt>
      <trkpt lat="42.04619" lon="24.9956">
        <ele>231.184231</ele>
        <time>2022-03-03T09:44:15.416Z</time>
      </trkpt>
      <trkpt lat="42.04626" lon="24.99549">
        <ele>231.278435</ele>
        <time>2022-03-03T09:44:18.413Z</time>
      </trkpt>
      <trkpt lat="42.04632" lon="24.99538">
        <ele>231.372159</ele>
        <time>2022-03-03T09:44:21.418Z</time>
      </trkpt>
      <trkpt lat="42.04638" lon="24.99527">
        <ele>231.465229</ele>
        <time>2022-03-03T09:44:24.397Z</time>
      </trkpt>
      <trkpt lat="42.04644" lon="24.99517">
        <ele>231.556099</ele>
        <time>2022-03-03T09:44:27.421Z</time>
      </trkpt>
      <trkpt lat="42.04651" lon="24.99504">
        <ele>231.659552</ele>
        <time>2022-03-03T09:44:30.414Z</time>
      </trkpt>
      <trkpt lat="42.04658" lon="24.99492">
        <ele>231.765313</ele>
        <time>2022-03-03T09:44:33.479Z</time>
      </trkpt>
      <trkpt lat="42.04665" lon="24.99482">
        <ele>231.861417</ele>
        <time>2022-03-03T09:44:36.412Z</time>
      </trkpt>
      <trkpt lat="42.04671" lon="24.99471">
        <ele>231.954516</ele>
        <time>2022-03-03T09:44:39.397Z</time>
      </trkpt>
      <trkpt lat="42.04678" lon="24.9946">
        <ele>232.050309</ele>
        <time>2022-03-03T09:44:42.403Z</time>
      </trkpt>
      <trkpt lat="42.04684" lon="24.99449">
        <ele>232.14227</ele>
        <time>2022-03-03T09:44:45.418Z</time>
      </trkpt>
      <trkpt lat="42.0469" lon="24.99439">
        <ele>232.247107</ele>
        <time>2022-03-03T09:44:48.412Z</time>
      </trkpt>
      <trkpt lat="42.04696" lon="24.99429">
        <ele>232.35221</ele>
        <time>2022-03-03T09:44:51.406Z</time>
      </trkpt>
      <trkpt lat="42.04702" lon="24.99418">
        <ele>232.454597</ele>
        <time>2022-03-03T09:44:54.384Z</time>
      </trkpt>
      <trkpt lat="42.04707" lon="24.99408">
        <ele>232.558283</ele>
        <time>2022-03-03T09:44:57.421Z</time>
      </trkpt>
      <trkpt lat="42.04714" lon="24.99398">
        <ele>232.666907</ele>
        <time>2022-03-03T09:45:00.400Z</time>
      </trkpt>
      <trkpt lat="42.0472" lon="24.99387">
        <ele>232.779031</ele>
        <time>2022-03-03T09:45:03.396Z</time>
      </trkpt>
      <trkpt lat="42.04727" lon="24.99376">
        <ele>232.88852</ele>
        <time>2022-03-03T09:45:06.436Z</time>
      </trkpt>
      <trkpt lat="42.04733" lon="24.99364">
        <ele>233.006359</ele>
        <time>2022-03-03T09:45:09.394Z</time>
      </trkpt>
      <trkpt lat="42.0474" lon="24.99353">
        <ele>233.124205</ele>
        <time>2022-03-03T09:45:12.421Z</time>
      </trkpt>
      <trkpt lat="42.04747" lon="24.99341">
        <ele>233.241543</ele>
        <time>2022-03-03T09:45:15.407Z</time>
      </trkpt>
      <trkpt lat="42.04754" lon="24.9933">
        <ele>233.359502</ele>
        <time>2022-03-03T09:45:18.453Z</time>
      </trkpt>
      <trkpt lat="42.0476" lon="24.99318">
        <ele>233.479279</ele>
        <time>2022-03-03T09:45:21.415Z</time>
      </trkpt>
      <trkpt lat="42.04767" lon="24.99306">
        <ele>233.597125</ele>
        <time>2022-03-03T09:45:24.397Z</time>
      </trkpt>
      <trkpt lat="42.04774" lon="24.99295">
        <ele>233.709997</ele>
        <time>2022-03-03T09:45:27.397Z</time>
      </trkpt>
      <trkpt lat="42.04779" lon="24.99285">
        <ele>233.812436</ele>
        <time>2022-03-03T09:45:30.419Z</time>
      </trkpt>
      <trkpt lat="42.04786" lon="24.99275">
        <ele>233.922632</ele>
        <time>2022-03-03T09:45:33.393Z</time>
      </trkpt>
      <trkpt lat="42.04792" lon="24.99264">
        <ele>234.030169</ele>
        <time>2022-03-03T09:45:36.415Z</time>
      </trkpt>
      <trkpt lat="42.04798" lon="24.99254">
        <ele>234.013146</ele>
        <time>2022-03-03T09:45:39.415Z</time>
      </trkpt>
      <trkpt lat="42.04803" lon="24.99244">
        <ele>233.791365</ele>
        <time>2022-03-03T09:45:42.414Z</time>
      </trkpt>
      <trkpt lat="42.04809" lon="24.99233">
        <ele>233.549531</ele>
        <time>2022-03-03T09:45:45.417Z</time>
      </trkpt>
      <trkpt lat="42.04816" lon="24.99222">
        <ele>233.294657</ele>
        <time>2022-03-03T09:45:48.426Z</time>
      </trkpt>
      <trkpt lat="42.04823" lon="24.99211">
        <ele>233.029478</ele>
        <time>2022-03-03T09:45:51.412Z</time>
      </trkpt>
      <trkpt lat="42.0483" lon="24.99199">
        <ele>232.768915</ele>
        <time>2022-03-03T09:45:54.407Z</time>
      </trkpt>
      <trkpt lat="42.04837" lon="24.99187">
        <ele>232.48823</ele>
        <time>2022-03-03T09:45:58.438Z</time>
      </trkpt>
      <trkpt lat="42.04843" lon="24.99177">
        <ele>232.247787</ele>
        <time>2022-03-03T09:46:01.416Z</time>
      </trkpt>
      <trkpt lat="42.0485" lon="24.99165">
        <ele>231.984313</ele>
        <time>2022-03-03T09:46:04.402Z</time>
      </trkpt>
      <trkpt lat="42.04857" lon="24.99155">
        <ele>231.730823</ele>
        <time>2022-03-03T09:46:07.392Z</time>
      </trkpt>
      <trkpt lat="42.04864" lon="24.99143">
        <ele>231.464731</ele>
        <time>2022-03-03T09:46:10.410Z</time>
      </trkpt>
      <trkpt lat="42.0487" lon="24.99132">
        <ele>231.211383</ele>
        <time>2022-03-03T09:46:13.409Z</time>
      </trkpt>
      <trkpt lat="42.04877" lon="24.99121">
        <ele>230.965246</ele>
        <time>2022-03-03T09:46:16.397Z</time>
      </trkpt>
      <trkpt lat="42.04883" lon="24.99109">
        <ele>230.70487</ele>
        <time>2022-03-03T09:46:19.417Z</time>
      </trkpt>
      <trkpt lat="42.0489" lon="24.99098">
        <ele>230.448277</ele>
        <time>2022-03-03T09:46:22.439Z</time>
      </trkpt>
      <trkpt lat="42.04896" lon="24.99089">
        <ele>230.219351</ele>
        <time>2022-03-03T09:46:25.409Z</time>
      </trkpt>
      <trkpt lat="42.04903" lon="24.99078">
        <ele>229.96412</ele>
        <time>2022-03-03T09:46:28.409Z</time>
      </trkpt>
      <trkpt lat="42.04909" lon="24.99066">
        <ele>229.733006</ele>
        <time>2022-03-03T09:46:31.453Z</time>
      </trkpt>
      <trkpt lat="42.04915" lon="24.99056">
        <ele>229.616861</ele>
        <time>2022-03-03T09:46:34.398Z</time>
      </trkpt>
      <trkpt lat="42.0492" lon="24.99046">
        <ele>229.50838</ele>
        <time>2022-03-03T09:46:37.457Z</time>
      </trkpt>
      <trkpt lat="42.04926" lon="24.99035">
        <ele>229.390062</ele>
        <time>2022-03-03T09:46:40.398Z</time>
      </trkpt>
      <trkpt lat="42.04932" lon="24.99025">
        <ele>229.273901</ele>
        <time>2022-03-03T09:46:43.449Z</time>
      </trkpt>
      <trkpt lat="42.04938" lon="24.99013">
        <ele>229.139108</ele>
        <time>2022-03-03T09:46:47.397Z</time>
      </trkpt>
      <trkpt lat="42.04944" lon="24.99003">
        <ele>229.025689</ele>
        <time>2022-03-03T09:46:50.455Z</time>
      </trkpt>
      <trkpt lat="42.0495" lon="24.98992">
        <ele>228.910164</ele>
        <time>2022-03-03T09:46:53.423Z</time>
      </trkpt>
      <trkpt lat="42.04957" lon="24.9898">
        <ele>228.770876</ele>
        <time>2022-03-03T09:46:57.418Z</time>
      </trkpt>
      <trkpt lat="42.04963" lon="24.9897">
        <ele>228.656001</ele>
        <time>2022-03-03T09:47:00.435Z</time>
      </trkpt>
      <trkpt lat="42.04969" lon="24.9896">
        <ele>228.539836</ele>
        <time>2022-03-03T09:47:03.405Z</time>
      </trkpt>
      <trkpt lat="42.04976" lon="24.98949">
        <ele>228.415426</ele>
        <time>2022-03-03T09:47:06.414Z</time>
      </trkpt>
      <trkpt lat="42.04982" lon="24.98938">
        <ele>228.292116</ele>
        <time>2022-03-03T09:47:09.405Z</time>
      </trkpt>
      <trkpt lat="42.04988" lon="24.98927">
        <ele>228.167361</ele>
        <time>2022-03-03T09:47:12.434Z</time>
      </trkpt>
      <trkpt lat="42.04995" lon="24.98915">
        <ele>228.033277</ele>
        <time>2022-03-03T09:47:15.410Z</time>
      </trkpt>
      <trkpt lat="42.05002" lon="24.98904">
        <ele>227.902709</ele>
        <time>2022-03-03T09:47:18.416Z</time>
      </trkpt>
      <trkpt lat="42.0501" lon="24.98892">
        <ele>227.761967</ele>
        <time>2022-03-03T09:47:22.450Z</time>
      </trkpt>
      <trkpt lat="42.05016" lon="24.98881">
        <ele>227.641524</ele>
        <time>2022-03-03T09:47:25.407Z</time>
      </trkpt>
      <trkpt lat="42.05021" lon="24.98871">
        <ele>227.453485</ele>
        <time>2022-03-03T09:47:28.404Z</time>
      </trkpt>
      <trkpt lat="42.05027" lon="24.9886">
        <ele>227.206244</ele>
        <time>2022-03-03T09:47:31.398Z</time>
      </trkpt>
      <trkpt lat="42.05034" lon="24.9885">
        <ele>226.952239</ele>
        <time>2022-03-03T09:47:34.393Z</time>
      </trkpt>
      <trkpt lat="42.05041" lon="24.98838">
        <ele>226.671952</ele>
        <time>2022-03-03T09:47:38.404Z</time>
      </trkpt>
      <trkpt lat="42.05048" lon="24.98828">
        <ele>226.412948</ele>
        <time>2022-03-03T09:47:41.416Z</time>
      </trkpt>
      <trkpt lat="42.05055" lon="24.98818">
        <ele>226.166152</ele>
        <time>2022-03-03T09:47:44.399Z</time>
      </trkpt>
      <trkpt lat="42.0506" lon="24.98808">
        <ele>225.93674</ele>
        <time>2022-03-03T09:47:47.409Z</time>
      </trkpt>
      <trkpt lat="42.05066" lon="24.98798">
        <ele>225.708877</ele>
        <time>2022-03-03T09:47:50.420Z</time>
      </trkpt>
      <trkpt lat="42.05072" lon="24.98786">
        <ele>225.424283</ele>
        <time>2022-03-03T09:47:54.432Z</time>
      </trkpt>
      <trkpt lat="42.05077" lon="24.98776">
        <ele>225.199113</ele>
        <time>2022-03-03T09:47:57.397Z</time>
      </trkpt>
      <trkpt lat="42.05084" lon="24.98763">
        <ele>224.906903</ele>
        <time>2022-03-03T09:48:01.396Z</time>
      </trkpt>
      <trkpt lat="42.05091" lon="24.98751">
        <ele>224.626918</ele>
        <time>2022-03-03T09:48:05.409Z</time>
      </trkpt>
      <trkpt lat="42.05098" lon="24.9874">
        <ele>224.36013</ele>
        <time>2022-03-03T09:48:09.416Z</time>
      </trkpt>
      <trkpt lat="42.05104" lon="24.9873">
        <ele>224.11545</ele>
        <time>2022-03-03T09:48:12.429Z</time>
      </trkpt>
      <trkpt lat="42.0511" lon="24.9872">
        <ele>223.875004</ele>
        <time>2022-03-03T09:48:15.414Z</time>
      </trkpt>
      <trkpt lat="42.05116" lon="24.98709">
        <ele>223.627784</ele>
        <time>2022-03-03T09:48:18.411Z</time>
      </trkpt>
      <trkpt lat="42.05123" lon="24.98698">
        <ele>223.358176</ele>
        <time>2022-03-03T09:48:21.389Z</time>
      </trkpt>
      <trkpt lat="42.05128" lon="24.98687">
        <ele>223.119413</ele>
        <time>2022-03-03T09:48:24.414Z</time>
      </trkpt>
      <trkpt lat="42.05133" lon="24.98677">
        <ele>223.320147</ele>
        <time>2022-03-03T09:48:27.404Z</time>
      </trkpt>
      <trkpt lat="42.0514" lon="24.98667">
        <ele>223.582193</ele>
        <time>2022-03-03T09:48:30.422Z</time>
      </trkpt>
      <trkpt lat="42.05146" lon="24.98656">
        <ele>223.851461</ele>
        <time>2022-03-03T09:48:33.411Z</time>
      </trkpt>
      <trkpt lat="42.05152" lon="24.98645">
        <ele>224.105223</ele>
        <time>2022-03-03T09:48:36.411Z</time>
      </trkpt>
      <trkpt lat="42.05159" lon="24.98634">
        <ele>224.384256</ele>
        <time>2022-03-03T09:48:39.419Z</time>
      </trkpt>
      <trkpt lat="42.05166" lon="24.98624">
        <ele>224.655156</ele>
        <time>2022-03-03T09:48:42.429Z</time>
      </trkpt>
      <trkpt lat="42.05173" lon="24.98613">
        <ele>224.926425</ele>
        <time>2022-03-03T09:48:45.467Z</time>
      </trkpt>
      <trkpt lat="42.05179" lon="24.98602">
        <ele>225.180095</ele>
        <time>2022-03-03T09:48:48.426Z</time>
      </trkpt>
      <trkpt lat="42.05185" lon="24.98591">
        <ele>225.446268</ele>
        <time>2022-03-03T09:48:51.413Z</time>
      </trkpt>
      <trkpt lat="42.05191" lon="24.98579">
        <ele>225.7262</ele>
        <time>2022-03-03T09:48:54.413Z</time>
      </trkpt>
      <trkpt lat="42.05198" lon="24.98568">
        <ele>226.015748</ele>
        <time>2022-03-03T09:48:57.405Z</time>
      </trkpt>
      <trkpt lat="42.05206" lon="24.98556">
        <ele>226.310836</ele>
        <time>2022-03-03T09:49:00.406Z</time>
      </trkpt>
      <trkpt lat="42.05213" lon="24.98545">
        <ele>226.59706</ele>
        <time>2022-03-03T09:49:03.410Z</time>
      </trkpt>
      <trkpt lat="42.0522" lon="24.98534">
        <ele>226.869341</ele>
        <time>2022-03-03T09:49:06.434Z</time>
      </trkpt>
      <trkpt lat="42.05226" lon="24.98523">
        <ele>227.135336</ele>
        <time>2022-03-03T09:49:09.414Z</time>
      </trkpt>
      <trkpt lat="42.05232" lon="24.98514">
        <ele>227.373714</ele>
        <time>2022-03-03T09:49:12.398Z</time>
      </trkpt>
      <trkpt lat="42.05238" lon="24.98502">
        <ele>227.647426</ele>
        <time>2022-03-03T09:49:15.426Z</time>
      </trkpt>
      <trkpt lat="42.05245" lon="24.98491">
        <ele>227.53056</ele>
        <time>2022-03-03T09:49:18.434Z</time>
      </trkpt>
      <trkpt lat="42.05252" lon="24.98479">
        <ele>227.121955</ele>
        <time>2022-03-03T09:49:21.408Z</time>
      </trkpt>
      <trkpt lat="42.05259" lon="24.98468">
        <ele>226.749666</ele>
        <time>2022-03-03T09:49:24.442Z</time>
      </trkpt>
      <trkpt lat="42.05264" lon="24.98458">
        <ele>226.415934</ele>
        <time>2022-03-03T09:49:27.448Z</time>
      </trkpt>
      <trkpt lat="42.0527" lon="24.98447">
        <ele>226.058868</ele>
        <time>2022-03-03T09:49:30.403Z</time>
      </trkpt>
      <trkpt lat="42.05276" lon="24.98436">
        <ele>225.688926</ele>
        <time>2022-03-03T09:49:33.411Z</time>
      </trkpt>
      <trkpt lat="42.05283" lon="24.98424">
        <ele>225.303971</ele>
        <time>2022-03-03T09:49:36.406Z</time>
      </trkpt>
      <trkpt lat="42.05291" lon="24.98412">
        <ele>224.873506</ele>
        <time>2022-03-03T09:49:39.403Z</time>
      </trkpt>
      <trkpt lat="42.05298" lon="24.98401">
        <ele>224.474958</ele>
        <time>2022-03-03T09:49:42.412Z</time>
      </trkpt>
      <trkpt lat="42.05305" lon="24.98388">
        <ele>224.068723</ele>
        <time>2022-03-03T09:49:45.402Z</time>
      </trkpt>
      <trkpt lat="42.05312" lon="24.98376">
        <ele>223.635949</ele>
        <time>2022-03-03T09:49:48.405Z</time>
      </trkpt>
      <trkpt lat="42.0532" lon="24.98365">
        <ele>223.245804</ele>
        <time>2022-03-03T09:49:51.468Z</time>
      </trkpt>
      <trkpt lat="42.05326" lon="24.98354">
        <ele>222.868985</ele>
        <time>2022-03-03T09:49:54.407Z</time>
      </trkpt>
      <trkpt lat="42.05333" lon="24.98343">
        <ele>222.494811</ele>
        <time>2022-03-03T09:49:57.405Z</time>
      </trkpt>
      <trkpt lat="42.0534" lon="24.9833">
        <ele>222.05796</ele>
        <time>2022-03-03T09:50:01.405Z</time>
      </trkpt>
      <trkpt lat="42.05347" lon="24.98319">
        <ele>221.683595</ele>
        <time>2022-03-03T09:50:04.430Z</time>
      </trkpt>
      <trkpt lat="42.05353" lon="24.98308">
        <ele>221.310889</ele>
        <time>2022-03-03T09:50:07.406Z</time>
      </trkpt>
      <trkpt lat="42.0536" lon="24.98297">
        <ele>221.129972</ele>
        <time>2022-03-03T09:50:10.420Z</time>
      </trkpt>
      <trkpt lat="42.05366" lon="24.98287">
        <ele>220.94681</ele>
        <time>2022-03-03T09:50:13.416Z</time>
      </trkpt>
      <trkpt lat="42.05373" lon="24.98275">
        <ele>220.761762</ele>
        <time>2022-03-03T09:50:16.413Z</time>
      </trkpt>
      <trkpt lat="42.0538" lon="24.98264">
        <ele>220.565083</ele>
        <time>2022-03-03T09:50:19.435Z</time>
      </trkpt>
      <trkpt lat="42.05386" lon="24.98253">
        <ele>220.382108</ele>
        <time>2022-03-03T09:50:22.431Z</time>
      </trkpt>
      <trkpt lat="42.05392" lon="24.98242">
        <ele>220.211895</ele>
        <time>2022-03-03T09:50:25.407Z</time>
      </trkpt>
      <trkpt lat="42.05398" lon="24.98232">
        <ele>220.035343</ele>
        <time>2022-03-03T09:50:28.399Z</time>
      </trkpt>
      <trkpt lat="42.05404" lon="24.98222">
        <ele>219.860345</ele>
        <time>2022-03-03T09:50:31.424Z</time>
      </trkpt>
      <trkpt lat="42.0541" lon="24.98212">
        <ele>219.689814</ele>
        <time>2022-03-03T09:50:34.406Z</time>
      </trkpt>
      <trkpt lat="42.05416" lon="24.98201">
        <ele>219.52143</ele>
        <time>2022-03-03T09:50:37.405Z</time>
      </trkpt>
      <trkpt lat="42.05421" lon="24.98191">
        <ele>219.355433</ele>
        <time>2022-03-03T09:50:40.408Z</time>
      </trkpt>
      <trkpt lat="42.05427" lon="24.9818">
        <ele>219.178881</ele>
        <time>2022-03-03T09:50:43.414Z</time>
      </trkpt>
      <trkpt lat="42.05435" lon="24.98168">
        <ele>218.974616</ele>
        <time>2022-03-03T09:50:46.403Z</time>
      </trkpt>
      <trkpt lat="42.05441" lon="24.98157">
        <ele>218.788399</ele>
        <time>2022-03-03T09:50:49.446Z</time>
      </trkpt>
      <trkpt lat="42.05448" lon="24.98147">
        <ele>218.606366</ele>
        <time>2022-03-03T09:50:52.407Z</time>
      </trkpt>
      <trkpt lat="42.05453" lon="24.98137">
        <ele>218.438273</ele>
        <time>2022-03-03T09:50:55.400Z</time>
      </trkpt>
      <trkpt lat="42.05461" lon="24.98125">
        <ele>218.229266</ele>
        <time>2022-03-03T09:50:59.401Z</time>
      </trkpt>
      <trkpt lat="42.05468" lon="24.98113">
        <ele>218.062048</ele>
        <time>2022-03-03T09:51:02.429Z</time>
      </trkpt>
      <trkpt lat="42.05474" lon="24.98102">
        <ele>217.926236</ele>
        <time>2022-03-03T09:51:05.409Z</time>
      </trkpt>
      <trkpt lat="42.0548" lon="24.98092">
        <ele>217.799722</ele>
        <time>2022-03-03T09:51:08.421Z</time>
      </trkpt>
      <trkpt lat="42.05486" lon="24.98082">
        <ele>217.672596</ele>
        <time>2022-03-03T09:51:11.403Z</time>
      </trkpt>
      <trkpt lat="42.05492" lon="24.98072">
        <ele>217.542963</ele>
        <time>2022-03-03T09:51:14.403Z</time>
      </trkpt>
      <trkpt lat="42.05498" lon="24.98062">
        <ele>217.419002</ele>
        <time>2022-03-03T09:51:17.479Z</time>
      </trkpt>
      <trkpt lat="42.05503" lon="24.98052">
        <ele>217.293395</ele>
        <time>2022-03-03T09:51:20.438Z</time>
      </trkpt>
      <trkpt lat="42.05509" lon="24.98042">
        <ele>217.168636</ele>
        <time>2022-03-03T09:51:23.418Z</time>
      </trkpt>
      <trkpt lat="42.05515" lon="24.98031">
        <ele>217.039071</ele>
        <time>2022-03-03T09:51:26.425Z</time>
      </trkpt>
      <trkpt lat="42.05521" lon="24.98021">
        <ele>216.911141</ele>
        <time>2022-03-03T09:51:29.457Z</time>
      </trkpt>
      <trkpt lat="42.05527" lon="24.9801">
        <ele>216.782435</ele>
        <time>2022-03-03T09:51:32.421Z</time>
      </trkpt>
      <trkpt lat="42.05534" lon="24.98">
        <ele>216.649085</ele>
        <time>2022-03-03T09:51:35.399Z</time>
      </trkpt>
      <trkpt lat="42.0554" lon="24.9799">
        <ele>216.521813</ele>
        <time>2022-03-03T09:51:38.397Z</time>
      </trkpt>
      <trkpt lat="42.05546" lon="24.9798">
        <ele>216.389929</ele>
        <time>2022-03-03T09:51:41.413Z</time>
      </trkpt>
      <trkpt lat="42.05552" lon="24.97969">
        <ele>216.253213</ele>
        <time>2022-03-03T09:51:44.397Z</time>
      </trkpt>
      <trkpt lat="42.05559" lon="24.97959">
        <ele>216.121134</ele>
        <time>2022-03-03T09:51:47.414Z</time>
      </trkpt>
      <trkpt lat="42.05566" lon="24.97947">
        <ele>215.970176</ele>
        <time>2022-03-03T09:51:51.402Z</time>
      </trkpt>
      <trkpt lat="42.05573" lon="24.97934">
        <ele>215.815423</ele>
        <time>2022-03-03T09:51:55.411Z</time>
      </trkpt>
      <trkpt lat="42.05579" lon="24.97925">
        <ele>215.768838</ele>
        <time>2022-03-03T09:51:58.435Z</time>
      </trkpt>
      <trkpt lat="42.05585" lon="24.97913">
        <ele>215.840303</ele>
        <time>2022-03-03T09:52:02.396Z</time>
      </trkpt>
      <trkpt lat="42.05592" lon="24.97902">
        <ele>215.910727</ele>
        <time>2022-03-03T09:52:06.410Z</time>
      </trkpt>
      <trkpt lat="42.056" lon="24.9789">
        <ele>215.988441</ele>
        <time>2022-03-03T09:52:10.418Z</time>
      </trkpt>
      <trkpt lat="42.05605" lon="24.9788">
        <ele>216.048956</ele>
        <time>2022-03-03T09:52:13.407Z</time>
      </trkpt>
      <trkpt lat="42.05611" lon="24.9787">
        <ele>216.10907</ele>
        <time>2022-03-03T09:52:16.433Z</time>
      </trkpt>
      <trkpt lat="42.05616" lon="24.9786">
        <ele>216.169656</ele>
        <time>2022-03-03T09:52:19.412Z</time>
      </trkpt>
      <trkpt lat="42.05622" lon="24.9785">
        <ele>216.23267</ele>
        <time>2022-03-03T09:52:22.408Z</time>
      </trkpt>
      <trkpt lat="42.05628" lon="24.9784">
        <ele>216.293169</ele>
        <time>2022-03-03T09:52:25.430Z</time>
      </trkpt>
      <trkpt lat="42.05634" lon="24.9783">
        <ele>216.354223</ele>
        <time>2022-03-03T09:52:28.414Z</time>
      </trkpt>
      <trkpt lat="42.05641" lon="24.9782">
        <ele>216.422595</ele>
        <time>2022-03-03T09:52:31.412Z</time>
      </trkpt>
      <trkpt lat="42.05647" lon="24.97808">
        <ele>216.492511</ele>
        <time>2022-03-03T09:52:34.398Z</time>
      </trkpt>
      <trkpt lat="42.05654" lon="24.97798">
        <ele>216.555841</ele>
        <time>2022-03-03T09:52:37.436Z</time>
      </trkpt>
      <trkpt lat="42.05659" lon="24.97788">
        <ele>216.61634</ele>
        <time>2022-03-03T09:52:40.431Z</time>
      </trkpt>
      <trkpt lat="42.05666" lon="24.97778">
        <ele>216.683587</ele>
        <time>2022-03-03T09:52:43.402Z</time>
      </trkpt>
      <trkpt lat="42.05672" lon="24.97767">
        <ele>216.750093</ele>
        <time>2022-03-03T09:52:46.409Z</time>
      </trkpt>
      <trkpt lat="42.05678" lon="24.97756">
        <ele>216.818042</ele>
        <time>2022-03-03T09:52:49.403Z</time>
      </trkpt>
      <trkpt lat="42.05684" lon="24.97746">
        <ele>216.879325</ele>
        <time>2022-03-03T09:52:52.414Z</time>
      </trkpt>
      <trkpt lat="42.05691" lon="24.97735">
        <ele>216.984324</ele>
        <time>2022-03-03T09:52:55.394Z</time>
      </trkpt>
      <trkpt lat="42.05697" lon="24.97723">
        <ele>217.145551</ele>
        <time>2022-03-03T09:52:58.428Z</time>
      </trkpt>
      <trkpt lat="42.05704" lon="24.97711">
        <ele>217.32038</ele>
        <time>2022-03-03T09:53:01.408Z</time>
      </trkpt>
      <trkpt lat="42.05711" lon="24.97699">
        <ele>217.491718</ele>
        <time>2022-03-03T09:53:04.394Z</time>
      </trkpt>
      <trkpt lat="42.05718" lon="24.97687">
        <ele>217.657517</ele>
        <time>2022-03-03T09:53:07.413Z</time>
      </trkpt>
      <trkpt lat="42.05725" lon="24.97676">
        <ele>217.818803</ele>
        <time>2022-03-03T09:53:10.414Z</time>
      </trkpt>
      <trkpt lat="42.05731" lon="24.97664">
        <ele>217.986339</ele>
        <time>2022-03-03T09:53:13.392Z</time>
      </trkpt>
      <trkpt lat="42.05738" lon="24.97654">
        <ele>218.137982</ele>
        <time>2022-03-03T09:53:16.442Z</time>
      </trkpt>
      <trkpt lat="42.05744" lon="24.97643">
        <ele>218.286597</ele>
        <time>2022-03-03T09:53:19.416Z</time>
      </trkpt>
      <trkpt lat="42.05751" lon="24.97631">
        <ele>218.462304</ele>
        <time>2022-03-03T09:53:23.433Z</time>
      </trkpt>
      <trkpt lat="42.05757" lon="24.97621">
        <ele>218.60647</ele>
        <time>2022-03-03T09:53:26.405Z</time>
      </trkpt>
      <trkpt lat="42.05763" lon="24.97611">
        <ele>218.749203</ele>
        <time>2022-03-03T09:53:29.413Z</time>
      </trkpt>
      <trkpt lat="42.0577" lon="24.97602">
        <ele>218.894951</ele>
        <time>2022-03-03T09:53:32.402Z</time>
      </trkpt>
      <trkpt lat="42.05776" lon="24.97591">
        <ele>219.048145</ele>
        <time>2022-03-03T09:53:35.410Z</time>
      </trkpt>
      <trkpt lat="42.05782" lon="24.97579">
        <ele>219.205029</ele>
        <time>2022-03-03T09:53:38.439Z</time>
      </trkpt>
      <trkpt lat="42.05788" lon="24.97569">
        <ele>219.362811</ele>
        <time>2022-03-03T09:53:41.414Z</time>
      </trkpt>
      <trkpt lat="42.05794" lon="24.97558">
        <ele>219.509674</ele>
        <time>2022-03-03T09:53:44.433Z</time>
      </trkpt>
      <trkpt lat="42.05802" lon="24.97548">
        <ele>219.691929</ele>
        <time>2022-03-03T09:53:47.410Z</time>
      </trkpt>
      <trkpt lat="42.05808" lon="24.97537">
        <ele>219.970835</ele>
        <time>2022-03-03T09:53:50.410Z</time>
      </trkpt>
      <trkpt lat="42.05815" lon="24.97524">
        <ele>220.271421</ele>
        <time>2022-03-03T09:53:53.408Z</time>
      </trkpt>
      <trkpt lat="42.05821" lon="24.97513">
        <ele>220.54081</ele>
        <time>2022-03-03T09:53:56.411Z</time>
      </trkpt>
      <trkpt lat="42.05828" lon="24.97502">
        <ele>220.81521</ele>
        <time>2022-03-03T09:53:59.406Z</time>
      </trkpt>
      <trkpt lat="42.05835" lon="24.9749">
        <ele>221.114272</ele>
        <time>2022-03-03T09:54:02.406Z</time>
      </trkpt>
      <trkpt lat="42.05842" lon="24.97478">
        <ele>221.412109</ele>
        <time>2022-03-03T09:54:05.426Z</time>
      </trkpt>
      <trkpt lat="42.05849" lon="24.97466">
        <ele>221.703369</ele>
        <time>2022-03-03T09:54:08.412Z</time>
      </trkpt>
      <trkpt lat="42.05856" lon="24.97454">
        <ele>221.988359</ele>
        <time>2022-03-03T09:54:11.420Z</time>
      </trkpt>
      <trkpt lat="42.05861" lon="24.97443">
        <ele>222.26156</ele>
        <time>2022-03-03T09:54:14.412Z</time>
      </trkpt>
      <trkpt lat="42.05867" lon="24.97431">
        <ele>222.535973</ele>
        <time>2022-03-03T09:54:17.454Z</time>
      </trkpt>
      <trkpt lat="42.05872" lon="24.97418">
        <ele>222.811137</ele>
        <time>2022-03-03T09:54:20.402Z</time>
      </trkpt>
      <trkpt lat="42.05875" lon="24.97405">
        <ele>223.072932</ele>
        <time>2022-03-03T09:54:23.419Z</time>
      </trkpt>
      <trkpt lat="42.05878" lon="24.97393">
        <ele>223.33321</ele>
        <time>2022-03-03T09:54:26.418Z</time>
      </trkpt>
      <trkpt lat="42.05883" lon="24.9738">
        <ele>223.60266</ele>
        <time>2022-03-03T09:54:29.423Z</time>
      </trkpt>
      <trkpt lat="42.05887" lon="24.97368">
        <ele>223.858808</ele>
        <time>2022-03-03T09:54:32.408Z</time>
      </trkpt>
      <trkpt lat="42.05891" lon="24.97356">
        <ele>224.115181</ele>
        <time>2022-03-03T09:54:35.406Z</time>
      </trkpt>
      <trkpt lat="42.05894" lon="24.97343">
        <ele>224.302351</ele>
        <time>2022-03-03T09:54:38.396Z</time>
      </trkpt>
      <trkpt lat="42.05898" lon="24.9733">
        <ele>224.114371</ele>
        <time>2022-03-03T09:54:41.417Z</time>
      </trkpt>
      <trkpt lat="42.05902" lon="24.97318">
        <ele>223.943425</ele>
        <time>2022-03-03T09:54:44.398Z</time>
      </trkpt>
      <trkpt lat="42.05905" lon="24.97305">
        <ele>223.769403</ele>
        <time>2022-03-03T09:54:47.404Z</time>
      </trkpt>
      <trkpt lat="42.0591" lon="24.97293">
        <ele>223.585535</ele>
        <time>2022-03-03T09:54:50.450Z</time>
      </trkpt>
      <trkpt lat="42.05914" lon="24.9728">
        <ele>223.401196</ele>
        <time>2022-03-03T09:54:53.416Z</time>
      </trkpt>
      <trkpt lat="42.05918" lon="24.97267">
        <ele>223.208341</ele>
        <time>2022-03-03T09:54:56.430Z</time>
      </trkpt>
      <trkpt lat="42.05922" lon="24.97252">
        <ele>223.00635</ele>
        <time>2022-03-03T09:54:59.412Z</time>
      </trkpt>
      <trkpt lat="42.05926" lon="24.97238">
        <ele>222.804309</ele>
        <time>2022-03-03T09:55:02.463Z</time>
      </trkpt>
      <trkpt lat="42.05929" lon="24.97224">
        <ele>222.605515</ele>
        <time>2022-03-03T09:55:05.393Z</time>
      </trkpt>
      <trkpt lat="42.05933" lon="24.9721">
        <ele>222.411559</ele>
        <time>2022-03-03T09:55:08.415Z</time>
      </trkpt>
      <trkpt lat="42.05937" lon="24.97196">
        <ele>222.2083</ele>
        <time>2022-03-03T09:55:11.408Z</time>
      </trkpt>
      <trkpt lat="42.05942" lon="24.97182">
        <ele>222.0094</ele>
        <time>2022-03-03T09:55:14.400Z</time>
      </trkpt>
      <trkpt lat="42.05947" lon="24.9717">
        <ele>221.81679</ele>
        <time>2022-03-03T09:55:17.415Z</time>
      </trkpt>
      <trkpt lat="42.05953" lon="24.97158">
        <ele>221.632797</ele>
        <time>2022-03-03T09:55:20.416Z</time>
      </trkpt>
      <trkpt lat="42.05958" lon="24.97145">
        <ele>221.440188</ele>
        <time>2022-03-03T09:55:23.394Z</time>
      </trkpt>
      <trkpt lat="42.05962" lon="24.97133">
        <ele>221.26295</ele>
        <time>2022-03-03T09:55:26.423Z</time>
      </trkpt>
      <trkpt lat="42.05969" lon="24.97122">
        <ele>220.97237</ele>
        <time>2022-03-03T09:55:29.415Z</time>
      </trkpt>
      <trkpt lat="42.05976" lon="24.97109">
        <ele>220.311821</ele>
        <time>2022-03-03T09:55:32.409Z</time>
      </trkpt>
      <trkpt lat="42.05983" lon="24.97096">
        <ele>219.680093</ele>
        <time>2022-03-03T09:55:35.472Z</time>
      </trkpt>
      <trkpt lat="42.05989" lon="24.97085">
        <ele>219.111254</ele>
        <time>2022-03-03T09:55:38.416Z</time>
      </trkpt>
      <trkpt lat="42.05995" lon="24.97074">
        <ele>218.565283</ele>
        <time>2022-03-03T09:55:41.414Z</time>
      </trkpt>
      <trkpt lat="42.06001" lon="24.97064">
        <ele>218.016058</ele>
        <time>2022-03-03T09:55:44.396Z</time>
      </trkpt>
      <trkpt lat="42.06006" lon="24.97053">
        <ele>217.486437</ele>
        <time>2022-03-03T09:55:47.414Z</time>
      </trkpt>
      <trkpt lat="42.06012" lon="24.97042">
        <ele>216.933254</ele>
        <time>2022-03-03T09:55:50.412Z</time>
      </trkpt>
      <trkpt lat="42.06018" lon="24.97031">
        <ele>216.377389</ele>
        <time>2022-03-03T09:55:53.415Z</time>
      </trkpt>
      <trkpt lat="42.06025" lon="24.97021">
        <ele>215.825909</ele>
        <time>2022-03-03T09:55:56.409Z</time>
      </trkpt>
      <trkpt lat="42.06031" lon="24.97011">
        <ele>215.305562</ele>
        <time>2022-03-03T09:55:59.436Z</time>
      </trkpt>
      <trkpt lat="42.06037" lon="24.97001">
        <ele>214.798802</ele>
        <time>2022-03-03T09:56:02.397Z</time>
      </trkpt>
      <trkpt lat="42.06042" lon="24.9699">
        <ele>214.256121</ele>
        <time>2022-03-03T09:56:05.405Z</time>
      </trkpt>
      <trkpt lat="42.06049" lon="24.9698">
        <ele>213.702976</ele>
        <time>2022-03-03T09:56:08.450Z</time>
      </trkpt>
      <trkpt lat="42.06055" lon="24.9697">
        <ele>213.179145</ele>
        <time>2022-03-03T09:56:11.409Z</time>
      </trkpt>
      <trkpt lat="42.06061" lon="24.9696">
        <ele>212.665665</ele>
        <time>2022-03-03T09:56:14.414Z</time>
      </trkpt>
      <trkpt lat="42.06067" lon="24.9695">
        <ele>212.126174</ele>
        <time>2022-03-03T09:56:17.405Z</time>
      </trkpt>
      <trkpt lat="42.06074" lon="24.96938">
        <ele>211.50428</ele>
        <time>2022-03-03T09:56:20.415Z</time>
      </trkpt>
      <trkpt lat="42.06082" lon="24.96926">
        <ele>211.306403</ele>
        <time>2022-03-03T09:56:23.399Z</time>
      </trkpt>
      <trkpt lat="42.0609" lon="24.96915">
        <ele>211.377861</ele>
        <time>2022-03-03T09:56:26.406Z</time>
      </trkpt>
      <trkpt lat="42.06097" lon="24.96903">
        <ele>211.448268</ele>
        <time>2022-03-03T09:56:29.400Z</time>
      </trkpt>
      <trkpt lat="42.06103" lon="24.96892">
        <ele>211.515536</ele>
        <time>2022-03-03T09:56:32.397Z</time>
      </trkpt>
      <trkpt lat="42.0611" lon="24.9688">
        <ele>211.585045</ele>
        <time>2022-03-03T09:56:35.406Z</time>
      </trkpt>
      <trkpt lat="42.06117" lon="24.96869">
        <ele>211.65018</ele>
        <time>2022-03-03T09:56:38.436Z</time>
      </trkpt>
      <trkpt lat="42.06123" lon="24.96859">
        <ele>211.709289</ele>
        <time>2022-03-03T09:56:41.399Z</time>
      </trkpt>
      <trkpt lat="42.06129" lon="24.9685">
        <ele>211.769202</ele>
        <time>2022-03-03T09:56:44.398Z</time>
      </trkpt>
      <trkpt lat="42.06135" lon="24.96839">
        <ele>211.831223</ele>
        <time>2022-03-03T09:56:47.415Z</time>
      </trkpt>
      <trkpt lat="42.06141" lon="24.96829">
        <ele>211.892026</ele>
        <time>2022-03-03T09:56:50.418Z</time>
      </trkpt>
      <trkpt lat="42.06147" lon="24.96817">
        <ele>211.959701</ele>
        <time>2022-03-03T09:56:53.433Z</time>
      </trkpt>
      <trkpt lat="42.06154" lon="24.96805">
        <ele>212.031448</ele>
        <time>2022-03-03T09:56:56.406Z</time>
      </trkpt>
      <trkpt lat="42.06162" lon="24.96794">
        <ele>212.101215</ele>
        <time>2022-03-03T09:56:59.396Z</time>
      </trkpt>
      <trkpt lat="42.06168" lon="24.96783">
        <ele>212.162136</ele>
        <time>2022-03-03T09:57:02.405Z</time>
      </trkpt>
      <trkpt lat="42.06174" lon="24.96773">
        <ele>212.223424</ele>
        <time>2022-03-03T09:57:05.417Z</time>
      </trkpt>
      <trkpt lat="42.0618" lon="24.96763">
        <ele>212.282222</ele>
        <time>2022-03-03T09:57:08.415Z</time>
      </trkpt>
      <trkpt lat="42.06186" lon="24.96752">
        <ele>212.347989</ele>
        <time>2022-03-03T09:57:11.416Z</time>
      </trkpt>
      <trkpt lat="42.06192" lon="24.96743">
        <ele>212.372441</ele>
        <time>2022-03-03T09:57:14.430Z</time>
      </trkpt>
      <trkpt lat="42.062" lon="24.96731">
        <ele>212.304295</ele>
        <time>2022-03-03T09:57:18.412Z</time>
      </trkpt>
      <trkpt lat="42.06206" lon="24.96721">
        <ele>212.248325</ele>
        <time>2022-03-03T09:57:21.420Z</time>
      </trkpt>
      <trkpt lat="42.06212" lon="24.9671">
        <ele>212.188555</ele>
        <time>2022-03-03T09:57:24.416Z</time>
      </trkpt>
      <trkpt lat="42.06219" lon="24.96698">
        <ele>212.126641</ele>
        <time>2022-03-03T09:57:27.411Z</time>
      </trkpt>
      <trkpt lat="42.06225" lon="24.96688">
        <ele>212.06755</ele>
        <time>2022-03-03T09:57:30.398Z</time>
      </trkpt>
      <trkpt lat="42.06232" lon="24.96676">
        <ele>212.001838</ele>
        <time>2022-03-03T09:57:33.412Z</time>
      </trkpt>
      <trkpt lat="42.0624" lon="24.96665">
        <ele>211.939239</ele>
        <time>2022-03-03T09:57:36.407Z</time>
      </trkpt>
      <trkpt lat="42.06246" lon="24.96655">
        <ele>211.882763</ele>
        <time>2022-03-03T09:57:39.407Z</time>
      </trkpt>
      <trkpt lat="42.06253" lon="24.96645">
        <ele>211.824346</ele>
        <time>2022-03-03T09:57:42.444Z</time>
      </trkpt>
      <trkpt lat="42.06259" lon="24.96634">
        <ele>211.763861</ele>
        <time>2022-03-03T09:57:45.413Z</time>
      </trkpt>
      <trkpt lat="42.06266" lon="24.96622">
        <ele>211.702021</ele>
        <time>2022-03-03T09:57:48.408Z</time>
      </trkpt>
      <trkpt lat="42.06272" lon="24.96612">
        <ele>211.644273</ele>
        <time>2022-03-03T09:57:51.405Z</time>
      </trkpt>
      <trkpt lat="42.06278" lon="24.96602">
        <ele>211.589339</ele>
        <time>2022-03-03T09:57:54.394Z</time>
      </trkpt>
      <trkpt lat="42.06283" lon="24.96592">
        <ele>211.535106</ele>
        <time>2022-03-03T09:57:57.394Z</time>
      </trkpt>
      <trkpt lat="42.0629" lon="24.96581">
        <ele>211.473946</ele>
        <time>2022-03-03T09:58:00.410Z</time>
      </trkpt>
      <trkpt lat="42.06296" lon="24.9657">
        <ele>211.41541</ele>
        <time>2022-03-03T09:58:03.417Z</time>
      </trkpt>
      <trkpt lat="42.06303" lon="24.96559">
        <ele>211.354269</ele>
        <time>2022-03-03T09:58:06.391Z</time>
      </trkpt>
      <trkpt lat="42.06309" lon="24.96549">
        <ele>211.430531</ele>
        <time>2022-03-03T09:58:09.416Z</time>
      </trkpt>
      <trkpt lat="42.06314" lon="24.96538">
        <ele>211.522797</ele>
        <time>2022-03-03T09:58:12.420Z</time>
      </trkpt>
      <trkpt lat="42.0632" lon="24.96529">
        <ele>211.615166</ele>
        <time>2022-03-03T09:58:15.431Z</time>
      </trkpt>
      <trkpt lat="42.06326" lon="24.96519">
        <ele>211.709304</ele>
        <time>2022-03-03T09:58:18.414Z</time>
      </trkpt>
      <trkpt lat="42.06333" lon="24.96509">
        <ele>211.812836</ele>
        <time>2022-03-03T09:58:21.418Z</time>
      </trkpt>
      <trkpt lat="42.0634" lon="24.96498">
        <ele>211.919096</ele>
        <time>2022-03-03T09:58:24.411Z</time>
      </trkpt>
      <trkpt lat="42.06347" lon="24.96488">
        <ele>212.016689</ele>
        <time>2022-03-03T09:58:27.414Z</time>
      </trkpt>
      <trkpt lat="42.06353" lon="24.96477">
        <ele>212.117247</ele>
        <time>2022-03-03T09:58:30.412Z</time>
      </trkpt>
      <trkpt lat="42.06358" lon="24.96467">
        <ele>212.208929</ele>
        <time>2022-03-03T09:58:33.418Z</time>
      </trkpt>
      <trkpt lat="42.06365" lon="24.96457">
        <ele>212.307388</ele>
        <time>2022-03-03T09:58:36.422Z</time>
      </trkpt>
      <trkpt lat="42.06372" lon="24.96445">
        <ele>212.417561</ele>
        <time>2022-03-03T09:58:39.445Z</time>
      </trkpt>
      <trkpt lat="42.06378" lon="24.96434">
        <ele>212.523429</ele>
        <time>2022-03-03T09:58:42.434Z</time>
      </trkpt>
      <trkpt lat="42.06385" lon="24.96423">
        <ele>212.625794</ele>
        <time>2022-03-03T09:58:45.430Z</time>
      </trkpt>
      <trkpt lat="42.06391" lon="24.96412">
        <ele>212.726933</ele>
        <time>2022-03-03T09:58:48.412Z</time>
      </trkpt>
      <trkpt lat="42.06396" lon="24.96398">
        <ele>212.836301</ele>
        <time>2022-03-03T09:58:51.410Z</time>
      </trkpt>
      <trkpt lat="42.064" lon="24.96385">
        <ele>212.942085</ele>
        <time>2022-03-03T09:58:54.474Z</time>
      </trkpt>
      <trkpt lat="42.06402" lon="24.96372">
        <ele>213.042455</ele>
        <time>2022-03-03T09:58:57.409Z</time>
      </trkpt>
      <trkpt lat="42.06405" lon="24.96359">
        <ele>213.200021</ele>
        <time>2022-03-03T09:59:00.424Z</time>
      </trkpt>
      <trkpt lat="42.06408" lon="24.96343">
        <ele>213.844111</ele>
        <time>2022-03-03T09:59:03.401Z</time>
      </trkpt>
      <trkpt lat="42.06411" lon="24.96328">
        <ele>214.481055</ele>
        <time>2022-03-03T09:59:06.415Z</time>
      </trkpt>
      <trkpt lat="42.06414" lon="24.96313">
        <ele>215.104155</ele>
        <time>2022-03-03T09:59:09.419Z</time>
      </trkpt>
      <trkpt lat="42.06417" lon="24.96299">
        <ele>215.726744</ele>
        <time>2022-03-03T09:59:12.406Z</time>
      </trkpt>
      <trkpt lat="42.0642" lon="24.96284">
        <ele>216.348701</ele>
        <time>2022-03-03T09:59:15.395Z</time>
      </trkpt>
      <trkpt lat="42.06423" lon="24.96269">
        <ele>216.979925</ele>
        <time>2022-03-03T09:59:18.424Z</time>
      </trkpt>
      <trkpt lat="42.06426" lon="24.96255">
        <ele>217.579473</ele>
        <time>2022-03-03T09:59:21.414Z</time>
      </trkpt>
      <trkpt lat="42.06429" lon="24.9624">
        <ele>218.193611</ele>
        <time>2022-03-03T09:59:24.389Z</time>
      </trkpt>
      <trkpt lat="42.06433" lon="24.96226">
        <ele>218.807508</ele>
        <time>2022-03-03T09:59:27.456Z</time>
      </trkpt>
      <trkpt lat="42.06438" lon="24.96212">
        <ele>219.435049</ele>
        <time>2022-03-03T09:59:30.405Z</time>
      </trkpt>
      <trkpt lat="42.06441" lon="24.96199">
        <ele>219.974916</ele>
        <time>2022-03-03T09:59:33.411Z</time>
      </trkpt>
      <trkpt lat="42.06443" lon="24.96186">
        <ele>220.537679</ele>
        <time>2022-03-03T09:59:36.431Z</time>
      </trkpt>
      <trkpt lat="42.06447" lon="24.96173">
        <ele>221.062173</ele>
        <time>2022-03-03T09:59:39.418Z</time>
      </trkpt>
      <trkpt lat="42.0645" lon="24.96162">
        <ele>221.560526</ele>
        <time>2022-03-03T09:59:42.409Z</time>
      </trkpt>
      <trkpt lat="42.06451" lon="24.9615">
        <ele>222.054788</ele>
        <time>2022-03-03T09:59:45.413Z</time>
      </trkpt>
      <trkpt lat="42.06454" lon="24.96135">
        <ele>222.689681</ele>
        <time>2022-03-03T09:59:49.432Z</time>
      </trkpt>
      <trkpt lat="42.06457" lon="24.96119">
        <ele>222.749001</ele>
        <time>2022-03-03T09:59:53.396Z</time>
      </trkpt>
      <trkpt lat="42.06464" lon="24.96105">
        <ele>222.388915</ele>
        <time>2022-03-03T09:59:56.414Z</time>
      </trkpt>
      <trkpt lat="42.06472" lon="24.96092">
        <ele>222.035819</ele>
        <time>2022-03-03T09:59:59.421Z</time>
      </trkpt>
      <trkpt lat="42.06478" lon="24.96082">
        <ele>221.740599</ele>
        <time>2022-03-03T10:00:02.394Z</time>
      </trkpt>
      <trkpt lat="42.06485" lon="24.96072">
        <ele>221.458798</ele>
        <time>2022-03-03T10:00:05.404Z</time>
      </trkpt>
      <trkpt lat="42.06491" lon="24.96062">
        <ele>221.191715</ele>
        <time>2022-03-03T10:00:08.414Z</time>
      </trkpt>
      <trkpt lat="42.06497" lon="24.9605">
        <ele>220.880016</ele>
        <time>2022-03-03T10:00:12.413Z</time>
      </trkpt>
      <trkpt lat="42.06504" lon="24.9604">
        <ele>220.592434</ele>
        <time>2022-03-03T10:00:15.421Z</time>
      </trkpt>
      <trkpt lat="42.0651" lon="24.96031">
        <ele>220.323001</ele>
        <time>2022-03-03T10:00:18.418Z</time>
      </trkpt>
      <trkpt lat="42.06516" lon="24.96021">
        <ele>220.048459</ele>
        <time>2022-03-03T10:00:21.415Z</time>
      </trkpt>
      <trkpt lat="42.06522" lon="24.96011">
        <ele>219.77084</ele>
        <time>2022-03-03T10:00:24.476Z</time>
      </trkpt>
      <trkpt lat="42.06529" lon="24.96">
        <ele>219.469521</ele>
        <time>2022-03-03T10:00:27.427Z</time>
      </trkpt>
      <trkpt lat="42.06536" lon="24.95989">
        <ele>219.156151</ele>
        <time>2022-03-03T10:00:30.426Z</time>
      </trkpt>
      <trkpt lat="42.06543" lon="24.95978">
        <ele>218.852059</ele>
        <time>2022-03-03T10:00:33.427Z</time>
      </trkpt>
      <trkpt lat="42.06549" lon="24.95967">
        <ele>218.555622</ele>
        <time>2022-03-03T10:00:36.419Z</time>
      </trkpt>
      <trkpt lat="42.06552" lon="24.95953">
        <ele>218.259544</ele>
        <time>2022-03-03T10:00:39.425Z</time>
      </trkpt>
      <trkpt lat="42.06552" lon="24.95939">
        <ele>217.963153</ele>
        <time>2022-03-03T10:00:42.434Z</time>
      </trkpt>
      <trkpt lat="42.06548" lon="24.95927">
        <ele>217.738148</ele>
        <time>2022-03-03T10:00:45.437Z</time>
      </trkpt>
      <trkpt lat="42.06545" lon="24.95916">
        <ele>217.614239</ele>
        <time>2022-03-03T10:00:48.417Z</time>
      </trkpt>
      <trkpt lat="42.0655" lon="24.95902">
        <ele>217.4638</ele>
        <time>2022-03-03T10:00:52.399Z</time>
      </trkpt>
      <trkpt lat="42.06558" lon="24.95896">
        <ele>217.336685</ele>
        <time>2022-03-03T10:00:55.442Z</time>
      </trkpt>
      <trkpt lat="42.06568" lon="24.95891">
        <ele>217.188107</ele>
        <time>2022-03-03T10:00:59.413Z</time>
      </trkpt>
      <trkpt lat="42.06578" lon="24.95884">
        <ele>217.034722</ele>
        <time>2022-03-03T10:01:03.409Z</time>
      </trkpt>
      <trkpt lat="42.06588" lon="24.95879">
        <ele>216.890783</ele>
        <time>2022-03-03T10:01:07.405Z</time>
      </trkpt>
      <trkpt lat="42.06598" lon="24.95873">
        <ele>216.746885</ele>
        <time>2022-03-03T10:01:11.411Z</time>
      </trkpt>
      <trkpt lat="42.06607" lon="24.95868">
        <ele>216.610092</ele>
        <time>2022-03-03T10:01:15.407Z</time>
      </trkpt>
      <trkpt lat="42.06617" lon="24.95863">
        <ele>216.462919</ele>
        <time>2022-03-03T10:01:20.398Z</time>
      </trkpt>
      <trkpt lat="42.06627" lon="24.95861">
        <ele>216.321764</ele>
        <time>2022-03-03T10:01:25.421Z</time>
      </trkpt>
      <trkpt lat="42.06637" lon="24.95858">
        <ele>216.188672</ele>
        <time>2022-03-03T10:01:29.417Z</time>
      </trkpt>
      <trkpt lat="42.06647" lon="24.95853">
        <ele>216.040551</ele>
        <time>2022-03-03T10:01:34.417Z</time>
      </trkpt>
      <trkpt lat="42.06657" lon="24.95847">
        <ele>215.889972</ele>
        <time>2022-03-03T10:01:39.426Z</time>
      </trkpt>
      <trkpt lat="42.06666" lon="24.95842">
        <ele>215.75842</ele>
        <time>2022-03-03T10:01:44.410Z</time>
      </trkpt>
      <trkpt lat="42.06675" lon="24.95837">
        <ele>215.628621</ele>
        <time>2022-03-03T10:01:49.426Z</time>
      </trkpt>
      <trkpt lat="42.06684" lon="24.95833">
        <ele>215.50592</ele>
        <time>2022-03-03T10:01:54.430Z</time>
      </trkpt>
      <trkpt lat="42.06692" lon="24.95829">
        <ele>215.376892</ele>
        <time>2022-03-03T10:02:00.431Z</time>
      </trkpt>
      <trkpt lat="42.06702" lon="24.95827">
        <ele>215.982469</ele>
        <time>2022-03-03T10:02:06.427Z</time>
      </trkpt>
      <trkpt lat="42.06711" lon="24.95826">
        <ele>216.837976</ele>
        <time>2022-03-03T10:02:12.424Z</time>
      </trkpt>
      <trkpt lat="42.0672" lon="24.95823">
        <ele>217.713803</ele>
        <time>2022-03-03T10:02:18.423Z</time>
      </trkpt>
      <trkpt lat="42.0673" lon="24.95822">
        <ele>218.693069</ele>
        <time>2022-03-03T10:02:25.428Z</time>
      </trkpt>
      <trkpt lat="42.0674" lon="24.9582">
        <ele>219.647417</ele>
        <time>2022-03-03T10:02:32.422Z</time>
      </trkpt>
      <trkpt lat="42.0675" lon="24.95818">
        <ele>220.556969</ele>
        <time>2022-03-03T10:02:39.438Z</time>
      </trkpt>
      <trkpt lat="42.0676" lon="24.95816">
        <ele>221.529185</ele>
        <time>2022-03-03T10:02:46.419Z</time>
      </trkpt>
      <trkpt lat="42.0677" lon="24.95815">
        <ele>222.507771</ele>
        <time>2022-03-03T10:02:53.434Z</time>
      </trkpt>
      <trkpt lat="42.0678" lon="24.9581">
        <ele>223.478878</ele>
        <time>2022-03-03T10:03:00.455Z</time>
      </trkpt>
      <trkpt lat="42.06788" lon="24.95803">
        <ele>224.441092</ele>
        <time>2022-03-03T10:03:07.442Z</time>
      </trkpt>
      <trkpt lat="42.06795" lon="24.95794">
        <ele>225.329347</ele>
        <time>2022-03-03T10:03:14.408Z</time>
      </trkpt>
      <trkpt lat="42.06799" lon="24.95782">
        <ele>226.248438</ele>
        <time>2022-03-03T10:03:21.430Z</time>
      </trkpt>
      <trkpt lat="42.06804" lon="24.9577">
        <ele>227.193304</ele>
        <time>2022-03-03T10:03:27.415Z</time>
      </trkpt>
      <trkpt lat="42.06808" lon="24.95758">
        <ele>228.135448</ele>
        <time>2022-03-03T10:03:33.418Z</time>
      </trkpt>
      <trkpt lat="42.06813" lon="24.95747">
        <ele>229.036284</ele>
        <time>2022-03-03T10:03:40.444Z</time>
      </trkpt>
      <trkpt lat="42.06817" lon="24.95736">
        <ele>229.917728</ele>
        <time>2022-03-03T10:03:47.438Z</time>
      </trkpt>
      <trkpt lat="42.06822" lon="24.95724">
        <ele>230.854942</ele>
        <time>2022-03-03T10:03:53.411Z</time>
      </trkpt>
      <trkpt lat="42.06827" lon="24.95713">
        <ele>231.788539</ele>
        <time>2022-03-03T10:04:01.408Z</time>
      </trkpt>
      <trkpt lat="42.06832" lon="24.95701">
        <ele>232.447523</ele>
        <time>2022-03-03T10:04:08.421Z</time>
      </trkpt>
      <trkpt lat="42.06836" lon="24.9569">
        <ele>232.653878</ele>
        <time>2022-03-03T10:04:15.434Z</time>
      </trkpt>
      <trkpt lat="42.06831" lon="24.95678">
        <ele>232.88851</ele>
        <time>2022-03-03T10:04:22.419Z</time>
      </trkpt>
      <trkpt lat="42.06823" lon="24.95668">
        <ele>233.124788</ele>
        <time>2022-03-03T10:04:27.424Z</time>
      </trkpt>
      <trkpt lat="42.06816" lon="24.95659">
        <ele>233.335962</ele>
        <time>2022-03-03T10:04:31.424Z</time>
      </trkpt>
      <trkpt lat="42.0681" lon="24.9565">
        <ele>233.546778</ele>
        <time>2022-03-03T10:04:35.449Z</time>
      </trkpt>
      <trkpt lat="42.06803" lon="24.9564">
        <ele>233.772182</ele>
        <time>2022-03-03T10:04:39.464Z</time>
      </trkpt>
      <trkpt lat="42.06795" lon="24.9563">
        <ele>234.025644</ele>
        <time>2022-03-03T10:04:43.417Z</time>
      </trkpt>
      <trkpt lat="42.06787" lon="24.95621">
        <ele>234.250307</ele>
        <time>2022-03-03T10:04:47.408Z</time>
      </trkpt>
      <trkpt lat="42.0678" lon="24.95613">
        <ele>234.466728</ele>
        <time>2022-03-03T10:04:51.425Z</time>
      </trkpt>
      <trkpt lat="42.06773" lon="24.95603">
        <ele>234.691662</ele>
        <time>2022-03-03T10:04:56.430Z</time>
      </trkpt>
      <trkpt lat="42.06766" lon="24.95592">
        <ele>234.926924</ele>
        <time>2022-03-03T10:05:03.424Z</time>
      </trkpt>
      <trkpt lat="42.06763" lon="24.9558">
        <ele>235.147802</ele>
        <time>2022-03-03T10:05:10.409Z</time>
      </trkpt>
      <trkpt lat="42.06773" lon="24.95573">
        <ele>235.397531</ele>
        <time>2022-03-03T10:34:45.436Z</time>
      </trkpt>
      <trkpt lat="42.06777" lon="24.9556">
        <ele>235.629228</ele>
        <time>2022-03-03T10:34:49.469Z</time>
      </trkpt>
      <trkpt lat="42.06782" lon="24.95546">
        <ele>235.877003</ele>
        <time>2022-03-03T10:34:53.477Z</time>
      </trkpt>
      <trkpt lat="42.06786" lon="24.95535">
        <ele>236.079899</ele>
        <time>2022-03-03T10:34:56.427Z</time>
      </trkpt>
      <trkpt lat="42.06791" lon="24.95523">
        <ele>236.314532</ele>
        <time>2022-03-03T10:34:59.458Z</time>
      </trkpt>
      <trkpt lat="42.06795" lon="24.95512">
        <ele>236.466446</ele>
        <time>2022-03-03T10:35:02.427Z</time>
      </trkpt>
      <trkpt lat="42.06799" lon="24.95497">
        <ele>236.624609</ele>
        <time>2022-03-03T10:35:06.425Z</time>
      </trkpt>
      <trkpt lat="42.06804" lon="24.95483">
        <ele>236.786791</ele>
        <time>2022-03-03T10:35:10.421Z</time>
      </trkpt>
      <trkpt lat="42.06809" lon="24.9547">
        <ele>236.93457</ele>
        <time>2022-03-03T10:35:14.429Z</time>
      </trkpt>
      <trkpt lat="42.06813" lon="24.95455">
        <ele>237.095996</ele>
        <time>2022-03-03T10:35:18.429Z</time>
      </trkpt>
      <trkpt lat="42.06816" lon="24.95443">
        <ele>237.218354</ele>
        <time>2022-03-03T10:35:21.458Z</time>
      </trkpt>
      <trkpt lat="42.06821" lon="24.95431">
        <ele>237.357698</ele>
        <time>2022-03-03T10:35:24.426Z</time>
      </trkpt>
      <trkpt lat="42.06825" lon="24.9542">
        <ele>237.483935</ele>
        <time>2022-03-03T10:35:27.396Z</time>
      </trkpt>
      <trkpt lat="42.06829" lon="24.95406">
        <ele>237.64575</ele>
        <time>2022-03-03T10:35:31.431Z</time>
      </trkpt>
      <trkpt lat="42.06834" lon="24.95391">
        <ele>237.809564</ele>
        <time>2022-03-03T10:35:35.454Z</time>
      </trkpt>
      <trkpt lat="42.06839" lon="24.95376">
        <ele>237.970817</ele>
        <time>2022-03-03T10:35:39.418Z</time>
      </trkpt>
      <trkpt lat="42.06843" lon="24.95362">
        <ele>238.13035</ele>
        <time>2022-03-03T10:35:43.427Z</time>
      </trkpt>
      <trkpt lat="42.06847" lon="24.95347">
        <ele>238.290912</ele>
        <time>2022-03-03T10:35:47.441Z</time>
      </trkpt>
      <trkpt lat="42.06852" lon="24.95335">
        <ele>238.425137</ele>
        <time>2022-03-03T10:35:50.430Z</time>
      </trkpt>
      <trkpt lat="42.06857" lon="24.95324">
        <ele>238.557583</ele>
        <time>2022-03-03T10:35:53.424Z</time>
      </trkpt>
      <trkpt lat="42.06861" lon="24.95312">
        <ele>238.694432</ele>
        <time>2022-03-03T10:35:56.438Z</time>
      </trkpt>
      <trkpt lat="42.06866" lon="24.953">
        <ele>238.835086</ele>
        <time>2022-03-03T10:35:59.427Z</time>
      </trkpt>
      <trkpt lat="42.06871" lon="24.95287">
        <ele>238.785917</ele>
        <time>2022-03-03T10:36:02.432Z</time>
      </trkpt>
      <trkpt lat="42.06875" lon="24.95276">
        <ele>238.73547</ele>
        <time>2022-03-03T10:36:05.426Z</time>
      </trkpt>
      <trkpt lat="42.06878" lon="24.95264">
        <ele>238.684545</ele>
        <time>2022-03-03T10:36:08.419Z</time>
      </trkpt>
      <trkpt lat="42.06882" lon="24.95251">
        <ele>238.628676</ele>
        <time>2022-03-03T10:36:11.425Z</time>
      </trkpt>
      <trkpt lat="42.06886" lon="24.95239">
        <ele>238.573464</ele>
        <time>2022-03-03T10:36:14.419Z</time>
      </trkpt>
      <trkpt lat="42.06891" lon="24.95227">
        <ele>238.51934</ele>
        <time>2022-03-03T10:36:17.434Z</time>
      </trkpt>
      <trkpt lat="42.06896" lon="24.95215">
        <ele>238.465571</ele>
        <time>2022-03-03T10:36:20.446Z</time>
      </trkpt>
      <trkpt lat="42.069" lon="24.95204">
        <ele>238.413827</ele>
        <time>2022-03-03T10:36:23.434Z</time>
      </trkpt>
      <trkpt lat="42.06904" lon="24.9519">
        <ele>238.355402</ele>
        <time>2022-03-03T10:36:26.423Z</time>
      </trkpt>
      <trkpt lat="42.06908" lon="24.95176">
        <ele>238.297541</ele>
        <time>2022-03-03T10:36:29.462Z</time>
      </trkpt>
      <trkpt lat="42.06912" lon="24.95162">
        <ele>238.235505</ele>
        <time>2022-03-03T10:36:32.441Z</time>
      </trkpt>
      <trkpt lat="42.06917" lon="24.95148">
        <ele>238.175833</ele>
        <time>2022-03-03T10:36:35.429Z</time>
      </trkpt>
      <trkpt lat="42.06922" lon="24.95134">
        <ele>238.112852</ele>
        <time>2022-03-03T10:36:38.435Z</time>
      </trkpt>
      <trkpt lat="42.06927" lon="24.9512">
        <ele>238.048197</ele>
        <time>2022-03-03T10:36:41.422Z</time>
      </trkpt>
      <trkpt lat="42.06932" lon="24.95106">
        <ele>237.984257</ele>
        <time>2022-03-03T10:36:44.423Z</time>
      </trkpt>
      <trkpt lat="42.06937" lon="24.95092">
        <ele>237.921399</ele>
        <time>2022-03-03T10:36:47.427Z</time>
      </trkpt>
      <trkpt lat="42.06942" lon="24.95078">
        <ele>237.827953</ele>
        <time>2022-03-03T10:36:50.436Z</time>
      </trkpt>
      <trkpt lat="42.06947" lon="24.95063">
        <ele>237.467862</ele>
        <time>2022-03-03T10:36:53.411Z</time>
      </trkpt>
      <trkpt lat="42.06952" lon="24.95048">
        <ele>237.10915</ele>
        <time>2022-03-03T10:36:56.441Z</time>
      </trkpt>
      <trkpt lat="42.06957" lon="24.95035">
        <ele>236.786263</ele>
        <time>2022-03-03T10:36:59.429Z</time>
      </trkpt>
      <trkpt lat="42.06962" lon="24.95021">
        <ele>236.451697</ele>
        <time>2022-03-03T10:37:02.441Z</time>
      </trkpt>
      <trkpt lat="42.06969" lon="24.95005">
        <ele>236.060891</ele>
        <time>2022-03-03T10:37:05.443Z</time>
      </trkpt>
      <trkpt lat="42.06974" lon="24.94994">
        <ele>235.767192</ele>
        <time>2022-03-03T10:37:07.433Z</time>
      </trkpt>
      <trkpt lat="42.06981" lon="24.94983">
        <ele>235.452603</ele>
        <time>2022-03-03T10:37:09.412Z</time>
      </trkpt>
      <trkpt lat="42.06988" lon="24.94973">
        <ele>235.143237</ele>
        <time>2022-03-03T10:37:11.423Z</time>
      </trkpt>
      <trkpt lat="42.06997" lon="24.94964">
        <ele>234.817972</ele>
        <time>2022-03-03T10:37:13.430Z</time>
      </trkpt>
      <trkpt lat="42.07006" lon="24.94956">
        <ele>234.497859</ele>
        <time>2022-03-03T10:37:15.423Z</time>
      </trkpt>
      <trkpt lat="42.07015" lon="24.94949">
        <ele>234.195882</ele>
        <time>2022-03-03T10:37:17.437Z</time>
      </trkpt>
      <trkpt lat="42.07024" lon="24.94941">
        <ele>233.885425</ele>
        <time>2022-03-03T10:37:19.462Z</time>
      </trkpt>
      <trkpt lat="42.07032" lon="24.94933">
        <ele>233.58608</ele>
        <time>2022-03-03T10:37:21.441Z</time>
      </trkpt>
      <trkpt lat="42.0704" lon="24.94927">
        <ele>233.31836</ele>
        <time>2022-03-03T10:37:23.431Z</time>
      </trkpt>
      <trkpt lat="42.0705" lon="24.94918">
        <ele>232.946926</ele>
        <time>2022-03-03T10:37:26.427Z</time>
      </trkpt>
      <trkpt lat="42.0706" lon="24.94909">
        <ele>232.613374</ele>
        <time>2022-03-03T10:37:29.412Z</time>
      </trkpt>
      <trkpt lat="42.0707" lon="24.949">
        <ele>232.362487</ele>
        <time>2022-03-03T10:37:32.426Z</time>
      </trkpt>
      <trkpt lat="42.0708" lon="24.94891">
        <ele>232.119612</ele>
        <time>2022-03-03T10:37:35.427Z</time>
      </trkpt>
      <trkpt lat="42.07091" lon="24.94881">
        <ele>231.865222</ele>
        <time>2022-03-03T10:37:38.424Z</time>
      </trkpt>
      <trkpt lat="42.07102" lon="24.94872">
        <ele>231.605827</ele>
        <time>2022-03-03T10:37:41.428Z</time>
      </trkpt>
      <trkpt lat="42.0711" lon="24.94865">
        <ele>231.420228</ele>
        <time>2022-03-03T10:37:43.439Z</time>
      </trkpt>
      <trkpt lat="42.07118" lon="24.94859">
        <ele>231.229543</ele>
        <time>2022-03-03T10:37:45.427Z</time>
      </trkpt>
      <trkpt lat="42.07126" lon="24.94852">
        <ele>231.039036</ele>
        <time>2022-03-03T10:37:47.422Z</time>
      </trkpt>
      <trkpt lat="42.07135" lon="24.94845">
        <ele>230.840386</ele>
        <time>2022-03-03T10:37:49.426Z</time>
      </trkpt>
      <trkpt lat="42.07144" lon="24.94837">
        <ele>230.634365</ele>
        <time>2022-03-03T10:37:51.427Z</time>
      </trkpt>
      <trkpt lat="42.07152" lon="24.94829">
        <ele>230.424327</ele>
        <time>2022-03-03T10:37:53.432Z</time>
      </trkpt>
      <trkpt lat="42.07161" lon="24.94821">
        <ele>230.215107</ele>
        <time>2022-03-03T10:37:55.422Z</time>
      </trkpt>
      <trkpt lat="42.0717" lon="24.94813">
        <ele>229.999318</ele>
        <time>2022-03-03T10:37:57.442Z</time>
      </trkpt>
      <trkpt lat="42.07179" lon="24.94806">
        <ele>229.790909</ele>
        <time>2022-03-03T10:37:59.436Z</time>
      </trkpt>
      <trkpt lat="42.07188" lon="24.94798">
        <ele>229.580871</ele>
        <time>2022-03-03T10:38:01.439Z</time>
      </trkpt>
      <trkpt lat="42.07197" lon="24.9479">
        <ele>229.361674</ele>
        <time>2022-03-03T10:38:03.459Z</time>
      </trkpt>
      <trkpt lat="42.07206" lon="24.94782">
        <ele>229.152407</ele>
        <time>2022-03-03T10:38:05.422Z</time>
      </trkpt>
      <trkpt lat="42.07214" lon="24.94775">
        <ele>228.95447</ele>
        <time>2022-03-03T10:38:07.415Z</time>
      </trkpt>
      <trkpt lat="42.07223" lon="24.94767">
        <ele>228.73769</ele>
        <time>2022-03-03T10:38:09.427Z</time>
      </trkpt>
      <trkpt lat="42.07232" lon="24.9476">
        <ele>228.516094</ele>
        <time>2022-03-03T10:38:11.467Z</time>
      </trkpt>
      <trkpt lat="42.0724" lon="24.94753">
        <ele>228.297957</ele>
        <time>2022-03-03T10:38:13.432Z</time>
      </trkpt>
      <trkpt lat="42.07249" lon="24.94745">
        <ele>228.076731</ele>
        <time>2022-03-03T10:38:15.426Z</time>
      </trkpt>
      <trkpt lat="42.07258" lon="24.94738">
        <ele>227.859045</ele>
        <time>2022-03-03T10:38:17.432Z</time>
      </trkpt>
      <trkpt lat="42.07266" lon="24.94731">
        <ele>227.644779</ele>
        <time>2022-03-03T10:38:19.429Z</time>
      </trkpt>
      <trkpt lat="42.07274" lon="24.94723">
        <ele>227.428883</ele>
        <time>2022-03-03T10:38:21.437Z</time>
      </trkpt>
      <trkpt lat="42.07283" lon="24.94716">
        <ele>227.210135</ele>
        <time>2022-03-03T10:38:23.440Z</time>
      </trkpt>
      <trkpt lat="42.07291" lon="24.9471">
        <ele>227.006305</ele>
        <time>2022-03-03T10:38:25.472Z</time>
      </trkpt>
      <trkpt lat="42.07299" lon="24.94702">
        <ele>226.796633</ele>
        <time>2022-03-03T10:38:27.417Z</time>
      </trkpt>
      <trkpt lat="42.07308" lon="24.94695">
        <ele>226.581611</ele>
        <time>2022-03-03T10:38:29.429Z</time>
      </trkpt>
      <trkpt lat="42.07317" lon="24.94687">
        <ele>226.349572</ele>
        <time>2022-03-03T10:38:31.489Z</time>
      </trkpt>
      <trkpt lat="42.07326" lon="24.9468">
        <ele>226.12829</ele>
        <time>2022-03-03T10:38:33.415Z</time>
      </trkpt>
      <trkpt lat="42.07334" lon="24.94672">
        <ele>225.90881</ele>
        <time>2022-03-03T10:38:35.426Z</time>
      </trkpt>
      <trkpt lat="42.07342" lon="24.94666">
        <ele>225.710492</ele>
        <time>2022-03-03T10:38:37.436Z</time>
      </trkpt>
      <trkpt lat="42.07353" lon="24.94655">
        <ele>225.420862</ele>
        <time>2022-03-03T10:38:40.428Z</time>
      </trkpt>
      <trkpt lat="42.07362" lon="24.94648">
        <ele>225.204773</ele>
        <time>2022-03-03T10:38:42.486Z</time>
      </trkpt>
      <trkpt lat="42.07371" lon="24.94642">
        <ele>225.144436</ele>
        <time>2022-03-03T10:38:44.413Z</time>
      </trkpt>
      <trkpt lat="42.0738" lon="24.94634">
        <ele>225.127933</ele>
        <time>2022-03-03T10:38:46.435Z</time>
      </trkpt>
      <trkpt lat="42.07389" lon="24.94627">
        <ele>225.110961</ele>
        <time>2022-03-03T10:38:48.424Z</time>
      </trkpt>
      <trkpt lat="42.07398" lon="24.9462">
        <ele>225.095144</ele>
        <time>2022-03-03T10:38:50.446Z</time>
      </trkpt>
      <trkpt lat="42.07406" lon="24.94613">
        <ele>225.079659</ele>
        <time>2022-03-03T10:38:52.444Z</time>
      </trkpt>
      <trkpt lat="42.07414" lon="24.94605">
        <ele>225.064147</ele>
        <time>2022-03-03T10:38:54.426Z</time>
      </trkpt>
      <trkpt lat="42.07421" lon="24.94597">
        <ele>225.049252</ele>
        <time>2022-03-03T10:38:56.430Z</time>
      </trkpt>
      <trkpt lat="42.07429" lon="24.9459">
        <ele>225.034423</ele>
        <time>2022-03-03T10:38:58.435Z</time>
      </trkpt>
      <trkpt lat="42.07437" lon="24.94583">
        <ele>225.019395</ele>
        <time>2022-03-03T10:39:00.436Z</time>
      </trkpt>
      <trkpt lat="42.07444" lon="24.94576">
        <ele>225.004546</ele>
        <time>2022-03-03T10:39:02.436Z</time>
      </trkpt>
      <trkpt lat="42.07452" lon="24.94568">
        <ele>224.98973</ele>
        <time>2022-03-03T10:39:04.505Z</time>
      </trkpt>
      <trkpt lat="42.07459" lon="24.9456">
        <ele>224.974887</ele>
        <time>2022-03-03T10:39:06.432Z</time>
      </trkpt>
      <trkpt lat="42.07466" lon="24.94552">
        <ele>224.96012</ele>
        <time>2022-03-03T10:39:08.425Z</time>
      </trkpt>
      <trkpt lat="42.07473" lon="24.94543">
        <ele>224.945006</ele>
        <time>2022-03-03T10:39:10.433Z</time>
      </trkpt>
      <trkpt lat="42.07481" lon="24.94535">
        <ele>224.929376</ele>
        <time>2022-03-03T10:39:12.427Z</time>
      </trkpt>
      <trkpt lat="42.07489" lon="24.94526">
        <ele>224.913944</ele>
        <time>2022-03-03T10:39:14.429Z</time>
      </trkpt>
      <trkpt lat="42.07496" lon="24.94518">
        <ele>224.898905</ele>
        <time>2022-03-03T10:39:16.423Z</time>
      </trkpt>
      <trkpt lat="42.07504" lon="24.9451">
        <ele>224.883375</ele>
        <time>2022-03-03T10:39:18.435Z</time>
      </trkpt>
      <trkpt lat="42.07512" lon="24.94501">
        <ele>224.894059</ele>
        <time>2022-03-03T10:39:20.423Z</time>
      </trkpt>
      <trkpt lat="42.0752" lon="24.94493">
        <ele>224.957938</ele>
        <time>2022-03-03T10:39:22.435Z</time>
      </trkpt>
      <trkpt lat="42.07527" lon="24.94485">
        <ele>225.018054</ele>
        <time>2022-03-03T10:39:24.420Z</time>
      </trkpt>
      <trkpt lat="42.07535" lon="24.94476">
        <ele>225.077884</ele>
        <time>2022-03-03T10:39:26.490Z</time>
      </trkpt>
      <trkpt lat="42.07542" lon="24.94468">
        <ele>225.134855</ele>
        <time>2022-03-03T10:39:28.452Z</time>
      </trkpt>
      <trkpt lat="42.07549" lon="24.94461">
        <ele>225.190466</ele>
        <time>2022-03-03T10:39:30.446Z</time>
      </trkpt>
      <trkpt lat="42.07559" lon="24.94449">
        <ele>225.274539</ele>
        <time>2022-03-03T10:39:33.434Z</time>
      </trkpt>
      <trkpt lat="42.07566" lon="24.94441">
        <ele>225.330276</ele>
        <time>2022-03-03T10:39:35.433Z</time>
      </trkpt>
      <trkpt lat="42.07576" lon="24.94429">
        <ele>225.412049</ele>
        <time>2022-03-03T10:39:38.446Z</time>
      </trkpt>
      <trkpt lat="42.07586" lon="24.94418">
        <ele>225.489451</ele>
        <time>2022-03-03T10:39:41.426Z</time>
      </trkpt>
      <trkpt lat="42.07596" lon="24.94408">
        <ele>225.566959</ele>
        <time>2022-03-03T10:39:44.419Z</time>
      </trkpt>
      <trkpt lat="42.07605" lon="24.94397">
        <ele>225.640464</ele>
        <time>2022-03-03T10:39:47.428Z</time>
      </trkpt>
      <trkpt lat="42.07614" lon="24.94386">
        <ele>225.716408</ele>
        <time>2022-03-03T10:39:50.429Z</time>
      </trkpt>
      <trkpt lat="42.07623" lon="24.94376">
        <ele>225.79098</ele>
        <time>2022-03-03T10:39:53.436Z</time>
      </trkpt>
      <trkpt lat="42.07632" lon="24.94365">
        <ele>225.863888</ele>
        <time>2022-03-03T10:39:56.435Z</time>
      </trkpt>
      <trkpt lat="42.07641" lon="24.94355">
        <ele>225.935914</ele>
        <time>2022-03-03T10:39:59.442Z</time>
      </trkpt>
      <trkpt lat="42.0765" lon="24.94345">
        <ele>225.981641</ele>
        <time>2022-03-03T10:40:02.432Z</time>
      </trkpt>
      <trkpt lat="42.0766" lon="24.94335">
        <ele>225.977185</ele>
        <time>2022-03-03T10:40:05.446Z</time>
      </trkpt>
      <trkpt lat="42.07669" lon="24.94325">
        <ele>225.973066</ele>
        <time>2022-03-03T10:40:08.434Z</time>
      </trkpt>
      <trkpt lat="42.07678" lon="24.94314">
        <ele>225.968908</ele>
        <time>2022-03-03T10:40:11.466Z</time>
      </trkpt>
      <trkpt lat="42.07688" lon="24.94303">
        <ele>225.964376</ele>
        <time>2022-03-03T10:40:14.420Z</time>
      </trkpt>
      <trkpt lat="42.07698" lon="24.94292">
        <ele>225.959887</ele>
        <time>2022-03-03T10:40:17.466Z</time>
      </trkpt>
      <trkpt lat="42.07707" lon="24.94282">
        <ele>225.955592</ele>
        <time>2022-03-03T10:40:20.445Z</time>
      </trkpt>
      <trkpt lat="42.07716" lon="24.94271">
        <ele>225.951375</ele>
        <time>2022-03-03T10:40:23.415Z</time>
      </trkpt>
      <trkpt lat="42.07726" lon="24.94261">
        <ele>225.947136</ele>
        <time>2022-03-03T10:40:26.463Z</time>
      </trkpt>
      <trkpt lat="42.07734" lon="24.94251">
        <ele>225.943163</ele>
        <time>2022-03-03T10:40:29.446Z</time>
      </trkpt>
      <trkpt lat="42.07744" lon="24.9424">
        <ele>225.938886</ele>
        <time>2022-03-03T10:40:32.417Z</time>
      </trkpt>
      <trkpt lat="42.07753" lon="24.94229">
        <ele>225.934446</ele>
        <time>2022-03-03T10:40:35.430Z</time>
      </trkpt>
      <trkpt lat="42.07763" lon="24.94218">
        <ele>225.929914</ele>
        <time>2022-03-03T10:40:38.439Z</time>
      </trkpt>
      <trkpt lat="42.07773" lon="24.94208">
        <ele>225.925713</ele>
        <time>2022-03-03T10:40:41.411Z</time>
      </trkpt>
      <trkpt lat="42.07782" lon="24.94199">
        <ele>225.921828</ele>
        <time>2022-03-03T10:40:44.419Z</time>
      </trkpt>
      <trkpt lat="42.07791" lon="24.94189">
        <ele>225.934111</ele>
        <time>2022-03-03T10:40:47.434Z</time>
      </trkpt>
      <trkpt lat="42.07799" lon="24.94179">
        <ele>225.958777</ele>
        <time>2022-03-03T10:40:50.421Z</time>
      </trkpt>
      <trkpt lat="42.07809" lon="24.9417">
        <ele>225.984668</ele>
        <time>2022-03-03T10:40:53.466Z</time>
      </trkpt>
      <trkpt lat="42.07818" lon="24.9416">
        <ele>226.010344</ele>
        <time>2022-03-03T10:40:56.418Z</time>
      </trkpt>
      <trkpt lat="42.07827" lon="24.94151">
        <ele>226.03414</ele>
        <time>2022-03-03T10:40:59.424Z</time>
      </trkpt>
      <trkpt lat="42.07836" lon="24.94141">
        <ele>226.060886</ele>
        <time>2022-03-03T10:41:02.474Z</time>
      </trkpt>
      <trkpt lat="42.07844" lon="24.94132">
        <ele>226.081655</ele>
        <time>2022-03-03T10:41:04.425Z</time>
      </trkpt>
      <trkpt lat="42.07854" lon="24.94121">
        <ele>226.109712</ele>
        <time>2022-03-03T10:41:07.427Z</time>
      </trkpt>
      <trkpt lat="42.07864" lon="24.9411">
        <ele>226.137902</ele>
        <time>2022-03-03T10:41:10.423Z</time>
      </trkpt>
      <trkpt lat="42.07874" lon="24.941">
        <ele>226.165495</ele>
        <time>2022-03-03T10:41:13.472Z</time>
      </trkpt>
      <trkpt lat="42.07884" lon="24.94089">
        <ele>226.193281</ele>
        <time>2022-03-03T10:41:16.441Z</time>
      </trkpt>
      <trkpt lat="42.07893" lon="24.94079">
        <ele>226.219235</ele>
        <time>2022-03-03T10:41:19.449Z</time>
      </trkpt>
      <trkpt lat="42.07901" lon="24.94069">
        <ele>226.243667</ele>
        <time>2022-03-03T10:41:22.435Z</time>
      </trkpt>
      <trkpt lat="42.07911" lon="24.94059">
        <ele>226.26996</ele>
        <time>2022-03-03T10:41:25.437Z</time>
      </trkpt>
      <trkpt lat="42.0792" lon="24.94049">
        <ele>226.296895</ele>
        <time>2022-03-03T10:41:28.430Z</time>
      </trkpt>
      <trkpt lat="42.0793" lon="24.94039">
        <ele>226.269162</ele>
        <time>2022-03-03T10:41:31.436Z</time>
      </trkpt>
      <trkpt lat="42.0794" lon="24.94029">
        <ele>226.178495</ele>
        <time>2022-03-03T10:41:34.421Z</time>
      </trkpt>
      <trkpt lat="42.07949" lon="24.94019">
        <ele>226.08758</ele>
        <time>2022-03-03T10:41:37.424Z</time>
      </trkpt>
      <trkpt lat="42.07959" lon="24.94009">
        <ele>225.995017</ele>
        <time>2022-03-03T10:41:40.433Z</time>
      </trkpt>
      <trkpt lat="42.07968" lon="24.93998">
        <ele>225.905246</ele>
        <time>2022-03-03T10:41:43.425Z</time>
      </trkpt>
      <trkpt lat="42.07976" lon="24.93988">
        <ele>225.818018</ele>
        <time>2022-03-03T10:41:46.428Z</time>
      </trkpt>
      <trkpt lat="42.07985" lon="24.93979">
        <ele>225.731022</ele>
        <time>2022-03-03T10:41:49.439Z</time>
      </trkpt>
      <trkpt lat="42.07993" lon="24.9397">
        <ele>225.653135</ele>
        <time>2022-03-03T10:41:52.433Z</time>
      </trkpt>
      <trkpt lat="42.08003" lon="24.93959">
        <ele>225.556196</ele>
        <time>2022-03-03T10:41:55.440Z</time>
      </trkpt>
      <trkpt lat="42.0801" lon="24.93951">
        <ele>225.485026</ele>
        <time>2022-03-03T10:41:57.402Z</time>
      </trkpt>
      <trkpt lat="42.08018" lon="24.93944">
        <ele>225.416089</ele>
        <time>2022-03-03T10:41:59.430Z</time>
      </trkpt>
      <trkpt lat="42.08028" lon="24.93934">
        <ele>225.317932</ele>
        <time>2022-03-03T10:42:02.461Z</time>
      </trkpt>
      <trkpt lat="42.08038" lon="24.93923">
        <ele>225.220739</ele>
        <time>2022-03-03T10:42:05.473Z</time>
      </trkpt>
      <trkpt lat="42.08048" lon="24.93911">
        <ele>225.119167</ele>
        <time>2022-03-03T10:42:08.435Z</time>
      </trkpt>
      <trkpt lat="42.08058" lon="24.93901">
        <ele>225.019191</ele>
        <time>2022-03-03T10:42:11.453Z</time>
      </trkpt>
      <trkpt lat="42.08068" lon="24.9389">
        <ele>224.911093</ele>
        <time>2022-03-03T10:42:14.419Z</time>
      </trkpt>
      <trkpt lat="42.08078" lon="24.93879">
        <ele>224.712709</ele>
        <time>2022-03-03T10:42:17.442Z</time>
      </trkpt>
      <trkpt lat="42.08086" lon="24.93872">
        <ele>224.574068</ele>
        <time>2022-03-03T10:42:19.425Z</time>
      </trkpt>
      <trkpt lat="42.08093" lon="24.93864">
        <ele>224.433973</ele>
        <time>2022-03-03T10:42:21.422Z</time>
      </trkpt>
      <trkpt lat="42.08104" lon="24.93853">
        <ele>224.232524</ele>
        <time>2022-03-03T10:42:24.413Z</time>
      </trkpt>
      <trkpt lat="42.08114" lon="24.93842">
        <ele>224.038154</ele>
        <time>2022-03-03T10:42:27.436Z</time>
      </trkpt>
      <trkpt lat="42.08124" lon="24.93831">
        <ele>223.833636</ele>
        <time>2022-03-03T10:42:30.443Z</time>
      </trkpt>
      <trkpt lat="42.08132" lon="24.93823">
        <ele>223.696091</ele>
        <time>2022-03-03T10:42:32.413Z</time>
      </trkpt>
      <trkpt lat="42.08142" lon="24.93813">
        <ele>223.501457</ele>
        <time>2022-03-03T10:42:35.422Z</time>
      </trkpt>
      <trkpt lat="42.08152" lon="24.93802">
        <ele>223.31074</ele>
        <time>2022-03-03T10:42:38.425Z</time>
      </trkpt>
      <trkpt lat="42.08161" lon="24.93792">
        <ele>223.129018</ele>
        <time>2022-03-03T10:42:41.434Z</time>
      </trkpt>
      <trkpt lat="42.08169" lon="24.93783">
        <ele>222.967329</ele>
        <time>2022-03-03T10:42:44.417Z</time>
      </trkpt>
      <trkpt lat="42.08177" lon="24.93773">
        <ele>222.804537</ele>
        <time>2022-03-03T10:42:47.443Z</time>
      </trkpt>
      <trkpt lat="42.08186" lon="24.93763">
        <ele>222.632413</ele>
        <time>2022-03-03T10:42:50.484Z</time>
      </trkpt>
      <trkpt lat="42.08195" lon="24.93752">
        <ele>222.453103</ele>
        <time>2022-03-03T10:42:53.448Z</time>
      </trkpt>
      <trkpt lat="42.08203" lon="24.93741">
        <ele>222.279477</ele>
        <time>2022-03-03T10:42:56.427Z</time>
      </trkpt>
      <trkpt lat="42.08212" lon="24.9373">
        <ele>222.228633</ele>
        <time>2022-03-03T10:42:59.435Z</time>
      </trkpt>
      <trkpt lat="42.08221" lon="24.9372">
        <ele>222.222634</ele>
        <time>2022-03-03T10:43:02.456Z</time>
      </trkpt>
      <trkpt lat="42.0823" lon="24.9371">
        <ele>222.216829</ele>
        <time>2022-03-03T10:43:05.426Z</time>
      </trkpt>
      <trkpt lat="42.08239" lon="24.93699">
        <ele>222.210739</ele>
        <time>2022-03-03T10:43:08.443Z</time>
      </trkpt>
      <trkpt lat="42.08248" lon="24.93688">
        <ele>222.204814</ele>
        <time>2022-03-03T10:43:11.426Z</time>
      </trkpt>
      <trkpt lat="42.08256" lon="24.93677">
        <ele>222.199293</ele>
        <time>2022-03-03T10:43:14.432Z</time>
      </trkpt>
      <trkpt lat="42.08263" lon="24.93667">
        <ele>222.193861</ele>
        <time>2022-03-03T10:43:17.463Z</time>
      </trkpt>
      <trkpt lat="42.08271" lon="24.93658">
        <ele>222.18853</ele>
        <time>2022-03-03T10:43:20.444Z</time>
      </trkpt>
      <trkpt lat="42.08279" lon="24.93648">
        <ele>222.183126</ele>
        <time>2022-03-03T10:43:23.468Z</time>
      </trkpt>
      <trkpt lat="42.08287" lon="24.93638">
        <ele>222.177684</ele>
        <time>2022-03-03T10:43:26.437Z</time>
      </trkpt>
      <trkpt lat="42.08295" lon="24.93629">
        <ele>222.172291</ele>
        <time>2022-03-03T10:43:29.432Z</time>
      </trkpt>
      <trkpt lat="42.08303" lon="24.93619">
        <ele>222.167135</ele>
        <time>2022-03-03T10:43:32.433Z</time>
      </trkpt>
      <trkpt lat="42.08311" lon="24.93609">
        <ele>222.16148</ele>
        <time>2022-03-03T10:43:35.427Z</time>
      </trkpt>
      <trkpt lat="42.0832" lon="24.93599">
        <ele>222.155776</ele>
        <time>2022-03-03T10:43:38.466Z</time>
      </trkpt>
      <trkpt lat="42.08328" lon="24.93588">
        <ele>222.15022</ele>
        <time>2022-03-03T10:43:41.439Z</time>
      </trkpt>
      <trkpt lat="42.08335" lon="24.93578">
        <ele>222.144849</ele>
        <time>2022-03-03T10:43:44.410Z</time>
      </trkpt>
      <trkpt lat="42.08343" lon="24.93569">
        <ele>222.179973</ele>
        <time>2022-03-03T10:43:47.470Z</time>
      </trkpt>
      <trkpt lat="42.0835" lon="24.93559">
        <ele>222.237495</ele>
        <time>2022-03-03T10:43:50.435Z</time>
      </trkpt>
      <trkpt lat="42.08358" lon="24.93549">
        <ele>222.298732</ele>
        <time>2022-03-03T10:43:53.412Z</time>
      </trkpt>
      <trkpt lat="42.08367" lon="24.93539">
        <ele>222.359969</ele>
        <time>2022-03-03T10:43:56.434Z</time>
      </trkpt>
      <trkpt lat="42.08374" lon="24.9353">
        <ele>222.419818</ele>
        <time>2022-03-03T10:43:59.433Z</time>
      </trkpt>
      <trkpt lat="42.08382" lon="24.93521">
        <ele>222.476626</ele>
        <time>2022-03-03T10:44:02.447Z</time>
      </trkpt>
      <trkpt lat="42.08389" lon="24.93512">
        <ele>222.529115</ele>
        <time>2022-03-03T10:44:05.446Z</time>
      </trkpt>
      <trkpt lat="42.08397" lon="24.93503">
        <ele>222.585909</ele>
        <time>2022-03-03T10:44:08.422Z</time>
      </trkpt>
      <trkpt lat="42.08404" lon="24.93494">
        <ele>222.643959</ele>
        <time>2022-03-03T10:44:11.415Z</time>
      </trkpt>
      <trkpt lat="42.08412" lon="24.93484">
        <ele>222.704782</ele>
        <time>2022-03-03T10:44:14.508Z</time>
      </trkpt>
      <trkpt lat="42.0842" lon="24.93475">
        <ele>222.760753</ele>
        <time>2022-03-03T10:44:17.426Z</time>
      </trkpt>
      <trkpt lat="42.08427" lon="24.93465">
        <ele>222.817295</ele>
        <time>2022-03-03T10:44:20.431Z</time>
      </trkpt>
      <trkpt lat="42.08435" lon="24.93455">
        <ele>222.877468</ele>
        <time>2022-03-03T10:44:23.434Z</time>
      </trkpt>
      <trkpt lat="42.08442" lon="24.93446">
        <ele>222.93565</ele>
        <time>2022-03-03T10:44:26.440Z</time>
      </trkpt>
      <trkpt lat="42.08449" lon="24.93436">
        <ele>222.992863</ele>
        <time>2022-03-03T10:44:29.428Z</time>
      </trkpt>
      <trkpt lat="42.08458" lon="24.93423">
        <ele>223.062877</ele>
        <time>2022-03-03T10:44:32.457Z</time>
      </trkpt>
      <trkpt lat="42.08466" lon="24.93412">
        <ele>223.130543</ele>
        <time>2022-03-03T10:44:35.438Z</time>
      </trkpt>
      <trkpt lat="42.08475" lon="24.93403">
        <ele>223.230456</ele>
        <time>2022-03-03T10:44:38.428Z</time>
      </trkpt>
      <trkpt lat="42.08483" lon="24.93394">
        <ele>223.34781</ele>
        <time>2022-03-03T10:44:41.417Z</time>
      </trkpt>
      <trkpt lat="42.08491" lon="24.93384">
        <ele>223.462692</ele>
        <time>2022-03-03T10:44:44.425Z</time>
      </trkpt>
      <trkpt lat="42.08499" lon="24.93374">
        <ele>223.576221</ele>
        <time>2022-03-03T10:44:47.461Z</time>
      </trkpt>
      <trkpt lat="42.08507" lon="24.93365">
        <ele>223.685968</ele>
        <time>2022-03-03T10:44:50.422Z</time>
      </trkpt>
      <trkpt lat="42.08514" lon="24.93357">
        <ele>223.794133</ele>
        <time>2022-03-03T10:44:53.435Z</time>
      </trkpt>
      <trkpt lat="42.08521" lon="24.93347">
        <ele>223.905173</ele>
        <time>2022-03-03T10:44:56.441Z</time>
      </trkpt>
      <trkpt lat="42.08528" lon="24.93335">
        <ele>224.022474</ele>
        <time>2022-03-03T10:44:59.442Z</time>
      </trkpt>
      <trkpt lat="42.08535" lon="24.93324">
        <ele>224.137674</ele>
        <time>2022-03-03T10:45:02.422Z</time>
      </trkpt>
      <trkpt lat="42.0854" lon="24.93312">
        <ele>224.244668</ele>
        <time>2022-03-03T10:45:05.429Z</time>
      </trkpt>
      <trkpt lat="42.08545" lon="24.933">
        <ele>224.358336</ele>
        <time>2022-03-03T10:45:08.432Z</time>
      </trkpt>
      <trkpt lat="42.08552" lon="24.93287">
        <ele>224.486505</ele>
        <time>2022-03-03T10:45:11.415Z</time>
      </trkpt>
      <trkpt lat="42.08558" lon="24.93275">
        <ele>224.605014</ele>
        <time>2022-03-03T10:45:14.419Z</time>
      </trkpt>
      <trkpt lat="42.08564" lon="24.93262">
        <ele>224.728455</ele>
        <time>2022-03-03T10:45:17.421Z</time>
      </trkpt>
      <trkpt lat="42.0857" lon="24.93249">
        <ele>224.850315</ele>
        <time>2022-03-03T10:45:20.436Z</time>
      </trkpt>
      <trkpt lat="42.08576" lon="24.93235">
        <ele>224.972812</ele>
        <time>2022-03-03T10:45:23.438Z</time>
      </trkpt>
      <trkpt lat="42.08582" lon="24.93222">
        <ele>225.074837</ele>
        <time>2022-03-03T10:45:26.434Z</time>
      </trkpt>
      <trkpt lat="42.08588" lon="24.93208">
        <ele>224.836792</ele>
        <time>2022-03-03T10:45:29.415Z</time>
      </trkpt>
      <trkpt lat="42.08594" lon="24.93194">
        <ele>224.591124</ele>
        <time>2022-03-03T10:45:32.431Z</time>
      </trkpt>
      <trkpt lat="42.08601" lon="24.9318">
        <ele>224.340476</ele>
        <time>2022-03-03T10:45:35.425Z</time>
      </trkpt>
      <trkpt lat="42.08608" lon="24.93167">
        <ele>224.098456</ele>
        <time>2022-03-03T10:45:38.420Z</time>
      </trkpt>
      <trkpt lat="42.08615" lon="24.93152">
        <ele>223.845319</ele>
        <time>2022-03-03T10:45:41.432Z</time>
      </trkpt>
      <trkpt lat="42.08622" lon="24.93138">
        <ele>223.585318</ele>
        <time>2022-03-03T10:45:44.435Z</time>
      </trkpt>
      <trkpt lat="42.08629" lon="24.93123">
        <ele>223.323171</ele>
        <time>2022-03-03T10:45:47.429Z</time>
      </trkpt>
      <trkpt lat="42.08636" lon="24.93109">
        <ele>223.069874</ele>
        <time>2022-03-03T10:45:50.449Z</time>
      </trkpt>
      <trkpt lat="42.08643" lon="24.93094">
        <ele>222.808556</ele>
        <time>2022-03-03T10:45:53.437Z</time>
      </trkpt>
      <trkpt lat="42.08649" lon="24.9308">
        <ele>222.555662</ele>
        <time>2022-03-03T10:45:56.426Z</time>
      </trkpt>
      <trkpt lat="42.08655" lon="24.93065">
        <ele>222.312951</ele>
        <time>2022-03-03T10:45:59.443Z</time>
      </trkpt>
      <trkpt lat="42.08661" lon="24.93051">
        <ele>222.066655</ele>
        <time>2022-03-03T10:46:02.424Z</time>
      </trkpt>
      <trkpt lat="42.08668" lon="24.93037">
        <ele>221.822889</ele>
        <time>2022-03-03T10:46:05.424Z</time>
      </trkpt>
      <trkpt lat="42.08675" lon="24.93024">
        <ele>221.579436</ele>
        <time>2022-03-03T10:46:08.434Z</time>
      </trkpt>
      <trkpt lat="42.08681" lon="24.9301">
        <ele>221.4141</ele>
        <time>2022-03-03T10:46:11.435Z</time>
      </trkpt>
      <trkpt lat="42.08688" lon="24.92995">
        <ele>221.297295</ele>
        <time>2022-03-03T10:46:14.418Z</time>
      </trkpt>
      <trkpt lat="42.08694" lon="24.92982">
        <ele>221.190819</ele>
        <time>2022-03-03T10:46:17.458Z</time>
      </trkpt>
      <trkpt lat="42.087" lon="24.9297">
        <ele>221.093682</ele>
        <time>2022-03-03T10:46:20.470Z</time>
      </trkpt>
      <trkpt lat="42.08706" lon="24.92959">
        <ele>221.0037</ele>
        <time>2022-03-03T10:46:23.452Z</time>
      </trkpt>
      <trkpt lat="42.08712" lon="24.92946">
        <ele>220.901535</ele>
        <time>2022-03-03T10:46:26.418Z</time>
      </trkpt>
      <trkpt lat="42.08717" lon="24.92934">
        <ele>220.802763</ele>
        <time>2022-03-03T10:46:29.418Z</time>
      </trkpt>
      <trkpt lat="42.08723" lon="24.9292">
        <ele>220.698307</ele>
        <time>2022-03-03T10:46:32.441Z</time>
      </trkpt>
      <trkpt lat="42.08729" lon="24.92907">
        <ele>220.595369</ele>
        <time>2022-03-03T10:46:35.440Z</time>
      </trkpt>
      <trkpt lat="42.08735" lon="24.92894">
        <ele>220.490413</ele>
        <time>2022-03-03T10:46:38.427Z</time>
      </trkpt>
      <trkpt lat="42.08741" lon="24.9288">
        <ele>220.38182</ele>
        <time>2022-03-03T10:46:41.429Z</time>
      </trkpt>
      <trkpt lat="42.08748" lon="24.92866">
        <ele>220.265154</ele>
        <time>2022-03-03T10:46:44.419Z</time>
      </trkpt>
      <trkpt lat="42.08754" lon="24.92853">
        <ele>220.162796</ele>
        <time>2022-03-03T10:46:47.419Z</time>
      </trkpt>
      <trkpt lat="42.08761" lon="24.9284">
        <ele>220.055389</ele>
        <time>2022-03-03T10:46:50.481Z</time>
      </trkpt>
      <trkpt lat="42.08767" lon="24.92826">
        <ele>219.94746</ele>
        <time>2022-03-03T10:46:53.438Z</time>
      </trkpt>
      <trkpt lat="42.08772" lon="24.92813">
        <ele>219.845305</ele>
        <time>2022-03-03T10:46:56.400Z</time>
      </trkpt>
      <trkpt lat="42.08778" lon="24.928">
        <ele>219.731431</ele>
        <time>2022-03-03T10:46:59.446Z</time>
      </trkpt>
      <trkpt lat="42.08784" lon="24.92788">
        <ele>219.61534</ele>
        <time>2022-03-03T10:47:02.425Z</time>
      </trkpt>
      <trkpt lat="42.08791" lon="24.92775">
        <ele>219.490884</ele>
        <time>2022-03-03T10:47:05.435Z</time>
      </trkpt>
      <trkpt lat="42.08796" lon="24.92762">
        <ele>219.365785</ele>
        <time>2022-03-03T10:47:08.446Z</time>
      </trkpt>
      <trkpt lat="42.08803" lon="24.92748">
        <ele>219.239728</ele>
        <time>2022-03-03T10:47:11.427Z</time>
      </trkpt>
      <trkpt lat="42.08809" lon="24.92734">
        <ele>219.11151</ele>
        <time>2022-03-03T10:47:14.419Z</time>
      </trkpt>
      <trkpt lat="42.08814" lon="24.92721">
        <ele>218.99564</ele>
        <time>2022-03-03T10:47:17.432Z</time>
      </trkpt>
      <trkpt lat="42.0882" lon="24.92709">
        <ele>218.880635</ele>
        <time>2022-03-03T10:47:20.434Z</time>
      </trkpt>
      <trkpt lat="42.08826" lon="24.92697">
        <ele>218.768111</ele>
        <time>2022-03-03T10:47:23.416Z</time>
      </trkpt>
      <trkpt lat="42.08831" lon="24.92685">
        <ele>218.657275</ele>
        <time>2022-03-03T10:47:26.443Z</time>
      </trkpt>
      <trkpt lat="42.08837" lon="24.92672">
        <ele>218.537343</ele>
        <time>2022-03-03T10:47:29.426Z</time>
      </trkpt>
      <trkpt lat="42.08843" lon="24.92659">
        <ele>218.412729</ele>
        <time>2022-03-03T10:47:32.441Z</time>
      </trkpt>
      <trkpt lat="42.0885" lon="24.92646">
        <ele>218.292141</ele>
        <time>2022-03-03T10:47:35.423Z</time>
      </trkpt>
      <trkpt lat="42.08856" lon="24.92634">
        <ele>218.172083</ele>
        <time>2022-03-03T10:47:38.431Z</time>
      </trkpt>
      <trkpt lat="42.08862" lon="24.92621">
        <ele>218.049533</ele>
        <time>2022-03-03T10:47:41.410Z</time>
      </trkpt>
      <trkpt lat="42.08869" lon="24.92607">
        <ele>217.926447</ele>
        <time>2022-03-03T10:47:44.410Z</time>
      </trkpt>
      <trkpt lat="42.08875" lon="24.92593">
        <ele>217.881813</ele>
        <time>2022-03-03T10:47:47.439Z</time>
      </trkpt>
      <trkpt lat="42.08881" lon="24.92579">
        <ele>217.835067</ele>
        <time>2022-03-03T10:47:50.438Z</time>
      </trkpt>
      <trkpt lat="42.08889" lon="24.92565">
        <ele>217.79013</ele>
        <time>2022-03-03T10:47:53.484Z</time>
      </trkpt>
      <trkpt lat="42.08895" lon="24.92552">
        <ele>217.745924</ele>
        <time>2022-03-03T10:47:56.424Z</time>
      </trkpt>
      <trkpt lat="42.08902" lon="24.92538">
        <ele>217.700031</ele>
        <time>2022-03-03T10:47:59.457Z</time>
      </trkpt>
      <trkpt lat="42.08908" lon="24.92523">
        <ele>217.654076</ele>
        <time>2022-03-03T10:48:02.546Z</time>
      </trkpt>
      <trkpt lat="42.08913" lon="24.92509">
        <ele>217.609554</ele>
        <time>2022-03-03T10:48:05.431Z</time>
      </trkpt>
      <trkpt lat="42.0892" lon="24.92495">
        <ele>217.564955</ele>
        <time>2022-03-03T10:48:08.443Z</time>
      </trkpt>
      <trkpt lat="42.08926" lon="24.92481">
        <ele>217.519152</ele>
        <time>2022-03-03T10:48:11.431Z</time>
      </trkpt>
      <trkpt lat="42.08933" lon="24.92467">
        <ele>217.473584</ele>
        <time>2022-03-03T10:48:14.429Z</time>
      </trkpt>
      <trkpt lat="42.0894" lon="24.92452">
        <ele>217.424409</ele>
        <time>2022-03-03T10:48:17.444Z</time>
      </trkpt>
      <trkpt lat="42.08947" lon="24.92438">
        <ele>217.378287</ele>
        <time>2022-03-03T10:48:20.439Z</time>
      </trkpt>
      <trkpt lat="42.08954" lon="24.92423">
        <ele>217.331503</ele>
        <time>2022-03-03T10:48:23.437Z</time>
      </trkpt>
      <trkpt lat="42.0896" lon="24.9241">
        <ele>217.288226</ele>
        <time>2022-03-03T10:48:26.424Z</time>
      </trkpt>
      <trkpt lat="42.08966" lon="24.92396">
        <ele>217.248874</ele>
        <time>2022-03-03T10:48:29.468Z</time>
      </trkpt>
      <trkpt lat="42.08972" lon="24.92384">
        <ele>217.21612</ele>
        <time>2022-03-03T10:48:32.458Z</time>
      </trkpt>
      <trkpt lat="42.08978" lon="24.92371">
        <ele>217.182593</ele>
        <time>2022-03-03T10:48:35.431Z</time>
      </trkpt>
      <trkpt lat="42.08983" lon="24.92359">
        <ele>217.151404</ele>
        <time>2022-03-03T10:48:38.425Z</time>
      </trkpt>
      <trkpt lat="42.08989" lon="24.92346">
        <ele>217.118438</ele>
        <time>2022-03-03T10:48:41.446Z</time>
      </trkpt>
      <trkpt lat="42.08995" lon="24.92333">
        <ele>217.084297</ele>
        <time>2022-03-03T10:48:44.416Z</time>
      </trkpt>
      <trkpt lat="42.09002" lon="24.9232">
        <ele>217.048412</ele>
        <time>2022-03-03T10:48:47.424Z</time>
      </trkpt>
      <trkpt lat="42.09009" lon="24.92307">
        <ele>217.013408</ele>
        <time>2022-03-03T10:48:50.423Z</time>
      </trkpt>
      <trkpt lat="42.09015" lon="24.92293">
        <ele>216.977348</ele>
        <time>2022-03-03T10:48:53.428Z</time>
      </trkpt>
      <trkpt lat="42.09022" lon="24.92279">
        <ele>216.942657</ele>
        <time>2022-03-03T10:48:56.448Z</time>
      </trkpt>
      <trkpt lat="42.09028" lon="24.92266">
        <ele>216.908286</ele>
        <time>2022-03-03T10:48:59.425Z</time>
      </trkpt>
      <trkpt lat="42.09033" lon="24.92253">
        <ele>216.875405</ele>
        <time>2022-03-03T10:49:02.444Z</time>
      </trkpt>
      <trkpt lat="42.09039" lon="24.92241">
        <ele>216.842969</ele>
        <time>2022-03-03T10:49:05.428Z</time>
      </trkpt>
      <trkpt lat="42.09044" lon="24.92229">
        <ele>216.813152</ele>
        <time>2022-03-03T10:49:08.439Z</time>
      </trkpt>
      <trkpt lat="42.0905" lon="24.92218">
        <ele>216.783865</ele>
        <time>2022-03-03T10:49:11.431Z</time>
      </trkpt>
      <trkpt lat="42.09055" lon="24.92207">
        <ele>216.754682</ele>
        <time>2022-03-03T10:49:14.476Z</time>
      </trkpt>
      <trkpt lat="42.0906" lon="24.92197">
        <ele>216.718527</ele>
        <time>2022-03-03T10:49:17.479Z</time>
      </trkpt>
      <trkpt lat="42.09067" lon="24.92184">
        <ele>216.495531</ele>
        <time>2022-03-03T10:49:21.440Z</time>
      </trkpt>
      <trkpt lat="42.09074" lon="24.92172">
        <ele>216.280548</ele>
        <time>2022-03-03T10:49:25.431Z</time>
      </trkpt>
      <trkpt lat="42.0908" lon="24.92161">
        <ele>216.091823</ele>
        <time>2022-03-03T10:49:28.468Z</time>
      </trkpt>
      <trkpt lat="42.09085" lon="24.9215">
        <ele>215.903085</ele>
        <time>2022-03-03T10:49:31.444Z</time>
      </trkpt>
      <trkpt lat="42.09091" lon="24.92138">
        <ele>215.70099</ele>
        <time>2022-03-03T10:49:34.453Z</time>
      </trkpt>
      <trkpt lat="42.09096" lon="24.92126">
        <ele>215.497684</ele>
        <time>2022-03-03T10:49:37.424Z</time>
      </trkpt>
      <trkpt lat="42.09102" lon="24.92113">
        <ele>215.295096</ele>
        <time>2022-03-03T10:49:40.453Z</time>
      </trkpt>
      <trkpt lat="42.09107" lon="24.92101">
        <ele>215.089972</ele>
        <time>2022-03-03T10:49:43.433Z</time>
      </trkpt>
      <trkpt lat="42.09114" lon="24.92089">
        <ele>214.878291</ele>
        <time>2022-03-03T10:49:46.479Z</time>
      </trkpt>
      <trkpt lat="42.0912" lon="24.92075">
        <ele>214.652517</ele>
        <time>2022-03-03T10:49:49.431Z</time>
      </trkpt>
      <trkpt lat="42.09126" lon="24.92064">
        <ele>214.452335</ele>
        <time>2022-03-03T10:49:52.478Z</time>
      </trkpt>
      <trkpt lat="42.09133" lon="24.92052">
        <ele>214.248668</ele>
        <time>2022-03-03T10:49:55.430Z</time>
      </trkpt>
      <trkpt lat="42.09138" lon="24.92041">
        <ele>214.051817</ele>
        <time>2022-03-03T10:49:58.421Z</time>
      </trkpt>
      <trkpt lat="42.09144" lon="24.92029">
        <ele>213.846965</ele>
        <time>2022-03-03T10:50:01.442Z</time>
      </trkpt>
      <trkpt lat="42.0915" lon="24.92017">
        <ele>213.643286</ele>
        <time>2022-03-03T10:50:04.441Z</time>
      </trkpt>
      <trkpt lat="42.09156" lon="24.92005">
        <ele>213.451423</ele>
        <time>2022-03-03T10:50:07.442Z</time>
      </trkpt>
      <trkpt lat="42.0916" lon="24.91995">
        <ele>213.291162</ele>
        <time>2022-03-03T10:50:10.432Z</time>
      </trkpt>
      <trkpt lat="42.09166" lon="24.91983">
        <ele>213.240475</ele>
        <time>2022-03-03T10:50:13.445Z</time>
      </trkpt>
      <trkpt lat="42.0917" lon="24.91972">
        <ele>213.190106</ele>
        <time>2022-03-03T10:50:16.433Z</time>
      </trkpt>
      <trkpt lat="42.09176" lon="24.9196">
        <ele>213.137292</ele>
        <time>2022-03-03T10:50:19.481Z</time>
      </trkpt>
      <trkpt lat="42.09182" lon="24.91949">
        <ele>213.085819</ele>
        <time>2022-03-03T10:50:22.463Z</time>
      </trkpt>
      <trkpt lat="42.09187" lon="24.91939">
        <ele>213.037068</ele>
        <time>2022-03-03T10:50:25.470Z</time>
      </trkpt>
      <trkpt lat="42.09192" lon="24.91928">
        <ele>212.989274</ele>
        <time>2022-03-03T10:50:28.435Z</time>
      </trkpt>
      <trkpt lat="42.09198" lon="24.91915">
        <ele>212.929825</ele>
        <time>2022-03-03T10:50:32.443Z</time>
      </trkpt>
      <trkpt lat="42.09204" lon="24.91904">
        <ele>212.874675</ele>
        <time>2022-03-03T10:50:35.463Z</time>
      </trkpt>
      <trkpt lat="42.09209" lon="24.91892">
        <ele>212.824587</ele>
        <time>2022-03-03T10:50:38.453Z</time>
      </trkpt>
      <trkpt lat="42.09214" lon="24.91882">
        <ele>212.776762</ele>
        <time>2022-03-03T10:50:41.435Z</time>
      </trkpt>
      <trkpt lat="42.09221" lon="24.91871">
        <ele>212.72377</ele>
        <time>2022-03-03T10:50:44.421Z</time>
      </trkpt>
      <trkpt lat="42.09226" lon="24.9186">
        <ele>212.672882</ele>
        <time>2022-03-03T10:50:47.434Z</time>
      </trkpt>
      <trkpt lat="42.09231" lon="24.91849">
        <ele>212.624044</ele>
        <time>2022-03-03T10:50:50.434Z</time>
      </trkpt>
      <trkpt lat="42.09236" lon="24.91838">
        <ele>212.575854</ele>
        <time>2022-03-03T10:50:53.428Z</time>
      </trkpt>
      <trkpt lat="42.09242" lon="24.91824">
        <ele>212.513962</ele>
        <time>2022-03-03T10:50:57.419Z</time>
      </trkpt>
      <trkpt lat="42.09248" lon="24.9181">
        <ele>212.452527</ele>
        <time>2022-03-03T10:51:01.428Z</time>
      </trkpt>
      <trkpt lat="42.09253" lon="24.918">
        <ele>212.405946</ele>
        <time>2022-03-03T10:51:04.433Z</time>
      </trkpt>
      <trkpt lat="42.09258" lon="24.91789">
        <ele>212.368027</ele>
        <time>2022-03-03T10:51:07.414Z</time>
      </trkpt>
      <trkpt lat="42.09263" lon="24.91779">
        <ele>212.368387</ele>
        <time>2022-03-03T10:51:10.432Z</time>
      </trkpt>
      <trkpt lat="42.0927" lon="24.91766">
        <ele>212.368835</ele>
        <time>2022-03-03T10:51:14.491Z</time>
      </trkpt>
      <trkpt lat="42.09277" lon="24.91754">
        <ele>212.36928</ele>
        <time>2022-03-03T10:51:18.441Z</time>
      </trkpt>
      <trkpt lat="42.09284" lon="24.91741">
        <ele>212.369754</ele>
        <time>2022-03-03T10:51:22.425Z</time>
      </trkpt>
      <trkpt lat="42.09289" lon="24.9173">
        <ele>212.37014</ele>
        <time>2022-03-03T10:51:25.471Z</time>
      </trkpt>
      <trkpt lat="42.09294" lon="24.91717">
        <ele>212.370551</ele>
        <time>2022-03-03T10:51:28.432Z</time>
      </trkpt>
      <trkpt lat="42.09298" lon="24.91707">
        <ele>212.370915</ele>
        <time>2022-03-03T10:51:31.423Z</time>
      </trkpt>
      <trkpt lat="42.09303" lon="24.91695">
        <ele>212.371297</ele>
        <time>2022-03-03T10:51:34.419Z</time>
      </trkpt>
      <trkpt lat="42.09308" lon="24.91684">
        <ele>212.371676</ele>
        <time>2022-03-03T10:51:37.427Z</time>
      </trkpt>
      <trkpt lat="42.09314" lon="24.91673">
        <ele>212.372078</ele>
        <time>2022-03-03T10:51:40.407Z</time>
      </trkpt>
      <trkpt lat="42.09319" lon="24.91661">
        <ele>212.372472</ele>
        <time>2022-03-03T10:51:43.412Z</time>
      </trkpt>
      <trkpt lat="42.09325" lon="24.91651">
        <ele>212.372852</ele>
        <time>2022-03-03T10:51:46.422Z</time>
      </trkpt>
      <trkpt lat="42.0933" lon="24.91639">
        <ele>212.37324</ele>
        <time>2022-03-03T10:51:49.458Z</time>
      </trkpt>
      <trkpt lat="42.09336" lon="24.91629">
        <ele>212.373612</ele>
        <time>2022-03-03T10:51:52.415Z</time>
      </trkpt>
      <trkpt lat="42.09341" lon="24.91618">
        <ele>212.373999</ele>
        <time>2022-03-03T10:51:55.429Z</time>
      </trkpt>
      <trkpt lat="42.09347" lon="24.91607">
        <ele>212.374377</ele>
        <time>2022-03-03T10:51:58.433Z</time>
      </trkpt>
      <trkpt lat="42.09352" lon="24.91597">
        <ele>212.374745</ele>
        <time>2022-03-03T10:52:01.435Z</time>
      </trkpt>
      <trkpt lat="42.09357" lon="24.91586">
        <ele>212.367109</ele>
        <time>2022-03-03T10:52:04.464Z</time>
      </trkpt>
      <trkpt lat="42.09362" lon="24.91575">
        <ele>212.343182</ele>
        <time>2022-03-03T10:52:07.424Z</time>
      </trkpt>
      <trkpt lat="42.09367" lon="24.91564">
        <ele>212.321217</ele>
        <time>2022-03-03T10:52:10.451Z</time>
      </trkpt>
      <trkpt lat="42.09372" lon="24.91554">
        <ele>212.298101</ele>
        <time>2022-03-03T10:52:13.425Z</time>
      </trkpt>
      <trkpt lat="42.09377" lon="24.91543">
        <ele>212.275464</ele>
        <time>2022-03-03T10:52:16.408Z</time>
      </trkpt>
      <trkpt lat="42.09382" lon="24.91532">
        <ele>212.252241</ele>
        <time>2022-03-03T10:52:19.418Z</time>
      </trkpt>
      <trkpt lat="42.09388" lon="24.91522">
        <ele>212.228626</ele>
        <time>2022-03-03T10:52:22.430Z</time>
      </trkpt>
      <trkpt lat="42.09394" lon="24.91511">
        <ele>212.205729</ele>
        <time>2022-03-03T10:52:25.424Z</time>
      </trkpt>
      <trkpt lat="42.09398" lon="24.91501">
        <ele>212.183423</ele>
        <time>2022-03-03T10:52:28.423Z</time>
      </trkpt>
      <trkpt lat="42.09404" lon="24.9149">
        <ele>212.160526</ele>
        <time>2022-03-03T10:52:31.421Z</time>
      </trkpt>
      <trkpt lat="42.09409" lon="24.91479">
        <ele>212.136868</ele>
        <time>2022-03-03T10:52:34.440Z</time>
      </trkpt>
      <trkpt lat="42.09414" lon="24.91469">
        <ele>212.114097</ele>
        <time>2022-03-03T10:52:37.407Z</time>
      </trkpt>
      <trkpt lat="42.0942" lon="24.91458">
        <ele>212.089885</ele>
        <time>2022-03-03T10:52:40.401Z</time>
      </trkpt>
      <trkpt lat="42.09425" lon="24.91447">
        <ele>212.065809</ele>
        <time>2022-03-03T10:52:43.450Z</time>
      </trkpt>
      <trkpt lat="42.09431" lon="24.91436">
        <ele>212.043188</ele>
        <time>2022-03-03T10:52:46.413Z</time>
      </trkpt>
      <trkpt lat="42.09436" lon="24.91426">
        <ele>212.021151</ele>
        <time>2022-03-03T10:52:49.423Z</time>
      </trkpt>
      <trkpt lat="42.09441" lon="24.91416">
        <ele>211.998646</ele>
        <time>2022-03-03T10:52:52.422Z</time>
      </trkpt>
      <trkpt lat="42.09446" lon="24.91405">
        <ele>211.974988</ele>
        <time>2022-03-03T10:52:55.430Z</time>
      </trkpt>
      <trkpt lat="42.09452" lon="24.91391">
        <ele>211.94609</ele>
        <time>2022-03-03T10:52:59.432Z</time>
      </trkpt>
      <trkpt lat="42.09458" lon="24.91378">
        <ele>211.86533</ele>
        <time>2022-03-03T10:53:03.439Z</time>
      </trkpt>
      <trkpt lat="42.09465" lon="24.91365">
        <ele>211.759609</ele>
        <time>2022-03-03T10:53:07.419Z</time>
      </trkpt>
      <trkpt lat="42.09472" lon="24.91353">
        <ele>211.658656</ele>
        <time>2022-03-03T10:53:11.426Z</time>
      </trkpt>
      <trkpt lat="42.09478" lon="24.91341">
        <ele>211.563007</ele>
        <time>2022-03-03T10:53:15.436Z</time>
      </trkpt>
      <trkpt lat="42.09484" lon="24.91328">
        <ele>211.463967</ele>
        <time>2022-03-03T10:53:19.415Z</time>
      </trkpt>
      <trkpt lat="42.09491" lon="24.91316">
        <ele>211.365548</ele>
        <time>2022-03-03T10:53:23.448Z</time>
      </trkpt>
      <trkpt lat="42.09496" lon="24.91303">
        <ele>211.264738</ele>
        <time>2022-03-03T10:53:27.451Z</time>
      </trkpt>
      <trkpt lat="42.09501" lon="24.91292">
        <ele>211.1799</ele>
        <time>2022-03-03T10:53:30.434Z</time>
      </trkpt>
      <trkpt lat="42.09506" lon="24.91281">
        <ele>211.096722</ele>
        <time>2022-03-03T10:53:33.427Z</time>
      </trkpt>
      <trkpt lat="42.09512" lon="24.91267">
        <ele>210.98977</ele>
        <time>2022-03-03T10:53:37.430Z</time>
      </trkpt>
      <trkpt lat="42.09516" lon="24.91256">
        <ele>210.907102</ele>
        <time>2022-03-03T10:53:40.427Z</time>
      </trkpt>
      <trkpt lat="42.0952" lon="24.91245">
        <ele>210.824876</ele>
        <time>2022-03-03T10:53:43.469Z</time>
      </trkpt>
      <trkpt lat="42.09525" lon="24.91233">
        <ele>210.740277</ele>
        <time>2022-03-03T10:53:46.418Z</time>
      </trkpt>
      <trkpt lat="42.09528" lon="24.91222">
        <ele>210.655534</ele>
        <time>2022-03-03T10:53:49.413Z</time>
      </trkpt>
      <trkpt lat="42.09532" lon="24.91209">
        <ele>210.566088</ele>
        <time>2022-03-03T10:53:52.427Z</time>
      </trkpt>
      <trkpt lat="42.09537" lon="24.91197">
        <ele>210.477542</ele>
        <time>2022-03-03T10:53:55.421Z</time>
      </trkpt>
      <trkpt lat="42.09541" lon="24.91185">
        <ele>210.388944</ele>
        <time>2022-03-03T10:53:58.414Z</time>
      </trkpt>
      <trkpt lat="42.09544" lon="24.91173">
        <ele>210.381037</ele>
        <time>2022-03-03T10:54:01.405Z</time>
      </trkpt>
      <trkpt lat="42.09547" lon="24.9116">
        <ele>210.50073</ele>
        <time>2022-03-03T10:54:04.428Z</time>
      </trkpt>
      <trkpt lat="42.0955" lon="24.91145">
        <ele>210.646538</ele>
        <time>2022-03-03T10:54:08.444Z</time>
      </trkpt>
      <trkpt lat="42.09554" lon="24.91133">
        <ele>210.766154</ele>
        <time>2022-03-03T10:54:11.479Z</time>
      </trkpt>
      <trkpt lat="42.09557" lon="24.9112">
        <ele>210.890979</ele>
        <time>2022-03-03T10:54:14.429Z</time>
      </trkpt>
      <trkpt lat="42.0956" lon="24.91107">
        <ele>211.012737</ele>
        <time>2022-03-03T10:54:17.435Z</time>
      </trkpt>
      <trkpt lat="42.09563" lon="24.91092">
        <ele>211.155089</ele>
        <time>2022-03-03T10:54:21.434Z</time>
      </trkpt>
      <trkpt lat="42.09566" lon="24.91077">
        <ele>211.299134</ele>
        <time>2022-03-03T10:54:25.419Z</time>
      </trkpt>
      <trkpt lat="42.09569" lon="24.91062">
        <ele>211.445356</ele>
        <time>2022-03-03T10:54:29.436Z</time>
      </trkpt>
      <trkpt lat="42.09572" lon="24.91046">
        <ele>211.59236</ele>
        <time>2022-03-03T10:54:33.426Z</time>
      </trkpt>
      <trkpt lat="42.09575" lon="24.91032">
        <ele>211.732069</ele>
        <time>2022-03-03T10:54:37.418Z</time>
      </trkpt>
      <trkpt lat="42.09578" lon="24.9102">
        <ele>211.846453</ele>
        <time>2022-03-03T10:54:40.450Z</time>
      </trkpt>
      <trkpt lat="42.0958" lon="24.91007">
        <ele>211.960781</ele>
        <time>2022-03-03T10:54:43.419Z</time>
      </trkpt>
      <trkpt lat="42.09582" lon="24.90995">
        <ele>212.075109</ele>
        <time>2022-03-03T10:54:46.415Z</time>
      </trkpt>
      <trkpt lat="42.09585" lon="24.90983">
        <ele>212.195971</ele>
        <time>2022-03-03T10:54:49.427Z</time>
      </trkpt>
      <trkpt lat="42.09587" lon="24.9097">
        <ele>212.312122</ele>
        <time>2022-03-03T10:54:52.430Z</time>
      </trkpt>
      <trkpt lat="42.09589" lon="24.90959">
        <ele>212.424086</ele>
        <time>2022-03-03T10:54:55.416Z</time>
      </trkpt>
      <trkpt lat="42.09593" lon="24.90946">
        <ele>212.549781</ele>
        <time>2022-03-03T10:54:58.421Z</time>
      </trkpt>
      <trkpt lat="42.09595" lon="24.90934">
        <ele>212.650357</ele>
        <time>2022-03-03T10:55:01.430Z</time>
      </trkpt>
      <trkpt lat="42.09598" lon="24.90922">
        <ele>212.751091</ele>
        <time>2022-03-03T10:55:04.412Z</time>
      </trkpt>
      <trkpt lat="42.096" lon="24.9091">
        <ele>212.852475</ele>
        <time>2022-03-03T10:55:07.413Z</time>
      </trkpt>
      <trkpt lat="42.09603" lon="24.90898">
        <ele>212.954306</ele>
        <time>2022-03-03T10:55:10.439Z</time>
      </trkpt>
      <trkpt lat="42.09606" lon="24.90886">
        <ele>213.052629</ele>
        <time>2022-03-03T10:55:13.424Z</time>
      </trkpt>
      <trkpt lat="42.09609" lon="24.90874">
        <ele>213.154913</ele>
        <time>2022-03-03T10:55:16.417Z</time>
      </trkpt>
      <trkpt lat="42.09612" lon="24.90859">
        <ele>213.285522</ele>
        <time>2022-03-03T10:55:20.448Z</time>
      </trkpt>
      <trkpt lat="42.09614" lon="24.90845">
        <ele>213.399938</ele>
        <time>2022-03-03T10:55:23.441Z</time>
      </trkpt>
      <trkpt lat="42.09616" lon="24.90832">
        <ele>213.511036</ele>
        <time>2022-03-03T10:55:26.416Z</time>
      </trkpt>
      <trkpt lat="42.09618" lon="24.90818">
        <ele>213.620906</ele>
        <time>2022-03-03T10:55:29.451Z</time>
      </trkpt>
      <trkpt lat="42.09621" lon="24.90806">
        <ele>213.724924</ele>
        <time>2022-03-03T10:55:32.425Z</time>
      </trkpt>
      <trkpt lat="42.09623" lon="24.90794">
        <ele>213.823943</ele>
        <time>2022-03-03T10:55:35.458Z</time>
      </trkpt>
      <trkpt lat="42.09626" lon="24.9078">
        <ele>213.937247</ele>
        <time>2022-03-03T10:55:38.446Z</time>
      </trkpt>
      <trkpt lat="42.09629" lon="24.90767">
        <ele>214.053353</ele>
        <time>2022-03-03T10:55:41.438Z</time>
      </trkpt>
      <trkpt lat="42.09632" lon="24.90753">
        <ele>214.172399</ele>
        <time>2022-03-03T10:55:44.412Z</time>
      </trkpt>
      <trkpt lat="42.09635" lon="24.90739">
        <ele>214.285582</ele>
        <time>2022-03-03T10:55:47.479Z</time>
      </trkpt>
      <trkpt lat="42.09638" lon="24.90726">
        <ele>214.39594</ele>
        <time>2022-03-03T10:55:50.441Z</time>
      </trkpt>
      <trkpt lat="42.09642" lon="24.90713">
        <ele>214.512112</ele>
        <time>2022-03-03T10:55:53.474Z</time>
      </trkpt>
      <trkpt lat="42.09646" lon="24.90699">
        <ele>214.568125</ele>
        <time>2022-03-03T10:55:56.430Z</time>
      </trkpt>
      <trkpt lat="42.09651" lon="24.90687">
        <ele>214.61557</ele>
        <time>2022-03-03T10:55:59.443Z</time>
      </trkpt>
      <trkpt lat="42.09657" lon="24.90675">
        <ele>214.665944</ele>
        <time>2022-03-03T10:56:02.440Z</time>
      </trkpt>
      <trkpt lat="42.09662" lon="24.90662">
        <ele>214.715035</ele>
        <time>2022-03-03T10:56:05.435Z</time>
      </trkpt>
      <trkpt lat="42.09667" lon="24.9065">
        <ele>214.762482</ele>
        <time>2022-03-03T10:56:08.444Z</time>
      </trkpt>
      <trkpt lat="42.09673" lon="24.90637">
        <ele>214.814868</ele>
        <time>2022-03-03T10:56:11.423Z</time>
      </trkpt>
      <trkpt lat="42.09678" lon="24.90624">
        <ele>214.865081</ele>
        <time>2022-03-03T10:56:14.408Z</time>
      </trkpt>
      <trkpt lat="42.09683" lon="24.90611">
        <ele>214.914851</ele>
        <time>2022-03-03T10:56:17.453Z</time>
      </trkpt>
      <trkpt lat="42.09688" lon="24.906">
        <ele>214.960511</ele>
        <time>2022-03-03T10:56:20.443Z</time>
      </trkpt>
      <trkpt lat="42.09693" lon="24.90588">
        <ele>215.004836</ele>
        <time>2022-03-03T10:56:23.420Z</time>
      </trkpt>
      <trkpt lat="42.09697" lon="24.90575">
        <ele>215.054484</ele>
        <time>2022-03-03T10:56:26.457Z</time>
      </trkpt>
      <trkpt lat="42.09702" lon="24.90562">
        <ele>215.104697</ele>
        <time>2022-03-03T10:56:29.426Z</time>
      </trkpt>
      <trkpt lat="42.09708" lon="24.9055">
        <ele>215.153265</ele>
        <time>2022-03-03T10:56:32.421Z</time>
      </trkpt>
      <trkpt lat="42.09712" lon="24.90537">
        <ele>215.202604</ele>
        <time>2022-03-03T10:56:35.440Z</time>
      </trkpt>
      <trkpt lat="42.09718" lon="24.90524">
        <ele>215.253982</ele>
        <time>2022-03-03T10:56:38.439Z</time>
      </trkpt>
      <trkpt lat="42.09723" lon="24.90511">
        <ele>215.305183</ele>
        <time>2022-03-03T10:56:41.415Z</time>
      </trkpt>
      <trkpt lat="42.09727" lon="24.90498">
        <ele>215.344709</ele>
        <time>2022-03-03T10:56:44.425Z</time>
      </trkpt>
      <trkpt lat="42.09731" lon="24.90484">
        <ele>215.063157</ele>
        <time>2022-03-03T10:56:47.435Z</time>
      </trkpt>
      <trkpt lat="42.09736" lon="24.90471">
        <ele>214.79917</ele>
        <time>2022-03-03T10:56:50.426Z</time>
      </trkpt>
      <trkpt lat="42.09741" lon="24.90457">
        <ele>214.521945</ele>
        <time>2022-03-03T10:56:53.451Z</time>
      </trkpt>
      <trkpt lat="42.09746" lon="24.90445">
        <ele>214.262712</ele>
        <time>2022-03-03T10:56:56.430Z</time>
      </trkpt>
      <trkpt lat="42.0975" lon="24.9043">
        <ele>213.976656</ele>
        <time>2022-03-03T10:56:59.431Z</time>
      </trkpt>
      <trkpt lat="42.09754" lon="24.90417">
        <ele>213.724185</ele>
        <time>2022-03-03T10:57:02.446Z</time>
      </trkpt>
      <trkpt lat="42.09757" lon="24.90403">
        <ele>213.450473</ele>
        <time>2022-03-03T10:57:05.444Z</time>
      </trkpt>
      <trkpt lat="42.0976" lon="24.9039">
        <ele>213.198848</ele>
        <time>2022-03-03T10:57:08.447Z</time>
      </trkpt>
      <trkpt lat="42.09764" lon="24.90377">
        <ele>212.940382</ele>
        <time>2022-03-03T10:57:11.441Z</time>
      </trkpt>
      <trkpt lat="42.09767" lon="24.90362">
        <ele>212.662992</ele>
        <time>2022-03-03T10:57:14.422Z</time>
      </trkpt>
      <trkpt lat="42.09771" lon="24.90349">
        <ele>212.400275</ele>
        <time>2022-03-03T10:57:17.422Z</time>
      </trkpt>
      <trkpt lat="42.09776" lon="24.90335">
        <ele>212.1191</ele>
        <time>2022-03-03T10:57:20.438Z</time>
      </trkpt>
      <trkpt lat="42.09781" lon="24.90321">
        <ele>211.844754</ele>
        <time>2022-03-03T10:57:23.458Z</time>
      </trkpt>
      <trkpt lat="42.09785" lon="24.90307">
        <ele>211.574887</ele>
        <time>2022-03-03T10:57:26.441Z</time>
      </trkpt>
      <trkpt lat="42.09789" lon="24.90294">
        <ele>211.309524</ele>
        <time>2022-03-03T10:57:29.445Z</time>
      </trkpt>
      <trkpt lat="42.09794" lon="24.9028">
        <ele>211.026333</ele>
        <time>2022-03-03T10:57:32.443Z</time>
      </trkpt>
      <trkpt lat="42.09797" lon="24.90264">
        <ele>210.971993</ele>
        <time>2022-03-03T10:57:35.453Z</time>
      </trkpt>
      <trkpt lat="42.09801" lon="24.90249">
        <ele>211.040713</ele>
        <time>2022-03-03T10:57:38.436Z</time>
      </trkpt>
      <trkpt lat="42.09806" lon="24.90234">
        <ele>211.110753</ele>
        <time>2022-03-03T10:57:41.429Z</time>
      </trkpt>
      <trkpt lat="42.0981" lon="24.9022">
        <ele>211.173435</ele>
        <time>2022-03-03T10:57:44.415Z</time>
      </trkpt>
      <trkpt lat="42.09814" lon="24.90209">
        <ele>211.228642</ele>
        <time>2022-03-03T10:57:47.468Z</time>
      </trkpt>
      <trkpt lat="42.09817" lon="24.90196">
        <ele>211.286398</ele>
        <time>2022-03-03T10:57:50.430Z</time>
      </trkpt>
      <trkpt lat="42.0982" lon="24.90183">
        <ele>211.344214</ele>
        <time>2022-03-03T10:57:53.447Z</time>
      </trkpt>
      <trkpt lat="42.09823" lon="24.90168">
        <ele>211.408967</ele>
        <time>2022-03-03T10:57:56.435Z</time>
      </trkpt>
      <trkpt lat="42.09827" lon="24.90154">
        <ele>211.475988</ele>
        <time>2022-03-03T10:57:59.427Z</time>
      </trkpt>
      <trkpt lat="42.09831" lon="24.90141">
        <ele>211.535703</ele>
        <time>2022-03-03T10:58:02.458Z</time>
      </trkpt>
      <trkpt lat="42.09834" lon="24.90127">
        <ele>211.595897</ele>
        <time>2022-03-03T10:58:05.433Z</time>
      </trkpt>
      <trkpt lat="42.09836" lon="24.90113">
        <ele>211.65791</ele>
        <time>2022-03-03T10:58:08.422Z</time>
      </trkpt>
      <trkpt lat="42.0984" lon="24.90101">
        <ele>211.714818</ele>
        <time>2022-03-03T10:58:11.445Z</time>
      </trkpt>
      <trkpt lat="42.09845" lon="24.90088">
        <ele>211.776056</ele>
        <time>2022-03-03T10:58:14.415Z</time>
      </trkpt>
      <trkpt lat="42.09849" lon="24.90074">
        <ele>211.841261</ele>
        <time>2022-03-03T10:58:17.427Z</time>
      </trkpt>
      <trkpt lat="42.09852" lon="24.9006">
        <ele>211.902948</ele>
        <time>2022-03-03T10:58:20.446Z</time>
      </trkpt>
      <trkpt lat="42.09855" lon="24.90046">
        <ele>211.934746</ele>
        <time>2022-03-03T10:58:23.434Z</time>
      </trkpt>
      <trkpt lat="42.09858" lon="24.90031">
        <ele>211.604569</ele>
        <time>2022-03-03T10:58:26.429Z</time>
      </trkpt>
      <trkpt lat="42.09862" lon="24.90016">
        <ele>211.251571</ele>
        <time>2022-03-03T10:58:30.475Z</time>
      </trkpt>
      <trkpt lat="42.09864" lon="24.90003">
        <ele>210.950798</ele>
        <time>2022-03-03T10:58:33.426Z</time>
      </trkpt>
      <trkpt lat="42.09867" lon="24.89989">
        <ele>210.630699</ele>
        <time>2022-03-03T10:58:36.417Z</time>
      </trkpt>
      <trkpt lat="42.09871" lon="24.89975">
        <ele>210.292699</ele>
        <time>2022-03-03T10:58:39.423Z</time>
      </trkpt>
      <trkpt lat="42.09874" lon="24.8996">
        <ele>209.944389</ele>
        <time>2022-03-03T10:58:42.445Z</time>
      </trkpt>
      <trkpt lat="42.09876" lon="24.89946">
        <ele>209.62429</ele>
        <time>2022-03-03T10:58:45.434Z</time>
      </trkpt>
      <trkpt lat="42.0988" lon="24.89933">
        <ele>209.332103</ele>
        <time>2022-03-03T10:58:48.440Z</time>
      </trkpt>
      <trkpt lat="42.09884" lon="24.89919">
        <ele>208.98665</ele>
        <time>2022-03-03T10:58:52.433Z</time>
      </trkpt>
      <trkpt lat="42.09887" lon="24.89906">
        <ele>208.701582</ele>
        <time>2022-03-03T10:58:55.419Z</time>
      </trkpt>
      <trkpt lat="42.0989" lon="24.89895">
        <ele>208.426032</ele>
        <time>2022-03-03T10:58:58.490Z</time>
      </trkpt>
      <trkpt lat="42.09893" lon="24.89882">
        <ele>208.128549</ele>
        <time>2022-03-03T10:59:01.446Z</time>
      </trkpt>
      <trkpt lat="42.09896" lon="24.89868">
        <ele>207.802372</ele>
        <time>2022-03-03T10:59:04.426Z</time>
      </trkpt>
      <trkpt lat="42.09899" lon="24.89856">
        <ele>207.514357</ele>
        <time>2022-03-03T10:59:07.442Z</time>
      </trkpt>
      <trkpt lat="42.09903" lon="24.89842">
        <ele>207.192032</ele>
        <time>2022-03-03T10:59:11.444Z</time>
      </trkpt>
      <trkpt lat="42.09907" lon="24.89829">
        <ele>206.878727</ele>
        <time>2022-03-03T10:59:15.424Z</time>
      </trkpt>
      <trkpt lat="42.09911" lon="24.89816">
        <ele>206.581532</ele>
        <time>2022-03-03T10:59:19.433Z</time>
      </trkpt>
      <trkpt lat="42.09915" lon="24.89802">
        <ele>206.540013</ele>
        <time>2022-03-03T10:59:23.437Z</time>
      </trkpt>
      <trkpt lat="42.09919" lon="24.89791">
        <ele>206.506413</ele>
        <time>2022-03-03T10:59:26.431Z</time>
      </trkpt>
      <trkpt lat="42.09922" lon="24.89779">
        <ele>206.470984</ele>
        <time>2022-03-03T10:59:29.430Z</time>
      </trkpt>
      <trkpt lat="42.09925" lon="24.89764">
        <ele>206.427293</ele>
        <time>2022-03-03T10:59:33.454Z</time>
      </trkpt>
      <trkpt lat="42.09929" lon="24.89751">
        <ele>206.387684</ele>
        <time>2022-03-03T10:59:37.417Z</time>
      </trkpt>
      <trkpt lat="42.09932" lon="24.89737">
        <ele>206.348124</ele>
        <time>2022-03-03T10:59:41.430Z</time>
      </trkpt>
      <trkpt lat="42.09934" lon="24.89724">
        <ele>206.311122</ele>
        <time>2022-03-03T10:59:45.449Z</time>
      </trkpt>
      <trkpt lat="42.09937" lon="24.8971">
        <ele>206.268898</ele>
        <time>2022-03-03T10:59:49.453Z</time>
      </trkpt>
      <trkpt lat="42.0994" lon="24.89694">
        <ele>206.225112</ele>
        <time>2022-03-03T10:59:53.438Z</time>
      </trkpt>
      <trkpt lat="42.09944" lon="24.89679">
        <ele>206.180774</ele>
        <time>2022-03-03T10:59:57.427Z</time>
      </trkpt>
      <trkpt lat="42.09947" lon="24.89665">
        <ele>206.137843</ele>
        <time>2022-03-03T11:00:01.444Z</time>
      </trkpt>
      <trkpt lat="42.0995" lon="24.8965">
        <ele>206.095065</ele>
        <time>2022-03-03T11:00:05.429Z</time>
      </trkpt>
      <trkpt lat="42.09953" lon="24.89635">
        <ele>206.051398</ele>
        <time>2022-03-03T11:00:09.475Z</time>
      </trkpt>
      <trkpt lat="42.09956" lon="24.89623">
        <ele>206.017386</ele>
        <time>2022-03-03T11:00:12.431Z</time>
      </trkpt>
      <trkpt lat="42.09958" lon="24.89607">
        <ele>205.972767</ele>
        <time>2022-03-03T11:00:16.433Z</time>
      </trkpt>
      <trkpt lat="42.0996" lon="24.89595">
        <ele>205.937847</ele>
        <time>2022-03-03T11:00:19.438Z</time>
      </trkpt>
      <trkpt lat="42.09963" lon="24.89583">
        <ele>205.912524</ele>
        <time>2022-03-03T11:00:22.406Z</time>
      </trkpt>
      <trkpt lat="42.09965" lon="24.89567">
        <ele>205.949605</ele>
        <time>2022-03-03T11:00:26.435Z</time>
      </trkpt>
      <trkpt lat="42.09967" lon="24.89555">
        <ele>205.97916</ele>
        <time>2022-03-03T11:00:29.439Z</time>
      </trkpt>
      <trkpt lat="42.0997" lon="24.89539">
        <ele>206.016273</ele>
        <time>2022-03-03T11:00:33.431Z</time>
      </trkpt>
      <trkpt lat="42.09973" lon="24.89527">
        <ele>206.044364</ele>
        <time>2022-03-03T11:00:36.435Z</time>
      </trkpt>
      <trkpt lat="42.09976" lon="24.89512">
        <ele>206.07965</ele>
        <time>2022-03-03T11:00:40.427Z</time>
      </trkpt>
      <trkpt lat="42.09979" lon="24.89498">
        <ele>206.11284</ele>
        <time>2022-03-03T11:00:44.430Z</time>
      </trkpt>
      <trkpt lat="42.09981" lon="24.89483">
        <ele>206.147901</ele>
        <time>2022-03-03T11:00:48.463Z</time>
      </trkpt>
      <trkpt lat="42.09982" lon="24.89471">
        <ele>206.175757</ele>
        <time>2022-03-03T11:00:51.424Z</time>
      </trkpt>
      <trkpt lat="42.09984" lon="24.89456">
        <ele>206.211044</ele>
        <time>2022-03-03T11:00:55.441Z</time>
      </trkpt>
      <trkpt lat="42.09986" lon="24.89444">
        <ele>206.238784</ele>
        <time>2022-03-03T11:00:58.443Z</time>
      </trkpt>
      <trkpt lat="42.09988" lon="24.8943">
        <ele>206.271175</ele>
        <time>2022-03-03T11:01:01.426Z</time>
      </trkpt>
      <trkpt lat="42.09991" lon="24.89417">
        <ele>206.303101</ele>
        <time>2022-03-03T11:01:04.428Z</time>
      </trkpt>
      <trkpt lat="42.09994" lon="24.89403">
        <ele>206.334967</ele>
        <time>2022-03-03T11:01:07.471Z</time>
      </trkpt>
      <trkpt lat="42.09997" lon="24.89389">
        <ele>206.368743</ele>
        <time>2022-03-03T11:01:10.456Z</time>
      </trkpt>
      <trkpt lat="42.1" lon="24.89375">
        <ele>206.40342</ele>
        <time>2022-03-03T11:01:13.431Z</time>
      </trkpt>
      <trkpt lat="42.10002" lon="24.8936">
        <ele>206.436534</ele>
        <time>2022-03-03T11:01:16.442Z</time>
      </trkpt>
      <trkpt lat="42.10005" lon="24.89346">
        <ele>206.435457</ele>
        <time>2022-03-03T11:01:19.432Z</time>
      </trkpt>
      <trkpt lat="42.10007" lon="24.89332">
        <ele>206.303576</ele>
        <time>2022-03-03T11:01:22.428Z</time>
      </trkpt>
      <trkpt lat="42.1001" lon="24.89319">
        <ele>206.177013</ele>
        <time>2022-03-03T11:01:25.450Z</time>
      </trkpt>
      <trkpt lat="42.10013" lon="24.89305">
        <ele>206.051839</ele>
        <time>2022-03-03T11:01:28.430Z</time>
      </trkpt>
      <trkpt lat="42.10015" lon="24.89292">
        <ele>205.929</ele>
        <time>2022-03-03T11:01:31.426Z</time>
      </trkpt>
      <trkpt lat="42.10018" lon="24.89279">
        <ele>205.803538</ele>
        <time>2022-03-03T11:01:34.427Z</time>
      </trkpt>
      <trkpt lat="42.1002" lon="24.89267">
        <ele>205.693244</ele>
        <time>2022-03-03T11:01:37.435Z</time>
      </trkpt>
      <trkpt lat="42.10023" lon="24.89252">
        <ele>205.554944</ele>
        <time>2022-03-03T11:01:41.446Z</time>
      </trkpt>
      <trkpt lat="42.10026" lon="24.89237">
        <ele>205.418662</ele>
        <time>2022-03-03T11:01:45.459Z</time>
      </trkpt>
      <trkpt lat="42.10028" lon="24.89222">
        <ele>205.2754</ele>
        <time>2022-03-03T11:01:49.438Z</time>
      </trkpt>
      <trkpt lat="42.10031" lon="24.8921">
        <ele>205.164409</ele>
        <time>2022-03-03T11:01:52.426Z</time>
      </trkpt>
      <trkpt lat="42.10034" lon="24.89195">
        <ele>205.022809</ele>
        <time>2022-03-03T11:01:56.427Z</time>
      </trkpt>
      <trkpt lat="42.10036" lon="24.89183">
        <ele>204.913977</ele>
        <time>2022-03-03T11:01:59.432Z</time>
      </trkpt>
      <trkpt lat="42.10039" lon="24.89171">
        <ele>204.803396</ele>
        <time>2022-03-03T11:02:02.427Z</time>
      </trkpt>
      <trkpt lat="42.10042" lon="24.89156">
        <ele>204.659517</ele>
        <time>2022-03-03T11:02:06.442Z</time>
      </trkpt>
      <trkpt lat="42.10044" lon="24.89141">
        <ele>204.5243</ele>
        <time>2022-03-03T11:02:10.448Z</time>
      </trkpt>
      <trkpt lat="42.10046" lon="24.89126">
        <ele>204.386557</ele>
        <time>2022-03-03T11:02:14.466Z</time>
      </trkpt>
      <trkpt lat="42.10049" lon="24.89112">
        <ele>204.293138</ele>
        <time>2022-03-03T11:02:18.429Z</time>
      </trkpt>
      <trkpt lat="42.10051" lon="24.89098">
        <ele>204.382671</ele>
        <time>2022-03-03T11:02:22.416Z</time>
      </trkpt>
      <trkpt lat="42.10054" lon="24.89085">
        <ele>204.468087</ele>
        <time>2022-03-03T11:02:26.431Z</time>
      </trkpt>
      <trkpt lat="42.10056" lon="24.89073">
        <ele>204.546998</ele>
        <time>2022-03-03T11:02:30.439Z</time>
      </trkpt>
      <trkpt lat="42.10058" lon="24.89058">
        <ele>204.642848</ele>
        <time>2022-03-03T11:02:35.466Z</time>
      </trkpt>
      <trkpt lat="42.10059" lon="24.89045">
        <ele>204.726003</ele>
        <time>2022-03-03T11:02:39.442Z</time>
      </trkpt>
      <trkpt lat="42.10059" lon="24.8903">
        <ele>204.818439</ele>
        <time>2022-03-03T11:02:43.434Z</time>
      </trkpt>
      <trkpt lat="42.10059" lon="24.89015">
        <ele>204.919147</ele>
        <time>2022-03-03T11:02:47.433Z</time>
      </trkpt>
      <trkpt lat="42.10058" lon="24.89002">
        <ele>204.998925</ele>
        <time>2022-03-03T11:02:50.431Z</time>
      </trkpt>
      <trkpt lat="42.10058" lon="24.88986">
        <ele>205.098974</ele>
        <time>2022-03-03T11:02:54.471Z</time>
      </trkpt>
      <trkpt lat="42.10057" lon="24.88972">
        <ele>205.191588</ele>
        <time>2022-03-03T11:02:58.430Z</time>
      </trkpt>
      <trkpt lat="42.10056" lon="24.88958">
        <ele>205.281255</ele>
        <time>2022-03-03T11:03:02.446Z</time>
      </trkpt>
      <trkpt lat="42.10055" lon="24.88944">
        <ele>205.368485</ele>
        <time>2022-03-03T11:03:06.427Z</time>
      </trkpt>
      <trkpt lat="42.10054" lon="24.88929">
        <ele>205.46264</ele>
        <time>2022-03-03T11:03:10.451Z</time>
      </trkpt>
      <trkpt lat="42.10053" lon="24.88913">
        <ele>205.562204</ele>
        <time>2022-03-03T11:03:14.443Z</time>
      </trkpt>
      <trkpt lat="42.10052" lon="24.88898">
        <ele>205.660854</ele>
        <time>2022-03-03T11:03:18.436Z</time>
      </trkpt>
      <trkpt lat="42.10051" lon="24.88882">
        <ele>205.759272</ele>
        <time>2022-03-03T11:03:22.485Z</time>
      </trkpt>
      <trkpt lat="42.1005" lon="24.88868">
        <ele>205.846501</ele>
        <time>2022-03-03T11:03:26.430Z</time>
      </trkpt>
      <trkpt lat="42.10049" lon="24.88853">
        <ele>205.926018</ele>
        <time>2022-03-03T11:03:30.450Z</time>
      </trkpt>
      <trkpt lat="42.10048" lon="24.8884">
        <ele>205.990004</ele>
        <time>2022-03-03T11:03:33.524Z</time>
      </trkpt>
      <trkpt lat="42.10047" lon="24.88828">
        <ele>206.056385</ele>
        <time>2022-03-03T11:03:36.442Z</time>
      </trkpt>
      <trkpt lat="42.10046" lon="24.88815">
        <ele>206.123029</ele>
        <time>2022-03-03T11:03:39.434Z</time>
      </trkpt>
      <trkpt lat="42.10045" lon="24.88802">
        <ele>206.192561</ele>
        <time>2022-03-03T11:03:42.447Z</time>
      </trkpt>
      <trkpt lat="42.10044" lon="24.88789">
        <ele>206.26255</ele>
        <time>2022-03-03T11:03:45.429Z</time>
      </trkpt>
      <trkpt lat="42.10043" lon="24.88775">
        <ele>206.335997</ele>
        <time>2022-03-03T11:03:48.446Z</time>
      </trkpt>
      <trkpt lat="42.10041" lon="24.88763">
        <ele>206.403594</ele>
        <time>2022-03-03T11:03:51.444Z</time>
      </trkpt>
      <trkpt lat="42.1004" lon="24.88747">
        <ele>206.484555</ele>
        <time>2022-03-03T11:03:55.435Z</time>
      </trkpt>
      <trkpt lat="42.10039" lon="24.88733">
        <ele>206.561381</ele>
        <time>2022-03-03T11:03:59.434Z</time>
      </trkpt>
      <trkpt lat="42.10038" lon="24.88718">
        <ele>206.640441</ele>
        <time>2022-03-03T11:04:03.426Z</time>
      </trkpt>
      <trkpt lat="42.10037" lon="24.88703">
        <ele>206.721311</ele>
        <time>2022-03-03T11:04:07.440Z</time>
      </trkpt>
      <trkpt lat="42.10035" lon="24.88688">
        <ele>206.799757</ele>
        <time>2022-03-03T11:04:11.437Z</time>
      </trkpt>
      <trkpt lat="42.10034" lon="24.88676">
        <ele>206.865943</ele>
        <time>2022-03-03T11:04:14.433Z</time>
      </trkpt>
      <trkpt lat="42.10033" lon="24.88664">
        <ele>206.929625</ele>
        <time>2022-03-03T11:04:17.451Z</time>
      </trkpt>
      <trkpt lat="42.10032" lon="24.88651">
        <ele>206.994358</ele>
        <time>2022-03-03T11:04:20.439Z</time>
      </trkpt>
      <trkpt lat="42.10031" lon="24.88636">
        <ele>207.076985</ele>
        <time>2022-03-03T11:04:24.424Z</time>
      </trkpt>
      <trkpt lat="42.10029" lon="24.8862">
        <ele>206.987517</ele>
        <time>2022-03-03T11:04:28.446Z</time>
      </trkpt>
      <trkpt lat="42.10028" lon="24.88608">
        <ele>206.890545</ele>
        <time>2022-03-03T11:04:31.446Z</time>
      </trkpt>
      <trkpt lat="42.10027" lon="24.88593">
        <ele>206.765504</ele>
        <time>2022-03-03T11:04:35.450Z</time>
      </trkpt>
      <trkpt lat="42.10026" lon="24.8858">
        <ele>206.663489</ele>
        <time>2022-03-03T11:04:38.432Z</time>
      </trkpt>
      <trkpt lat="42.10025" lon="24.88568">
        <ele>206.560808</ele>
        <time>2022-03-03T11:04:41.458Z</time>
      </trkpt>
      <trkpt lat="42.10023" lon="24.88554">
        <ele>206.45145</ele>
        <time>2022-03-03T11:04:44.431Z</time>
      </trkpt>
      <trkpt lat="42.10022" lon="24.88541">
        <ele>206.348343</ele>
        <time>2022-03-03T11:04:47.446Z</time>
      </trkpt>
      <trkpt lat="42.1002" lon="24.88528">
        <ele>206.239172</ele>
        <time>2022-03-03T11:04:50.433Z</time>
      </trkpt>
      <trkpt lat="42.10019" lon="24.88514">
        <ele>206.123284</ele>
        <time>2022-03-03T11:04:53.431Z</time>
      </trkpt>
      <trkpt lat="42.10018" lon="24.885">
        <ele>206.012623</ele>
        <time>2022-03-03T11:04:56.429Z</time>
      </trkpt>
      <trkpt lat="42.10018" lon="24.88487">
        <ele>205.907223</ele>
        <time>2022-03-03T11:04:59.435Z</time>
      </trkpt>
      <trkpt lat="42.10016" lon="24.88474">
        <ele>205.802984</ele>
        <time>2022-03-03T11:05:02.428Z</time>
      </trkpt>
      <trkpt lat="42.10015" lon="24.88461">
        <ele>205.700303</ele>
        <time>2022-03-03T11:05:05.416Z</time>
      </trkpt>
      <trkpt lat="42.10014" lon="24.88448">
        <ele>205.593749</ele>
        <time>2022-03-03T11:05:08.442Z</time>
      </trkpt>
      <trkpt lat="42.10013" lon="24.88435">
        <ele>205.487547</ele>
        <time>2022-03-03T11:05:11.434Z</time>
      </trkpt>
      <trkpt lat="42.10013" lon="24.88422">
        <ele>205.381494</ele>
        <time>2022-03-03T11:05:14.488Z</time>
      </trkpt>
      <trkpt lat="42.10012" lon="24.88409">
        <ele>205.278242</ele>
        <time>2022-03-03T11:05:17.433Z</time>
      </trkpt>
      <trkpt lat="42.10011" lon="24.88396">
        <ele>205.174493</ele>
        <time>2022-03-03T11:05:20.442Z</time>
      </trkpt>
      <trkpt lat="42.1001" lon="24.88384">
        <ele>205.308991</ele>
        <time>2022-03-03T11:05:23.426Z</time>
      </trkpt>
      <trkpt lat="42.10009" lon="24.88371">
        <ele>205.547196</ele>
        <time>2022-03-03T11:05:26.446Z</time>
      </trkpt>
      <trkpt lat="42.10008" lon="24.88359">
        <ele>205.784072</ele>
        <time>2022-03-03T11:05:29.435Z</time>
      </trkpt>
      <trkpt lat="42.10006" lon="24.88347">
        <ele>206.015662</ele>
        <time>2022-03-03T11:05:32.471Z</time>
      </trkpt>
      <trkpt lat="42.10006" lon="24.88334">
        <ele>206.257614</ele>
        <time>2022-03-03T11:05:35.433Z</time>
      </trkpt>
      <trkpt lat="42.10004" lon="24.88318">
        <ele>206.555833</ele>
        <time>2022-03-03T11:05:39.429Z</time>
      </trkpt>
      <trkpt lat="42.10003" lon="24.88303">
        <ele>206.844465</ele>
        <time>2022-03-03T11:05:43.464Z</time>
      </trkpt>
      <trkpt lat="42.10002" lon="24.88287">
        <ele>207.136686</ele>
        <time>2022-03-03T11:05:47.427Z</time>
      </trkpt>
      <trkpt lat="42.10001" lon="24.88275">
        <ele>207.367957</ele>
        <time>2022-03-03T11:05:50.442Z</time>
      </trkpt>
      <trkpt lat="42.1" lon="24.88263">
        <ele>207.600268</ele>
        <time>2022-03-03T11:05:53.435Z</time>
      </trkpt>
      <trkpt lat="42.09999" lon="24.88247">
        <ele>207.893534</ele>
        <time>2022-03-03T11:05:57.449Z</time>
      </trkpt>
      <trkpt lat="42.09997" lon="24.88235">
        <ele>208.132924</ele>
        <time>2022-03-03T11:06:00.476Z</time>
      </trkpt>
      <trkpt lat="42.09995" lon="24.8822">
        <ele>208.423877</ele>
        <time>2022-03-03T11:06:04.424Z</time>
      </trkpt>
      <trkpt lat="42.09998" lon="24.88207">
        <ele>208.671392</ele>
        <time>2022-03-03T11:06:08.426Z</time>
      </trkpt>
      <trkpt lat="42.10005" lon="24.88195">
        <ele>208.952641</ele>
        <time>2022-03-03T11:06:13.435Z</time>
      </trkpt>
      <trkpt lat="42.09999" lon="24.88169">
        <ele>209.474504</ele>
        <time>2022-03-03T11:13:36.471Z</time>
      </trkpt>
      <trkpt lat="42.09992" lon="24.88157">
        <ele>209.774327</ele>
        <time>2022-03-03T11:13:40.447Z</time>
      </trkpt>
      <trkpt lat="42.09988" lon="24.88146">
        <ele>210.174669</ele>
        <time>2022-03-03T11:13:43.437Z</time>
      </trkpt>
      <trkpt lat="42.09985" lon="24.88133">
        <ele>210.61797</ele>
        <time>2022-03-03T11:13:46.436Z</time>
      </trkpt>
      <trkpt lat="42.09984" lon="24.88119">
        <ele>211.051561</ele>
        <time>2022-03-03T11:13:49.442Z</time>
      </trkpt>
      <trkpt lat="42.09982" lon="24.88106">
        <ele>211.497331</ele>
        <time>2022-03-03T11:13:52.424Z</time>
      </trkpt>
      <trkpt lat="42.09982" lon="24.88091">
        <ele>211.95119</ele>
        <time>2022-03-03T11:13:55.410Z</time>
      </trkpt>
      <trkpt lat="42.09979" lon="24.88078">
        <ele>212.398047</ele>
        <time>2022-03-03T11:13:58.434Z</time>
      </trkpt>
      <trkpt lat="42.09977" lon="24.88065">
        <ele>212.830461</ele>
        <time>2022-03-03T11:14:01.467Z</time>
      </trkpt>
      <trkpt lat="42.09976" lon="24.88053">
        <ele>213.220551</ele>
        <time>2022-03-03T11:14:04.417Z</time>
      </trkpt>
      <trkpt lat="42.09975" lon="24.8804">
        <ele>213.628764</ele>
        <time>2022-03-03T11:14:07.434Z</time>
      </trkpt>
      <trkpt lat="42.09974" lon="24.88025">
        <ele>214.097279</ele>
        <time>2022-03-03T11:14:10.461Z</time>
      </trkpt>
      <trkpt lat="42.09972" lon="24.88009">
        <ele>214.627209</ele>
        <time>2022-03-03T11:14:13.436Z</time>
      </trkpt>
      <trkpt lat="42.09971" lon="24.87994">
        <ele>215.094613</ele>
        <time>2022-03-03T11:14:16.430Z</time>
      </trkpt>
      <trkpt lat="42.09967" lon="24.87982">
        <ele>215.538031</ele>
        <time>2022-03-03T11:14:19.433Z</time>
      </trkpt>
      <trkpt lat="42.09964" lon="24.87967">
        <ele>216.005176</ele>
        <time>2022-03-03T11:14:22.482Z</time>
      </trkpt>
      <trkpt lat="42.09962" lon="24.87952">
        <ele>216.505349</ele>
        <time>2022-03-03T11:14:25.429Z</time>
      </trkpt>
      <trkpt lat="42.09962" lon="24.87938">
        <ele>216.959208</ele>
        <time>2022-03-03T11:14:28.437Z</time>
      </trkpt>
      <trkpt lat="42.09961" lon="24.87922">
        <ele>217.44977</ele>
        <time>2022-03-03T11:14:31.457Z</time>
      </trkpt>
      <trkpt lat="42.09962" lon="24.87908">
        <ele>217.737303</ele>
        <time>2022-03-03T11:14:34.423Z</time>
      </trkpt>
      <trkpt lat="42.09965" lon="24.87893">
        <ele>218.038525</ele>
        <time>2022-03-03T11:14:37.433Z</time>
      </trkpt>
      <trkpt lat="42.09967" lon="24.87879">
        <ele>218.340151</ele>
        <time>2022-03-03T11:14:40.457Z</time>
      </trkpt>
      <trkpt lat="42.09968" lon="24.87865">
        <ele>218.617627</ele>
        <time>2022-03-03T11:14:43.442Z</time>
      </trkpt>
      <trkpt lat="42.09969" lon="24.87851">
        <ele>218.895637</ele>
        <time>2022-03-03T11:14:46.451Z</time>
      </trkpt>
      <trkpt lat="42.0997" lon="24.87838">
        <ele>219.151706</ele>
        <time>2022-03-03T11:14:49.434Z</time>
      </trkpt>
      <trkpt lat="42.09972" lon="24.87824">
        <ele>219.436269</ele>
        <time>2022-03-03T11:14:53.437Z</time>
      </trkpt>
      <trkpt lat="42.09972" lon="24.87811">
        <ele>219.703608</ele>
        <time>2022-03-03T11:14:57.449Z</time>
      </trkpt>
      <trkpt lat="42.09971" lon="24.87796">
        <ele>220.01039</ele>
        <time>2022-03-03T11:15:02.460Z</time>
      </trkpt>
      <trkpt lat="42.09975" lon="24.87781">
        <ele>220.324493</ele>
        <time>2022-03-03T11:15:06.443Z</time>
      </trkpt>
      <trkpt lat="42.09979" lon="24.87769">
        <ele>220.58425</ele>
        <time>2022-03-03T11:15:09.471Z</time>
      </trkpt>
      <trkpt lat="42.09982" lon="24.87757">
        <ele>220.846471</ele>
        <time>2022-03-03T11:15:12.417Z</time>
      </trkpt>
      <trkpt lat="42.09981" lon="24.87744">
        <ele>221.106261</ele>
        <time>2022-03-03T11:15:16.480Z</time>
      </trkpt>
      <trkpt lat="42.09983" lon="24.8773">
        <ele>221.384331</ele>
        <time>2022-03-03T11:15:20.448Z</time>
      </trkpt>
      <trkpt lat="42.09985" lon="24.87714">
        <ele>221.711986</ele>
        <time>2022-03-03T11:15:24.425Z</time>
      </trkpt>
      <trkpt lat="42.09989" lon="24.87703">
        <ele>221.964827</ele>
        <time>2022-03-03T11:15:27.478Z</time>
      </trkpt>
      <trkpt lat="42.09992" lon="24.8769">
        <ele>222.229939</ele>
        <time>2022-03-03T11:15:30.448Z</time>
      </trkpt>
      <trkpt lat="42.09995" lon="24.87678">
        <ele>222.138417</ele>
        <time>2022-03-03T11:15:33.458Z</time>
      </trkpt>
      <trkpt lat="42.09997" lon="24.87665">
        <ele>221.896681</ele>
        <time>2022-03-03T11:15:36.450Z</time>
      </trkpt>
      <trkpt lat="42.1" lon="24.87653">
        <ele>221.657331</ele>
        <time>2022-03-03T11:15:39.469Z</time>
      </trkpt>
      <trkpt lat="42.10003" lon="24.87639">
        <ele>221.371256</ele>
        <time>2022-03-03T11:15:42.436Z</time>
      </trkpt>
      <trkpt lat="42.10006" lon="24.87626">
        <ele>221.123633</ele>
        <time>2022-03-03T11:15:45.442Z</time>
      </trkpt>
      <trkpt lat="42.10008" lon="24.87613">
        <ele>220.867559</ele>
        <time>2022-03-03T11:15:48.449Z</time>
      </trkpt>
      <trkpt lat="42.10009" lon="24.87596">
        <ele>220.546505</ele>
        <time>2022-03-03T11:15:51.446Z</time>
      </trkpt>
      <trkpt lat="42.10012" lon="24.87581">
        <ele>220.264676</ele>
        <time>2022-03-03T11:15:54.418Z</time>
      </trkpt>
      <trkpt lat="42.10013" lon="24.87564">
        <ele>219.950386</ele>
        <time>2022-03-03T11:15:57.453Z</time>
      </trkpt>
      <trkpt lat="42.10014" lon="24.87549">
        <ele>219.656644</ele>
        <time>2022-03-03T11:16:00.453Z</time>
      </trkpt>
      <trkpt lat="42.10017" lon="24.87533">
        <ele>219.352084</ele>
        <time>2022-03-03T11:16:03.427Z</time>
      </trkpt>
      <trkpt lat="42.10017" lon="24.87517">
        <ele>219.058569</ele>
        <time>2022-03-03T11:16:06.423Z</time>
      </trkpt>
      <trkpt lat="42.10019" lon="24.875">
        <ele>218.736393</ele>
        <time>2022-03-03T11:16:09.452Z</time>
      </trkpt>
      <trkpt lat="42.1002" lon="24.87484">
        <ele>218.436347</ele>
        <time>2022-03-03T11:16:12.408Z</time>
      </trkpt>
      <trkpt lat="42.10024" lon="24.87469">
        <ele>218.139777</ele>
        <time>2022-03-03T11:16:15.449Z</time>
      </trkpt>
      <trkpt lat="42.10027" lon="24.87453">
        <ele>217.828472</ele>
        <time>2022-03-03T11:16:18.437Z</time>
      </trkpt>
      <trkpt lat="42.1003" lon="24.87439">
        <ele>217.414442</ele>
        <time>2022-03-03T11:16:21.423Z</time>
      </trkpt>
      <trkpt lat="42.10034" lon="24.87426">
        <ele>216.944648</ele>
        <time>2022-03-03T11:16:24.467Z</time>
      </trkpt>
      <trkpt lat="42.10038" lon="24.87411">
        <ele>216.446483</ele>
        <time>2022-03-03T11:16:27.437Z</time>
      </trkpt>
      <trkpt lat="42.10043" lon="24.87397">
        <ele>215.949707</ele>
        <time>2022-03-03T11:16:30.405Z</time>
      </trkpt>
      <trkpt lat="42.10047" lon="24.87381">
        <ele>215.427356</ele>
        <time>2022-03-03T11:16:33.442Z</time>
      </trkpt>
      <trkpt lat="42.1005" lon="24.87367">
        <ele>214.944128</ele>
        <time>2022-03-03T11:16:36.432Z</time>
      </trkpt>
      <trkpt lat="42.10053" lon="24.87352">
        <ele>214.463933</ele>
        <time>2022-03-03T11:16:39.448Z</time>
      </trkpt>
      <trkpt lat="42.10054" lon="24.87337">
        <ele>213.998633</ele>
        <time>2022-03-03T11:16:42.476Z</time>
      </trkpt>
      <trkpt lat="42.10058" lon="24.87323">
        <ele>213.509181</ele>
        <time>2022-03-03T11:16:45.463Z</time>
      </trkpt>
      <trkpt lat="42.10062" lon="24.87307">
        <ele>212.973672</ele>
        <time>2022-03-03T11:16:48.433Z</time>
      </trkpt>
      <trkpt lat="42.10066" lon="24.8729">
        <ele>212.416694</ele>
        <time>2022-03-03T11:16:51.451Z</time>
      </trkpt>
      <trkpt lat="42.10069" lon="24.87275">
        <ele>211.905988</ele>
        <time>2022-03-03T11:16:54.425Z</time>
      </trkpt>
      <trkpt lat="42.10071" lon="24.87261">
        <ele>211.463365</ele>
        <time>2022-03-03T11:16:57.458Z</time>
      </trkpt>
      <trkpt lat="42.10071" lon="24.87246">
        <ele>210.97314</ele>
        <time>2022-03-03T11:17:00.453Z</time>
      </trkpt>
      <trkpt lat="42.10074" lon="24.87232">
        <ele>210.526348</ele>
        <time>2022-03-03T11:17:03.466Z</time>
      </trkpt>
      <trkpt lat="42.10069" lon="24.87219">
        <ele>210.046334</ele>
        <time>2022-03-03T11:17:06.437Z</time>
      </trkpt>
      <trkpt lat="42.10061" lon="24.87209">
        <ele>210.133487</ele>
        <time>2022-03-03T11:17:09.457Z</time>
      </trkpt>
      <trkpt lat="42.10052" lon="24.872">
        <ele>210.222829</ele>
        <time>2022-03-03T11:17:12.472Z</time>
      </trkpt>
      <trkpt lat="42.10044" lon="24.87191">
        <ele>210.309693</ele>
        <time>2022-03-03T11:17:15.437Z</time>
      </trkpt>
      <trkpt lat="42.10036" lon="24.87182">
        <ele>210.398341</ele>
        <time>2022-03-03T11:17:18.443Z</time>
      </trkpt>
      <trkpt lat="42.10028" lon="24.87172">
        <ele>210.484536</ele>
        <time>2022-03-03T11:17:21.435Z</time>
      </trkpt>
      <trkpt lat="42.10022" lon="24.87158">
        <ele>210.580483</ele>
        <time>2022-03-03T11:17:24.428Z</time>
      </trkpt>
      <trkpt lat="42.10019" lon="24.87143">
        <ele>210.673905</ele>
        <time>2022-03-03T11:17:27.427Z</time>
      </trkpt>
      <trkpt lat="42.10018" lon="24.87129">
        <ele>210.763555</ele>
        <time>2022-03-03T11:17:30.421Z</time>
      </trkpt>
      <trkpt lat="42.10016" lon="24.87114">
        <ele>210.853279</ele>
        <time>2022-03-03T11:17:33.475Z</time>
      </trkpt>
      <trkpt lat="42.10014" lon="24.87101">
        <ele>210.938339</ele>
        <time>2022-03-03T11:17:36.438Z</time>
      </trkpt>
      <trkpt lat="42.10013" lon="24.87087">
        <ele>211.021046</ele>
        <time>2022-03-03T11:17:39.438Z</time>
      </trkpt>
      <trkpt lat="42.10012" lon="24.87073">
        <ele>211.105945</ele>
        <time>2022-03-03T11:17:42.464Z</time>
      </trkpt>
      <trkpt lat="42.1001" lon="24.87059">
        <ele>211.196722</ele>
        <time>2022-03-03T11:17:45.424Z</time>
      </trkpt>
      <trkpt lat="42.10008" lon="24.87044">
        <ele>211.288764</ele>
        <time>2022-03-03T11:17:48.465Z</time>
      </trkpt>
      <trkpt lat="42.10006" lon="24.87029">
        <ele>211.379693</ele>
        <time>2022-03-03T11:17:51.446Z</time>
      </trkpt>
      <trkpt lat="42.10005" lon="24.87014">
        <ele>211.472376</ele>
        <time>2022-03-03T11:17:54.415Z</time>
      </trkpt>
      <trkpt lat="42.10004" lon="24.86998">
        <ele>211.580251</ele>
        <time>2022-03-03T11:17:57.423Z</time>
      </trkpt>
      <trkpt lat="42.10002" lon="24.86984">
        <ele>211.695372</ele>
        <time>2022-03-03T11:18:00.471Z</time>
      </trkpt>
      <trkpt lat="42.10001" lon="24.86969">
        <ele>211.807756</ele>
        <time>2022-03-03T11:18:03.437Z</time>
      </trkpt>
      <trkpt lat="42.1" lon="24.86953">
        <ele>211.927869</ele>
        <time>2022-03-03T11:18:06.417Z</time>
      </trkpt>
      <trkpt lat="42.09998" lon="24.86937">
        <ele>212.052826</ele>
        <time>2022-03-03T11:18:09.432Z</time>
      </trkpt>
      <trkpt lat="42.09997" lon="24.86923">
        <ele>212.162829</ele>
        <time>2022-03-03T11:18:12.443Z</time>
      </trkpt>
      <trkpt lat="42.09997" lon="24.8691">
        <ele>212.260224</ele>
        <time>2022-03-03T11:18:15.422Z</time>
      </trkpt>
      <trkpt lat="42.09996" lon="24.86894">
        <ele>212.38536</ele>
        <time>2022-03-03T11:18:19.454Z</time>
      </trkpt>
      <trkpt lat="42.09995" lon="24.8688">
        <ele>212.489732</ele>
        <time>2022-03-03T11:18:22.457Z</time>
      </trkpt>
      <trkpt lat="42.09994" lon="24.86867">
        <ele>212.592848</ele>
        <time>2022-03-03T11:18:25.424Z</time>
      </trkpt>
      <trkpt lat="42.09994" lon="24.86854">
        <ele>212.69411</ele>
        <time>2022-03-03T11:18:28.425Z</time>
      </trkpt>
      <trkpt lat="42.09995" lon="24.8684">
        <ele>212.80466</ele>
        <time>2022-03-03T11:18:31.451Z</time>
      </trkpt>
      <trkpt lat="42.09995" lon="24.86825">
        <ele>212.913547</ele>
        <time>2022-03-03T11:18:34.416Z</time>
      </trkpt>
      <trkpt lat="42.09994" lon="24.86813">
        <ele>213.011925</ele>
        <time>2022-03-03T11:18:37.426Z</time>
      </trkpt>
      <trkpt lat="42.09994" lon="24.86797">
        <ele>213.13227</ele>
        <time>2022-03-03T11:18:40.432Z</time>
      </trkpt>
      <trkpt lat="42.09996" lon="24.86781">
        <ele>213.257827</ele>
        <time>2022-03-03T11:18:43.433Z</time>
      </trkpt>
      <trkpt lat="42.09996" lon="24.86768">
        <ele>213.354495</ele>
        <time>2022-03-03T11:18:45.447Z</time>
      </trkpt>
      <trkpt lat="42.09998" lon="24.8675">
        <ele>213.243577</ele>
        <time>2022-03-03T11:18:48.537Z</time>
      </trkpt>
      <trkpt lat="42.09999" lon="24.86733">
        <ele>213.076093</ele>
        <time>2022-03-03T11:18:51.423Z</time>
      </trkpt>
      <trkpt lat="42.09999" lon="24.86715">
        <ele>212.901192</ele>
        <time>2022-03-03T11:18:54.423Z</time>
      </trkpt>
      <trkpt lat="42.09999" lon="24.86703">
        <ele>212.780109</ele>
        <time>2022-03-03T11:18:56.438Z</time>
      </trkpt>
      <trkpt lat="42.10001" lon="24.86685">
        <ele>212.601581</ele>
        <time>2022-03-03T11:18:59.438Z</time>
      </trkpt>
      <trkpt lat="42.10002" lon="24.86672">
        <ele>212.473967</ele>
        <time>2022-03-03T11:19:01.468Z</time>
      </trkpt>
      <trkpt lat="42.10002" lon="24.86659">
        <ele>212.352778</ele>
        <time>2022-03-03T11:19:03.434Z</time>
      </trkpt>
      <trkpt lat="42.10004" lon="24.86642">
        <ele>212.180448</ele>
        <time>2022-03-03T11:19:06.417Z</time>
      </trkpt>
      <trkpt lat="42.10006" lon="24.86626">
        <ele>212.018034</ele>
        <time>2022-03-03T11:19:09.425Z</time>
      </trkpt>
      <trkpt lat="42.10012" lon="24.86611">
        <ele>211.862235</ele>
        <time>2022-03-03T11:19:12.444Z</time>
      </trkpt>
      <trkpt lat="42.10023" lon="24.86603">
        <ele>211.690759</ele>
        <time>2022-03-03T11:19:15.429Z</time>
      </trkpt>
      <trkpt lat="42.10034" lon="24.86609">
        <ele>211.540676</ele>
        <time>2022-03-03T11:19:18.441Z</time>
      </trkpt>
      <trkpt lat="42.10043" lon="24.86616">
        <ele>211.406765</ele>
        <time>2022-03-03T11:19:21.440Z</time>
      </trkpt>
      <trkpt lat="42.10052" lon="24.86621">
        <ele>211.273506</ele>
        <time>2022-03-03T11:19:25.435Z</time>
      </trkpt>
      <trkpt lat="42.10061" lon="24.86627">
        <ele>211.146955</ele>
        <time>2022-03-03T11:19:30.433Z</time>
      </trkpt>
      <trkpt lat="42.10068" lon="24.86635">
        <ele>211.019142</ele>
        <time>2022-03-03T11:19:37.427Z</time>
      </trkpt>
      <trkpt lat="42.10077" lon="24.86642">
        <ele>210.870725</ele>
        <time>2022-03-03T11:19:43.432Z</time>
      </trkpt>
      <trkpt lat="42.10085" lon="24.86648">
        <ele>210.730397</ele>
        <time>2022-03-03T11:19:49.424Z</time>
      </trkpt>
      <trkpt lat="42.10095" lon="24.86655">
        <ele>210.575599</ele>
        <time>2022-03-03T11:19:55.468Z</time>
      </trkpt>
      <trkpt lat="42.10103" lon="24.86662">
        <ele>210.435095</ele>
        <time>2022-03-03T11:20:01.433Z</time>
      </trkpt>
      <trkpt lat="42.10111" lon="24.86669">
        <ele>210.286753</ele>
        <time>2022-03-03T11:20:08.441Z</time>
      </trkpt>
      <trkpt lat="42.1012" lon="24.86675">
        <ele>210.151234</ele>
        <time>2022-03-03T11:20:14.469Z</time>
      </trkpt>
      <trkpt lat="42.10128" lon="24.8668">
        <ele>210.01834</ele>
        <time>2022-03-03T11:20:20.491Z</time>
      </trkpt>
      <trkpt lat="42.10136" lon="24.86686">
        <ele>209.88575</ele>
        <time>2022-03-03T11:20:26.431Z</time>
      </trkpt>
      <trkpt lat="42.10144" lon="24.86692">
        <ele>209.747622</ele>
        <time>2022-03-03T11:20:32.443Z</time>
      </trkpt>
      <trkpt lat="42.10152" lon="24.86698">
        <ele>209.609102</ele>
        <time>2022-03-03T11:20:38.421Z</time>
      </trkpt>
      <trkpt lat="42.10162" lon="24.86704">
        <ele>209.452275</ele>
        <time>2022-03-03T11:20:44.426Z</time>
      </trkpt>
      <trkpt lat="42.10171" lon="24.86709">
        <ele>209.309092</ele>
        <time>2022-03-03T11:20:49.435Z</time>
      </trkpt>
      <trkpt lat="42.1018" lon="24.86714">
        <ele>209.169644</ele>
        <time>2022-03-03T11:20:54.418Z</time>
      </trkpt>
      <trkpt lat="42.10189" lon="24.8672">
        <ele>209.026112</ele>
        <time>2022-03-03T11:20:58.471Z</time>
      </trkpt>
      <trkpt lat="42.102" lon="24.86725">
        <ele>208.850802</ele>
        <time>2022-03-03T11:21:02.422Z</time>
      </trkpt>
      <trkpt lat="42.10211" lon="24.8673">
        <ele>208.683767</ele>
        <time>2022-03-03T11:21:05.427Z</time>
      </trkpt>
      <trkpt lat="42.10223" lon="24.86735">
        <ele>208.495031</ele>
        <time>2022-03-03T11:21:08.437Z</time>
      </trkpt>
      <trkpt lat="42.10236" lon="24.8674">
        <ele>208.245955</ele>
        <time>2022-03-03T11:21:11.404Z</time>
      </trkpt>
      <trkpt lat="42.10246" lon="24.86743">
        <ele>208.002696</ele>
        <time>2022-03-03T11:21:13.439Z</time>
      </trkpt>
      <trkpt lat="42.10258" lon="24.86748">
        <ele>207.706445</ele>
        <time>2022-03-03T11:21:15.453Z</time>
      </trkpt>
      <trkpt lat="42.10271" lon="24.86754">
        <ele>207.405812</ele>
        <time>2022-03-03T11:21:17.430Z</time>
      </trkpt>
      <trkpt lat="42.10282" lon="24.86759">
        <ele>207.132732</ele>
        <time>2022-03-03T11:21:19.449Z</time>
      </trkpt>
      <trkpt lat="42.10292" lon="24.86763">
        <ele>206.890374</ele>
        <time>2022-03-03T11:21:21.477Z</time>
      </trkpt>
      <trkpt lat="42.10301" lon="24.86764">
        <ele>206.6731</ele>
        <time>2022-03-03T11:21:23.471Z</time>
      </trkpt>
      <trkpt lat="42.1031" lon="24.8676">
        <ele>206.447071</ele>
        <time>2022-03-03T11:21:25.428Z</time>
      </trkpt>
      <trkpt lat="42.10319" lon="24.86753">
        <ele>206.209829</ele>
        <time>2022-03-03T11:21:27.436Z</time>
      </trkpt>
      <trkpt lat="42.10326" lon="24.8674">
        <ele>205.944282</ele>
        <time>2022-03-03T11:21:29.439Z</time>
      </trkpt>
      <trkpt lat="42.1033" lon="24.86726">
        <ele>205.670045</ele>
        <time>2022-03-03T11:21:31.451Z</time>
      </trkpt>
      <trkpt lat="42.10331" lon="24.8671">
        <ele>205.405734</ele>
        <time>2022-03-03T11:21:33.459Z</time>
      </trkpt>
      <trkpt lat="42.10331" lon="24.86696">
        <ele>205.153013</ele>
        <time>2022-03-03T11:21:35.516Z</time>
      </trkpt>
      <trkpt lat="42.10331" lon="24.86683">
        <ele>204.934898</ele>
        <time>2022-03-03T11:21:37.436Z</time>
      </trkpt>
      <trkpt lat="42.10331" lon="24.86669">
        <ele>204.680489</ele>
        <time>2022-03-03T11:21:40.409Z</time>
      </trkpt>
      <trkpt lat="42.1033" lon="24.86655">
        <ele>204.450203</ele>
        <time>2022-03-03T11:21:43.438Z</time>
      </trkpt>
      <trkpt lat="42.10331" lon="24.8664">
        <ele>204.183144</ele>
        <time>2022-03-03T11:21:47.422Z</time>
      </trkpt>
      <trkpt lat="42.10332" lon="24.86623">
        <ele>204.12147</ele>
        <time>2022-03-03T11:21:51.457Z</time>
      </trkpt>
      <trkpt lat="42.10332" lon="24.86608">
        <ele>204.062836</ele>
        <time>2022-03-03T11:21:54.444Z</time>
      </trkpt>
      <trkpt lat="42.10331" lon="24.86592">
        <ele>204.004899</ele>
        <time>2022-03-03T11:21:57.492Z</time>
      </trkpt>
      <trkpt lat="42.10331" lon="24.86576">
        <ele>203.944008</ele>
        <time>2022-03-03T11:22:00.432Z</time>
      </trkpt>
      <trkpt lat="42.10331" lon="24.8656">
        <ele>203.884979</ele>
        <time>2022-03-03T11:22:03.439Z</time>
      </trkpt>
      <trkpt lat="42.10331" lon="24.86544">
        <ele>203.822944</ele>
        <time>2022-03-03T11:22:06.438Z</time>
      </trkpt>
      <trkpt lat="42.10331" lon="24.86526">
        <ele>203.756417</ele>
        <time>2022-03-03T11:22:09.443Z</time>
      </trkpt>
      <trkpt lat="42.10332" lon="24.86509">
        <ele>203.691197</ele>
        <time>2022-03-03T11:22:12.444Z</time>
      </trkpt>
      <trkpt lat="42.10334" lon="24.86492">
        <ele>203.625233</ele>
        <time>2022-03-03T11:22:15.431Z</time>
      </trkpt>
      <trkpt lat="42.10335" lon="24.86479">
        <ele>203.578908</ele>
        <time>2022-03-03T11:22:17.434Z</time>
      </trkpt>
      <trkpt lat="42.10337" lon="24.86467">
        <ele>203.532057</ele>
        <time>2022-03-03T11:22:19.467Z</time>
      </trkpt>
      <trkpt lat="42.10339" lon="24.86455">
        <ele>203.485831</ele>
        <time>2022-03-03T11:22:21.456Z</time>
      </trkpt>
      <trkpt lat="42.10343" lon="24.86438">
        <ele>203.419035</ele>
        <time>2022-03-03T11:22:24.443Z</time>
      </trkpt>
      <trkpt lat="42.10349" lon="24.86424">
        <ele>203.356457</ele>
        <time>2022-03-03T11:22:27.432Z</time>
      </trkpt>
      <trkpt lat="42.10356" lon="24.86411">
        <ele>203.296964</ele>
        <time>2022-03-03T11:22:30.471Z</time>
      </trkpt>
      <trkpt lat="42.10363" lon="24.86398">
        <ele>203.225337</ele>
        <time>2022-03-03T11:22:33.437Z</time>
      </trkpt>
      <trkpt lat="42.1037" lon="24.86387">
        <ele>203.146757</ele>
        <time>2022-03-03T11:22:36.419Z</time>
      </trkpt>
      <trkpt lat="42.10376" lon="24.86374">
        <ele>203.067734</ele>
        <time>2022-03-03T11:22:39.455Z</time>
      </trkpt>
      <trkpt lat="42.10382" lon="24.86362">
        <ele>202.986617</ele>
        <time>2022-03-03T11:22:42.427Z</time>
      </trkpt>
      <trkpt lat="42.10389" lon="24.86349">
        <ele>202.903382</ele>
        <time>2022-03-03T11:22:45.429Z</time>
      </trkpt>
      <trkpt lat="42.10396" lon="24.86337">
        <ele>202.826527</ele>
        <time>2022-03-03T11:22:48.454Z</time>
      </trkpt>
      <trkpt lat="42.10402" lon="24.86326">
        <ele>202.748385</ele>
        <time>2022-03-03T11:22:51.474Z</time>
      </trkpt>
      <trkpt lat="42.10409" lon="24.86314">
        <ele>202.671516</ele>
        <time>2022-03-03T11:22:54.422Z</time>
      </trkpt>
      <trkpt lat="42.10415" lon="24.86303">
        <ele>202.596336</ele>
        <time>2022-03-03T11:22:57.430Z</time>
      </trkpt>
      <trkpt lat="42.10422" lon="24.86292">
        <ele>202.520714</ele>
        <time>2022-03-03T11:23:00.448Z</time>
      </trkpt>
      <trkpt lat="42.10428" lon="24.86281">
        <ele>202.446389</ele>
        <time>2022-03-03T11:23:03.417Z</time>
      </trkpt>
      <trkpt lat="42.10435" lon="24.8627">
        <ele>202.375045</ele>
        <time>2022-03-03T11:23:06.434Z</time>
      </trkpt>
      <trkpt lat="42.1044" lon="24.8626">
        <ele>202.306664</ele>
        <time>2022-03-03T11:23:09.424Z</time>
      </trkpt>
      <trkpt lat="42.10446" lon="24.86249">
        <ele>202.238203</ele>
        <time>2022-03-03T11:23:12.426Z</time>
      </trkpt>
      <trkpt lat="42.10451" lon="24.86239">
        <ele>202.171115</ele>
        <time>2022-03-03T11:23:15.453Z</time>
      </trkpt>
      <trkpt lat="42.10458" lon="24.86228">
        <ele>202.096161</ele>
        <time>2022-03-03T11:23:18.454Z</time>
      </trkpt>
      <trkpt lat="42.10465" lon="24.86217">
        <ele>202.018785</ele>
        <time>2022-03-03T11:23:21.428Z</time>
      </trkpt>
      <trkpt lat="42.10472" lon="24.86205">
        <ele>202.020301</ele>
        <time>2022-03-03T11:23:24.426Z</time>
      </trkpt>
      <trkpt lat="42.10478" lon="24.86194">
        <ele>202.06545</ele>
        <time>2022-03-03T11:23:27.435Z</time>
      </trkpt>
      <trkpt lat="42.10484" lon="24.86183">
        <ele>202.110858</ele>
        <time>2022-03-03T11:23:30.481Z</time>
      </trkpt>
      <trkpt lat="42.10491" lon="24.86171">
        <ele>202.157829</ele>
        <time>2022-03-03T11:23:33.452Z</time>
      </trkpt>
      <trkpt lat="42.10498" lon="24.86159">
        <ele>202.205038</ele>
        <time>2022-03-03T11:23:36.437Z</time>
      </trkpt>
      <trkpt lat="42.10505" lon="24.86148">
        <ele>202.25176</ele>
        <time>2022-03-03T11:23:39.442Z</time>
      </trkpt>
      <trkpt lat="42.10511" lon="24.86137">
        <ele>202.297466</ele>
        <time>2022-03-03T11:23:42.436Z</time>
      </trkpt>
      <trkpt lat="42.10518" lon="24.86127">
        <ele>202.341504</ele>
        <time>2022-03-03T11:23:45.443Z</time>
      </trkpt>
      <trkpt lat="42.10525" lon="24.86115">
        <ele>202.388712</ele>
        <time>2022-03-03T11:23:48.418Z</time>
      </trkpt>
      <trkpt lat="42.10532" lon="24.86103">
        <ele>202.437974</ele>
        <time>2022-03-03T11:23:51.436Z</time>
      </trkpt>
      <trkpt lat="42.10538" lon="24.86092">
        <ele>202.482624</ele>
        <time>2022-03-03T11:23:54.418Z</time>
      </trkpt>
      <trkpt lat="42.10544" lon="24.8608">
        <ele>202.527779</ele>
        <time>2022-03-03T11:23:57.476Z</time>
      </trkpt>
      <trkpt lat="42.1055" lon="24.86069">
        <ele>202.571903</ele>
        <time>2022-03-03T11:24:00.429Z</time>
      </trkpt>
      <trkpt lat="42.10556" lon="24.86058">
        <ele>202.613237</ele>
        <time>2022-03-03T11:24:03.471Z</time>
      </trkpt>
      <trkpt lat="42.10562" lon="24.86048">
        <ele>202.656889</ele>
        <time>2022-03-03T11:24:06.445Z</time>
      </trkpt>
      <trkpt lat="42.10569" lon="24.86037">
        <ele>202.701855</ele>
        <time>2022-03-03T11:24:09.465Z</time>
      </trkpt>
      <trkpt lat="42.10575" lon="24.86027">
        <ele>202.743236</ele>
        <time>2022-03-03T11:24:12.444Z</time>
      </trkpt>
      <trkpt lat="42.10581" lon="24.86017">
        <ele>202.775634</ele>
        <time>2022-03-03T11:24:15.468Z</time>
      </trkpt>
      <trkpt lat="42.10586" lon="24.86007">
        <ele>202.79855</ele>
        <time>2022-03-03T11:24:18.443Z</time>
      </trkpt>
      <trkpt lat="42.10592" lon="24.85997">
        <ele>202.822821</ele>
        <time>2022-03-03T11:24:21.424Z</time>
      </trkpt>
      <trkpt lat="42.10598" lon="24.85986">
        <ele>202.847698</ele>
        <time>2022-03-03T11:24:24.421Z</time>
      </trkpt>
      <trkpt lat="42.10604" lon="24.85976">
        <ele>202.872595</ele>
        <time>2022-03-03T11:24:27.425Z</time>
      </trkpt>
      <trkpt lat="42.1061" lon="24.85965">
        <ele>202.898073</ele>
        <time>2022-03-03T11:24:30.428Z</time>
      </trkpt>
      <trkpt lat="42.10616" lon="24.85955">
        <ele>202.922795</ele>
        <time>2022-03-03T11:24:33.439Z</time>
      </trkpt>
      <trkpt lat="42.10622" lon="24.85944">
        <ele>202.947369</ele>
        <time>2022-03-03T11:24:36.442Z</time>
      </trkpt>
      <trkpt lat="42.10627" lon="24.85934">
        <ele>202.971498</ele>
        <time>2022-03-03T11:24:39.465Z</time>
      </trkpt>
      <trkpt lat="42.10633" lon="24.85924">
        <ele>202.996227</ele>
        <time>2022-03-03T11:24:42.429Z</time>
      </trkpt>
      <trkpt lat="42.10639" lon="24.85913">
        <ele>203.020661</ele>
        <time>2022-03-03T11:24:45.430Z</time>
      </trkpt>
      <trkpt lat="42.10646" lon="24.85903">
        <ele>203.047298</ele>
        <time>2022-03-03T11:24:48.465Z</time>
      </trkpt>
      <trkpt lat="42.10653" lon="24.85892">
        <ele>203.07295</ele>
        <time>2022-03-03T11:24:51.437Z</time>
      </trkpt>
      <trkpt lat="42.10659" lon="24.85881">
        <ele>203.098276</ele>
        <time>2022-03-03T11:24:54.421Z</time>
      </trkpt>
      <trkpt lat="42.10665" lon="24.8587">
        <ele>203.12408</ele>
        <time>2022-03-03T11:24:57.458Z</time>
      </trkpt>
      <trkpt lat="42.1067" lon="24.85859">
        <ele>203.148659</ele>
        <time>2022-03-03T11:25:00.446Z</time>
      </trkpt>
      <trkpt lat="42.10677" lon="24.85849">
        <ele>203.174184</ele>
        <time>2022-03-03T11:25:03.419Z</time>
      </trkpt>
      <trkpt lat="42.10683" lon="24.85838">
        <ele>203.200629</ele>
        <time>2022-03-03T11:25:06.449Z</time>
      </trkpt>
      <trkpt lat="42.10689" lon="24.85827">
        <ele>203.194576</ele>
        <time>2022-03-03T11:25:09.438Z</time>
      </trkpt>
      <trkpt lat="42.10696" lon="24.85816">
        <ele>203.081287</ele>
        <time>2022-03-03T11:25:12.427Z</time>
      </trkpt>
      <trkpt lat="42.10703" lon="24.85804">
        <ele>202.966774</ele>
        <time>2022-03-03T11:25:15.434Z</time>
      </trkpt>
      <trkpt lat="42.10709" lon="24.85793">
        <ele>202.860349</ele>
        <time>2022-03-03T11:25:18.443Z</time>
      </trkpt>
      <trkpt lat="42.10714" lon="24.85781">
        <ele>202.754479</ele>
        <time>2022-03-03T11:25:21.430Z</time>
      </trkpt>
      <trkpt lat="42.10721" lon="24.85771">
        <ele>202.646071</ele>
        <time>2022-03-03T11:25:24.417Z</time>
      </trkpt>
      <trkpt lat="42.10728" lon="24.85759">
        <ele>202.532782</ele>
        <time>2022-03-03T11:25:27.459Z</time>
      </trkpt>
      <trkpt lat="42.10734" lon="24.85747">
        <ele>202.420752</ele>
        <time>2022-03-03T11:25:30.438Z</time>
      </trkpt>
      <trkpt lat="42.1074" lon="24.85736">
        <ele>202.311851</ele>
        <time>2022-03-03T11:25:33.426Z</time>
      </trkpt>
      <trkpt lat="42.10746" lon="24.85725">
        <ele>202.209793</ele>
        <time>2022-03-03T11:25:36.433Z</time>
      </trkpt>
      <trkpt lat="42.10752" lon="24.85715">
        <ele>202.11201</ele>
        <time>2022-03-03T11:25:39.431Z</time>
      </trkpt>
      <trkpt lat="42.10758" lon="24.85705">
        <ele>202.010444</ele>
        <time>2022-03-03T11:25:42.432Z</time>
      </trkpt>
      <trkpt lat="42.10765" lon="24.85696">
        <ele>201.905766</ele>
        <time>2022-03-03T11:25:45.440Z</time>
      </trkpt>
      <trkpt lat="42.10771" lon="24.85684">
        <ele>201.796875</ele>
        <time>2022-03-03T11:25:48.447Z</time>
      </trkpt>
      <trkpt lat="42.10778" lon="24.85672">
        <ele>201.67554</ele>
        <time>2022-03-03T11:25:51.437Z</time>
      </trkpt>
      <trkpt lat="42.10786" lon="24.85661">
        <ele>201.560417</ele>
        <time>2022-03-03T11:25:54.427Z</time>
      </trkpt>
      <trkpt lat="42.10793" lon="24.85652">
        <ele>201.45787</ele>
        <time>2022-03-03T11:25:57.436Z</time>
      </trkpt>
      <trkpt lat="42.10798" lon="24.85641">
        <ele>201.356146</ele>
        <time>2022-03-03T11:26:00.440Z</time>
      </trkpt>
      <trkpt lat="42.10802" lon="24.85627">
        <ele>201.643908</ele>
        <time>2022-03-03T11:26:03.436Z</time>
      </trkpt>
      <trkpt lat="42.10807" lon="24.85615">
        <ele>201.989152</ele>
        <time>2022-03-03T11:26:06.451Z</time>
      </trkpt>
      <trkpt lat="42.10813" lon="24.85604">
        <ele>202.328421</ele>
        <time>2022-03-03T11:26:09.449Z</time>
      </trkpt>
      <trkpt lat="42.10819" lon="24.85592">
        <ele>202.661672</ele>
        <time>2022-03-03T11:26:12.438Z</time>
      </trkpt>
      <trkpt lat="42.10826" lon="24.85581">
        <ele>202.998924</ele>
        <time>2022-03-03T11:26:15.441Z</time>
      </trkpt>
      <trkpt lat="42.10832" lon="24.8557">
        <ele>203.35141</ele>
        <time>2022-03-03T11:26:18.438Z</time>
      </trkpt>
      <trkpt lat="42.10841" lon="24.85558">
        <ele>203.728234</ele>
        <time>2022-03-03T11:26:21.469Z</time>
      </trkpt>
      <trkpt lat="42.10849" lon="24.85546">
        <ele>204.13579</ele>
        <time>2022-03-03T11:26:24.462Z</time>
      </trkpt>
      <trkpt lat="42.10857" lon="24.85533">
        <ele>204.538393</ele>
        <time>2022-03-03T11:26:27.458Z</time>
      </trkpt>
      <trkpt lat="42.10864" lon="24.8552">
        <ele>204.917817</ele>
        <time>2022-03-03T11:26:30.437Z</time>
      </trkpt>
      <trkpt lat="42.10871" lon="24.85509">
        <ele>205.265107</ele>
        <time>2022-03-03T11:26:33.415Z</time>
      </trkpt>
      <trkpt lat="42.10877" lon="24.85498">
        <ele>205.590703</ele>
        <time>2022-03-03T11:26:36.440Z</time>
      </trkpt>
      <trkpt lat="42.10884" lon="24.85487">
        <ele>205.943374</ele>
        <time>2022-03-03T11:26:39.442Z</time>
      </trkpt>
      <trkpt lat="42.10891" lon="24.85475">
        <ele>206.309369</ele>
        <time>2022-03-03T11:26:42.429Z</time>
      </trkpt>
      <trkpt lat="42.10897" lon="24.85461">
        <ele>206.691312</ele>
        <time>2022-03-03T11:26:45.464Z</time>
      </trkpt>
      <trkpt lat="42.10904" lon="24.85447">
        <ele>207.096187</ele>
        <time>2022-03-03T11:26:48.423Z</time>
      </trkpt>
      <trkpt lat="42.10911" lon="24.85434">
        <ele>207.328351</ele>
        <time>2022-03-03T11:26:51.424Z</time>
      </trkpt>
      <trkpt lat="42.10917" lon="24.8542">
        <ele>207.53323</ele>
        <time>2022-03-03T11:26:54.430Z</time>
      </trkpt>
      <trkpt lat="42.10925" lon="24.85408">
        <ele>207.722132</ele>
        <time>2022-03-03T11:26:57.437Z</time>
      </trkpt>
      <trkpt lat="42.10932" lon="24.85395">
        <ele>207.922294</ele>
        <time>2022-03-03T11:27:00.426Z</time>
      </trkpt>
      <trkpt lat="42.10939" lon="24.85384">
        <ele>208.11232</ele>
        <time>2022-03-03T11:27:03.437Z</time>
      </trkpt>
      <trkpt lat="42.10947" lon="24.85372">
        <ele>208.30769</ele>
        <time>2022-03-03T11:27:06.433Z</time>
      </trkpt>
      <trkpt lat="42.10954" lon="24.8536">
        <ele>208.502891</ele>
        <time>2022-03-03T11:27:09.438Z</time>
      </trkpt>
      <trkpt lat="42.10961" lon="24.85347">
        <ele>208.696007</ele>
        <time>2022-03-03T11:27:12.443Z</time>
      </trkpt>
      <trkpt lat="42.10967" lon="24.85335">
        <ele>208.878145</ele>
        <time>2022-03-03T11:27:15.427Z</time>
      </trkpt>
      <trkpt lat="42.10973" lon="24.85322">
        <ele>209.062433</ele>
        <time>2022-03-03T11:27:18.433Z</time>
      </trkpt>
      <trkpt lat="42.10976" lon="24.85308">
        <ele>209.25285</ele>
        <time>2022-03-03T11:27:21.472Z</time>
      </trkpt>
      <trkpt lat="42.10981" lon="24.85296">
        <ele>209.420239</ele>
        <time>2022-03-03T11:27:24.417Z</time>
      </trkpt>
      <trkpt lat="42.10986" lon="24.85283">
        <ele>209.601226</ele>
        <time>2022-03-03T11:27:27.435Z</time>
      </trkpt>
      <trkpt lat="42.1099" lon="24.8527">
        <ele>209.784264</ele>
        <time>2022-03-03T11:27:30.436Z</time>
      </trkpt>
      <trkpt lat="42.10995" lon="24.85256">
        <ele>209.96979</ele>
        <time>2022-03-03T11:27:33.432Z</time>
      </trkpt>
      <trkpt lat="42.10999" lon="24.85241">
        <ele>210.173313</ele>
        <time>2022-03-03T11:27:36.447Z</time>
      </trkpt>
      <trkpt lat="42.11004" lon="24.85226">
        <ele>210.107473</ele>
        <time>2022-03-03T11:27:39.437Z</time>
      </trkpt>
      <trkpt lat="42.11008" lon="24.85212">
        <ele>210.045459</ele>
        <time>2022-03-03T11:27:42.468Z</time>
      </trkpt>
      <trkpt lat="42.11012" lon="24.85198">
        <ele>209.98145</ele>
        <time>2022-03-03T11:27:45.438Z</time>
      </trkpt>
      <trkpt lat="42.11016" lon="24.85185">
        <ele>209.920643</ele>
        <time>2022-03-03T11:27:48.439Z</time>
      </trkpt>
      <trkpt lat="42.11021" lon="24.85172">
        <ele>209.860432</ele>
        <time>2022-03-03T11:27:51.424Z</time>
      </trkpt>
      <trkpt lat="42.11026" lon="24.8516">
        <ele>209.802621</ele>
        <time>2022-03-03T11:27:54.442Z</time>
      </trkpt>
      <trkpt lat="42.11029" lon="24.85146">
        <ele>209.743556</ele>
        <time>2022-03-03T11:27:57.438Z</time>
      </trkpt>
      <trkpt lat="42.11033" lon="24.85132">
        <ele>209.67949</ele>
        <time>2022-03-03T11:28:00.419Z</time>
      </trkpt>
      <trkpt lat="42.11037" lon="24.85119">
        <ele>209.620079</ele>
        <time>2022-03-03T11:28:03.444Z</time>
      </trkpt>
      <trkpt lat="42.11041" lon="24.85107">
        <ele>209.565509</ele>
        <time>2022-03-03T11:28:06.439Z</time>
      </trkpt>
      <trkpt lat="42.11045" lon="24.85095">
        <ele>209.50893</ele>
        <time>2022-03-03T11:28:09.427Z</time>
      </trkpt>
      <trkpt lat="42.11048" lon="24.85082">
        <ele>209.448727</ele>
        <time>2022-03-03T11:28:12.436Z</time>
      </trkpt>
      <trkpt lat="42.11052" lon="24.85068">
        <ele>209.386739</ele>
        <time>2022-03-03T11:28:15.443Z</time>
      </trkpt>
      <trkpt lat="42.11057" lon="24.85057">
        <ele>209.334588</ele>
        <time>2022-03-03T11:28:18.431Z</time>
      </trkpt>
      <trkpt lat="42.11059" lon="24.85045">
        <ele>209.279635</ele>
        <time>2022-03-03T11:28:22.463Z</time>
      </trkpt>
      <trkpt lat="42.11061" lon="24.8503">
        <ele>209.218363</ele>
        <time>2022-03-03T11:28:25.427Z</time>
      </trkpt>
      <trkpt lat="42.11065" lon="24.85016">
        <ele>209.150492</ele>
        <time>2022-03-03T11:28:28.482Z</time>
      </trkpt>
      <trkpt lat="42.11069" lon="24.85002">
        <ele>209.076431</ele>
        <time>2022-03-03T11:28:31.434Z</time>
      </trkpt>
      <trkpt lat="42.11074" lon="24.84988">
        <ele>208.999692</ele>
        <time>2022-03-03T11:28:34.455Z</time>
      </trkpt>
      <trkpt lat="42.11077" lon="24.84975">
        <ele>208.931229</ele>
        <time>2022-03-03T11:28:37.435Z</time>
      </trkpt>
      <trkpt lat="42.11081" lon="24.84961">
        <ele>208.856895</ele>
        <time>2022-03-03T11:28:40.458Z</time>
      </trkpt>
      <trkpt lat="42.11085" lon="24.84948">
        <ele>208.785352</ele>
        <time>2022-03-03T11:28:43.461Z</time>
      </trkpt>
      <trkpt lat="42.1109" lon="24.84934">
        <ele>208.709468</ele>
        <time>2022-03-03T11:28:46.450Z</time>
      </trkpt>
      <trkpt lat="42.11095" lon="24.8492">
        <ele>208.630816</ele>
        <time>2022-03-03T11:28:49.426Z</time>
      </trkpt>
      <trkpt lat="42.11099" lon="24.84905">
        <ele>208.553078</ele>
        <time>2022-03-03T11:28:52.434Z</time>
      </trkpt>
      <trkpt lat="42.11105" lon="24.84891">
        <ele>208.474319</ele>
        <time>2022-03-03T11:28:55.437Z</time>
      </trkpt>
      <trkpt lat="42.1111" lon="24.84877">
        <ele>208.394293</ele>
        <time>2022-03-03T11:28:58.432Z</time>
      </trkpt>
      <trkpt lat="42.11114" lon="24.84863">
        <ele>208.319449</ele>
        <time>2022-03-03T11:29:01.452Z</time>
      </trkpt>
      <trkpt lat="42.1112" lon="24.84848">
        <ele>208.237578</ele>
        <time>2022-03-03T11:29:04.412Z</time>
      </trkpt>
      <trkpt lat="42.11124" lon="24.84834">
        <ele>208.159528</ele>
        <time>2022-03-03T11:29:07.472Z</time>
      </trkpt>
      <trkpt lat="42.11128" lon="24.84819">
        <ele>208.078887</ele>
        <time>2022-03-03T11:29:10.439Z</time>
      </trkpt>
      <trkpt lat="42.11132" lon="24.84804">
        <ele>208.003391</ele>
        <time>2022-03-03T11:29:13.468Z</time>
      </trkpt>
      <trkpt lat="42.11135" lon="24.84789">
        <ele>207.913993</ele>
        <time>2022-03-03T11:29:16.424Z</time>
      </trkpt>
      <trkpt lat="42.11141" lon="24.84774">
        <ele>207.785863</ele>
        <time>2022-03-03T11:29:19.488Z</time>
      </trkpt>
      <trkpt lat="42.11146" lon="24.84758">
        <ele>207.656248</ele>
        <time>2022-03-03T11:29:22.430Z</time>
      </trkpt>
      <trkpt lat="42.1115" lon="24.84742">
        <ele>207.526814</ele>
        <time>2022-03-03T11:29:25.418Z</time>
      </trkpt>
      <trkpt lat="42.11155" lon="24.84725">
        <ele>207.398433</ele>
        <time>2022-03-03T11:29:28.443Z</time>
      </trkpt>
      <trkpt lat="42.11157" lon="24.84714">
        <ele>207.306751</ele>
        <time>2022-03-03T11:29:30.451Z</time>
      </trkpt>
      <trkpt lat="42.11162" lon="24.84702">
        <ele>207.209467</ele>
        <time>2022-03-03T11:29:32.434Z</time>
      </trkpt>
      <trkpt lat="42.11167" lon="24.84686">
        <ele>207.078246</ele>
        <time>2022-03-03T11:29:35.478Z</time>
      </trkpt>
      <trkpt lat="42.11172" lon="24.8467">
        <ele>206.951373</ele>
        <time>2022-03-03T11:29:38.424Z</time>
      </trkpt>
      <trkpt lat="42.11176" lon="24.84657">
        <ele>206.837489</ele>
        <time>2022-03-03T11:29:41.435Z</time>
      </trkpt>
      <trkpt lat="42.11182" lon="24.84643">
        <ele>206.725183</ele>
        <time>2022-03-03T11:29:44.404Z</time>
      </trkpt>
      <trkpt lat="42.11186" lon="24.84628">
        <ele>206.603099</ele>
        <time>2022-03-03T11:29:47.462Z</time>
      </trkpt>
      <trkpt lat="42.1119" lon="24.84613">
        <ele>206.480553</ele>
        <time>2022-03-03T11:29:50.430Z</time>
      </trkpt>
      <trkpt lat="42.11194" lon="24.84597">
        <ele>206.358129</ele>
        <time>2022-03-03T11:29:53.413Z</time>
      </trkpt>
      <trkpt lat="42.11198" lon="24.84583">
        <ele>206.245509</ele>
        <time>2022-03-03T11:29:56.442Z</time>
      </trkpt>
      <trkpt lat="42.11203" lon="24.84569">
        <ele>206.130818</ele>
        <time>2022-03-03T11:29:59.436Z</time>
      </trkpt>
      <trkpt lat="42.11208" lon="24.84555">
        <ele>205.972089</ele>
        <time>2022-03-03T11:30:02.438Z</time>
      </trkpt>
      <trkpt lat="42.11212" lon="24.8454">
        <ele>205.801937</ele>
        <time>2022-03-03T11:30:05.444Z</time>
      </trkpt>
      <trkpt lat="42.11217" lon="24.84525">
        <ele>205.631593</ele>
        <time>2022-03-03T11:30:08.427Z</time>
      </trkpt>
      <trkpt lat="42.11221" lon="24.84509">
        <ele>205.458535</ele>
        <time>2022-03-03T11:30:11.435Z</time>
      </trkpt>
      <trkpt lat="42.11225" lon="24.84493">
        <ele>205.285321</ele>
        <time>2022-03-03T11:30:14.420Z</time>
      </trkpt>
      <trkpt lat="42.11229" lon="24.84477">
        <ele>205.104958</ele>
        <time>2022-03-03T11:30:17.449Z</time>
      </trkpt>
      <trkpt lat="42.11233" lon="24.84461">
        <ele>204.933809</ele>
        <time>2022-03-03T11:30:20.470Z</time>
      </trkpt>
      <trkpt lat="42.11237" lon="24.84446">
        <ele>204.767063</ele>
        <time>2022-03-03T11:30:23.435Z</time>
      </trkpt>
      <trkpt lat="42.11243" lon="24.84431">
        <ele>204.591971</ele>
        <time>2022-03-03T11:30:26.434Z</time>
      </trkpt>
      <trkpt lat="42.11248" lon="24.84415">
        <ele>204.41631</ele>
        <time>2022-03-03T11:30:29.442Z</time>
      </trkpt>
      <trkpt lat="42.11252" lon="24.84401">
        <ele>204.253427</ele>
        <time>2022-03-03T11:30:32.435Z</time>
      </trkpt>
      <trkpt lat="42.11256" lon="24.84388">
        <ele>204.108541</ele>
        <time>2022-03-03T11:30:35.425Z</time>
      </trkpt>
      <trkpt lat="42.11261" lon="24.84375">
        <ele>203.953144</ele>
        <time>2022-03-03T11:30:38.446Z</time>
      </trkpt>
      <trkpt lat="42.11266" lon="24.84358">
        <ele>203.771738</ele>
        <time>2022-03-03T11:30:41.434Z</time>
      </trkpt>
      <trkpt lat="42.1127" lon="24.84343">
        <ele>203.629798</ele>
        <time>2022-03-03T11:30:44.411Z</time>
      </trkpt>
      <trkpt lat="42.11275" lon="24.84328">
        <ele>203.837345</ele>
        <time>2022-03-03T11:30:47.439Z</time>
      </trkpt>
      <trkpt lat="42.1128" lon="24.84314">
        <ele>204.033896</ele>
        <time>2022-03-03T11:30:50.418Z</time>
      </trkpt>
      <trkpt lat="42.11284" lon="24.843">
        <ele>204.22521</ele>
        <time>2022-03-03T11:30:53.426Z</time>
      </trkpt>
      <trkpt lat="42.11288" lon="24.84286">
        <ele>204.423603</ele>
        <time>2022-03-03T11:30:56.475Z</time>
      </trkpt>
      <trkpt lat="42.11292" lon="24.84272">
        <ele>204.608068</ele>
        <time>2022-03-03T11:30:59.463Z</time>
      </trkpt>
      <trkpt lat="42.11297" lon="24.8426">
        <ele>204.789246</ele>
        <time>2022-03-03T11:31:02.438Z</time>
      </trkpt>
      <trkpt lat="42.11301" lon="24.84247">
        <ele>204.973817</ele>
        <time>2022-03-03T11:31:05.469Z</time>
      </trkpt>
      <trkpt lat="42.11305" lon="24.84232">
        <ele>205.164911</ele>
        <time>2022-03-03T11:31:08.442Z</time>
      </trkpt>
      <trkpt lat="42.11308" lon="24.84218">
        <ele>205.35583</ele>
        <time>2022-03-03T11:31:11.412Z</time>
      </trkpt>
      <trkpt lat="42.11311" lon="24.84204">
        <ele>205.546014</ele>
        <time>2022-03-03T11:31:14.411Z</time>
      </trkpt>
      <trkpt lat="42.11316" lon="24.84191">
        <ele>205.733253</ele>
        <time>2022-03-03T11:31:17.458Z</time>
      </trkpt>
      <trkpt lat="42.1132" lon="24.84178">
        <ele>205.908073</ele>
        <time>2022-03-03T11:31:20.423Z</time>
      </trkpt>
      <trkpt lat="42.11323" lon="24.84166">
        <ele>206.075689</ele>
        <time>2022-03-03T11:31:23.511Z</time>
      </trkpt>
      <trkpt lat="42.11326" lon="24.84152">
        <ele>206.26516</ele>
        <time>2022-03-03T11:31:26.445Z</time>
      </trkpt>
      <trkpt lat="42.1133" lon="24.84138">
        <ele>206.456802</ele>
        <time>2022-03-03T11:31:29.427Z</time>
      </trkpt>
      <trkpt lat="42.11334" lon="24.84125">
        <ele>206.638038</ele>
        <time>2022-03-03T11:31:32.426Z</time>
      </trkpt>
      <trkpt lat="42.11339" lon="24.84111">
        <ele>206.71928</ele>
        <time>2022-03-03T11:31:35.431Z</time>
      </trkpt>
      <trkpt lat="42.11343" lon="24.84097">
        <ele>206.719387</ele>
        <time>2022-03-03T11:31:38.434Z</time>
      </trkpt>
      <trkpt lat="42.11349" lon="24.84085">
        <ele>206.719489</ele>
        <time>2022-03-03T11:31:41.435Z</time>
      </trkpt>
      <trkpt lat="42.11353" lon="24.84071">
        <ele>206.719599</ele>
        <time>2022-03-03T11:31:44.431Z</time>
      </trkpt>
      <trkpt lat="42.11357" lon="24.84059">
        <ele>206.719692</ele>
        <time>2022-03-03T11:31:47.442Z</time>
      </trkpt>
      <trkpt lat="42.11359" lon="24.84045">
        <ele>206.719794</ele>
        <time>2022-03-03T11:31:50.442Z</time>
      </trkpt>
      <trkpt lat="42.11364" lon="24.84031">
        <ele>206.719904</ele>
        <time>2022-03-03T11:31:53.418Z</time>
      </trkpt>
      <trkpt lat="42.11368" lon="24.84017">
        <ele>206.720011</ele>
        <time>2022-03-03T11:31:56.468Z</time>
      </trkpt>
      <trkpt lat="42.11371" lon="24.84003">
        <ele>206.720113</ele>
        <time>2022-03-03T11:31:59.437Z</time>
      </trkpt>
      <trkpt lat="42.11375" lon="24.8399">
        <ele>206.720212</ele>
        <time>2022-03-03T11:32:02.425Z</time>
      </trkpt>
      <trkpt lat="42.11379" lon="24.83976">
        <ele>206.720315</ele>
        <time>2022-03-03T11:32:05.441Z</time>
      </trkpt>
      <trkpt lat="42.11383" lon="24.83962">
        <ele>206.720424</ele>
        <time>2022-03-03T11:32:08.430Z</time>
      </trkpt>
      <trkpt lat="42.11386" lon="24.83947">
        <ele>206.720533</ele>
        <time>2022-03-03T11:32:11.475Z</time>
      </trkpt>
      <trkpt lat="42.11391" lon="24.83933">
        <ele>206.720644</ele>
        <time>2022-03-03T11:32:14.423Z</time>
      </trkpt>
      <trkpt lat="42.11395" lon="24.83919">
        <ele>206.720752</ele>
        <time>2022-03-03T11:32:17.440Z</time>
      </trkpt>
      <trkpt lat="42.11399" lon="24.83905">
        <ele>206.720859</ele>
        <time>2022-03-03T11:32:20.426Z</time>
      </trkpt>
      <trkpt lat="42.11403" lon="24.83893">
        <ele>206.714814</ele>
        <time>2022-03-03T11:32:23.458Z</time>
      </trkpt>
      <trkpt lat="42.11408" lon="24.8388">
        <ele>206.665903</ele>
        <time>2022-03-03T11:32:26.447Z</time>
      </trkpt>
      <trkpt lat="42.11412" lon="24.83867">
        <ele>206.614457</ele>
        <time>2022-03-03T11:32:29.423Z</time>
      </trkpt>
      <trkpt lat="42.11417" lon="24.83854">
        <ele>206.56398</ele>
        <time>2022-03-03T11:32:32.490Z</time>
      </trkpt>
      <trkpt lat="42.11421" lon="24.8384">
        <ele>206.510188</ele>
        <time>2022-03-03T11:32:35.434Z</time>
      </trkpt>
      <trkpt lat="42.11425" lon="24.83824">
        <ele>206.452571</ele>
        <time>2022-03-03T11:32:38.446Z</time>
      </trkpt>
      <trkpt lat="42.11429" lon="24.83809">
        <ele>206.398626</ele>
        <time>2022-03-03T11:32:41.445Z</time>
      </trkpt>
      <trkpt lat="42.11433" lon="24.83795">
        <ele>206.344658</ele>
        <time>2022-03-03T11:32:44.414Z</time>
      </trkpt>
      <trkpt lat="42.11438" lon="24.83782">
        <ele>206.29272</ele>
        <time>2022-03-03T11:32:47.433Z</time>
      </trkpt>
      <trkpt lat="42.11442" lon="24.83769">
        <ele>206.243349</ele>
        <time>2022-03-03T11:32:50.419Z</time>
      </trkpt>
      <trkpt lat="42.11446" lon="24.83755">
        <ele>206.190706</ele>
        <time>2022-03-03T11:32:53.454Z</time>
      </trkpt>
      <trkpt lat="42.1145" lon="24.83741">
        <ele>206.137907</ele>
        <time>2022-03-03T11:32:56.431Z</time>
      </trkpt>
      <trkpt lat="42.11453" lon="24.83726">
        <ele>206.084661</ele>
        <time>2022-03-03T11:32:59.447Z</time>
      </trkpt>
      <trkpt lat="42.11457" lon="24.83713">
        <ele>206.036115</ele>
        <time>2022-03-03T11:33:02.443Z</time>
      </trkpt>
      <trkpt lat="42.11461" lon="24.83701">
        <ele>205.989385</ele>
        <time>2022-03-03T11:33:05.492Z</time>
      </trkpt>
      <trkpt lat="42.11464" lon="24.83688">
        <ele>205.941344</ele>
        <time>2022-03-03T11:33:08.422Z</time>
      </trkpt>
      <trkpt lat="42.11468" lon="24.83675">
        <ele>205.893772</ele>
        <time>2022-03-03T11:33:11.439Z</time>
      </trkpt>
      <trkpt lat="42.11473" lon="24.83663">
        <ele>205.696886</ele>
        <time>2022-03-03T11:33:14.452Z</time>
      </trkpt>
      <trkpt lat="42.11477" lon="24.8365">
        <ele>205.387852</ele>
        <time>2022-03-03T11:33:17.410Z</time>
      </trkpt>
      <trkpt lat="42.1148" lon="24.83636">
        <ele>205.060383</ele>
        <time>2022-03-03T11:33:20.427Z</time>
      </trkpt>
      <trkpt lat="42.11485" lon="24.83622">
        <ele>204.713973</ele>
        <time>2022-03-03T11:33:23.438Z</time>
      </trkpt>
      <trkpt lat="42.1149" lon="24.8361">
        <ele>204.394516</ele>
        <time>2022-03-03T11:33:26.427Z</time>
      </trkpt>
      <trkpt lat="42.11495" lon="24.83597">
        <ele>204.070367</ele>
        <time>2022-03-03T11:33:29.436Z</time>
      </trkpt>
      <trkpt lat="42.11503" lon="24.83586">
        <ele>203.721609</ele>
        <time>2022-03-03T11:33:32.444Z</time>
      </trkpt>
      <trkpt lat="42.11512" lon="24.83576">
        <ele>203.383775</ele>
        <time>2022-03-03T11:33:35.432Z</time>
      </trkpt>
      <trkpt lat="42.11519" lon="24.83568">
        <ele>203.092303</ele>
        <time>2022-03-03T11:33:38.485Z</time>
      </trkpt>
      <trkpt lat="42.11527" lon="24.8356">
        <ele>202.788434</ele>
        <time>2022-03-03T11:33:41.436Z</time>
      </trkpt>
      <trkpt lat="42.11535" lon="24.83551">
        <ele>202.480655</ele>
        <time>2022-03-03T11:33:44.417Z</time>
      </trkpt>
      <trkpt lat="42.11543" lon="24.83542">
        <ele>202.163089</ele>
        <time>2022-03-03T11:33:47.443Z</time>
      </trkpt>
      <trkpt lat="42.11551" lon="24.83532">
        <ele>201.827338</ele>
        <time>2022-03-03T11:33:50.441Z</time>
      </trkpt>
      <trkpt lat="42.11559" lon="24.83523">
        <ele>201.509773</ele>
        <time>2022-03-03T11:33:53.434Z</time>
      </trkpt>
      <trkpt lat="42.11567" lon="24.83513">
        <ele>201.180933</ele>
        <time>2022-03-03T11:33:56.437Z</time>
      </trkpt>
      <trkpt lat="42.11575" lon="24.83504">
        <ele>200.857322</ele>
        <time>2022-03-03T11:33:59.431Z</time>
      </trkpt>
      <trkpt lat="42.11583" lon="24.83495">
        <ele>200.548904</ele>
        <time>2022-03-03T11:34:02.445Z</time>
      </trkpt>
      <trkpt lat="42.11591" lon="24.83487">
        <ele>200.355237</ele>
        <time>2022-03-03T11:34:05.435Z</time>
      </trkpt>
      <trkpt lat="42.11599" lon="24.83478">
        <ele>200.228781</ele>
        <time>2022-03-03T11:34:08.434Z</time>
      </trkpt>
      <trkpt lat="42.11606" lon="24.83469">
        <ele>200.10414</ele>
        <time>2022-03-03T11:34:11.434Z</time>
      </trkpt>
      <trkpt lat="42.11614" lon="24.8346">
        <ele>199.970221</ele>
        <time>2022-03-03T11:34:14.436Z</time>
      </trkpt>
      <trkpt lat="42.11622" lon="24.83451">
        <ele>199.842813</ele>
        <time>2022-03-03T11:34:17.428Z</time>
      </trkpt>
      <trkpt lat="42.1163" lon="24.83443">
        <ele>199.717571</ele>
        <time>2022-03-03T11:34:20.449Z</time>
      </trkpt>
      <trkpt lat="42.11637" lon="24.83435">
        <ele>199.59702</ele>
        <time>2022-03-03T11:34:23.445Z</time>
      </trkpt>
      <trkpt lat="42.11645" lon="24.83426">
        <ele>199.469017</ele>
        <time>2022-03-03T11:34:26.432Z</time>
      </trkpt>
      <trkpt lat="42.11653" lon="24.83417">
        <ele>199.344193</ele>
        <time>2022-03-03T11:34:29.435Z</time>
      </trkpt>
      <trkpt lat="42.11662" lon="24.83411">
        <ele>199.21483</ele>
        <time>2022-03-03T11:34:32.437Z</time>
      </trkpt>
      <trkpt lat="42.11671" lon="24.83405">
        <ele>199.089923</ele>
        <time>2022-03-03T11:34:35.419Z</time>
      </trkpt>
      <trkpt lat="42.1168" lon="24.83399">
        <ele>198.963386</ele>
        <time>2022-03-03T11:34:38.441Z</time>
      </trkpt>
      <trkpt lat="42.11688" lon="24.83391">
        <ele>198.837708</ele>
        <time>2022-03-03T11:34:41.435Z</time>
      </trkpt>
      <trkpt lat="42.11694" lon="24.8338">
        <ele>198.709733</ele>
        <time>2022-03-03T11:34:44.427Z</time>
      </trkpt>
      <trkpt lat="42.117" lon="24.83369">
        <ele>198.581006</ele>
        <time>2022-03-03T11:34:47.478Z</time>
      </trkpt>
      <trkpt lat="42.11707" lon="24.83359">
        <ele>198.453364</ele>
        <time>2022-03-03T11:34:50.442Z</time>
      </trkpt>
      <trkpt lat="42.11715" lon="24.83349">
        <ele>198.315048</ele>
        <time>2022-03-03T11:34:53.453Z</time>
      </trkpt>
      <trkpt lat="42.11723" lon="24.83339">
        <ele>198.178006</ele>
        <time>2022-03-03T11:34:56.461Z</time>
      </trkpt>
      <trkpt lat="42.11731" lon="24.8333">
        <ele>197.930861</ele>
        <time>2022-03-03T11:34:59.463Z</time>
      </trkpt>
      <trkpt lat="42.11739" lon="24.83321">
        <ele>197.688064</ele>
        <time>2022-03-03T11:35:02.417Z</time>
      </trkpt>
      <trkpt lat="42.11746" lon="24.83313">
        <ele>197.437206</ele>
        <time>2022-03-03T11:35:05.435Z</time>
      </trkpt>
      <trkpt lat="42.11754" lon="24.83304">
        <ele>197.190172</ele>
        <time>2022-03-03T11:35:08.449Z</time>
      </trkpt>
      <trkpt lat="42.11762" lon="24.83295">
        <ele>196.932753</ele>
        <time>2022-03-03T11:35:11.415Z</time>
      </trkpt>
      <trkpt lat="42.1177" lon="24.83287">
        <ele>196.689957</ele>
        <time>2022-03-03T11:35:14.398Z</time>
      </trkpt>
      <trkpt lat="42.11777" lon="24.83278">
        <ele>196.459608</ele>
        <time>2022-03-03T11:35:17.414Z</time>
      </trkpt>
      <trkpt lat="42.11784" lon="24.83269">
        <ele>196.200499</ele>
        <time>2022-03-03T11:35:20.416Z</time>
      </trkpt>
      <trkpt lat="42.11792" lon="24.83259">
        <ele>195.944456</ele>
        <time>2022-03-03T11:35:23.435Z</time>
      </trkpt>
      <trkpt lat="42.118" lon="24.8325">
        <ele>195.686548</ele>
        <time>2022-03-03T11:35:26.469Z</time>
      </trkpt>
      <trkpt lat="42.11808" lon="24.83241">
        <ele>195.421812</ele>
        <time>2022-03-03T11:35:29.474Z</time>
      </trkpt>
      <trkpt lat="42.11816" lon="24.83232">
        <ele>195.166404</ele>
        <time>2022-03-03T11:35:32.485Z</time>
      </trkpt>
      <trkpt lat="42.11824" lon="24.83223">
        <ele>194.907808</ele>
        <time>2022-03-03T11:35:35.443Z</time>
      </trkpt>
      <trkpt lat="42.11833" lon="24.83213">
        <ele>194.626982</ele>
        <time>2022-03-03T11:35:38.431Z</time>
      </trkpt>
      <trkpt lat="42.11841" lon="24.83203">
        <ele>194.355374</ele>
        <time>2022-03-03T11:35:41.449Z</time>
      </trkpt>
      <trkpt lat="42.1185" lon="24.83194">
        <ele>194.091071</ele>
        <time>2022-03-03T11:35:44.426Z</time>
      </trkpt>
      <trkpt lat="42.11858" lon="24.83184">
        <ele>193.809294</ele>
        <time>2022-03-03T11:35:47.446Z</time>
      </trkpt>
      <trkpt lat="42.11867" lon="24.83174">
        <ele>193.695522</ele>
        <time>2022-03-03T11:35:50.441Z</time>
      </trkpt>
      <trkpt lat="42.11876" lon="24.83164">
        <ele>193.653865</ele>
        <time>2022-03-03T11:35:53.440Z</time>
      </trkpt>
      <trkpt lat="42.11884" lon="24.83154">
        <ele>193.612934</ele>
        <time>2022-03-03T11:35:56.436Z</time>
      </trkpt>
      <trkpt lat="42.11893" lon="24.83145">
        <ele>193.572626</ele>
        <time>2022-03-03T11:35:59.438Z</time>
      </trkpt>
      <trkpt lat="42.11901" lon="24.83135">
        <ele>193.533667</ele>
        <time>2022-03-03T11:36:02.426Z</time>
      </trkpt>
      <trkpt lat="42.11909" lon="24.83126">
        <ele>193.493982</ele>
        <time>2022-03-03T11:36:05.435Z</time>
      </trkpt>
      <trkpt lat="42.11918" lon="24.83116">
        <ele>193.453513</ele>
        <time>2022-03-03T11:36:08.425Z</time>
      </trkpt>
      <trkpt lat="42.11926" lon="24.83106">
        <ele>193.413755</ele>
        <time>2022-03-03T11:36:11.454Z</time>
      </trkpt>
      <trkpt lat="42.11935" lon="24.83097">
        <ele>193.374514</ele>
        <time>2022-03-03T11:36:14.429Z</time>
      </trkpt>
      <trkpt lat="42.11942" lon="24.83089">
        <ele>193.339363</ele>
        <time>2022-03-03T11:36:17.460Z</time>
      </trkpt>
      <trkpt lat="42.11949" lon="24.83081">
        <ele>193.306342</ele>
        <time>2022-03-03T11:36:20.426Z</time>
      </trkpt>
      <trkpt lat="42.11957" lon="24.8307">
        <ele>193.264538</ele>
        <time>2022-03-03T11:36:24.416Z</time>
      </trkpt>
      <trkpt lat="42.11964" lon="24.83062">
        <ele>193.231148</ele>
        <time>2022-03-03T11:36:27.435Z</time>
      </trkpt>
      <trkpt lat="42.11972" lon="24.83053">
        <ele>193.19338</ele>
        <time>2022-03-03T11:36:30.434Z</time>
      </trkpt>
      <trkpt lat="42.1198" lon="24.83045">
        <ele>193.156178</ele>
        <time>2022-03-03T11:36:33.447Z</time>
      </trkpt>
      <trkpt lat="42.11988" lon="24.83036">
        <ele>193.119707</ele>
        <time>2022-03-03T11:36:36.447Z</time>
      </trkpt>
      <trkpt lat="42.11996" lon="24.83026">
        <ele>193.080672</ele>
        <time>2022-03-03T11:36:39.437Z</time>
      </trkpt>
      <trkpt lat="42.12004" lon="24.83017">
        <ele>193.092549</ele>
        <time>2022-03-03T11:36:42.433Z</time>
      </trkpt>
      <trkpt lat="42.12013" lon="24.83007">
        <ele>193.118186</ele>
        <time>2022-03-03T11:36:45.446Z</time>
      </trkpt>
      <trkpt lat="42.12021" lon="24.82997">
        <ele>193.142431</ele>
        <time>2022-03-03T11:36:48.439Z</time>
      </trkpt>
      <trkpt lat="42.12029" lon="24.82988">
        <ele>193.166398</ele>
        <time>2022-03-03T11:36:51.447Z</time>
      </trkpt>
      <trkpt lat="42.12037" lon="24.82978">
        <ele>193.189748</ele>
        <time>2022-03-03T11:36:54.425Z</time>
      </trkpt>
      <trkpt lat="42.12045" lon="24.82969">
        <ele>193.213158</ele>
        <time>2022-03-03T11:36:57.492Z</time>
      </trkpt>
      <trkpt lat="42.12052" lon="24.82961">
        <ele>193.234729</ele>
        <time>2022-03-03T11:37:00.447Z</time>
      </trkpt>
      <trkpt lat="42.1206" lon="24.82952">
        <ele>193.256468</ele>
        <time>2022-03-03T11:37:03.439Z</time>
      </trkpt>
      <trkpt lat="42.12067" lon="24.82943">
        <ele>193.278934</ele>
        <time>2022-03-03T11:37:06.447Z</time>
      </trkpt>
      <trkpt lat="42.12075" lon="24.82934">
        <ele>193.302011</ele>
        <time>2022-03-03T11:37:09.432Z</time>
      </trkpt>
      <trkpt lat="42.12083" lon="24.82924">
        <ele>193.326385</ele>
        <time>2022-03-03T11:37:12.456Z</time>
      </trkpt>
      <trkpt lat="42.12091" lon="24.82915">
        <ele>193.349923</ele>
        <time>2022-03-03T11:37:15.430Z</time>
      </trkpt>
      <trkpt lat="42.12099" lon="24.82907">
        <ele>193.372903</ele>
        <time>2022-03-03T11:37:18.418Z</time>
      </trkpt>
      <trkpt lat="42.12107" lon="24.82897">
        <ele>193.397104</ele>
        <time>2022-03-03T11:37:22.435Z</time>
      </trkpt>
      <trkpt lat="42.12115" lon="24.82888">
        <ele>193.420405</ele>
        <time>2022-03-03T11:37:26.442Z</time>
      </trkpt>
      <trkpt lat="42.12124" lon="24.82878">
        <ele>193.446878</ele>
        <time>2022-03-03T11:37:30.523Z</time>
      </trkpt>
      <trkpt lat="42.12131" lon="24.8287">
        <ele>193.467178</ele>
        <time>2022-03-03T11:37:33.435Z</time>
      </trkpt>
      <trkpt lat="42.12139" lon="24.82861">
        <ele>193.589201</ele>
        <time>2022-03-03T11:37:36.423Z</time>
      </trkpt>
      <trkpt lat="42.12149" lon="24.82851">
        <ele>193.805162</ele>
        <time>2022-03-03T11:37:39.439Z</time>
      </trkpt>
      <trkpt lat="42.12157" lon="24.8284">
        <ele>194.021405</ele>
        <time>2022-03-03T11:37:42.438Z</time>
      </trkpt>
      <trkpt lat="42.12165" lon="24.8283">
        <ele>194.215787</ele>
        <time>2022-03-03T11:37:45.431Z</time>
      </trkpt>
      <trkpt lat="42.12172" lon="24.82822">
        <ele>194.381014</ele>
        <time>2022-03-03T11:37:48.435Z</time>
      </trkpt>
      <trkpt lat="42.12181" lon="24.82812">
        <ele>194.598923</ele>
        <time>2022-03-03T11:37:52.451Z</time>
      </trkpt>
      <trkpt lat="42.1219" lon="24.82802">
        <ele>194.806173</ele>
        <time>2022-03-03T11:37:56.431Z</time>
      </trkpt>
      <trkpt lat="42.12197" lon="24.82794">
        <ele>194.972763</ele>
        <time>2022-03-03T11:37:59.445Z</time>
      </trkpt>
      <trkpt lat="42.12204" lon="24.82785">
        <ele>195.146932</ele>
        <time>2022-03-03T11:38:02.479Z</time>
      </trkpt>
      <trkpt lat="42.12213" lon="24.82775">
        <ele>195.355563</ele>
        <time>2022-03-03T11:38:05.437Z</time>
      </trkpt>
      <trkpt lat="42.12222" lon="24.82764">
        <ele>195.569138</ele>
        <time>2022-03-03T11:38:08.447Z</time>
      </trkpt>
      <trkpt lat="42.12231" lon="24.82754">
        <ele>195.779753</ele>
        <time>2022-03-03T11:38:11.443Z</time>
      </trkpt>
      <trkpt lat="42.1224" lon="24.82745">
        <ele>195.979689</ele>
        <time>2022-03-03T11:38:14.427Z</time>
      </trkpt>
      <trkpt lat="42.12247" lon="24.82737">
        <ele>196.157725</ele>
        <time>2022-03-03T11:38:17.422Z</time>
      </trkpt>
      <trkpt lat="42.12255" lon="24.82727">
        <ele>196.352927</ele>
        <time>2022-03-03T11:38:20.434Z</time>
      </trkpt>
      <trkpt lat="42.12264" lon="24.82717">
        <ele>196.552315</ele>
        <time>2022-03-03T11:38:23.430Z</time>
      </trkpt>
      <trkpt lat="42.12273" lon="24.82708">
        <ele>196.772891</ele>
        <time>2022-03-03T11:38:26.456Z</time>
      </trkpt>
      <trkpt lat="42.1228" lon="24.82699">
        <ele>197.042205</ele>
        <time>2022-03-03T11:38:29.447Z</time>
      </trkpt>
      <trkpt lat="42.12288" lon="24.8269">
        <ele>197.311518</ele>
        <time>2022-03-03T11:38:32.446Z</time>
      </trkpt>
      <trkpt lat="42.12296" lon="24.82682">
        <ele>197.5812</ele>
        <time>2022-03-03T11:38:35.473Z</time>
      </trkpt>
      <trkpt lat="42.12304" lon="24.82674">
        <ele>197.8419</ele>
        <time>2022-03-03T11:38:38.445Z</time>
      </trkpt>
      <trkpt lat="42.12312" lon="24.82666">
        <ele>198.102828</ele>
        <time>2022-03-03T11:38:41.437Z</time>
      </trkpt>
      <trkpt lat="42.12319" lon="24.82657">
        <ele>198.363227</ele>
        <time>2022-03-03T11:38:44.435Z</time>
      </trkpt>
      <trkpt lat="42.12326" lon="24.82649">
        <ele>198.612069</ele>
        <time>2022-03-03T11:38:47.434Z</time>
      </trkpt>
      <trkpt lat="42.12335" lon="24.82639">
        <ele>198.903976</ele>
        <time>2022-03-03T11:38:50.435Z</time>
      </trkpt>
      <trkpt lat="42.12343" lon="24.8263">
        <ele>199.204548</ele>
        <time>2022-03-03T11:38:53.440Z</time>
      </trkpt>
      <trkpt lat="42.12352" lon="24.8262">
        <ele>199.495189</ele>
        <time>2022-03-03T11:38:56.433Z</time>
      </trkpt>
      <trkpt lat="42.12359" lon="24.82611">
        <ele>199.761851</ele>
        <time>2022-03-03T11:38:59.437Z</time>
      </trkpt>
      <trkpt lat="42.12366" lon="24.82602">
        <ele>200.03119</ele>
        <time>2022-03-03T11:39:02.438Z</time>
      </trkpt>
      <trkpt lat="42.12373" lon="24.82594">
        <ele>200.269469</ele>
        <time>2022-03-03T11:39:05.448Z</time>
      </trkpt>
      <trkpt lat="42.1238" lon="24.82585">
        <ele>200.528762</ele>
        <time>2022-03-03T11:39:08.429Z</time>
      </trkpt>
      <trkpt lat="42.12386" lon="24.82575">
        <ele>200.778243</ele>
        <time>2022-03-03T11:39:11.440Z</time>
      </trkpt>
      <trkpt lat="42.12394" lon="24.82566">
        <ele>201.039058</ele>
        <time>2022-03-03T11:39:14.477Z</time>
      </trkpt>
      <trkpt lat="42.12402" lon="24.82557">
        <ele>201.322639</ele>
        <time>2022-03-03T11:39:17.426Z</time>
      </trkpt>
      <trkpt lat="42.1241" lon="24.82549">
        <ele>201.515165</ele>
        <time>2022-03-03T11:39:20.458Z</time>
      </trkpt>
      <trkpt lat="42.12418" lon="24.82539">
        <ele>201.521353</ele>
        <time>2022-03-03T11:39:23.446Z</time>
      </trkpt>
      <trkpt lat="42.12426" lon="24.8253">
        <ele>201.52765</ele>
        <time>2022-03-03T11:39:26.486Z</time>
      </trkpt>
      <trkpt lat="42.12434" lon="24.82521">
        <ele>201.533709</ele>
        <time>2022-03-03T11:39:29.444Z</time>
      </trkpt>
      <trkpt lat="42.12441" lon="24.82513">
        <ele>201.539563</ele>
        <time>2022-03-03T11:39:32.450Z</time>
      </trkpt>
      <trkpt lat="42.12449" lon="24.82505">
        <ele>201.545141</ele>
        <time>2022-03-03T11:39:35.430Z</time>
      </trkpt>
      <trkpt lat="42.12457" lon="24.82496">
        <ele>201.551245</ele>
        <time>2022-03-03T11:39:38.434Z</time>
      </trkpt>
      <trkpt lat="42.12465" lon="24.82486">
        <ele>201.557837</ele>
        <time>2022-03-03T11:39:41.454Z</time>
      </trkpt>
      <trkpt lat="42.12474" lon="24.82476">
        <ele>201.564554</ele>
        <time>2022-03-03T11:39:44.430Z</time>
      </trkpt>
      <trkpt lat="42.12482" lon="24.82467">
        <ele>201.57101</ele>
        <time>2022-03-03T11:39:47.428Z</time>
      </trkpt>
      <trkpt lat="42.1249" lon="24.82458">
        <ele>201.57717</ele>
        <time>2022-03-03T11:39:50.443Z</time>
      </trkpt>
      <trkpt lat="42.12498" lon="24.82449">
        <ele>201.583155</ele>
        <time>2022-03-03T11:39:53.434Z</time>
      </trkpt>
      <trkpt lat="42.12505" lon="24.8244">
        <ele>201.589182</ele>
        <time>2022-03-03T11:39:56.427Z</time>
      </trkpt>
      <trkpt lat="42.12513" lon="24.8243">
        <ele>201.595296</ele>
        <time>2022-03-03T11:39:59.455Z</time>
      </trkpt>
      <trkpt lat="42.12521" lon="24.82421">
        <ele>201.601778</ele>
        <time>2022-03-03T11:40:02.419Z</time>
      </trkpt>
      <trkpt lat="42.1253" lon="24.82412">
        <ele>201.608268</ele>
        <time>2022-03-03T11:40:05.464Z</time>
      </trkpt>
      <trkpt lat="42.12538" lon="24.82401">
        <ele>201.614762</ele>
        <time>2022-03-03T11:40:08.425Z</time>
      </trkpt>
      <trkpt lat="42.12546" lon="24.82391">
        <ele>201.629784</ele>
        <time>2022-03-03T11:40:11.475Z</time>
      </trkpt>
      <trkpt lat="42.12555" lon="24.82382">
        <ele>201.6736</ele>
        <time>2022-03-03T11:40:14.451Z</time>
      </trkpt>
      <trkpt lat="42.12563" lon="24.82372">
        <ele>201.717045</ele>
        <time>2022-03-03T11:40:17.468Z</time>
      </trkpt>
      <trkpt lat="42.12572" lon="24.82362">
        <ele>201.761396</ele>
        <time>2022-03-03T11:40:20.433Z</time>
      </trkpt>
      <trkpt lat="42.1258" lon="24.82353">
        <ele>201.802238</ele>
        <time>2022-03-03T11:40:23.477Z</time>
      </trkpt>
      <trkpt lat="42.12589" lon="24.82344">
        <ele>201.846105</ele>
        <time>2022-03-03T11:40:26.443Z</time>
      </trkpt>
      <trkpt lat="42.12597" lon="24.82334">
        <ele>201.889322</ele>
        <time>2022-03-03T11:40:29.446Z</time>
      </trkpt>
      <trkpt lat="42.12606" lon="24.82324">
        <ele>201.933735</ele>
        <time>2022-03-03T11:40:32.436Z</time>
      </trkpt>
      <trkpt lat="42.12615" lon="24.82314">
        <ele>201.980022</ele>
        <time>2022-03-03T11:40:35.447Z</time>
      </trkpt>
      <trkpt lat="42.12624" lon="24.82304">
        <ele>202.026442</ele>
        <time>2022-03-03T11:40:38.437Z</time>
      </trkpt>
      <trkpt lat="42.12633" lon="24.82293">
        <ele>202.070912</ele>
        <time>2022-03-03T11:40:41.439Z</time>
      </trkpt>
      <trkpt lat="42.12641" lon="24.82284">
        <ele>202.113091</ele>
        <time>2022-03-03T11:40:44.420Z</time>
      </trkpt>
      <trkpt lat="42.1265" lon="24.82274">
        <ele>202.158894</ele>
        <time>2022-03-03T11:40:47.439Z</time>
      </trkpt>
      <trkpt lat="42.1266" lon="24.82264">
        <ele>202.205615</ele>
        <time>2022-03-03T11:40:50.443Z</time>
      </trkpt>
      <trkpt lat="42.12669" lon="24.82254">
        <ele>202.251902</ele>
        <time>2022-03-03T11:40:53.444Z</time>
      </trkpt>
      <trkpt lat="42.12678" lon="24.82243">
        <ele>202.300041</ele>
        <time>2022-03-03T11:40:56.436Z</time>
      </trkpt>
      <trkpt lat="42.12688" lon="24.82232">
        <ele>202.162455</ele>
        <time>2022-03-03T11:40:59.426Z</time>
      </trkpt>
      <trkpt lat="42.12697" lon="24.82222">
        <ele>201.891724</ele>
        <time>2022-03-03T11:41:02.428Z</time>
      </trkpt>
      <trkpt lat="42.12706" lon="24.82213">
        <ele>201.64041</ele>
        <time>2022-03-03T11:41:05.494Z</time>
      </trkpt>
      <trkpt lat="42.12714" lon="24.82201">
        <ele>201.380199</ele>
        <time>2022-03-03T11:41:08.419Z</time>
      </trkpt>
      <trkpt lat="42.12723" lon="24.8219">
        <ele>201.10784</ele>
        <time>2022-03-03T11:41:11.429Z</time>
      </trkpt>
      <trkpt lat="42.12732" lon="24.82179">
        <ele>200.824831</ele>
        <time>2022-03-03T11:41:14.417Z</time>
      </trkpt>
      <trkpt lat="42.12742" lon="24.82168">
        <ele>200.547812</ele>
        <time>2022-03-03T11:41:17.428Z</time>
      </trkpt>
      <trkpt lat="42.12752" lon="24.82156">
        <ele>200.244506</ele>
        <time>2022-03-03T11:41:20.433Z</time>
      </trkpt>
      <trkpt lat="42.12759" lon="24.82148">
        <ele>200.036096</ele>
        <time>2022-03-03T11:41:22.437Z</time>
      </trkpt>
      <trkpt lat="42.12767" lon="24.8214">
        <ele>199.825677</ele>
        <time>2022-03-03T11:41:24.432Z</time>
      </trkpt>
      <trkpt lat="42.12777" lon="24.8213">
        <ele>199.534246</ele>
        <time>2022-03-03T11:41:27.417Z</time>
      </trkpt>
      <trkpt lat="42.12787" lon="24.82119">
        <ele>199.260743</ele>
        <time>2022-03-03T11:41:30.425Z</time>
      </trkpt>
      <trkpt lat="42.12797" lon="24.82108">
        <ele>198.973034</ele>
        <time>2022-03-03T11:41:33.434Z</time>
      </trkpt>
      <trkpt lat="42.12806" lon="24.82098">
        <ele>198.696017</ele>
        <time>2022-03-03T11:41:36.434Z</time>
      </trkpt>
      <trkpt lat="42.12816" lon="24.82087">
        <ele>198.42356</ele>
        <time>2022-03-03T11:41:39.498Z</time>
      </trkpt>
      <trkpt lat="42.12824" lon="24.82076">
        <ele>198.134619</ele>
        <time>2022-03-03T11:41:42.463Z</time>
      </trkpt>
      <trkpt lat="42.12833" lon="24.82065">
        <ele>197.825705</ele>
        <time>2022-03-03T11:41:45.440Z</time>
      </trkpt>
      <trkpt lat="42.12843" lon="24.82054">
        <ele>197.499894</ele>
        <time>2022-03-03T11:41:48.454Z</time>
      </trkpt>
      <trkpt lat="42.12853" lon="24.82043">
        <ele>197.16639</ele>
        <time>2022-03-03T11:41:51.440Z</time>
      </trkpt>
      <trkpt lat="42.12863" lon="24.82032">
        <ele>196.8212</ele>
        <time>2022-03-03T11:41:54.443Z</time>
      </trkpt>
      <trkpt lat="42.1287" lon="24.82025">
        <ele>196.588235</ele>
        <time>2022-03-03T11:41:56.433Z</time>
      </trkpt>
      <trkpt lat="42.1288" lon="24.82014">
        <ele>196.264892</ele>
        <time>2022-03-03T11:41:59.414Z</time>
      </trkpt>
      <trkpt lat="42.12889" lon="24.82003">
        <ele>195.932109</ele>
        <time>2022-03-03T11:42:02.446Z</time>
      </trkpt>
      <trkpt lat="42.12898" lon="24.81992">
        <ele>195.61998</ele>
        <time>2022-03-03T11:42:05.435Z</time>
      </trkpt>
      <trkpt lat="42.12907" lon="24.81981">
        <ele>195.313523</ele>
        <time>2022-03-03T11:42:08.437Z</time>
      </trkpt>
      <trkpt lat="42.12917" lon="24.81971">
        <ele>195.001857</ele>
        <time>2022-03-03T11:42:11.440Z</time>
      </trkpt>
      <trkpt lat="42.12926" lon="24.81961">
        <ele>194.696643</ele>
        <time>2022-03-03T11:42:14.424Z</time>
      </trkpt>
      <trkpt lat="42.12935" lon="24.8195">
        <ele>194.385149</ele>
        <time>2022-03-03T11:42:17.445Z</time>
      </trkpt>
      <trkpt lat="42.12943" lon="24.8194">
        <ele>194.078146</ele>
        <time>2022-03-03T11:42:20.442Z</time>
      </trkpt>
      <trkpt lat="42.12953" lon="24.81929">
        <ele>193.759515</ele>
        <time>2022-03-03T11:42:23.473Z</time>
      </trkpt>
      <trkpt lat="42.12962" lon="24.81918">
        <ele>193.691111</ele>
        <time>2022-03-03T11:42:26.423Z</time>
      </trkpt>
      <trkpt lat="42.12971" lon="24.81908">
        <ele>193.770973</ele>
        <time>2022-03-03T11:42:29.464Z</time>
      </trkpt>
      <trkpt lat="42.12979" lon="24.81899">
        <ele>193.847611</ele>
        <time>2022-03-03T11:42:32.436Z</time>
      </trkpt>
      <trkpt lat="42.12987" lon="24.81888">
        <ele>193.926988</ele>
        <time>2022-03-03T11:42:35.446Z</time>
      </trkpt>
      <trkpt lat="42.12997" lon="24.81878">
        <ele>194.010792</ele>
        <time>2022-03-03T11:42:38.474Z</time>
      </trkpt>
      <trkpt lat="42.13006" lon="24.81869">
        <ele>194.087867</ele>
        <time>2022-03-03T11:42:41.423Z</time>
      </trkpt>
      <trkpt lat="42.13015" lon="24.81859">
        <ele>194.166545</ele>
        <time>2022-03-03T11:42:44.411Z</time>
      </trkpt>
      <trkpt lat="42.13023" lon="24.81849">
        <ele>194.243274</ele>
        <time>2022-03-03T11:42:47.425Z</time>
      </trkpt>
      <trkpt lat="42.13032" lon="24.81839">
        <ele>194.320701</ele>
        <time>2022-03-03T11:42:50.446Z</time>
      </trkpt>
      <trkpt lat="42.1304" lon="24.81829">
        <ele>194.399379</ele>
        <time>2022-03-03T11:42:53.415Z</time>
      </trkpt>
      <trkpt lat="42.13049" lon="24.8182">
        <ele>194.475596</ele>
        <time>2022-03-03T11:42:56.448Z</time>
      </trkpt>
      <trkpt lat="42.13057" lon="24.81811">
        <ele>194.549017</ele>
        <time>2022-03-03T11:42:59.443Z</time>
      </trkpt>
      <trkpt lat="42.13066" lon="24.81801">
        <ele>194.625234</ele>
        <time>2022-03-03T11:43:02.458Z</time>
      </trkpt>
      <trkpt lat="42.13074" lon="24.81791">
        <ele>194.70043</ele>
        <time>2022-03-03T11:43:05.438Z</time>
      </trkpt>
      <trkpt lat="42.13082" lon="24.81782">
        <ele>194.774434</ele>
        <time>2022-03-03T11:43:08.470Z</time>
      </trkpt>
      <trkpt lat="42.1309" lon="24.81772">
        <ele>194.849815</ele>
        <time>2022-03-03T11:43:11.450Z</time>
      </trkpt>
      <trkpt lat="42.13098" lon="24.81763">
        <ele>194.947955</ele>
        <time>2022-03-03T11:43:14.523Z</time>
      </trkpt>
      <trkpt lat="42.13105" lon="24.81754">
        <ele>195.057474</ele>
        <time>2022-03-03T11:43:17.437Z</time>
      </trkpt>
      <trkpt lat="42.13115" lon="24.81744">
        <ele>195.195385</ele>
        <time>2022-03-03T11:43:21.434Z</time>
      </trkpt>
      <trkpt lat="42.13122" lon="24.81735">
        <ele>195.309935</ele>
        <time>2022-03-03T11:43:24.420Z</time>
      </trkpt>
      <trkpt lat="42.1313" lon="24.81726">
        <ele>195.425421</ele>
        <time>2022-03-03T11:43:27.456Z</time>
      </trkpt>
      <trkpt lat="42.13138" lon="24.81718">
        <ele>195.537925</ele>
        <time>2022-03-03T11:43:30.446Z</time>
      </trkpt>
      <trkpt lat="42.13146" lon="24.81708">
        <ele>195.653872</ele>
        <time>2022-03-03T11:43:33.423Z</time>
      </trkpt>
      <trkpt lat="42.13154" lon="24.81699">
        <ele>195.775965</ele>
        <time>2022-03-03T11:43:36.485Z</time>
      </trkpt>
      <trkpt lat="42.13162" lon="24.8169">
        <ele>195.893386</ele>
        <time>2022-03-03T11:43:39.435Z</time>
      </trkpt>
      <trkpt lat="42.1317" lon="24.8168">
        <ele>196.017812</ele>
        <time>2022-03-03T11:43:42.422Z</time>
      </trkpt>
      <trkpt lat="42.13179" lon="24.81671">
        <ele>196.139905</ele>
        <time>2022-03-03T11:43:45.435Z</time>
      </trkpt>
      <trkpt lat="42.13186" lon="24.81662">
        <ele>196.244959</ele>
        <time>2022-03-03T11:43:48.423Z</time>
      </trkpt>
      <trkpt lat="42.13193" lon="24.81652">
        <ele>196.367999</ele>
        <time>2022-03-03T11:43:52.437Z</time>
      </trkpt>
      <trkpt lat="42.13201" lon="24.81643">
        <ele>196.484792</ele>
        <time>2022-03-03T11:43:56.453Z</time>
      </trkpt>
      <trkpt lat="42.13209" lon="24.81634">
        <ele>196.597662</ele>
        <time>2022-03-03T11:43:59.458Z</time>
      </trkpt>
      <trkpt lat="42.13218" lon="24.81624">
        <ele>196.729302</ele>
        <time>2022-03-03T11:44:02.449Z</time>
      </trkpt>
      <trkpt lat="42.13227" lon="24.81614">
        <ele>196.857064</ele>
        <time>2022-03-03T11:44:05.433Z</time>
      </trkpt>
      <trkpt lat="42.13235" lon="24.81605">
        <ele>196.871587</ele>
        <time>2022-03-03T11:44:08.451Z</time>
      </trkpt>
      <trkpt lat="42.13243" lon="24.81596">
        <ele>196.808406</ele>
        <time>2022-03-03T11:44:11.446Z</time>
      </trkpt>
      <trkpt lat="42.13252" lon="24.81587">
        <ele>196.742448</ele>
        <time>2022-03-03T11:44:14.421Z</time>
      </trkpt>
      <trkpt lat="42.1326" lon="24.81578">
        <ele>196.678609</ele>
        <time>2022-03-03T11:44:17.438Z</time>
      </trkpt>
      <trkpt lat="42.13268" lon="24.81568">
        <ele>196.616128</ele>
        <time>2022-03-03T11:44:20.419Z</time>
      </trkpt>
      <trkpt lat="42.13275" lon="24.8156">
        <ele>196.557298</ele>
        <time>2022-03-03T11:44:23.439Z</time>
      </trkpt>
      <trkpt lat="42.13283" lon="24.81551">
        <ele>196.496705</ele>
        <time>2022-03-03T11:44:26.439Z</time>
      </trkpt>
      <trkpt lat="42.13292" lon="24.81542">
        <ele>196.432229</ele>
        <time>2022-03-03T11:44:29.419Z</time>
      </trkpt>
      <trkpt lat="42.133" lon="24.81532">
        <ele>196.36691</ele>
        <time>2022-03-03T11:44:32.483Z</time>
      </trkpt>
      <trkpt lat="42.13307" lon="24.81524">
        <ele>196.308715</ele>
        <time>2022-03-03T11:44:35.425Z</time>
      </trkpt>
      <trkpt lat="42.13316" lon="24.81514">
        <ele>196.241828</ele>
        <time>2022-03-03T11:44:39.437Z</time>
      </trkpt>
      <trkpt lat="42.13325" lon="24.81504">
        <ele>196.170756</ele>
        <time>2022-03-03T11:44:43.485Z</time>
      </trkpt>
      <trkpt lat="42.13332" lon="24.81496">
        <ele>196.116653</ele>
        <time>2022-03-03T11:44:46.439Z</time>
      </trkpt>
      <trkpt lat="42.13341" lon="24.81486">
        <ele>196.046036</ele>
        <time>2022-03-03T11:44:50.433Z</time>
      </trkpt>
      <trkpt lat="42.13348" lon="24.81477">
        <ele>195.990353</ele>
        <time>2022-03-03T11:44:53.437Z</time>
      </trkpt>
      <trkpt lat="42.13355" lon="24.81469">
        <ele>195.933103</ele>
        <time>2022-03-03T11:44:56.447Z</time>
      </trkpt>
      <trkpt lat="42.13364" lon="24.8146">
        <ele>195.868524</ele>
        <time>2022-03-03T11:45:00.429Z</time>
      </trkpt>
      <trkpt lat="42.13372" lon="24.81449">
        <ele>195.88097</ele>
        <time>2022-03-03T11:45:04.420Z</time>
      </trkpt>
      <trkpt lat="42.1338" lon="24.81439">
        <ele>195.967143</ele>
        <time>2022-03-03T11:45:08.439Z</time>
      </trkpt>
      <trkpt lat="42.1339" lon="24.81429">
        <ele>196.062435</ele>
        <time>2022-03-03T11:45:12.435Z</time>
      </trkpt>
      <trkpt lat="42.13397" lon="24.8142">
        <ele>196.139546</ele>
        <time>2022-03-03T11:45:15.437Z</time>
      </trkpt>
      <trkpt lat="42.13405" lon="24.81411">
        <ele>196.21879</ele>
        <time>2022-03-03T11:45:18.424Z</time>
      </trkpt>
      <trkpt lat="42.13412" lon="24.81402">
        <ele>196.293794</ele>
        <time>2022-03-03T11:45:21.438Z</time>
      </trkpt>
      <trkpt lat="42.13419" lon="24.81394">
        <ele>196.366492</ele>
        <time>2022-03-03T11:45:24.430Z</time>
      </trkpt>
      <trkpt lat="42.13426" lon="24.81386">
        <ele>196.43771</ele>
        <time>2022-03-03T11:45:27.465Z</time>
      </trkpt>
      <trkpt lat="42.13435" lon="24.81377">
        <ele>196.524164</ele>
        <time>2022-03-03T11:45:31.443Z</time>
      </trkpt>
      <trkpt lat="42.13444" lon="24.81367">
        <ele>196.61352</ele>
        <time>2022-03-03T11:45:35.439Z</time>
      </trkpt>
      <trkpt lat="42.13452" lon="24.81356">
        <ele>196.704517</ele>
        <time>2022-03-03T11:45:39.428Z</time>
      </trkpt>
      <trkpt lat="42.1346" lon="24.81348">
        <ele>196.782269</ele>
        <time>2022-03-03T11:45:42.434Z</time>
      </trkpt>
      <trkpt lat="42.13468" lon="24.81339">
        <ele>196.859423</ele>
        <time>2022-03-03T11:45:45.430Z</time>
      </trkpt>
      <trkpt lat="42.13476" lon="24.81331">
        <ele>196.938272</ele>
        <time>2022-03-03T11:45:48.429Z</time>
      </trkpt>
      <trkpt lat="42.13483" lon="24.81322">
        <ele>197.016347</ele>
        <time>2022-03-03T11:45:51.418Z</time>
      </trkpt>
      <trkpt lat="42.13491" lon="24.81313">
        <ele>197.096934</ele>
        <time>2022-03-03T11:45:54.433Z</time>
      </trkpt>
      <trkpt lat="42.13499" lon="24.81305">
        <ele>197.174632</ele>
        <time>2022-03-03T11:45:57.425Z</time>
      </trkpt>
      <trkpt lat="42.13507" lon="24.81296">
        <ele>197.258766</ele>
        <time>2022-03-03T11:46:00.447Z</time>
      </trkpt>
      <trkpt lat="42.13514" lon="24.81287">
        <ele>197.343255</ele>
        <time>2022-03-03T11:46:03.427Z</time>
      </trkpt>
      <trkpt lat="42.13521" lon="24.81278">
        <ele>197.423905</ele>
        <time>2022-03-03T11:46:06.468Z</time>
      </trkpt>
      <trkpt lat="42.13529" lon="24.8127">
        <ele>197.503122</ele>
        <time>2022-03-03T11:46:09.442Z</time>
      </trkpt>
      <trkpt lat="42.13536" lon="24.81261">
        <ele>197.58593</ele>
        <time>2022-03-03T11:46:12.436Z</time>
      </trkpt>
      <trkpt lat="42.13543" lon="24.81253">
        <ele>197.666799</ele>
        <time>2022-03-03T11:46:15.435Z</time>
      </trkpt>
      <trkpt lat="42.13551" lon="24.81244">
        <ele>197.756922</ele>
        <time>2022-03-03T11:46:19.435Z</time>
      </trkpt>
      <trkpt lat="42.13558" lon="24.81236">
        <ele>197.838126</ele>
        <time>2022-03-03T11:46:22.437Z</time>
      </trkpt>
      <trkpt lat="42.13566" lon="24.81227">
        <ele>197.923663</ele>
        <time>2022-03-03T11:46:25.435Z</time>
      </trkpt>
      <trkpt lat="42.13574" lon="24.81218">
        <ele>198.010735</ele>
        <time>2022-03-03T11:46:28.432Z</time>
      </trkpt>
      <trkpt lat="42.13582" lon="24.81209">
        <ele>198.105118</ele>
        <time>2022-03-03T11:46:32.437Z</time>
      </trkpt>
      <trkpt lat="42.13589" lon="24.81201">
        <ele>198.185257</ele>
        <time>2022-03-03T11:46:35.549Z</time>
      </trkpt>
      <trkpt lat="42.13596" lon="24.81193">
        <ele>198.264231</ele>
        <time>2022-03-03T11:46:38.434Z</time>
      </trkpt>
      <trkpt lat="42.13604" lon="24.81185">
        <ele>198.34852</ele>
        <time>2022-03-03T11:46:41.428Z</time>
      </trkpt>
      <trkpt lat="42.13613" lon="24.81175">
        <ele>198.443703</ele>
        <time>2022-03-03T11:46:44.431Z</time>
      </trkpt>
      <trkpt lat="42.13622" lon="24.81165">
        <ele>198.540759</ele>
        <time>2022-03-03T11:46:47.443Z</time>
      </trkpt>
      <trkpt lat="42.1363" lon="24.81155">
        <ele>198.6384</ele>
        <time>2022-03-03T11:46:50.488Z</time>
      </trkpt>
      <trkpt lat="42.13637" lon="24.81148">
        <ele>198.715743</ele>
        <time>2022-03-03T11:46:52.427Z</time>
      </trkpt>
      <trkpt lat="42.13646" lon="24.81136">
        <ele>198.772743</ele>
        <time>2022-03-03T11:46:55.443Z</time>
      </trkpt>
      <trkpt lat="42.13655" lon="24.81126">
        <ele>198.768896</ele>
        <time>2022-03-03T11:46:58.453Z</time>
      </trkpt>
      <trkpt lat="42.13662" lon="24.81118">
        <ele>198.76558</ele>
        <time>2022-03-03T11:47:01.428Z</time>
      </trkpt>
      <trkpt lat="42.1367" lon="24.81109">
        <ele>198.762087</ele>
        <time>2022-03-03T11:47:04.426Z</time>
      </trkpt>
      <trkpt lat="42.13679" lon="24.81099">
        <ele>198.757894</ele>
        <time>2022-03-03T11:47:07.479Z</time>
      </trkpt>
      <trkpt lat="42.13688" lon="24.81088">
        <ele>198.753605</ele>
        <time>2022-03-03T11:47:10.437Z</time>
      </trkpt>
      <trkpt lat="42.13698" lon="24.81078">
        <ele>198.749428</ele>
        <time>2022-03-03T11:47:13.435Z</time>
      </trkpt>
      <trkpt lat="42.13706" lon="24.81068">
        <ele>198.745496</ele>
        <time>2022-03-03T11:47:16.446Z</time>
      </trkpt>
      <trkpt lat="42.13714" lon="24.81058">
        <ele>198.741648</ele>
        <time>2022-03-03T11:47:19.435Z</time>
      </trkpt>
      <trkpt lat="42.13723" lon="24.81049">
        <ele>198.738007</ele>
        <time>2022-03-03T11:47:22.433Z</time>
      </trkpt>
      <trkpt lat="42.1373" lon="24.8104">
        <ele>198.734609</ele>
        <time>2022-03-03T11:47:25.438Z</time>
      </trkpt>
      <trkpt lat="42.13738" lon="24.81031">
        <ele>198.730952</ele>
        <time>2022-03-03T11:47:28.430Z</time>
      </trkpt>
      <trkpt lat="42.13745" lon="24.81022">
        <ele>198.727511</ele>
        <time>2022-03-03T11:47:31.434Z</time>
      </trkpt>
      <trkpt lat="42.13752" lon="24.81014">
        <ele>198.724242</ele>
        <time>2022-03-03T11:47:34.457Z</time>
      </trkpt>
      <trkpt lat="42.1376" lon="24.81005">
        <ele>198.720851</ele>
        <time>2022-03-03T11:47:37.430Z</time>
      </trkpt>
      <trkpt lat="42.13768" lon="24.80995">
        <ele>198.716996</ele>
        <time>2022-03-03T11:47:40.434Z</time>
      </trkpt>
      <trkpt lat="42.13775" lon="24.80987">
        <ele>198.713571</ele>
        <time>2022-03-03T11:47:43.431Z</time>
      </trkpt>
      <trkpt lat="42.13783" lon="24.80978">
        <ele>198.800081</ele>
        <time>2022-03-03T11:47:46.440Z</time>
      </trkpt>
      <trkpt lat="42.13791" lon="24.80969">
        <ele>198.95504</ele>
        <time>2022-03-03T11:47:49.442Z</time>
      </trkpt>
      <trkpt lat="42.13799" lon="24.8096">
        <ele>199.109106</ele>
        <time>2022-03-03T11:47:52.451Z</time>
      </trkpt>
      <trkpt lat="42.13806" lon="24.80951">
        <ele>199.25855</ele>
        <time>2022-03-03T11:47:55.438Z</time>
      </trkpt>
      <trkpt lat="42.13814" lon="24.80941">
        <ele>199.423928</ele>
        <time>2022-03-03T11:47:58.488Z</time>
      </trkpt>
      <trkpt lat="42.13824" lon="24.80932">
        <ele>199.597129</ele>
        <time>2022-03-03T11:48:01.445Z</time>
      </trkpt>
      <trkpt lat="42.13832" lon="24.80922">
        <ele>199.768217</ele>
        <time>2022-03-03T11:48:04.426Z</time>
      </trkpt>
      <trkpt lat="42.13842" lon="24.80912">
        <ele>199.943115</ele>
        <time>2022-03-03T11:48:07.448Z</time>
      </trkpt>
      <trkpt lat="42.1385" lon="24.80903">
        <ele>200.10259</ele>
        <time>2022-03-03T11:48:10.431Z</time>
      </trkpt>
      <trkpt lat="42.13858" lon="24.80894">
        <ele>200.257825</ele>
        <time>2022-03-03T11:48:13.446Z</time>
      </trkpt>
      <trkpt lat="42.13866" lon="24.80885">
        <ele>200.42075</ele>
        <time>2022-03-03T11:48:16.440Z</time>
      </trkpt>
      <trkpt lat="42.13875" lon="24.80875">
        <ele>200.596275</ele>
        <time>2022-03-03T11:48:19.441Z</time>
      </trkpt>
      <trkpt lat="42.13884" lon="24.80866">
        <ele>200.761064</ele>
        <time>2022-03-03T11:48:22.431Z</time>
      </trkpt>
      <trkpt lat="42.13892" lon="24.80857">
        <ele>200.915128</ele>
        <time>2022-03-03T11:48:25.448Z</time>
      </trkpt>
      <trkpt lat="42.13899" lon="24.80848">
        <ele>201.063855</ele>
        <time>2022-03-03T11:48:28.455Z</time>
      </trkpt>
      <trkpt lat="42.13906" lon="24.80839">
        <ele>201.216159</ele>
        <time>2022-03-03T11:48:31.438Z</time>
      </trkpt>
      <trkpt lat="42.13914" lon="24.80829">
        <ele>201.36965</ele>
        <time>2022-03-03T11:48:34.428Z</time>
      </trkpt>
      <trkpt lat="42.13921" lon="24.80821">
        <ele>201.229949</ele>
        <time>2022-03-03T11:48:37.439Z</time>
      </trkpt>
      <trkpt lat="42.13929" lon="24.80812">
        <ele>200.970839</ele>
        <time>2022-03-03T11:48:40.444Z</time>
      </trkpt>
      <trkpt lat="42.13938" lon="24.80803">
        <ele>200.677817</ele>
        <time>2022-03-03T11:48:43.466Z</time>
      </trkpt>
      <trkpt lat="42.13946" lon="24.80793">
        <ele>200.379102</ele>
        <time>2022-03-03T11:48:46.441Z</time>
      </trkpt>
      <trkpt lat="42.13956" lon="24.80782">
        <ele>200.059457</ele>
        <time>2022-03-03T11:48:49.480Z</time>
      </trkpt>
      <trkpt lat="42.13965" lon="24.80772">
        <ele>199.757517</ele>
        <time>2022-03-03T11:48:52.449Z</time>
      </trkpt>
      <trkpt lat="42.13973" lon="24.80763">
        <ele>199.482098</ele>
        <time>2022-03-03T11:48:55.435Z</time>
      </trkpt>
      <trkpt lat="42.13981" lon="24.80753">
        <ele>199.198334</ele>
        <time>2022-03-03T11:48:58.440Z</time>
      </trkpt>
      <trkpt lat="42.13989" lon="24.80743">
        <ele>198.922294</ele>
        <time>2022-03-03T11:49:01.446Z</time>
      </trkpt>
      <trkpt lat="42.13997" lon="24.80733">
        <ele>198.648177</ele>
        <time>2022-03-03T11:49:04.419Z</time>
      </trkpt>
      <trkpt lat="42.14005" lon="24.80723">
        <ele>198.365027</ele>
        <time>2022-03-03T11:49:07.441Z</time>
      </trkpt>
      <trkpt lat="42.14013" lon="24.80714">
        <ele>198.083835</ele>
        <time>2022-03-03T11:49:10.433Z</time>
      </trkpt>
      <trkpt lat="42.14021" lon="24.80704">
        <ele>197.806504</ele>
        <time>2022-03-03T11:49:13.441Z</time>
      </trkpt>
      <trkpt lat="42.14028" lon="24.80695">
        <ele>197.536812</ele>
        <time>2022-03-03T11:49:16.460Z</time>
      </trkpt>
      <trkpt lat="42.14037" lon="24.80686">
        <ele>197.270396</ele>
        <time>2022-03-03T11:49:19.427Z</time>
      </trkpt>
      <trkpt lat="42.14045" lon="24.80678">
        <ele>196.988098</ele>
        <time>2022-03-03T11:49:22.499Z</time>
      </trkpt>
      <trkpt lat="42.14054" lon="24.80668">
        <ele>196.780756</ele>
        <time>2022-03-03T11:49:25.431Z</time>
      </trkpt>
      <trkpt lat="42.14062" lon="24.80658">
        <ele>197.09278</ele>
        <time>2022-03-03T11:49:28.433Z</time>
      </trkpt>
      <trkpt lat="42.14071" lon="24.80648">
        <ele>197.416103</ele>
        <time>2022-03-03T11:49:31.443Z</time>
      </trkpt>
      <trkpt lat="42.14079" lon="24.80639">
        <ele>197.712111</ele>
        <time>2022-03-03T11:49:34.423Z</time>
      </trkpt>
      <trkpt lat="42.14086" lon="24.8063">
        <ele>197.990376</ele>
        <time>2022-03-03T11:49:37.445Z</time>
      </trkpt>
      <trkpt lat="42.14095" lon="24.80622">
        <ele>198.282238</ele>
        <time>2022-03-03T11:49:40.445Z</time>
      </trkpt>
      <trkpt lat="42.14103" lon="24.80611">
        <ele>198.59774</ele>
        <time>2022-03-03T11:49:43.447Z</time>
      </trkpt>
      <trkpt lat="42.14111" lon="24.80602">
        <ele>198.90659</ele>
        <time>2022-03-03T11:49:46.422Z</time>
      </trkpt>
      <trkpt lat="42.14119" lon="24.80593">
        <ele>199.188032</ele>
        <time>2022-03-03T11:49:49.446Z</time>
      </trkpt>
      <trkpt lat="42.14127" lon="24.80584">
        <ele>199.479184</ele>
        <time>2022-03-03T11:49:52.448Z</time>
      </trkpt>
      <trkpt lat="42.14135" lon="24.80573">
        <ele>199.801646</ele>
        <time>2022-03-03T11:49:55.478Z</time>
      </trkpt>
      <trkpt lat="42.14144" lon="24.80563">
        <ele>200.131776</ele>
        <time>2022-03-03T11:49:58.454Z</time>
      </trkpt>
      <trkpt lat="42.14152" lon="24.80554">
        <ele>200.441495</ele>
        <time>2022-03-03T11:50:01.466Z</time>
      </trkpt>
      <trkpt lat="42.14161" lon="24.80544">
        <ele>200.756306</ele>
        <time>2022-03-03T11:50:04.425Z</time>
      </trkpt>
      <trkpt lat="42.14169" lon="24.80535">
        <ele>201.042872</ele>
        <time>2022-03-03T11:50:07.423Z</time>
      </trkpt>
      <trkpt lat="42.14176" lon="24.80527">
        <ele>201.313751</ele>
        <time>2022-03-03T11:50:10.435Z</time>
      </trkpt>
      <trkpt lat="42.14184" lon="24.80519">
        <ele>201.58463</ele>
        <time>2022-03-03T11:50:13.435Z</time>
      </trkpt>
      <trkpt lat="42.14192" lon="24.80511">
        <ele>201.737474</ele>
        <time>2022-03-03T11:50:16.416Z</time>
      </trkpt>
      <trkpt lat="42.142" lon="24.80504">
        <ele>201.558215</ele>
        <time>2022-03-03T11:50:19.438Z</time>
      </trkpt>
      <trkpt lat="42.14208" lon="24.80495">
        <ele>201.366693</ele>
        <time>2022-03-03T11:50:22.427Z</time>
      </trkpt>
      <trkpt lat="42.14217" lon="24.80487">
        <ele>201.149263</ele>
        <time>2022-03-03T11:50:25.437Z</time>
      </trkpt>
      <trkpt lat="42.14226" lon="24.8048">
        <ele>200.960829</ele>
        <time>2022-03-03T11:50:28.440Z</time>
      </trkpt>
      <trkpt lat="42.14238" lon="24.80474">
        <ele>200.716624</ele>
        <time>2022-03-03T11:50:31.446Z</time>
      </trkpt>
      <trkpt lat="42.1425" lon="24.80472">
        <ele>200.468897</ele>
        <time>2022-03-03T11:50:34.529Z</time>
      </trkpt>
      <trkpt lat="42.1426" lon="24.80472">
        <ele>200.276517</ele>
        <time>2022-03-03T11:50:37.441Z</time>
      </trkpt>
      <trkpt lat="42.14252" lon="24.80463">
        <ele>200.067902</ele>
        <time>2022-03-03T11:51:46.444Z</time>
      </trkpt>
      <trkpt lat="42.14268" lon="24.80469">
        <ele>199.7511</ele>
        <time>2022-03-03T11:52:37.439Z</time>
      </trkpt>
      <trkpt lat="42.14277" lon="24.80473">
        <ele>199.560044</ele>
        <time>2022-03-03T11:52:40.425Z</time>
      </trkpt>
      <trkpt lat="42.14286" lon="24.80477">
        <ele>199.377435</ele>
        <time>2022-03-03T11:52:43.429Z</time>
      </trkpt>
      <trkpt lat="42.14296" lon="24.80481">
        <ele>199.17709</ele>
        <time>2022-03-03T11:52:46.414Z</time>
      </trkpt>
      <trkpt lat="42.14307" lon="24.80485">
        <ele>198.971165</ele>
        <time>2022-03-03T11:52:49.418Z</time>
      </trkpt>
      <trkpt lat="42.14318" lon="24.8049">
        <ele>198.749875</ele>
        <time>2022-03-03T11:52:52.455Z</time>
      </trkpt>
      <trkpt lat="42.14328" lon="24.80495">
        <ele>198.542301</ele>
        <time>2022-03-03T11:52:55.469Z</time>
      </trkpt>
      <trkpt lat="42.14338" lon="24.805">
        <ele>198.320504</ele>
        <time>2022-03-03T11:52:58.441Z</time>
      </trkpt>
      <trkpt lat="42.14349" lon="24.80504">
        <ele>197.970443</ele>
        <time>2022-03-03T11:53:01.429Z</time>
      </trkpt>
      <trkpt lat="42.14359" lon="24.80509">
        <ele>197.622745</ele>
        <time>2022-03-03T11:53:04.414Z</time>
      </trkpt>
      <trkpt lat="42.1437" lon="24.80513">
        <ele>197.262052</ele>
        <time>2022-03-03T11:53:07.433Z</time>
      </trkpt>
      <trkpt lat="42.1438" lon="24.80517">
        <ele>196.907828</ele>
        <time>2022-03-03T11:53:10.430Z</time>
      </trkpt>
      <trkpt lat="42.14391" lon="24.80521">
        <ele>196.545441</ele>
        <time>2022-03-03T11:53:13.416Z</time>
      </trkpt>
      <trkpt lat="42.14402" lon="24.80525">
        <ele>196.18645</ele>
        <time>2022-03-03T11:53:16.434Z</time>
      </trkpt>
      <trkpt lat="42.14412" lon="24.80527">
        <ele>195.850469</ele>
        <time>2022-03-03T11:53:19.434Z</time>
      </trkpt>
      <trkpt lat="42.14423" lon="24.80531">
        <ele>195.495576</ele>
        <time>2022-03-03T11:53:22.436Z</time>
      </trkpt>
      <trkpt lat="42.14434" lon="24.80535">
        <ele>195.127669</ele>
        <time>2022-03-03T11:53:25.433Z</time>
      </trkpt>
      <trkpt lat="42.14444" lon="24.80538">
        <ele>194.783844</ele>
        <time>2022-03-03T11:53:28.428Z</time>
      </trkpt>
      <trkpt lat="42.14455" lon="24.80541">
        <ele>194.426943</ele>
        <time>2022-03-03T11:53:31.440Z</time>
      </trkpt>
      <trkpt lat="42.14467" lon="24.80546">
        <ele>194.043528</ele>
        <time>2022-03-03T11:53:34.422Z</time>
      </trkpt>
      <trkpt lat="42.14478" lon="24.8055">
        <ele>193.662584</ele>
        <time>2022-03-03T11:53:37.429Z</time>
      </trkpt>
      <trkpt lat="42.14488" lon="24.80554">
        <ele>193.320166</ele>
        <time>2022-03-03T11:53:40.451Z</time>
      </trkpt>
      <trkpt lat="42.145" lon="24.80557">
        <ele>192.935439</ele>
        <time>2022-03-03T11:53:43.458Z</time>
      </trkpt>
      <trkpt lat="42.14512" lon="24.80561">
        <ele>192.549798</ele>
        <time>2022-03-03T11:53:46.425Z</time>
      </trkpt>
      <trkpt lat="42.14524" lon="24.80564">
        <ele>192.563842</ele>
        <time>2022-03-03T11:53:49.464Z</time>
      </trkpt>
      <trkpt lat="42.14536" lon="24.80568">
        <ele>192.578757</ele>
        <time>2022-03-03T11:53:52.435Z</time>
      </trkpt>
      <trkpt lat="42.14547" lon="24.80572">
        <ele>192.592789</ele>
        <time>2022-03-03T11:53:55.462Z</time>
      </trkpt>
      <trkpt lat="42.14559" lon="24.80576">
        <ele>192.606949</ele>
        <time>2022-03-03T11:53:58.442Z</time>
      </trkpt>
      <trkpt lat="42.1457" lon="24.80579">
        <ele>192.621012</ele>
        <time>2022-03-03T11:54:01.483Z</time>
      </trkpt>
      <trkpt lat="42.14582" lon="24.80582">
        <ele>192.635167</ele>
        <time>2022-03-03T11:54:04.423Z</time>
      </trkpt>
      <trkpt lat="42.14594" lon="24.80586">
        <ele>192.649387</ele>
        <time>2022-03-03T11:54:07.504Z</time>
      </trkpt>
      <trkpt lat="42.14605" lon="24.8059">
        <ele>192.663629</ele>
        <time>2022-03-03T11:54:10.434Z</time>
      </trkpt>
      <trkpt lat="42.14617" lon="24.80594">
        <ele>192.678375</ele>
        <time>2022-03-03T11:54:13.462Z</time>
      </trkpt>
      <trkpt lat="42.1463" lon="24.80598">
        <ele>192.693775</ele>
        <time>2022-03-03T11:54:16.423Z</time>
      </trkpt>
      <trkpt lat="42.14639" lon="24.80601">
        <ele>192.704703</ele>
        <time>2022-03-03T11:54:18.506Z</time>
      </trkpt>
      <trkpt lat="42.14651" lon="24.80605">
        <ele>192.720027</ele>
        <time>2022-03-03T11:54:21.454Z</time>
      </trkpt>
      <trkpt lat="42.1466" lon="24.80608">
        <ele>192.730862</ele>
        <time>2022-03-03T11:54:23.494Z</time>
      </trkpt>
      <trkpt lat="42.14669" lon="24.80612">
        <ele>192.741816</ele>
        <time>2022-03-03T11:54:25.438Z</time>
      </trkpt>
      <trkpt lat="42.14678" lon="24.80615">
        <ele>192.753041</ele>
        <time>2022-03-03T11:54:27.432Z</time>
      </trkpt>
      <trkpt lat="42.14687" lon="24.80618">
        <ele>192.761237</ele>
        <time>2022-03-03T11:54:29.455Z</time>
      </trkpt>
      <trkpt lat="42.147" lon="24.80623">
        <ele>192.667344</ele>
        <time>2022-03-03T11:54:32.432Z</time>
      </trkpt>
      <trkpt lat="42.14709" lon="24.80626">
        <ele>192.604237</ele>
        <time>2022-03-03T11:54:34.434Z</time>
      </trkpt>
      <trkpt lat="42.14718" lon="24.80629">
        <ele>192.537786</ele>
        <time>2022-03-03T11:54:36.421Z</time>
      </trkpt>
      <trkpt lat="42.14727" lon="24.80632">
        <ele>192.473752</ele>
        <time>2022-03-03T11:54:38.439Z</time>
      </trkpt>
      <trkpt lat="42.1474" lon="24.80637">
        <ele>192.377035</ele>
        <time>2022-03-03T11:54:41.501Z</time>
      </trkpt>
      <trkpt lat="42.14749" lon="24.80639">
        <ele>192.313576</ele>
        <time>2022-03-03T11:54:43.415Z</time>
      </trkpt>
      <trkpt lat="42.14761" lon="24.80644">
        <ele>192.226</ele>
        <time>2022-03-03T11:54:46.491Z</time>
      </trkpt>
      <trkpt lat="42.14771" lon="24.80649">
        <ele>192.149667</ele>
        <time>2022-03-03T11:54:49.438Z</time>
      </trkpt>
      <trkpt lat="42.14781" lon="24.80651">
        <ele>192.081744</ele>
        <time>2022-03-03T11:54:51.442Z</time>
      </trkpt>
      <trkpt lat="42.14791" lon="24.80655">
        <ele>192.012856</ele>
        <time>2022-03-03T11:54:53.437Z</time>
      </trkpt>
      <trkpt lat="42.148" lon="24.80658">
        <ele>191.947461</ele>
        <time>2022-03-03T11:54:55.414Z</time>
      </trkpt>
      <trkpt lat="42.14809" lon="24.80663">
        <ele>191.879763</ele>
        <time>2022-03-03T11:54:57.421Z</time>
      </trkpt>
      <trkpt lat="42.14818" lon="24.80667">
        <ele>191.811276</ele>
        <time>2022-03-03T11:54:59.435Z</time>
      </trkpt>
      <trkpt lat="42.14827" lon="24.8067">
        <ele>191.747784</ele>
        <time>2022-03-03T11:55:01.437Z</time>
      </trkpt>
      <trkpt lat="42.14836" lon="24.80674">
        <ele>191.683416</ele>
        <time>2022-03-03T11:55:03.482Z</time>
      </trkpt>
      <trkpt lat="42.14848" lon="24.8068">
        <ele>191.591645</ele>
        <time>2022-03-03T11:55:06.418Z</time>
      </trkpt>
      <trkpt lat="42.1486" lon="24.80686">
        <ele>191.52446</ele>
        <time>2022-03-03T11:55:09.430Z</time>
      </trkpt>
      <trkpt lat="42.14873" lon="24.80691">
        <ele>191.664228</ele>
        <time>2022-03-03T11:55:12.429Z</time>
      </trkpt>
      <trkpt lat="42.14885" lon="24.80698">
        <ele>191.796138</ele>
        <time>2022-03-03T11:55:15.427Z</time>
      </trkpt>
      <trkpt lat="42.14894" lon="24.80711">
        <ele>191.93383</ele>
        <time>2022-03-03T11:55:18.529Z</time>
      </trkpt>
      <trkpt lat="42.14898" lon="24.80723">
        <ele>192.037561</ele>
        <time>2022-03-03T11:55:20.439Z</time>
      </trkpt>
      <trkpt lat="42.149" lon="24.80735">
        <ele>192.134695</ele>
        <time>2022-03-03T11:55:22.422Z</time>
      </trkpt>
      <trkpt lat="42.14898" lon="24.80752">
        <ele>192.268502</ele>
        <time>2022-03-03T11:55:25.407Z</time>
      </trkpt>
      <trkpt lat="42.14891" lon="24.80766">
        <ele>192.393098</ele>
        <time>2022-03-03T11:55:28.429Z</time>
      </trkpt>
      <trkpt lat="42.14885" lon="24.80779">
        <ele>192.511503</ele>
        <time>2022-03-03T11:55:31.425Z</time>
      </trkpt>
      <trkpt lat="42.14878" lon="24.80792">
        <ele>192.633676</ele>
        <time>2022-03-03T11:55:34.415Z</time>
      </trkpt>
      <trkpt lat="42.14872" lon="24.80805">
        <ele>192.755337</ele>
        <time>2022-03-03T11:55:37.413Z</time>
      </trkpt>
      <trkpt lat="42.14865" lon="24.80819">
        <ele>192.881292</ele>
        <time>2022-03-03T11:55:40.436Z</time>
      </trkpt>
      <trkpt lat="42.14858" lon="24.80831">
        <ele>193.002284</ele>
        <time>2022-03-03T11:55:43.457Z</time>
      </trkpt>
      <trkpt lat="42.14849" lon="24.80842">
        <ele>193.126842</ele>
        <time>2022-03-03T11:55:46.417Z</time>
      </trkpt>
      <trkpt lat="42.14837" lon="24.80848">
        <ele>193.256571</ele>
        <time>2022-03-03T11:55:49.406Z</time>
      </trkpt>
      <trkpt lat="42.14828" lon="24.80851">
        <ele>193.354213</ele>
        <time>2022-03-03T11:55:52.473Z</time>
      </trkpt>
      <trkpt lat="42.14817" lon="24.80849">
        <ele>193.736633</ele>
        <time>2022-03-03T11:55:56.428Z</time>
      </trkpt>
      <trkpt lat="42.14809" lon="24.80843">
        <ele>194.160834</ele>
        <time>2022-03-03T11:56:00.437Z</time>
      </trkpt>
      <trkpt lat="42.148" lon="24.80836">
        <ele>194.615139</ele>
        <time>2022-03-03T11:56:05.424Z</time>
      </trkpt>
      <trkpt lat="42.14793" lon="24.80826">
        <ele>195.052253</ele>
        <time>2022-03-03T11:56:09.476Z</time>
      </trkpt>
      <trkpt lat="42.14787" lon="24.80815">
        <ele>195.498559</ele>
        <time>2022-03-03T11:56:13.433Z</time>
      </trkpt>
      <trkpt lat="42.14782" lon="24.80802">
        <ele>195.965083</ele>
        <time>2022-03-03T11:56:17.420Z</time>
      </trkpt>
      <trkpt lat="42.14779" lon="24.80789">
        <ele>196.401684</ele>
        <time>2022-03-03T11:56:21.433Z</time>
      </trkpt>
      <trkpt lat="42.14776" lon="24.80776">
        <ele>196.842554</ele>
        <time>2022-03-03T11:56:25.435Z</time>
      </trkpt>
      <trkpt lat="42.14774" lon="24.80761">
        <ele>197.305894</ele>
        <time>2022-03-03T11:56:29.425Z</time>
      </trkpt>
      <trkpt lat="42.14772" lon="24.80747">
        <ele>197.778718</ele>
        <time>2022-03-03T11:56:33.425Z</time>
      </trkpt>
      <trkpt lat="42.1477" lon="24.80732">
        <ele>198.258922</ele>
        <time>2022-03-03T11:56:37.453Z</time>
      </trkpt>
      <trkpt lat="42.14768" lon="24.8072">
        <ele>198.648914</ele>
        <time>2022-03-03T11:56:40.430Z</time>
      </trkpt>
      <trkpt lat="42.14766" lon="24.80709">
        <ele>199.040728</ele>
        <time>2022-03-03T11:56:43.434Z</time>
      </trkpt>
      <trkpt lat="42.14765" lon="24.80696">
        <ele>199.435368</ele>
        <time>2022-03-03T11:56:46.425Z</time>
      </trkpt>
      <trkpt lat="42.14763" lon="24.80681">
        <ele>199.946182</ele>
        <time>2022-03-03T11:56:50.423Z</time>
      </trkpt>
      <trkpt lat="42.14761" lon="24.80666">
        <ele>200.438734</ele>
        <time>2022-03-03T11:56:54.414Z</time>
      </trkpt>
      <trkpt lat="42.14759" lon="24.8065">
        <ele>200.930572</ele>
        <time>2022-03-03T11:56:58.428Z</time>
      </trkpt>
      <trkpt lat="42.14758" lon="24.80635">
        <ele>201.061241</ele>
        <time>2022-03-03T11:57:02.439Z</time>
      </trkpt>
      <trkpt lat="42.14758" lon="24.80622">
        <ele>200.895124</ele>
        <time>2022-03-03T11:57:05.416Z</time>
      </trkpt>
      <trkpt lat="42.14757" lon="24.80608">
        <ele>200.703358</ele>
        <time>2022-03-03T11:57:09.435Z</time>
      </trkpt>
      <trkpt lat="42.14756" lon="24.80595">
        <ele>200.52746</ele>
        <time>2022-03-03T11:57:12.475Z</time>
      </trkpt>
      <trkpt lat="42.14755" lon="24.80581">
        <ele>200.341128</ele>
        <time>2022-03-03T11:57:15.469Z</time>
      </trkpt>
      <trkpt lat="42.14754" lon="24.80566">
        <ele>200.150155</ele>
        <time>2022-03-03T11:57:18.440Z</time>
      </trkpt>
      <trkpt lat="42.14753" lon="24.80551">
        <ele>199.942763</ele>
        <time>2022-03-03T11:57:21.468Z</time>
      </trkpt>
      <trkpt lat="42.14752" lon="24.80535">
        <ele>199.739605</ele>
        <time>2022-03-03T11:57:24.434Z</time>
      </trkpt>
      <trkpt lat="42.14752" lon="24.80519">
        <ele>199.525958</ele>
        <time>2022-03-03T11:57:27.453Z</time>
      </trkpt>
      <trkpt lat="42.14752" lon="24.80504">
        <ele>199.320272</ele>
        <time>2022-03-03T11:57:30.453Z</time>
      </trkpt>
      <trkpt lat="42.14752" lon="24.80488">
        <ele>199.117209</ele>
        <time>2022-03-03T11:57:33.463Z</time>
      </trkpt>
      <trkpt lat="42.14753" lon="24.80474">
        <ele>198.922065</ele>
        <time>2022-03-03T11:57:36.447Z</time>
      </trkpt>
      <trkpt lat="42.14753" lon="24.80458">
        <ele>198.709262</ele>
        <time>2022-03-03T11:57:39.434Z</time>
      </trkpt>
      <trkpt lat="42.14754" lon="24.8044">
        <ele>198.475462</ele>
        <time>2022-03-03T11:57:42.429Z</time>
      </trkpt>
      <trkpt lat="42.14755" lon="24.80428">
        <ele>198.312581</ele>
        <time>2022-03-03T11:57:44.429Z</time>
      </trkpt>
      <trkpt lat="42.14756" lon="24.80415">
        <ele>198.138155</ele>
        <time>2022-03-03T11:57:46.451Z</time>
      </trkpt>
      <trkpt lat="42.14756" lon="24.80401">
        <ele>197.953485</ele>
        <time>2022-03-03T11:57:48.435Z</time>
      </trkpt>
      <trkpt lat="42.14757" lon="24.80387">
        <ele>197.691163</ele>
        <time>2022-03-03T11:57:50.432Z</time>
      </trkpt>
      <trkpt lat="42.14758" lon="24.80372">
        <ele>197.419163</ele>
        <time>2022-03-03T11:57:52.430Z</time>
      </trkpt>
      <trkpt lat="42.14758" lon="24.80358">
        <ele>197.163903</ele>
        <time>2022-03-03T11:57:54.426Z</time>
      </trkpt>
      <trkpt lat="42.14759" lon="24.80344">
        <ele>196.906257</ele>
        <time>2022-03-03T11:57:56.451Z</time>
      </trkpt>
      <trkpt lat="42.1476" lon="24.80331">
        <ele>196.652682</ele>
        <time>2022-03-03T11:57:58.484Z</time>
      </trkpt>
      <trkpt lat="42.1476" lon="24.80317">
        <ele>196.391737</ele>
        <time>2022-03-03T11:58:00.494Z</time>
      </trkpt>
      <trkpt lat="42.14761" lon="24.80302">
        <ele>196.117532</ele>
        <time>2022-03-03T11:58:02.442Z</time>
      </trkpt>
      <trkpt lat="42.14762" lon="24.80287">
        <ele>195.841678</ele>
        <time>2022-03-03T11:58:04.466Z</time>
      </trkpt>
      <trkpt lat="42.14763" lon="24.80272">
        <ele>195.569678</ele>
        <time>2022-03-03T11:58:06.440Z</time>
      </trkpt>
      <trkpt lat="42.14764" lon="24.80258">
        <ele>195.303031</ele>
        <time>2022-03-03T11:58:08.456Z</time>
      </trkpt>
      <trkpt lat="42.14764" lon="24.80243">
        <ele>195.036385</ele>
        <time>2022-03-03T11:58:10.467Z</time>
      </trkpt>
      <trkpt lat="42.14765" lon="24.80229">
        <ele>194.7769</ele>
        <time>2022-03-03T11:58:12.454Z</time>
      </trkpt>
      <trkpt lat="42.14766" lon="24.80216">
        <ele>194.524281</ele>
        <time>2022-03-03T11:58:14.464Z</time>
      </trkpt>
      <trkpt lat="42.14767" lon="24.80203">
        <ele>194.286616</ele>
        <time>2022-03-03T11:58:16.450Z</time>
      </trkpt>
      <trkpt lat="42.14769" lon="24.8019">
        <ele>194.038323</ele>
        <time>2022-03-03T11:58:18.426Z</time>
      </trkpt>
      <trkpt lat="42.14771" lon="24.80178">
        <ele>193.813612</ele>
        <time>2022-03-03T11:58:20.467Z</time>
      </trkpt>
      <trkpt lat="42.14773" lon="24.80161">
        <ele>193.497688</ele>
        <time>2022-03-03T11:58:23.443Z</time>
      </trkpt>
      <trkpt lat="42.14775" lon="24.80145">
        <ele>193.493033</ele>
        <time>2022-03-03T11:58:26.481Z</time>
      </trkpt>
      <trkpt lat="42.14776" lon="24.80131">
        <ele>193.511846</ele>
        <time>2022-03-03T11:58:29.448Z</time>
      </trkpt>
      <trkpt lat="42.14778" lon="24.80117">
        <ele>193.530309</ele>
        <time>2022-03-03T11:58:32.422Z</time>
      </trkpt>
      <trkpt lat="42.14779" lon="24.80102">
        <ele>193.549912</ele>
        <time>2022-03-03T11:58:35.440Z</time>
      </trkpt>
      <trkpt lat="42.1478" lon="24.80087">
        <ele>193.570288</ele>
        <time>2022-03-03T11:58:38.430Z</time>
      </trkpt>
      <trkpt lat="42.14781" lon="24.80071">
        <ele>193.591044</ele>
        <time>2022-03-03T11:58:41.456Z</time>
      </trkpt>
      <trkpt lat="42.14782" lon="24.80056">
        <ele>193.612027</ele>
        <time>2022-03-03T11:58:44.431Z</time>
      </trkpt>
      <trkpt lat="42.14783" lon="24.80041">
        <ele>193.631727</ele>
        <time>2022-03-03T11:58:47.451Z</time>
      </trkpt>
      <trkpt lat="42.14784" lon="24.80026">
        <ele>193.65075</ele>
        <time>2022-03-03T11:58:50.440Z</time>
      </trkpt>
      <trkpt lat="42.14785" lon="24.8001">
        <ele>193.672034</ele>
        <time>2022-03-03T11:58:53.430Z</time>
      </trkpt>
      <trkpt lat="42.14786" lon="24.79994">
        <ele>193.693994</ele>
        <time>2022-03-03T11:58:56.433Z</time>
      </trkpt>
      <trkpt lat="42.14788" lon="24.79978">
        <ele>193.714915</ele>
        <time>2022-03-03T11:58:59.447Z</time>
      </trkpt>
      <trkpt lat="42.14788" lon="24.79962">
        <ele>193.73604</ele>
        <time>2022-03-03T11:59:02.483Z</time>
      </trkpt>
      <trkpt lat="42.1479" lon="24.79945">
        <ele>193.75866</ele>
        <time>2022-03-03T11:59:05.462Z</time>
      </trkpt>
      <trkpt lat="42.14791" lon="24.79927">
        <ele>193.782733</ele>
        <time>2022-03-03T11:59:08.456Z</time>
      </trkpt>
      <trkpt lat="42.14792" lon="24.79914">
        <ele>193.815199</ele>
        <time>2022-03-03T11:59:10.442Z</time>
      </trkpt>
      <trkpt lat="42.14794" lon="24.79902">
        <ele>193.877673</ele>
        <time>2022-03-03T11:59:12.450Z</time>
      </trkpt>
      <trkpt lat="42.14796" lon="24.79889">
        <ele>193.944381</ele>
        <time>2022-03-03T11:59:14.464Z</time>
      </trkpt>
      <trkpt lat="42.14797" lon="24.79876">
        <ele>194.012083</ele>
        <time>2022-03-03T11:59:16.467Z</time>
      </trkpt>
      <trkpt lat="42.14798" lon="24.79863">
        <ele>194.076791</ele>
        <time>2022-03-03T11:59:18.449Z</time>
      </trkpt>
      <trkpt lat="42.14798" lon="24.7985">
        <ele>194.141914</ele>
        <time>2022-03-03T11:59:20.461Z</time>
      </trkpt>
      <trkpt lat="42.14799" lon="24.79837">
        <ele>194.20524</ele>
        <time>2022-03-03T11:59:22.513Z</time>
      </trkpt>
      <trkpt lat="42.148" lon="24.79824">
        <ele>194.270369</ele>
        <time>2022-03-03T11:59:24.466Z</time>
      </trkpt>
      <trkpt lat="42.14802" lon="24.79811">
        <ele>194.334602</ele>
        <time>2022-03-03T11:59:26.445Z</time>
      </trkpt>
      <trkpt lat="42.14803" lon="24.79799">
        <ele>194.396933</ele>
        <time>2022-03-03T11:59:28.455Z</time>
      </trkpt>
      <trkpt lat="42.14804" lon="24.79782">
        <ele>194.483426</ele>
        <time>2022-03-03T11:59:31.425Z</time>
      </trkpt>
      <trkpt lat="42.14807" lon="24.79767">
        <ele>194.560647</ele>
        <time>2022-03-03T11:59:34.514Z</time>
      </trkpt>
      <trkpt lat="42.14812" lon="24.79753">
        <ele>194.639908</ele>
        <time>2022-03-03T11:59:37.408Z</time>
      </trkpt>
      <trkpt lat="42.14817" lon="24.7974">
        <ele>194.714413</ele>
        <time>2022-03-03T11:59:40.438Z</time>
      </trkpt>
      <trkpt lat="42.14819" lon="24.79726">
        <ele>194.783301</ele>
        <time>2022-03-03T11:59:43.441Z</time>
      </trkpt>
      <trkpt lat="42.14816" lon="24.79712">
        <ele>194.857138</ele>
        <time>2022-03-03T11:59:46.426Z</time>
      </trkpt>
      <trkpt lat="42.14812" lon="24.79695">
        <ele>194.942824</ele>
        <time>2022-03-03T11:59:49.468Z</time>
      </trkpt>
      <trkpt lat="42.1481" lon="24.7968">
        <ele>195.043526</ele>
        <time>2022-03-03T11:59:52.439Z</time>
      </trkpt>
      <trkpt lat="42.1481" lon="24.79663">
        <ele>195.2878</ele>
        <time>2022-03-03T11:59:55.453Z</time>
      </trkpt>
      <trkpt lat="42.14812" lon="24.79647">
        <ele>195.518567</ele>
        <time>2022-03-03T11:59:58.442Z</time>
      </trkpt>
      <trkpt lat="42.14813" lon="24.79634">
        <ele>195.705804</ele>
        <time>2022-03-03T12:00:01.458Z</time>
      </trkpt>
      <trkpt lat="42.14814" lon="24.79622">
        <ele>195.882858</ele>
        <time>2022-03-03T12:00:04.434Z</time>
      </trkpt>
      <trkpt lat="42.14815" lon="24.7961">
        <ele>196.060406</ele>
        <time>2022-03-03T12:00:07.463Z</time>
      </trkpt>
      <trkpt lat="42.14815" lon="24.79597">
        <ele>196.239048</ele>
        <time>2022-03-03T12:00:10.444Z</time>
      </trkpt>
      <trkpt lat="42.14816" lon="24.79584">
        <ele>196.432327</ele>
        <time>2022-03-03T12:00:13.458Z</time>
      </trkpt>
      <trkpt lat="42.14817" lon="24.79567">
        <ele>196.668041</ele>
        <time>2022-03-03T12:00:17.468Z</time>
      </trkpt>
      <trkpt lat="42.14817" lon="24.79555">
        <ele>196.841901</ele>
        <time>2022-03-03T12:00:20.447Z</time>
      </trkpt>
      <trkpt lat="42.14817" lon="24.79541">
        <ele>197.048839</ele>
        <time>2022-03-03T12:00:24.466Z</time>
      </trkpt>
      <trkpt lat="42.14817" lon="24.79526">
        <ele>197.260084</ele>
        <time>2022-03-03T12:00:28.440Z</time>
      </trkpt>
      <trkpt lat="42.14817" lon="24.79512">
        <ele>197.46264</ele>
        <time>2022-03-03T12:00:32.463Z</time>
      </trkpt>
      <trkpt lat="42.14817" lon="24.79499">
        <ele>197.656723</ele>
        <time>2022-03-03T12:00:36.429Z</time>
      </trkpt>
      <trkpt lat="42.14817" lon="24.79486">
        <ele>197.833582</ele>
        <time>2022-03-03T12:00:39.426Z</time>
      </trkpt>
      <trkpt lat="42.14817" lon="24.79474">
        <ele>198.008846</ele>
        <time>2022-03-03T12:00:42.424Z</time>
      </trkpt>
      <trkpt lat="42.14817" lon="24.79462">
        <ele>198.185547</ele>
        <time>2022-03-03T12:00:45.473Z</time>
      </trkpt>
      <trkpt lat="42.14817" lon="24.79449">
        <ele>198.370865</ele>
        <time>2022-03-03T12:00:48.430Z</time>
      </trkpt>
      <trkpt lat="42.14817" lon="24.79436">
        <ele>198.528903</ele>
        <time>2022-03-03T12:00:51.441Z</time>
      </trkpt>
      <trkpt lat="42.14817" lon="24.79423">
        <ele>198.6323</ele>
        <time>2022-03-03T12:00:54.465Z</time>
      </trkpt>
      <trkpt lat="42.14817" lon="24.79409">
        <ele>198.750356</ele>
        <time>2022-03-03T12:00:58.467Z</time>
      </trkpt>
      <trkpt lat="42.1482" lon="24.79395">
        <ele>198.863131</ele>
        <time>2022-03-03T12:01:01.463Z</time>
      </trkpt>
      <trkpt lat="42.14821" lon="24.79382">
        <ele>198.971406</ele>
        <time>2022-03-03T12:01:04.435Z</time>
      </trkpt>
      <trkpt lat="42.14822" lon="24.79369">
        <ele>199.0759</ele>
        <time>2022-03-03T12:01:07.440Z</time>
      </trkpt>
      <trkpt lat="42.14823" lon="24.79356">
        <ele>199.182915</ele>
        <time>2022-03-03T12:01:10.447Z</time>
      </trkpt>
      <trkpt lat="42.14823" lon="24.79341">
        <ele>199.311719</ele>
        <time>2022-03-03T12:01:14.433Z</time>
      </trkpt>
      <trkpt lat="42.14824" lon="24.79327">
        <ele>199.419327</ele>
        <time>2022-03-03T12:01:17.424Z</time>
      </trkpt>
      <trkpt lat="42.14824" lon="24.79314">
        <ele>199.531814</ele>
        <time>2022-03-03T12:01:20.425Z</time>
      </trkpt>
      <trkpt lat="42.14825" lon="24.79299">
        <ele>199.64938</ele>
        <time>2022-03-03T12:01:23.439Z</time>
      </trkpt>
      <trkpt lat="42.14826" lon="24.79284">
        <ele>199.774336</ele>
        <time>2022-03-03T12:01:26.456Z</time>
      </trkpt>
      <trkpt lat="42.14828" lon="24.79269">
        <ele>199.893531</ele>
        <time>2022-03-03T12:01:29.430Z</time>
      </trkpt>
      <trkpt lat="42.14831" lon="24.79257">
        <ele>200.000943</ele>
        <time>2022-03-03T12:01:32.435Z</time>
      </trkpt>
      <trkpt lat="42.14835" lon="24.79246">
        <ele>200.100691</ele>
        <time>2022-03-03T12:01:35.438Z</time>
      </trkpt>
      <trkpt lat="42.14837" lon="24.79232">
        <ele>200.216407</ele>
        <time>2022-03-03T12:01:39.443Z</time>
      </trkpt>
      <trkpt lat="42.14836" lon="24.79218">
        <ele>200.331286</ele>
        <time>2022-03-03T12:01:43.450Z</time>
      </trkpt>
      <trkpt lat="42.14837" lon="24.79204">
        <ele>200.444286</ele>
        <time>2022-03-03T12:01:47.433Z</time>
      </trkpt>
      <trkpt lat="42.14838" lon="24.7919">
        <ele>200.652949</ele>
        <time>2022-03-03T12:01:51.434Z</time>
      </trkpt>
      <trkpt lat="42.14841" lon="24.79154">
        <ele>201.278655</ele>
        <time>2022-03-03T12:04:19.442Z</time>
      </trkpt>
      <trkpt lat="42.14842" lon="24.79138">
        <ele>201.554133</ele>
        <time>2022-03-03T12:04:23.422Z</time>
      </trkpt>
      <trkpt lat="42.14842" lon="24.79123">
        <ele>201.818617</ele>
        <time>2022-03-03T12:04:27.435Z</time>
      </trkpt>
      <trkpt lat="42.14844" lon="24.79107">
        <ele>202.092884</ele>
        <time>2022-03-03T12:04:31.464Z</time>
      </trkpt>
      <trkpt lat="42.14844" lon="24.79095">
        <ele>202.304595</ele>
        <time>2022-03-03T12:04:34.432Z</time>
      </trkpt>
      <trkpt lat="42.14845" lon="24.79083">
        <ele>202.524917</ele>
        <time>2022-03-03T12:04:37.432Z</time>
      </trkpt>
      <trkpt lat="42.14847" lon="24.7907">
        <ele>202.740024</ele>
        <time>2022-03-03T12:04:40.430Z</time>
      </trkpt>
      <trkpt lat="42.14847" lon="24.79058">
        <ele>202.958274</ele>
        <time>2022-03-03T12:04:43.445Z</time>
      </trkpt>
      <trkpt lat="42.14848" lon="24.79045">
        <ele>203.186441</ele>
        <time>2022-03-03T12:04:46.440Z</time>
      </trkpt>
      <trkpt lat="42.14851" lon="24.79031">
        <ele>203.426415</ele>
        <time>2022-03-03T12:04:49.454Z</time>
      </trkpt>
      <trkpt lat="42.14852" lon="24.79017">
        <ele>203.668311</ele>
        <time>2022-03-03T12:04:52.458Z</time>
      </trkpt>
      <trkpt lat="42.14852" lon="24.79002">
        <ele>203.927609</ele>
        <time>2022-03-03T12:04:56.480Z</time>
      </trkpt>
      <trkpt lat="42.14853" lon="24.78987">
        <ele>204.189</ele>
        <time>2022-03-03T12:05:00.460Z</time>
      </trkpt>
      <trkpt lat="42.14854" lon="24.78972">
        <ele>204.442244</ele>
        <time>2022-03-03T12:05:04.414Z</time>
      </trkpt>
      <trkpt lat="42.14853" lon="24.78959">
        <ele>204.680876</ele>
        <time>2022-03-03T12:05:08.484Z</time>
      </trkpt>
      <trkpt lat="42.14854" lon="24.78945">
        <ele>204.938936</ele>
        <time>2022-03-03T12:05:12.462Z</time>
      </trkpt>
      <trkpt lat="42.14855" lon="24.78929">
        <ele>205.230425</ele>
        <time>2022-03-03T12:05:16.468Z</time>
      </trkpt>
      <trkpt lat="42.14856" lon="24.78916">
        <ele>205.481091</ele>
        <time>2022-03-03T12:05:19.447Z</time>
      </trkpt>
      <trkpt lat="42.14856" lon="24.78902">
        <ele>205.741247</ele>
        <time>2022-03-03T12:05:22.432Z</time>
      </trkpt>
      <trkpt lat="42.14858" lon="24.78889">
        <ele>205.980147</ele>
        <time>2022-03-03T12:05:25.434Z</time>
      </trkpt>
      <trkpt lat="42.14858" lon="24.78876">
        <ele>206.232373</ele>
        <time>2022-03-03T12:05:28.433Z</time>
      </trkpt>
      <trkpt lat="42.14858" lon="24.78861">
        <ele>206.508645</ele>
        <time>2022-03-03T12:05:31.450Z</time>
      </trkpt>
      <trkpt lat="42.14859" lon="24.78847">
        <ele>206.779264</ele>
        <time>2022-03-03T12:05:34.442Z</time>
      </trkpt>
      <trkpt lat="42.1486" lon="24.78832">
        <ele>207.049145</ele>
        <time>2022-03-03T12:05:37.465Z</time>
      </trkpt>
      <trkpt lat="42.14861" lon="24.78819">
        <ele>207.292782</ele>
        <time>2022-03-03T12:05:40.451Z</time>
      </trkpt>
      <trkpt lat="42.14861" lon="24.78804">
        <ele>207.58255</ele>
        <time>2022-03-03T12:05:44.422Z</time>
      </trkpt>
      <trkpt lat="42.14861" lon="24.78788">
        <ele>207.881207</ele>
        <time>2022-03-03T12:05:48.427Z</time>
      </trkpt>
      <trkpt lat="42.1486" lon="24.78775">
        <ele>208.116808</ele>
        <time>2022-03-03T12:05:51.449Z</time>
      </trkpt>
      <trkpt lat="42.14863" lon="24.78761">
        <ele>208.387931</ele>
        <time>2022-03-03T12:05:54.432Z</time>
      </trkpt>
      <trkpt lat="42.14865" lon="24.78746">
        <ele>208.676619</ele>
        <time>2022-03-03T12:05:58.429Z</time>
      </trkpt>
      <trkpt lat="42.14865" lon="24.78732">
        <ele>208.936592</ele>
        <time>2022-03-03T12:06:02.445Z</time>
      </trkpt>
      <trkpt lat="42.14868" lon="24.78719">
        <ele>209.17451</ele>
        <time>2022-03-03T12:06:05.435Z</time>
      </trkpt>
      <trkpt lat="42.14869" lon="24.78707">
        <ele>209.181255</ele>
        <time>2022-03-03T12:06:08.436Z</time>
      </trkpt>
      <trkpt lat="42.1487" lon="24.78692">
        <ele>209.171275</ele>
        <time>2022-03-03T12:06:12.440Z</time>
      </trkpt>
      <trkpt lat="42.14871" lon="24.78678">
        <ele>209.162115</ele>
        <time>2022-03-03T12:06:16.424Z</time>
      </trkpt>
      <trkpt lat="42.14874" lon="24.78665">
        <ele>209.153669</ele>
        <time>2022-03-03T12:06:20.436Z</time>
      </trkpt>
      <trkpt lat="42.14874" lon="24.78652">
        <ele>209.144839</ele>
        <time>2022-03-03T12:06:25.438Z</time>
      </trkpt>
      <trkpt lat="42.14871" lon="24.78637">
        <ele>209.135193</ele>
        <time>2022-03-03T12:06:33.430Z</time>
      </trkpt>
      <trkpt lat="42.14867" lon="24.78623">
        <ele>209.125508</ele>
        <time>2022-03-03T12:06:36.416Z</time>
      </trkpt>
      <trkpt lat="42.14866" lon="24.7861">
        <ele>209.116792</ele>
        <time>2022-03-03T12:06:39.428Z</time>
      </trkpt>
      <trkpt lat="42.14867" lon="24.78596">
        <ele>209.107928</ele>
        <time>2022-03-03T12:06:42.454Z</time>
      </trkpt>
      <trkpt lat="42.14868" lon="24.78583">
        <ele>209.099451</ele>
        <time>2022-03-03T12:06:45.451Z</time>
      </trkpt>
      <trkpt lat="42.1487" lon="24.78567">
        <ele>209.088802</ele>
        <time>2022-03-03T12:06:48.498Z</time>
      </trkpt>
      <trkpt lat="42.14871" lon="24.78555">
        <ele>209.080769</ele>
        <time>2022-03-03T12:06:50.439Z</time>
      </trkpt>
      <trkpt lat="42.14872" lon="24.78538">
        <ele>209.070051</ele>
        <time>2022-03-03T12:06:53.479Z</time>
      </trkpt>
      <trkpt lat="42.14872" lon="24.78522">
        <ele>209.059465</ele>
        <time>2022-03-03T12:06:56.454Z</time>
      </trkpt>
      <trkpt lat="42.14873" lon="24.78507">
        <ele>209.049252</ele>
        <time>2022-03-03T12:06:59.434Z</time>
      </trkpt>
      <trkpt lat="42.14874" lon="24.78492">
        <ele>209.039553</ele>
        <time>2022-03-03T12:07:02.432Z</time>
      </trkpt>
      <trkpt lat="42.14875" lon="24.78476">
        <ele>209.126699</ele>
        <time>2022-03-03T12:07:05.462Z</time>
      </trkpt>
      <trkpt lat="42.14876" lon="24.7846">
        <ele>209.679112</ele>
        <time>2022-03-03T12:07:08.421Z</time>
      </trkpt>
      <trkpt lat="42.14877" lon="24.78445">
        <ele>210.208702</ele>
        <time>2022-03-03T12:07:11.469Z</time>
      </trkpt>
      <trkpt lat="42.14879" lon="24.7843">
        <ele>210.769584</ele>
        <time>2022-03-03T12:07:14.422Z</time>
      </trkpt>
      <trkpt lat="42.1488" lon="24.78413">
        <ele>211.337994</ele>
        <time>2022-03-03T12:07:17.431Z</time>
      </trkpt>
      <trkpt lat="42.14881" lon="24.78397">
        <ele>211.928779</ele>
        <time>2022-03-03T12:07:20.426Z</time>
      </trkpt>
      <trkpt lat="42.14882" lon="24.78379">
        <ele>212.531749</ele>
        <time>2022-03-03T12:07:23.438Z</time>
      </trkpt>
      <trkpt lat="42.14883" lon="24.78364">
        <ele>213.0624</ele>
        <time>2022-03-03T12:07:26.430Z</time>
      </trkpt>
      <trkpt lat="42.14884" lon="24.7835">
        <ele>213.556078</ele>
        <time>2022-03-03T12:07:29.455Z</time>
      </trkpt>
      <trkpt lat="42.14886" lon="24.78335">
        <ele>214.092586</ele>
        <time>2022-03-03T12:07:32.430Z</time>
      </trkpt>
      <trkpt lat="42.14886" lon="24.78317">
        <ele>214.720058</ele>
        <time>2022-03-03T12:07:35.438Z</time>
      </trkpt>
      <trkpt lat="42.14887" lon="24.78305">
        <ele>215.165558</ele>
        <time>2022-03-03T12:07:37.438Z</time>
      </trkpt>
      <trkpt lat="42.14887" lon="24.78292">
        <ele>215.617833</ele>
        <time>2022-03-03T12:07:39.418Z</time>
      </trkpt>
      <trkpt lat="42.14888" lon="24.78275">
        <ele>216.218343</ele>
        <time>2022-03-03T12:07:42.435Z</time>
      </trkpt>
      <trkpt lat="42.1489" lon="24.78259">
        <ele>216.788007</ele>
        <time>2022-03-03T12:07:45.444Z</time>
      </trkpt>
      <trkpt lat="42.14892" lon="24.78245">
        <ele>217.279677</ele>
        <time>2022-03-03T12:07:48.463Z</time>
      </trkpt>
      <trkpt lat="42.14893" lon="24.78233">
        <ele>217.273411</ele>
        <time>2022-03-03T12:07:51.444Z</time>
      </trkpt>
      <trkpt lat="42.14894" lon="24.78219">
        <ele>216.592185</ele>
        <time>2022-03-03T12:07:54.419Z</time>
      </trkpt>
      <trkpt lat="42.14895" lon="24.78207">
        <ele>215.988</ele>
        <time>2022-03-03T12:07:57.427Z</time>
      </trkpt>
      <trkpt lat="42.14896" lon="24.78191">
        <ele>215.214877</ele>
        <time>2022-03-03T12:08:00.445Z</time>
      </trkpt>
      <trkpt lat="42.14898" lon="24.78174">
        <ele>214.382284</ele>
        <time>2022-03-03T12:08:03.488Z</time>
      </trkpt>
      <trkpt lat="42.149" lon="24.78157">
        <ele>213.540913</ele>
        <time>2022-03-03T12:08:06.427Z</time>
      </trkpt>
      <trkpt lat="42.14902" lon="24.7814">
        <ele>212.648388</ele>
        <time>2022-03-03T12:08:09.444Z</time>
      </trkpt>
      <trkpt lat="42.14903" lon="24.78127">
        <ele>212.041716</ele>
        <time>2022-03-03T12:08:11.444Z</time>
      </trkpt>
      <trkpt lat="42.14903" lon="24.78113">
        <ele>211.326834</ele>
        <time>2022-03-03T12:08:13.479Z</time>
      </trkpt>
      <trkpt lat="42.14904" lon="24.78097">
        <ele>210.549528</ele>
        <time>2022-03-03T12:08:16.465Z</time>
      </trkpt>
      <trkpt lat="42.14905" lon="24.78083">
        <ele>209.837828</ele>
        <time>2022-03-03T12:08:19.463Z</time>
      </trkpt>
      <trkpt lat="42.14907" lon="24.78068">
        <ele>209.107801</ele>
        <time>2022-03-03T12:08:22.429Z</time>
      </trkpt>
      <trkpt lat="42.1491" lon="24.78054">
        <ele>208.396782</ele>
        <time>2022-03-03T12:08:25.454Z</time>
      </trkpt>
      <trkpt lat="42.14911" lon="24.78037">
        <ele>207.530607</ele>
        <time>2022-03-03T12:08:28.433Z</time>
      </trkpt>
      <trkpt lat="42.14912" lon="24.78023">
        <ele>206.882683</ele>
        <time>2022-03-03T12:08:30.458Z</time>
      </trkpt>
      <trkpt lat="42.14913" lon="24.78011">
        <ele>206.245673</ele>
        <time>2022-03-03T12:08:32.448Z</time>
      </trkpt>
      <trkpt lat="42.14915" lon="24.77995">
        <ele>205.531121</ele>
        <time>2022-03-03T12:08:35.443Z</time>
      </trkpt>
      <trkpt lat="42.14916" lon="24.77979">
        <ele>205.106531</ele>
        <time>2022-03-03T12:08:38.479Z</time>
      </trkpt>
      <trkpt lat="42.14917" lon="24.77963">
        <ele>204.707781</ele>
        <time>2022-03-03T12:08:41.434Z</time>
      </trkpt>
      <trkpt lat="42.14918" lon="24.77951">
        <ele>204.379847</ele>
        <time>2022-03-03T12:08:44.432Z</time>
      </trkpt>
      <trkpt lat="42.14918" lon="24.77937">
        <ele>204.040668</ele>
        <time>2022-03-03T12:08:48.423Z</time>
      </trkpt>
      <trkpt lat="42.1492" lon="24.77924">
        <ele>203.694065</ele>
        <time>2022-03-03T12:08:53.461Z</time>
      </trkpt>
      <trkpt lat="42.14919" lon="24.7791">
        <ele>203.331844</ele>
        <time>2022-03-03T12:08:58.433Z</time>
      </trkpt>
      <trkpt lat="42.1492" lon="24.77897">
        <ele>203.006843</ele>
        <time>2022-03-03T12:09:01.437Z</time>
      </trkpt>
      <trkpt lat="42.1492" lon="24.77884">
        <ele>202.678104</ele>
        <time>2022-03-03T12:09:04.425Z</time>
      </trkpt>
      <trkpt lat="42.14921" lon="24.77871">
        <ele>202.32759</ele>
        <time>2022-03-03T12:09:07.496Z</time>
      </trkpt>
      <trkpt lat="42.14922" lon="24.77854">
        <ele>201.905826</ele>
        <time>2022-03-03T12:09:10.422Z</time>
      </trkpt>
      <trkpt lat="42.14922" lon="24.77838">
        <ele>201.487075</ele>
        <time>2022-03-03T12:09:13.430Z</time>
      </trkpt>
      <trkpt lat="42.14923" lon="24.77821">
        <ele>201.047146</ele>
        <time>2022-03-03T12:09:16.435Z</time>
      </trkpt>
      <trkpt lat="42.14924" lon="24.77804">
        <ele>200.603364</ele>
        <time>2022-03-03T12:09:19.481Z</time>
      </trkpt>
      <trkpt lat="42.14925" lon="24.77786">
        <ele>200.139181</ele>
        <time>2022-03-03T12:09:22.422Z</time>
      </trkpt>
      <trkpt lat="42.14926" lon="24.7777">
        <ele>199.721003</ele>
        <time>2022-03-03T12:09:25.389Z</time>
      </trkpt>
      <trkpt lat="42.14927" lon="24.77753">
        <ele>199.4012</ele>
        <time>2022-03-03T12:09:28.398Z</time>
      </trkpt>
      <trkpt lat="42.14929" lon="24.77735">
        <ele>199.681121</ele>
        <time>2022-03-03T12:09:31.420Z</time>
      </trkpt>
      <trkpt lat="42.1493" lon="24.77719">
        <ele>199.941303</ele>
        <time>2022-03-03T12:09:34.404Z</time>
      </trkpt>
      <trkpt lat="42.14932" lon="24.77704">
        <ele>200.180458</ele>
        <time>2022-03-03T12:09:37.410Z</time>
      </trkpt>
      <trkpt lat="42.14934" lon="24.77691">
        <ele>200.386527</ele>
        <time>2022-03-03T12:09:40.415Z</time>
      </trkpt>
      <trkpt lat="42.14934" lon="24.77676">
        <ele>200.618171</ele>
        <time>2022-03-03T12:09:43.460Z</time>
      </trkpt>
      <trkpt lat="42.14933" lon="24.77662">
        <ele>200.852936</ele>
        <time>2022-03-03T12:09:46.439Z</time>
      </trkpt>
      <trkpt lat="42.14933" lon="24.77646">
        <ele>201.097182</ele>
        <time>2022-03-03T12:09:49.438Z</time>
      </trkpt>
      <trkpt lat="42.14931" lon="24.77632">
        <ele>201.329555</ele>
        <time>2022-03-03T12:09:52.429Z</time>
      </trkpt>
      <trkpt lat="42.14929" lon="24.77617">
        <ele>201.561928</ele>
        <time>2022-03-03T12:09:55.410Z</time>
      </trkpt>
      <trkpt lat="42.14928" lon="24.77602">
        <ele>201.799631</ele>
        <time>2022-03-03T12:09:58.455Z</time>
      </trkpt>
      <trkpt lat="42.14926" lon="24.77586">
        <ele>202.061054</ele>
        <time>2022-03-03T12:10:01.443Z</time>
      </trkpt>
      <trkpt lat="42.14923" lon="24.77574">
        <ele>202.257127</ele>
        <time>2022-03-03T12:10:03.448Z</time>
      </trkpt>
      <trkpt lat="42.1492" lon="24.77558">
        <ele>202.521735</ele>
        <time>2022-03-03T12:10:06.430Z</time>
      </trkpt>
      <trkpt lat="42.14918" lon="24.77542">
        <ele>202.76362</ele>
        <time>2022-03-03T12:10:09.418Z</time>
      </trkpt>
      <trkpt lat="42.14919" lon="24.77528">
        <ele>202.991303</ele>
        <time>2022-03-03T12:10:12.423Z</time>
      </trkpt>
      <trkpt lat="42.14922" lon="24.77516">
        <ele>203.194692</ele>
        <time>2022-03-03T12:10:15.434Z</time>
      </trkpt>
      <trkpt lat="42.14925" lon="24.77504">
        <ele>203.552271</ele>
        <time>2022-03-03T12:10:18.442Z</time>
      </trkpt>
      <trkpt lat="42.14923" lon="24.7749">
        <ele>203.948018</ele>
        <time>2022-03-03T12:10:21.428Z</time>
      </trkpt>
      <trkpt lat="42.14921" lon="24.77476">
        <ele>204.366704</ele>
        <time>2022-03-03T12:10:24.426Z</time>
      </trkpt>
      <trkpt lat="42.14919" lon="24.77463">
        <ele>204.744531</ele>
        <time>2022-03-03T12:10:27.441Z</time>
      </trkpt>
      <trkpt lat="42.14916" lon="24.77448">
        <ele>205.180858</ele>
        <time>2022-03-03T12:10:30.451Z</time>
      </trkpt>
      <trkpt lat="42.14913" lon="24.77433">
        <ele>205.637637</ele>
        <time>2022-03-03T12:10:33.438Z</time>
      </trkpt>
      <trkpt lat="42.1491" lon="24.77418">
        <ele>206.097503</ele>
        <time>2022-03-03T12:10:36.454Z</time>
      </trkpt>
      <trkpt lat="42.14905" lon="24.77403">
        <ele>206.540188</ele>
        <time>2022-03-03T12:10:39.424Z</time>
      </trkpt>
      <trkpt lat="42.14901" lon="24.77388">
        <ele>206.998898</ele>
        <time>2022-03-03T12:10:42.456Z</time>
      </trkpt>
      <trkpt lat="42.14897" lon="24.77371">
        <ele>207.530502</ele>
        <time>2022-03-03T12:10:45.443Z</time>
      </trkpt>
      <trkpt lat="42.14893" lon="24.77353">
        <ele>208.04703</ele>
        <time>2022-03-03T12:10:48.437Z</time>
      </trkpt>
      <trkpt lat="42.1489" lon="24.77338">
        <ele>208.506897</ele>
        <time>2022-03-03T12:10:51.426Z</time>
      </trkpt>
      <trkpt lat="42.14887" lon="24.77322">
        <ele>208.976626</ele>
        <time>2022-03-03T12:10:54.439Z</time>
      </trkpt>
      <trkpt lat="42.14884" lon="24.77306">
        <ele>209.456295</ele>
        <time>2022-03-03T12:10:57.447Z</time>
      </trkpt>
      <trkpt lat="42.14881" lon="24.77294">
        <ele>209.817418</ele>
        <time>2022-03-03T12:10:59.431Z</time>
      </trkpt>
      <trkpt lat="42.14879" lon="24.77282">
        <ele>210.163348</ele>
        <time>2022-03-03T12:11:01.463Z</time>
      </trkpt>
      <trkpt lat="42.14876" lon="24.77267">
        <ele>210.527202</ele>
        <time>2022-03-03T12:11:04.422Z</time>
      </trkpt>
      <trkpt lat="42.14874" lon="24.77252">
        <ele>210.901158</ele>
        <time>2022-03-03T12:11:07.446Z</time>
      </trkpt>
      <trkpt lat="42.14871" lon="24.77235">
        <ele>211.320052</ele>
        <time>2022-03-03T12:11:10.459Z</time>
      </trkpt>
      <trkpt lat="42.14872" lon="24.77223">
        <ele>211.62708</ele>
        <time>2022-03-03T12:11:12.432Z</time>
      </trkpt>
      <trkpt lat="42.14868" lon="24.77206">
        <ele>212.036346</ele>
        <time>2022-03-03T12:11:15.433Z</time>
      </trkpt>
      <trkpt lat="42.14865" lon="24.77192">
        <ele>212.410527</ele>
        <time>2022-03-03T12:11:18.447Z</time>
      </trkpt>
      <trkpt lat="42.14862" lon="24.77175">
        <ele>212.815682</ele>
        <time>2022-03-03T12:11:21.456Z</time>
      </trkpt>
      <trkpt lat="42.14858" lon="24.7716">
        <ele>213.200377</ele>
        <time>2022-03-03T12:11:24.423Z</time>
      </trkpt>
      <trkpt lat="42.14856" lon="24.77143">
        <ele>213.630738</ele>
        <time>2022-03-03T12:11:27.428Z</time>
      </trkpt>
      <trkpt lat="42.14854" lon="24.77131">
        <ele>213.927974</ele>
        <time>2022-03-03T12:11:29.422Z</time>
      </trkpt>
      <trkpt lat="42.14851" lon="24.77117">
        <ele>214.262642</ele>
        <time>2022-03-03T12:11:32.448Z</time>
      </trkpt>
      <trkpt lat="42.1485" lon="24.77105">
        <ele>214.572084</ele>
        <time>2022-03-03T12:11:35.415Z</time>
      </trkpt>
      <trkpt lat="42.14846" lon="24.77089">
        <ele>214.96651</ele>
        <time>2022-03-03T12:11:39.435Z</time>
      </trkpt>
      <trkpt lat="42.14844" lon="24.77076">
        <ele>215.280147</ele>
        <time>2022-03-03T12:11:42.421Z</time>
      </trkpt>
      <trkpt lat="42.14842" lon="24.77064">
        <ele>215.582144</ele>
        <time>2022-03-03T12:11:45.433Z</time>
      </trkpt>
      <trkpt lat="42.14838" lon="24.77051">
        <ele>215.925492</ele>
        <time>2022-03-03T12:11:48.440Z</time>
      </trkpt>
      <trkpt lat="42.14834" lon="24.77035">
        <ele>215.551607</ele>
        <time>2022-03-03T12:11:51.441Z</time>
      </trkpt>
      <trkpt lat="42.14832" lon="24.77021">
        <ele>215.076169</ele>
        <time>2022-03-03T12:11:53.423Z</time>
      </trkpt>
      <trkpt lat="42.1483" lon="24.77007">
        <ele>214.608706</ele>
        <time>2022-03-03T12:11:55.444Z</time>
      </trkpt>
      <trkpt lat="42.14828" lon="24.76994">
        <ele>214.167675</ele>
        <time>2022-03-03T12:11:57.469Z</time>
      </trkpt>
      <trkpt lat="42.14826" lon="24.76982">
        <ele>213.752863</ele>
        <time>2022-03-03T12:11:59.466Z</time>
      </trkpt>
      <trkpt lat="42.14823" lon="24.76966">
        <ele>213.200424</ele>
        <time>2022-03-03T12:12:02.428Z</time>
      </trkpt>
      <trkpt lat="42.14821" lon="24.7695">
        <ele>212.630238</ele>
        <time>2022-03-03T12:12:05.438Z</time>
      </trkpt>
      <trkpt lat="42.14818" lon="24.76935">
        <ele>212.138479</ele>
        <time>2022-03-03T12:12:08.477Z</time>
      </trkpt>
      <trkpt lat="42.14815" lon="24.7692">
        <ele>211.608412</ele>
        <time>2022-03-03T12:12:11.431Z</time>
      </trkpt>
      <trkpt lat="42.14812" lon="24.76904">
        <ele>211.052708</ele>
        <time>2022-03-03T12:12:14.440Z</time>
      </trkpt>
      <trkpt lat="42.14809" lon="24.76891">
        <ele>210.609806</ele>
        <time>2022-03-03T12:12:16.437Z</time>
      </trkpt>
      <trkpt lat="42.14806" lon="24.76877">
        <ele>210.123317</ele>
        <time>2022-03-03T12:12:18.447Z</time>
      </trkpt>
      <trkpt lat="42.14804" lon="24.76864">
        <ele>209.672686</ele>
        <time>2022-03-03T12:12:20.418Z</time>
      </trkpt>
      <trkpt lat="42.148" lon="24.76848">
        <ele>209.11309</ele>
        <time>2022-03-03T12:12:23.450Z</time>
      </trkpt>
      <trkpt lat="42.14797" lon="24.76832">
        <ele>208.550852</ele>
        <time>2022-03-03T12:12:26.444Z</time>
      </trkpt>
      <trkpt lat="42.14795" lon="24.76816">
        <ele>207.994139</ele>
        <time>2022-03-03T12:12:29.443Z</time>
      </trkpt>
      <trkpt lat="42.14792" lon="24.768">
        <ele>208.007403</ele>
        <time>2022-03-03T12:12:32.454Z</time>
      </trkpt>
      <trkpt lat="42.1479" lon="24.76783">
        <ele>208.16385</ele>
        <time>2022-03-03T12:12:35.464Z</time>
      </trkpt>
      <trkpt lat="42.14788" lon="24.76766">
        <ele>208.331303</ele>
        <time>2022-03-03T12:12:38.439Z</time>
      </trkpt>
      <trkpt lat="42.14784" lon="24.76749">
        <ele>208.493357</ele>
        <time>2022-03-03T12:12:41.430Z</time>
      </trkpt>
      <trkpt lat="42.14781" lon="24.76734">
        <ele>208.640313</ele>
        <time>2022-03-03T12:12:44.449Z</time>
      </trkpt>
      <trkpt lat="42.14778" lon="24.76719">
        <ele>208.790316</ele>
        <time>2022-03-03T12:12:47.439Z</time>
      </trkpt>
      <trkpt lat="42.14775" lon="24.76704">
        <ele>208.934933</ele>
        <time>2022-03-03T12:12:50.501Z</time>
      </trkpt>
      <trkpt lat="42.14772" lon="24.76687">
        <ele>209.092997</ele>
        <time>2022-03-03T12:12:53.430Z</time>
      </trkpt>
      <trkpt lat="42.14769" lon="24.76672">
        <ele>209.245308</ele>
        <time>2022-03-03T12:12:56.496Z</time>
      </trkpt>
      <trkpt lat="42.14766" lon="24.76657">
        <ele>209.39012</ele>
        <time>2022-03-03T12:12:59.429Z</time>
      </trkpt>
      <trkpt lat="42.14762" lon="24.76642">
        <ele>209.536762</ele>
        <time>2022-03-03T12:13:02.447Z</time>
      </trkpt>
      <trkpt lat="42.14758" lon="24.76627">
        <ele>209.680739</ele>
        <time>2022-03-03T12:13:05.448Z</time>
      </trkpt>
      <trkpt lat="42.14755" lon="24.7661">
        <ele>209.848681</ele>
        <time>2022-03-03T12:13:08.444Z</time>
      </trkpt>
      <trkpt lat="42.14751" lon="24.76595">
        <ele>209.997247</ele>
        <time>2022-03-03T12:13:11.466Z</time>
      </trkpt>
      <trkpt lat="42.14748" lon="24.76578">
        <ele>210.155618</ele>
        <time>2022-03-03T12:13:14.429Z</time>
      </trkpt>
      <trkpt lat="42.14746" lon="24.76562">
        <ele>210.548115</ele>
        <time>2022-03-03T12:13:17.438Z</time>
      </trkpt>
      <trkpt lat="42.14744" lon="24.76547">
        <ele>210.901844</ele>
        <time>2022-03-03T12:13:20.467Z</time>
      </trkpt>
      <trkpt lat="42.14741" lon="24.76533">
        <ele>211.234976</ele>
        <time>2022-03-03T12:13:23.438Z</time>
      </trkpt>
      <trkpt lat="42.14739" lon="24.76517">
        <ele>211.595633</ele>
        <time>2022-03-03T12:13:27.436Z</time>
      </trkpt>
      <trkpt lat="42.14738" lon="24.76505">
        <ele>211.881718</ele>
        <time>2022-03-03T12:13:30.447Z</time>
      </trkpt>
      <trkpt lat="42.14734" lon="24.7649">
        <ele>212.25048</ele>
        <time>2022-03-03T12:13:34.423Z</time>
      </trkpt>
      <trkpt lat="42.1473" lon="24.76478">
        <ele>212.545665</ele>
        <time>2022-03-03T12:13:37.433Z</time>
      </trkpt>
      <trkpt lat="42.14727" lon="24.76466">
        <ele>212.860349</ele>
        <time>2022-03-03T12:13:40.438Z</time>
      </trkpt>
      <trkpt lat="42.14722" lon="24.76451">
        <ele>213.220955</ele>
        <time>2022-03-03T12:13:43.427Z</time>
      </trkpt>
      <trkpt lat="42.14718" lon="24.76436">
        <ele>213.591006</ele>
        <time>2022-03-03T12:13:46.445Z</time>
      </trkpt>
      <trkpt lat="42.14714" lon="24.7642">
        <ele>213.98718</ele>
        <time>2022-03-03T12:13:49.417Z</time>
      </trkpt>
      <trkpt lat="42.14713" lon="24.76407">
        <ele>214.290642</ele>
        <time>2022-03-03T12:13:51.454Z</time>
      </trkpt>
      <trkpt lat="42.14713" lon="24.76394">
        <ele>214.589328</ele>
        <time>2022-03-03T12:13:53.440Z</time>
      </trkpt>
      <trkpt lat="42.1471" lon="24.76378">
        <ele>214.957902</ele>
        <time>2022-03-03T12:13:56.433Z</time>
      </trkpt>
      <trkpt lat="42.1471" lon="24.76366">
        <ele>215.249537</ele>
        <time>2022-03-03T12:14:00.441Z</time>
      </trkpt>
      <trkpt lat="42.14712" lon="24.76351">
        <ele>215.597557</ele>
        <time>2022-03-03T12:14:13.472Z</time>
      </trkpt>
      <trkpt lat="42.14708" lon="24.76312">
        <ele>217.145437</ele>
        <time>2022-03-03T12:15:03.470Z</time>
      </trkpt>
      <trkpt lat="42.14702" lon="24.763">
        <ele>217.729339</ele>
        <time>2022-03-03T12:15:06.433Z</time>
      </trkpt>
      <trkpt lat="42.14696" lon="24.76288">
        <ele>218.327502</ele>
        <time>2022-03-03T12:15:09.425Z</time>
      </trkpt>
      <trkpt lat="42.14693" lon="24.76276">
        <ele>218.856909</ele>
        <time>2022-03-03T12:15:12.424Z</time>
      </trkpt>
      <trkpt lat="42.1469" lon="24.76262">
        <ele>219.513591</ele>
        <time>2022-03-03T12:15:16.418Z</time>
      </trkpt>
      <trkpt lat="42.14688" lon="24.7625">
        <ele>220.03557</ele>
        <time>2022-03-03T12:15:19.432Z</time>
      </trkpt>
      <trkpt lat="42.14684" lon="24.76235">
        <ele>220.700267</ele>
        <time>2022-03-03T12:15:23.443Z</time>
      </trkpt>
      <trkpt lat="42.14679" lon="24.76221">
        <ele>221.383841</ele>
        <time>2022-03-03T12:15:27.443Z</time>
      </trkpt>
      <trkpt lat="42.14672" lon="24.76211">
        <ele>221.908336</ele>
        <time>2022-03-03T12:15:30.423Z</time>
      </trkpt>
      <trkpt lat="42.14667" lon="24.762">
        <ele>222.489624</ele>
        <time>2022-03-03T12:15:34.427Z</time>
      </trkpt>
      <trkpt lat="42.14664" lon="24.76187">
        <ele>223.076793</ele>
        <time>2022-03-03T12:15:37.425Z</time>
      </trkpt>
      <trkpt lat="42.14661" lon="24.76174">
        <ele>223.638425</ele>
        <time>2022-03-03T12:15:40.428Z</time>
      </trkpt>
      <trkpt lat="42.14658" lon="24.76162">
        <ele>224.181736</ele>
        <time>2022-03-03T12:15:43.466Z</time>
      </trkpt>
      <trkpt lat="42.14656" lon="24.76149">
        <ele>224.733607</ele>
        <time>2022-03-03T12:15:46.433Z</time>
      </trkpt>
      <trkpt lat="42.14654" lon="24.76134">
        <ele>225.400349</ele>
        <time>2022-03-03T12:15:49.436Z</time>
      </trkpt>
      <trkpt lat="42.1465" lon="24.76118">
        <ele>226.084326</ele>
        <time>2022-03-03T12:15:52.447Z</time>
      </trkpt>
      <trkpt lat="42.14645" lon="24.76105">
        <ele>226.417738</ele>
        <time>2022-03-03T12:15:56.445Z</time>
      </trkpt>
      <trkpt lat="42.14645" lon="24.76092">
        <ele>226.726574</ele>
        <time>2022-03-03T12:16:03.428Z</time>
      </trkpt>
      <trkpt lat="42.1464" lon="24.76081">
        <ele>227.045935</ele>
        <time>2022-03-03T12:16:08.430Z</time>
      </trkpt>
      <trkpt lat="42.14642" lon="24.76069">
        <ele>227.337426</ele>
        <time>2022-03-03T12:16:11.443Z</time>
      </trkpt>
      <trkpt lat="42.14647" lon="24.76057">
        <ele>227.672203</ele>
        <time>2022-03-03T12:16:16.453Z</time>
      </trkpt>
      <trkpt lat="42.14655" lon="24.76048">
        <ele>228.008999</ele>
        <time>2022-03-03T12:16:19.425Z</time>
      </trkpt>
      <trkpt lat="42.14664" lon="24.76037">
        <ele>228.392703</ele>
        <time>2022-03-03T12:16:22.427Z</time>
      </trkpt>
      <trkpt lat="42.14673" lon="24.76025">
        <ele>228.809028</ele>
        <time>2022-03-03T12:16:25.451Z</time>
      </trkpt>
      <trkpt lat="42.14682" lon="24.76019">
        <ele>229.132527</ele>
        <time>2022-03-03T12:16:29.464Z</time>
      </trkpt>
      <trkpt lat="42.1469" lon="24.76011">
        <ele>229.434904</ele>
        <time>2022-03-03T12:16:35.429Z</time>
      </trkpt>
      <trkpt lat="42.14699" lon="24.76004">
        <ele>229.786397</ele>
        <time>2022-03-03T12:16:40.427Z</time>
      </trkpt>
      <trkpt lat="42.14708" lon="24.75996">
        <ele>230.117217</ele>
        <time>2022-03-03T12:16:46.445Z</time>
      </trkpt>
      <trkpt lat="42.14717" lon="24.75995">
        <ele>230.416132</ele>
        <time>2022-03-03T12:16:49.438Z</time>
      </trkpt>
      <trkpt lat="42.14727" lon="24.75997">
        <ele>230.737602</ele>
        <time>2022-03-03T12:16:53.459Z</time>
      </trkpt>
      <trkpt lat="42.14736" lon="24.75991">
        <ele>231.059262</ele>
        <time>2022-03-03T12:16:57.491Z</time>
      </trkpt>
      <trkpt lat="42.14747" lon="24.75986">
        <ele>231.422864</ele>
        <time>2022-03-03T12:17:02.448Z</time>
      </trkpt>
      <trkpt lat="42.14757" lon="24.75982">
        <ele>231.753794</ele>
        <time>2022-03-03T12:17:07.471Z</time>
      </trkpt>
      <trkpt lat="42.14766" lon="24.75978">
        <ele>231.321805</ele>
        <time>2022-03-03T12:17:12.496Z</time>
      </trkpt>
      <trkpt lat="42.14767" lon="24.75965">
        <ele>230.675684</ele>
        <time>2022-03-03T12:17:16.427Z</time>
      </trkpt>
      <trkpt lat="42.14769" lon="24.7595">
        <ele>229.91881</ele>
        <time>2022-03-03T12:17:21.429Z</time>
      </trkpt>
      <trkpt lat="42.1477" lon="24.75934">
        <ele>229.140051</ele>
        <time>2022-03-03T12:17:25.438Z</time>
      </trkpt>
      <trkpt lat="42.14769" lon="24.75921">
        <ele>228.466216</ele>
        <time>2022-03-03T12:17:29.469Z</time>
      </trkpt>
      <trkpt lat="42.14767" lon="24.75909">
        <ele>227.859462</ele>
        <time>2022-03-03T12:17:33.446Z</time>
      </trkpt>
      <trkpt lat="42.14771" lon="24.75895">
        <ele>227.120171</ele>
        <time>2022-03-03T12:17:37.429Z</time>
      </trkpt>
      <trkpt lat="42.14774" lon="24.75881">
        <ele>226.399779</ele>
        <time>2022-03-03T12:17:41.516Z</time>
      </trkpt>
      <trkpt lat="42.14771" lon="24.75868">
        <ele>225.765915</ele>
        <time>2022-03-03T12:17:44.429Z</time>
      </trkpt>
      <trkpt lat="42.1477" lon="24.75855">
        <ele>225.073693</ele>
        <time>2022-03-03T12:17:47.439Z</time>
      </trkpt>
      <trkpt lat="42.14767" lon="24.7584">
        <ele>224.326734</ele>
        <time>2022-03-03T12:17:50.469Z</time>
      </trkpt>
      <trkpt lat="42.1476" lon="24.75828">
        <ele>223.554348</ele>
        <time>2022-03-03T12:17:53.459Z</time>
      </trkpt>
      <trkpt lat="42.14753" lon="24.75816">
        <ele>222.785899</ele>
        <time>2022-03-03T12:17:57.494Z</time>
      </trkpt>
      <trkpt lat="42.14747" lon="24.75804">
        <ele>222.119041</ele>
        <time>2022-03-03T12:18:00.438Z</time>
      </trkpt>
      <trkpt lat="42.14742" lon="24.75789">
        <ele>221.302163</ele>
        <time>2022-03-03T12:18:04.429Z</time>
      </trkpt>
      <trkpt lat="42.14735" lon="24.75778">
        <ele>220.56751</ele>
        <time>2022-03-03T12:18:08.426Z</time>
      </trkpt>
      <trkpt lat="42.14727" lon="24.75769">
        <ele>219.839019</ele>
        <time>2022-03-03T12:18:12.410Z</time>
      </trkpt>
      <trkpt lat="42.14723" lon="24.75757">
        <ele>219.87116</ele>
        <time>2022-03-03T12:18:15.422Z</time>
      </trkpt>
      <trkpt lat="42.14722" lon="24.75742">
        <ele>219.955886</ele>
        <time>2022-03-03T12:18:19.433Z</time>
      </trkpt>
      <trkpt lat="42.14719" lon="24.75729">
        <ele>220.032175</ele>
        <time>2022-03-03T12:18:23.455Z</time>
      </trkpt>
      <trkpt lat="42.14719" lon="24.75716">
        <ele>220.104547</ele>
        <time>2022-03-03T12:18:27.460Z</time>
      </trkpt>
      <trkpt lat="42.1472" lon="24.75701">
        <ele>220.189852</ele>
        <time>2022-03-03T12:18:32.433Z</time>
      </trkpt>
      <trkpt lat="42.14719" lon="24.75687">
        <ele>220.266185</ele>
        <time>2022-03-03T12:18:36.453Z</time>
      </trkpt>
      <trkpt lat="42.14717" lon="24.75672">
        <ele>220.350723</ele>
        <time>2022-03-03T12:18:40.439Z</time>
      </trkpt>
      <trkpt lat="42.14716" lon="24.75657">
        <ele>220.435845</ele>
        <time>2022-03-03T12:18:44.517Z</time>
      </trkpt>
      <trkpt lat="42.14716" lon="24.75642">
        <ele>220.518931</ele>
        <time>2022-03-03T12:18:47.425Z</time>
      </trkpt>
      <trkpt lat="42.14717" lon="24.75629">
        <ele>220.591623</ele>
        <time>2022-03-03T12:18:50.427Z</time>
      </trkpt>
      <trkpt lat="42.14717" lon="24.75617">
        <ele>220.661767</ele>
        <time>2022-03-03T12:18:54.455Z</time>
      </trkpt>
      <trkpt lat="42.14717" lon="24.75604">
        <ele>220.734155</ele>
        <time>2022-03-03T12:18:57.449Z</time>
      </trkpt>
      <trkpt lat="42.1472" lon="24.75591">
        <ele>220.807635</ele>
        <time>2022-03-03T12:19:01.439Z</time>
      </trkpt>
      <trkpt lat="42.14722" lon="24.75577">
        <ele>220.88777</ele>
        <time>2022-03-03T12:19:05.479Z</time>
      </trkpt>
      <trkpt lat="42.14726" lon="24.75563">
        <ele>220.973854</ele>
        <time>2022-03-03T12:19:09.431Z</time>
      </trkpt>
      <trkpt lat="42.1473" lon="24.75551">
        <ele>221.046668</ele>
        <time>2022-03-03T12:19:13.449Z</time>
      </trkpt>
      <trkpt lat="42.14733" lon="24.75539">
        <ele>221.122517</ele>
        <time>2022-03-03T12:19:18.433Z</time>
      </trkpt>
      <trkpt lat="42.14736" lon="24.75526">
        <ele>221.391441</ele>
        <time>2022-03-03T12:19:23.426Z</time>
      </trkpt>
      <trkpt lat="42.14737" lon="24.75513">
        <ele>221.932649</ele>
        <time>2022-03-03T12:19:28.442Z</time>
      </trkpt>
      <trkpt lat="42.14725" lon="24.75482">
        <ele>223.330059</ele>
        <time>2022-03-03T12:20:12.439Z</time>
      </trkpt>
      <trkpt lat="42.14717" lon="24.75476">
        <ele>223.855245</ele>
        <time>2022-03-03T12:20:16.454Z</time>
      </trkpt>
      <trkpt lat="42.14707" lon="24.7547">
        <ele>224.427789</ele>
        <time>2022-03-03T12:20:20.455Z</time>
      </trkpt>
      <trkpt lat="42.14697" lon="24.75466">
        <ele>225.035592</ele>
        <time>2022-03-03T12:20:24.466Z</time>
      </trkpt>
      <trkpt lat="42.14687" lon="24.75461">
        <ele>225.58788</ele>
        <time>2022-03-03T12:20:28.453Z</time>
      </trkpt>
      <trkpt lat="42.14677" lon="24.75454">
        <ele>226.200573</ele>
        <time>2022-03-03T12:20:33.418Z</time>
      </trkpt>
      <trkpt lat="42.14664" lon="24.75448">
        <ele>226.969803</ele>
        <time>2022-03-03T12:20:36.431Z</time>
      </trkpt>
      <trkpt lat="42.14654" lon="24.75444">
        <ele>227.562909</ele>
        <time>2022-03-03T12:20:38.418Z</time>
      </trkpt>
      <trkpt lat="42.14644" lon="24.75436">
        <ele>228.181223</ele>
        <time>2022-03-03T12:20:41.442Z</time>
      </trkpt>
      <trkpt lat="42.14636" lon="24.75429">
        <ele>228.692509</ele>
        <time>2022-03-03T12:20:44.431Z</time>
      </trkpt>
      <trkpt lat="42.14643" lon="24.75421">
        <ele>229.192759</ele>
        <time>2022-03-03T12:20:55.426Z</time>
      </trkpt>
      <trkpt lat="42.14653" lon="24.75418">
        <ele>229.747509</ele>
        <time>2022-03-03T12:21:04.435Z</time>
      </trkpt>
      <trkpt lat="42.14674" lon="24.75405">
        <ele>230.975374</ele>
        <time>2022-03-03T12:21:38.417Z</time>
      </trkpt>
      <trkpt lat="42.14682" lon="24.75401">
        <ele>230.975374</ele>
        <time>2022-03-03T12:21:46.434Z</time>
      </trkpt>
      <trkpt lat="42.14691" lon="24.75397">
        <ele>230.975374</ele>
        <time>2022-03-03T12:21:51.415Z</time>
      </trkpt>
      <trkpt lat="42.147" lon="24.75393">
        <ele>230.975374</ele>
        <time>2022-03-03T12:21:58.418Z</time>
      </trkpt>
      <trkpt lat="42.14709" lon="24.75391">
        <ele>230.975374</ele>
        <time>2022-03-03T12:22:08.420Z</time>
      </trkpt>
      <trkpt lat="42.14718" lon="24.75396">
        <ele>230.975374</ele>
        <time>2022-03-03T12:22:19.437Z</time>
      </trkpt>
      <trkpt lat="42.14727" lon="24.754">
        <ele>230.975374</ele>
        <time>2022-03-03T12:22:33.398Z</time>
      </trkpt>
      <trkpt lat="42.14725" lon="24.75383">
        <ele>230.975374</ele>
        <time>2022-03-03T12:24:33.475Z</time>
      </trkpt>
      <trkpt lat="42.14731" lon="24.75394">
        <ele>230.975374</ele>
        <time>2022-03-03T12:24:46.418Z</time>
      </trkpt>
      <trkpt lat="42.14729" lon="24.75415">
        <ele>230.975374</ele>
        <time>2022-03-03T12:25:20.429Z</time>
      </trkpt>
      <trkpt lat="42.14731" lon="24.75375">
        <ele>230.975374</ele>
        <time>2022-03-03T12:29:32.427Z</time>
      </trkpt>
      <trkpt lat="42.1473" lon="24.75404">
        <ele>230.975374</ele>
        <time>2022-03-03T12:44:10.295Z</time>
      </trkpt>
    </trkseg>
  </trk>
</gpx>